<?xml version="1.0" encoding="UTF-8" standalone="no" ?>
<gpx xmlns="http://www.topografix.com/GPX/1/1" xmlns:xsi="http://www.w3.org/2001/XMLSchema-instance" xsi:schemaLocation="http://www.topografix.com/GPX/1/1 http://www.topografix.com/GPX/1/1/gpx.xsd" version="1.1" creator="VisuGPX - https://www.visugpx.com">
  <metadata>
    <name>Bernin-chapareillan-col du granier-col du cucheron-col du coq-bernin</name>
    <desc><![CDATA[File with points/tracks from Locus Map/3.49.0]]></desc>
  </metadata>
  <trk>
    <name><![CDATA[2020-10-19 09:46:23]]></name>
    <desc><![CDATA[Granier]]></desc>
    <extensions>
      <line xmlns="http://www.topografix.com/GPX/gpx_style/0/2">
        <color>0000FF</color>
        <opacity>0.59</opacity>
        <width>6.0</width>
      </line>
    </extensions>
    <trkseg>
      <trkpt lat="45.26489" lon="5.87718">
        <ele>233.28</ele>
        <time>2020-10-19T07:46:33.000Z</time>
      </trkpt>
      <trkpt lat="45.26484" lon="5.87731">
        <ele>231.92</ele>
        <time>2020-10-19T07:49:36.000Z</time>
      </trkpt>
      <trkpt lat="45.26462" lon="5.87762">
        <ele>233.27</ele>
        <time>2020-10-19T07:49:41.000Z</time>
      </trkpt>
      <trkpt lat="45.26449" lon="5.87789">
        <ele>229.6</ele>
        <time>2020-10-19T07:49:46.000Z</time>
      </trkpt>
      <trkpt lat="45.26438" lon="5.87808">
        <ele>230.53</ele>
        <time>2020-10-19T07:49:51.000Z</time>
      </trkpt>
      <trkpt lat="45.2643" lon="5.87815">
        <ele>233.04</ele>
        <time>2020-10-19T07:49:59.000Z</time>
      </trkpt>
      <trkpt lat="45.26424" lon="5.8783">
        <ele>233.56</ele>
        <time>2020-10-19T07:50:04.000Z</time>
      </trkpt>
      <trkpt lat="45.2642" lon="5.87856">
        <ele>234.53</ele>
        <time>2020-10-19T07:50:09.000Z</time>
      </trkpt>
      <trkpt lat="45.26427" lon="5.8788">
        <ele>233.78</ele>
        <time>2020-10-19T07:50:14.000Z</time>
      </trkpt>
      <trkpt lat="45.26439" lon="5.87904">
        <ele>236.02</ele>
        <time>2020-10-19T07:50:19.000Z</time>
      </trkpt>
      <trkpt lat="45.26444" lon="5.87935">
        <ele>237.01</ele>
        <time>2020-10-19T07:50:24.000Z</time>
      </trkpt>
      <trkpt lat="45.26446" lon="5.87966">
        <ele>238.35</ele>
        <time>2020-10-19T07:50:29.000Z</time>
      </trkpt>
      <trkpt lat="45.26449" lon="5.87999">
        <ele>238.52</ele>
        <time>2020-10-19T07:50:34.000Z</time>
      </trkpt>
      <trkpt lat="45.26451" lon="5.8803">
        <ele>240.99</ele>
        <time>2020-10-19T07:50:39.000Z</time>
      </trkpt>
      <trkpt lat="45.2646" lon="5.88055">
        <ele>239.56</ele>
        <time>2020-10-19T07:50:44.000Z</time>
      </trkpt>
      <trkpt lat="45.26471" lon="5.88087">
        <ele>238.4</ele>
        <time>2020-10-19T07:50:49.000Z</time>
      </trkpt>
      <trkpt lat="45.26488" lon="5.88123">
        <ele>235.07</ele>
        <time>2020-10-19T07:50:54.000Z</time>
      </trkpt>
      <trkpt lat="45.26513" lon="5.88158">
        <ele>233.34</ele>
        <time>2020-10-19T07:50:59.000Z</time>
      </trkpt>
      <trkpt lat="45.26535" lon="5.88186">
        <ele>233.47</ele>
        <time>2020-10-19T07:51:04.000Z</time>
      </trkpt>
      <trkpt lat="45.26558" lon="5.88212">
        <ele>236</ele>
        <time>2020-10-19T07:51:09.000Z</time>
      </trkpt>
      <trkpt lat="45.26574" lon="5.88234">
        <ele>233.31</ele>
        <time>2020-10-19T07:51:14.000Z</time>
      </trkpt>
      <trkpt lat="45.2659" lon="5.88255">
        <ele>234.82</ele>
        <time>2020-10-19T07:51:19.000Z</time>
      </trkpt>
      <trkpt lat="45.26605" lon="5.88279">
        <ele>233.89</ele>
        <time>2020-10-19T07:51:24.000Z</time>
      </trkpt>
      <trkpt lat="45.26616" lon="5.88311">
        <ele>234.83</ele>
        <time>2020-10-19T07:51:29.000Z</time>
      </trkpt>
      <trkpt lat="45.26626" lon="5.88342">
        <ele>236.14</ele>
        <time>2020-10-19T07:51:34.000Z</time>
      </trkpt>
      <trkpt lat="45.26639" lon="5.88372">
        <ele>236.08</ele>
        <time>2020-10-19T07:51:39.000Z</time>
      </trkpt>
      <trkpt lat="45.26657" lon="5.88398">
        <ele>240.05</ele>
        <time>2020-10-19T07:51:44.000Z</time>
      </trkpt>
      <trkpt lat="45.26678" lon="5.88423">
        <ele>238</ele>
        <time>2020-10-19T07:51:49.000Z</time>
      </trkpt>
      <trkpt lat="45.26693" lon="5.88457">
        <ele>238.5</ele>
        <time>2020-10-19T07:51:54.000Z</time>
      </trkpt>
      <trkpt lat="45.26691" lon="5.88495">
        <ele>239.32</ele>
        <time>2020-10-19T07:51:59.000Z</time>
      </trkpt>
      <trkpt lat="45.26693" lon="5.88534">
        <ele>237.99</ele>
        <time>2020-10-19T07:52:04.000Z</time>
      </trkpt>
      <trkpt lat="45.26708" lon="5.88569">
        <ele>237.72</ele>
        <time>2020-10-19T07:52:09.000Z</time>
      </trkpt>
      <trkpt lat="45.26726" lon="5.88601">
        <ele>234.54</ele>
        <time>2020-10-19T07:52:14.000Z</time>
      </trkpt>
      <trkpt lat="45.26741" lon="5.88633">
        <ele>232.15</ele>
        <time>2020-10-19T07:52:19.000Z</time>
      </trkpt>
      <trkpt lat="45.26742" lon="5.88669">
        <ele>234.47</ele>
        <time>2020-10-19T07:52:24.000Z</time>
      </trkpt>
      <trkpt lat="45.26754" lon="5.88704">
        <ele>234.63</ele>
        <time>2020-10-19T07:52:29.000Z</time>
      </trkpt>
      <trkpt lat="45.2677" lon="5.88731">
        <ele>230.89</ele>
        <time>2020-10-19T07:52:34.000Z</time>
      </trkpt>
      <trkpt lat="45.26788" lon="5.88743">
        <ele>231.21</ele>
        <time>2020-10-19T07:52:39.000Z</time>
      </trkpt>
      <trkpt lat="45.26809" lon="5.88757">
        <ele>230.65</ele>
        <time>2020-10-19T07:52:44.000Z</time>
      </trkpt>
      <trkpt lat="45.26817" lon="5.88791">
        <ele>230.99</ele>
        <time>2020-10-19T07:52:49.000Z</time>
      </trkpt>
      <trkpt lat="45.26825" lon="5.88831">
        <ele>232.68</ele>
        <time>2020-10-19T07:52:54.000Z</time>
      </trkpt>
      <trkpt lat="45.26836" lon="5.88869">
        <ele>227.79</ele>
        <time>2020-10-19T07:52:59.000Z</time>
      </trkpt>
      <trkpt lat="45.26841" lon="5.88904">
        <ele>229.78</ele>
        <time>2020-10-19T07:53:04.000Z</time>
      </trkpt>
      <trkpt lat="45.2685" lon="5.88938">
        <ele>230.52</ele>
        <time>2020-10-19T07:53:09.000Z</time>
      </trkpt>
      <trkpt lat="45.26863" lon="5.88971">
        <ele>232.92</ele>
        <time>2020-10-19T07:53:14.000Z</time>
      </trkpt>
      <trkpt lat="45.26882" lon="5.88995">
        <ele>234.28</ele>
        <time>2020-10-19T07:53:19.000Z</time>
      </trkpt>
      <trkpt lat="45.26899" lon="5.89014">
        <ele>233.78</ele>
        <time>2020-10-19T07:53:24.000Z</time>
      </trkpt>
      <trkpt lat="45.26921" lon="5.89036">
        <ele>231.93</ele>
        <time>2020-10-19T07:53:29.000Z</time>
      </trkpt>
      <trkpt lat="45.2694" lon="5.89056">
        <ele>230.97</ele>
        <time>2020-10-19T07:53:34.000Z</time>
      </trkpt>
      <trkpt lat="45.26962" lon="5.89081">
        <ele>229.61</ele>
        <time>2020-10-19T07:53:39.000Z</time>
      </trkpt>
      <trkpt lat="45.2698" lon="5.89106">
        <ele>232.98</ele>
        <time>2020-10-19T07:53:44.000Z</time>
      </trkpt>
      <trkpt lat="45.26997" lon="5.89132">
        <ele>235.84</ele>
        <time>2020-10-19T07:53:49.000Z</time>
      </trkpt>
      <trkpt lat="45.2701" lon="5.89164">
        <ele>233.84</ele>
        <time>2020-10-19T07:53:54.000Z</time>
      </trkpt>
      <trkpt lat="45.27023" lon="5.892">
        <ele>232.6</ele>
        <time>2020-10-19T07:53:59.000Z</time>
      </trkpt>
      <trkpt lat="45.27045" lon="5.89207">
        <ele>233.67</ele>
        <time>2020-10-19T07:54:04.000Z</time>
      </trkpt>
      <trkpt lat="45.2707" lon="5.89208">
        <ele>233.17</ele>
        <time>2020-10-19T07:54:09.000Z</time>
      </trkpt>
      <trkpt lat="45.27096" lon="5.89223">
        <ele>234.32</ele>
        <time>2020-10-19T07:54:14.000Z</time>
      </trkpt>
      <trkpt lat="45.27121" lon="5.8924">
        <ele>232.28</ele>
        <time>2020-10-19T07:54:19.000Z</time>
      </trkpt>
      <trkpt lat="45.27143" lon="5.89258">
        <ele>231.54</ele>
        <time>2020-10-19T07:54:24.000Z</time>
      </trkpt>
      <trkpt lat="45.27167" lon="5.89275">
        <ele>231.23</ele>
        <time>2020-10-19T07:54:29.000Z</time>
      </trkpt>
      <trkpt lat="45.27193" lon="5.89291">
        <ele>233.62</ele>
        <time>2020-10-19T07:54:34.000Z</time>
      </trkpt>
      <trkpt lat="45.27217" lon="5.89307">
        <ele>235.33</ele>
        <time>2020-10-19T07:54:39.000Z</time>
      </trkpt>
      <trkpt lat="45.27238" lon="5.89332">
        <ele>233.98</ele>
        <time>2020-10-19T07:54:44.000Z</time>
      </trkpt>
      <trkpt lat="45.27248" lon="5.89363">
        <ele>234.9</ele>
        <time>2020-10-19T07:54:49.000Z</time>
      </trkpt>
      <trkpt lat="45.27264" lon="5.89382">
        <ele>229.76</ele>
        <time>2020-10-19T07:54:54.000Z</time>
      </trkpt>
      <trkpt lat="45.27279" lon="5.89403">
        <ele>228.97</ele>
        <time>2020-10-19T07:54:59.000Z</time>
      </trkpt>
      <trkpt lat="45.27297" lon="5.89427">
        <ele>225.24</ele>
        <time>2020-10-19T07:55:04.000Z</time>
      </trkpt>
      <trkpt lat="45.27314" lon="5.8946">
        <ele>225.78</ele>
        <time>2020-10-19T07:55:09.000Z</time>
      </trkpt>
      <trkpt lat="45.27332" lon="5.89489">
        <ele>228.25</ele>
        <time>2020-10-19T07:55:14.000Z</time>
      </trkpt>
      <trkpt lat="45.27349" lon="5.89515">
        <ele>225.19</ele>
        <time>2020-10-19T07:55:19.000Z</time>
      </trkpt>
      <trkpt lat="45.27373" lon="5.89538">
        <ele>227.26</ele>
        <time>2020-10-19T07:55:24.000Z</time>
      </trkpt>
      <trkpt lat="45.27398" lon="5.89566">
        <ele>230.08</ele>
        <time>2020-10-19T07:55:29.000Z</time>
      </trkpt>
      <trkpt lat="45.2742" lon="5.8959">
        <ele>231.27</ele>
        <time>2020-10-19T07:55:34.000Z</time>
      </trkpt>
      <trkpt lat="45.27444" lon="5.89613">
        <ele>231.42</ele>
        <time>2020-10-19T07:55:39.000Z</time>
      </trkpt>
      <trkpt lat="45.27465" lon="5.89638">
        <ele>233.65</ele>
        <time>2020-10-19T07:55:44.000Z</time>
      </trkpt>
      <trkpt lat="45.27484" lon="5.89664">
        <ele>235.19</ele>
        <time>2020-10-19T07:55:49.000Z</time>
      </trkpt>
      <trkpt lat="45.27503" lon="5.89682">
        <ele>232.04</ele>
        <time>2020-10-19T07:55:54.000Z</time>
      </trkpt>
      <trkpt lat="45.2752" lon="5.89659">
        <ele>233.15</ele>
        <time>2020-10-19T07:55:59.000Z</time>
      </trkpt>
      <trkpt lat="45.27537" lon="5.89633">
        <ele>232.11</ele>
        <time>2020-10-19T07:56:04.000Z</time>
      </trkpt>
      <trkpt lat="45.27551" lon="5.89606">
        <ele>229.78</ele>
        <time>2020-10-19T07:56:09.000Z</time>
      </trkpt>
      <trkpt lat="45.27572" lon="5.8961">
        <ele>227.23</ele>
        <time>2020-10-19T07:56:14.000Z</time>
      </trkpt>
      <trkpt lat="45.27592" lon="5.89632">
        <ele>225.91</ele>
        <time>2020-10-19T07:56:19.000Z</time>
      </trkpt>
      <trkpt lat="45.2761" lon="5.89649">
        <ele>226.5</ele>
        <time>2020-10-19T07:56:24.000Z</time>
      </trkpt>
      <trkpt lat="45.27631" lon="5.89646">
        <ele>225.73</ele>
        <time>2020-10-19T07:56:29.000Z</time>
      </trkpt>
      <trkpt lat="45.27639" lon="5.89638">
        <ele>224.93</ele>
        <time>2020-10-19T07:56:34.000Z</time>
      </trkpt>
      <trkpt lat="45.27654" lon="5.89654">
        <ele>222.19</ele>
        <time>2020-10-19T07:56:39.000Z</time>
      </trkpt>
      <trkpt lat="45.27665" lon="5.89667">
        <ele>221.44</ele>
        <time>2020-10-19T07:56:44.000Z</time>
      </trkpt>
      <trkpt lat="45.27682" lon="5.89654">
        <ele>223.16</ele>
        <time>2020-10-19T07:56:49.000Z</time>
      </trkpt>
      <trkpt lat="45.27698" lon="5.89645">
        <ele>225.87</ele>
        <time>2020-10-19T07:56:54.000Z</time>
      </trkpt>
      <trkpt lat="45.27711" lon="5.89674">
        <ele>224.66</ele>
        <time>2020-10-19T07:56:59.000Z</time>
      </trkpt>
      <trkpt lat="45.27726" lon="5.89701">
        <ele>223.79</ele>
        <time>2020-10-19T07:57:04.000Z</time>
      </trkpt>
      <trkpt lat="45.27743" lon="5.89726">
        <ele>225.75</ele>
        <time>2020-10-19T07:57:09.000Z</time>
      </trkpt>
      <trkpt lat="45.27761" lon="5.89751">
        <ele>227.81</ele>
        <time>2020-10-19T07:57:14.000Z</time>
      </trkpt>
      <trkpt lat="45.27779" lon="5.89778">
        <ele>225.15</ele>
        <time>2020-10-19T07:57:19.000Z</time>
      </trkpt>
      <trkpt lat="45.27795" lon="5.89804">
        <ele>222.76</ele>
        <time>2020-10-19T07:57:24.000Z</time>
      </trkpt>
      <trkpt lat="45.27812" lon="5.89821">
        <ele>223.54</ele>
        <time>2020-10-19T07:57:29.000Z</time>
      </trkpt>
      <trkpt lat="45.27826" lon="5.89827">
        <ele>224.47</ele>
        <time>2020-10-19T07:57:34.000Z</time>
      </trkpt>
      <trkpt lat="45.2784" lon="5.89834">
        <ele>225.32</ele>
        <time>2020-10-19T07:57:39.000Z</time>
      </trkpt>
      <trkpt lat="45.27857" lon="5.89842">
        <ele>225.88</ele>
        <time>2020-10-19T07:57:44.000Z</time>
      </trkpt>
      <trkpt lat="45.27876" lon="5.89852">
        <ele>225.67</ele>
        <time>2020-10-19T07:57:49.000Z</time>
      </trkpt>
      <trkpt lat="45.27895" lon="5.89862">
        <ele>226.43</ele>
        <time>2020-10-19T07:57:54.000Z</time>
      </trkpt>
      <trkpt lat="45.27917" lon="5.89873">
        <ele>230.81</ele>
        <time>2020-10-19T07:57:59.000Z</time>
      </trkpt>
      <trkpt lat="45.2794" lon="5.89886">
        <ele>231.67</ele>
        <time>2020-10-19T07:58:04.000Z</time>
      </trkpt>
      <trkpt lat="45.27961" lon="5.89903">
        <ele>232.49</ele>
        <time>2020-10-19T07:58:09.000Z</time>
      </trkpt>
      <trkpt lat="45.27981" lon="5.89925">
        <ele>231.98</ele>
        <time>2020-10-19T07:58:14.000Z</time>
      </trkpt>
      <trkpt lat="45.28002" lon="5.89944">
        <ele>232.44</ele>
        <time>2020-10-19T07:58:19.000Z</time>
      </trkpt>
      <trkpt lat="45.28021" lon="5.89969">
        <ele>233.03</ele>
        <time>2020-10-19T07:58:24.000Z</time>
      </trkpt>
      <trkpt lat="45.28042" lon="5.89998">
        <ele>232.49</ele>
        <time>2020-10-19T07:58:29.000Z</time>
      </trkpt>
      <trkpt lat="45.28059" lon="5.90028">
        <ele>232.68</ele>
        <time>2020-10-19T07:58:34.000Z</time>
      </trkpt>
      <trkpt lat="45.28074" lon="5.90058">
        <ele>232.22</ele>
        <time>2020-10-19T07:58:39.000Z</time>
      </trkpt>
      <trkpt lat="45.28087" lon="5.90088">
        <ele>233.72</ele>
        <time>2020-10-19T07:58:44.000Z</time>
      </trkpt>
      <trkpt lat="45.28103" lon="5.90118">
        <ele>233.28</ele>
        <time>2020-10-19T07:58:49.000Z</time>
      </trkpt>
      <trkpt lat="45.28122" lon="5.90139">
        <ele>231.94</ele>
        <time>2020-10-19T07:58:54.000Z</time>
      </trkpt>
      <trkpt lat="45.28145" lon="5.9013">
        <ele>233.35</ele>
        <time>2020-10-19T07:58:59.000Z</time>
      </trkpt>
      <trkpt lat="45.28165" lon="5.90112">
        <ele>231.62</ele>
        <time>2020-10-19T07:59:04.000Z</time>
      </trkpt>
      <trkpt lat="45.28187" lon="5.90092">
        <ele>232.1</ele>
        <time>2020-10-19T07:59:09.000Z</time>
      </trkpt>
      <trkpt lat="45.28207" lon="5.90073">
        <ele>231.84</ele>
        <time>2020-10-19T07:59:14.000Z</time>
      </trkpt>
      <trkpt lat="45.28226" lon="5.90053">
        <ele>231.78</ele>
        <time>2020-10-19T07:59:19.000Z</time>
      </trkpt>
      <trkpt lat="45.28247" lon="5.90036">
        <ele>231.87</ele>
        <time>2020-10-19T07:59:24.000Z</time>
      </trkpt>
      <trkpt lat="45.2827" lon="5.9002">
        <ele>233.01</ele>
        <time>2020-10-19T07:59:29.000Z</time>
      </trkpt>
      <trkpt lat="45.28293" lon="5.89997">
        <ele>233.1</ele>
        <time>2020-10-19T07:59:34.000Z</time>
      </trkpt>
      <trkpt lat="45.28315" lon="5.89983">
        <ele>232.51</ele>
        <time>2020-10-19T07:59:39.000Z</time>
      </trkpt>
      <trkpt lat="45.28339" lon="5.89962">
        <ele>230.48</ele>
        <time>2020-10-19T07:59:44.000Z</time>
      </trkpt>
      <trkpt lat="45.28364" lon="5.89934">
        <ele>229.98</ele>
        <time>2020-10-19T07:59:49.000Z</time>
      </trkpt>
      <trkpt lat="45.28387" lon="5.89905">
        <ele>230.06</ele>
        <time>2020-10-19T07:59:54.000Z</time>
      </trkpt>
      <trkpt lat="45.28405" lon="5.89876">
        <ele>228.45</ele>
        <time>2020-10-19T07:59:59.000Z</time>
      </trkpt>
      <trkpt lat="45.28421" lon="5.89847">
        <ele>229.73</ele>
        <time>2020-10-19T08:00:04.000Z</time>
      </trkpt>
      <trkpt lat="45.28437" lon="5.89839">
        <ele>232.18</ele>
        <time>2020-10-19T08:00:09.000Z</time>
      </trkpt>
      <trkpt lat="45.28442" lon="5.89868">
        <ele>233.89</ele>
        <time>2020-10-19T08:00:14.000Z</time>
      </trkpt>
      <trkpt lat="45.28441" lon="5.89896">
        <ele>232.82</ele>
        <time>2020-10-19T08:00:19.000Z</time>
      </trkpt>
      <trkpt lat="45.28441" lon="5.89933">
        <ele>232.91</ele>
        <time>2020-10-19T08:00:24.000Z</time>
      </trkpt>
      <trkpt lat="45.28442" lon="5.89973">
        <ele>231.45</ele>
        <time>2020-10-19T08:00:29.000Z</time>
      </trkpt>
      <trkpt lat="45.28444" lon="5.90014">
        <ele>232.47</ele>
        <time>2020-10-19T08:00:34.000Z</time>
      </trkpt>
      <trkpt lat="45.28449" lon="5.90055">
        <ele>234.17</ele>
        <time>2020-10-19T08:00:39.000Z</time>
      </trkpt>
      <trkpt lat="45.28458" lon="5.90096">
        <ele>234.27</ele>
        <time>2020-10-19T08:00:44.000Z</time>
      </trkpt>
      <trkpt lat="45.28465" lon="5.90136">
        <ele>233.96</ele>
        <time>2020-10-19T08:00:49.000Z</time>
      </trkpt>
      <trkpt lat="45.28472" lon="5.90175">
        <ele>232.86</ele>
        <time>2020-10-19T08:00:54.000Z</time>
      </trkpt>
      <trkpt lat="45.28482" lon="5.90217">
        <ele>233.4</ele>
        <time>2020-10-19T08:00:59.000Z</time>
      </trkpt>
      <trkpt lat="45.28487" lon="5.90259">
        <ele>232.51</ele>
        <time>2020-10-19T08:01:04.000Z</time>
      </trkpt>
      <trkpt lat="45.28491" lon="5.90301">
        <ele>232.3</ele>
        <time>2020-10-19T08:01:09.000Z</time>
      </trkpt>
      <trkpt lat="45.28493" lon="5.90342">
        <ele>232.17</ele>
        <time>2020-10-19T08:01:14.000Z</time>
      </trkpt>
      <trkpt lat="45.28492" lon="5.90383">
        <ele>232.82</ele>
        <time>2020-10-19T08:01:19.000Z</time>
      </trkpt>
      <trkpt lat="45.28492" lon="5.90421">
        <ele>234.32</ele>
        <time>2020-10-19T08:01:24.000Z</time>
      </trkpt>
      <trkpt lat="45.28492" lon="5.90461">
        <ele>233.05</ele>
        <time>2020-10-19T08:01:29.000Z</time>
      </trkpt>
      <trkpt lat="45.28493" lon="5.90502">
        <ele>232.72</ele>
        <time>2020-10-19T08:01:34.000Z</time>
      </trkpt>
      <trkpt lat="45.28499" lon="5.90537">
        <ele>234.91</ele>
        <time>2020-10-19T08:01:39.000Z</time>
      </trkpt>
      <trkpt lat="45.28522" lon="5.90534">
        <ele>235.62</ele>
        <time>2020-10-19T08:01:44.000Z</time>
      </trkpt>
      <trkpt lat="45.28537" lon="5.90551">
        <ele>234.34</ele>
        <time>2020-10-19T08:01:49.000Z</time>
      </trkpt>
      <trkpt lat="45.28549" lon="5.9058">
        <ele>233.59</ele>
        <time>2020-10-19T08:01:54.000Z</time>
      </trkpt>
      <trkpt lat="45.28567" lon="5.90595">
        <ele>233.56</ele>
        <time>2020-10-19T08:01:59.000Z</time>
      </trkpt>
      <trkpt lat="45.28588" lon="5.90612">
        <ele>232.58</ele>
        <time>2020-10-19T08:02:04.000Z</time>
      </trkpt>
      <trkpt lat="45.28608" lon="5.90625">
        <ele>232.41</ele>
        <time>2020-10-19T08:02:09.000Z</time>
      </trkpt>
      <trkpt lat="45.28628" lon="5.90639">
        <ele>233.32</ele>
        <time>2020-10-19T08:02:14.000Z</time>
      </trkpt>
      <trkpt lat="45.28648" lon="5.90653">
        <ele>232.78</ele>
        <time>2020-10-19T08:02:19.000Z</time>
      </trkpt>
      <trkpt lat="45.28671" lon="5.90669">
        <ele>231.91</ele>
        <time>2020-10-19T08:02:24.000Z</time>
      </trkpt>
      <trkpt lat="45.28694" lon="5.90684">
        <ele>231.81</ele>
        <time>2020-10-19T08:02:29.000Z</time>
      </trkpt>
      <trkpt lat="45.28713" lon="5.90699">
        <ele>232.54</ele>
        <time>2020-10-19T08:02:34.000Z</time>
      </trkpt>
      <trkpt lat="45.28736" lon="5.90716">
        <ele>231.68</ele>
        <time>2020-10-19T08:02:39.000Z</time>
      </trkpt>
      <trkpt lat="45.28759" lon="5.90731">
        <ele>235.07</ele>
        <time>2020-10-19T08:02:44.000Z</time>
      </trkpt>
      <trkpt lat="45.28781" lon="5.90745">
        <ele>237.4</ele>
        <time>2020-10-19T08:02:49.000Z</time>
      </trkpt>
      <trkpt lat="45.28802" lon="5.90763">
        <ele>234.16</ele>
        <time>2020-10-19T08:02:54.000Z</time>
      </trkpt>
      <trkpt lat="45.28824" lon="5.90778">
        <ele>234.61</ele>
        <time>2020-10-19T08:02:59.000Z</time>
      </trkpt>
      <trkpt lat="45.28845" lon="5.90793">
        <ele>232.9</ele>
        <time>2020-10-19T08:03:04.000Z</time>
      </trkpt>
      <trkpt lat="45.28864" lon="5.90808">
        <ele>234.71</ele>
        <time>2020-10-19T08:03:09.000Z</time>
      </trkpt>
      <trkpt lat="45.28887" lon="5.90823">
        <ele>236.17</ele>
        <time>2020-10-19T08:03:14.000Z</time>
      </trkpt>
      <trkpt lat="45.2891" lon="5.90838">
        <ele>237.33</ele>
        <time>2020-10-19T08:03:19.000Z</time>
      </trkpt>
      <trkpt lat="45.2893" lon="5.90852">
        <ele>237.23</ele>
        <time>2020-10-19T08:03:24.000Z</time>
      </trkpt>
      <trkpt lat="45.28952" lon="5.90868">
        <ele>237.94</ele>
        <time>2020-10-19T08:03:29.000Z</time>
      </trkpt>
      <trkpt lat="45.28974" lon="5.90884">
        <ele>239.62</ele>
        <time>2020-10-19T08:03:34.000Z</time>
      </trkpt>
      <trkpt lat="45.28999" lon="5.90889">
        <ele>240.11</ele>
        <time>2020-10-19T08:03:39.000Z</time>
      </trkpt>
      <trkpt lat="45.29019" lon="5.90879">
        <ele>238.15</ele>
        <time>2020-10-19T08:03:44.000Z</time>
      </trkpt>
      <trkpt lat="45.29043" lon="5.9087">
        <ele>236.26</ele>
        <time>2020-10-19T08:03:49.000Z</time>
      </trkpt>
      <trkpt lat="45.29064" lon="5.90861">
        <ele>236.92</ele>
        <time>2020-10-19T08:03:54.000Z</time>
      </trkpt>
      <trkpt lat="45.29088" lon="5.90851">
        <ele>238.06</ele>
        <time>2020-10-19T08:03:59.000Z</time>
      </trkpt>
      <trkpt lat="45.29113" lon="5.90841">
        <ele>239.44</ele>
        <time>2020-10-19T08:04:04.000Z</time>
      </trkpt>
      <trkpt lat="45.29137" lon="5.90831">
        <ele>238.7</ele>
        <time>2020-10-19T08:04:09.000Z</time>
      </trkpt>
      <trkpt lat="45.29159" lon="5.90822">
        <ele>235</ele>
        <time>2020-10-19T08:04:14.000Z</time>
      </trkpt>
      <trkpt lat="45.29185" lon="5.90817">
        <ele>233.35</ele>
        <time>2020-10-19T08:04:19.000Z</time>
      </trkpt>
      <trkpt lat="45.29212" lon="5.90803">
        <ele>232.5</ele>
        <time>2020-10-19T08:04:24.000Z</time>
      </trkpt>
      <trkpt lat="45.29235" lon="5.90795">
        <ele>232.99</ele>
        <time>2020-10-19T08:04:29.000Z</time>
      </trkpt>
      <trkpt lat="45.2926" lon="5.90784">
        <ele>233.51</ele>
        <time>2020-10-19T08:04:34.000Z</time>
      </trkpt>
      <trkpt lat="45.2928" lon="5.90776">
        <ele>232.58</ele>
        <time>2020-10-19T08:04:39.000Z</time>
      </trkpt>
      <trkpt lat="45.29302" lon="5.90786">
        <ele>234</ele>
        <time>2020-10-19T08:04:44.000Z</time>
      </trkpt>
      <trkpt lat="45.29321" lon="5.90795">
        <ele>235.56</ele>
        <time>2020-10-19T08:04:49.000Z</time>
      </trkpt>
      <trkpt lat="45.29346" lon="5.90803">
        <ele>232.93</ele>
        <time>2020-10-19T08:04:54.000Z</time>
      </trkpt>
      <trkpt lat="45.29371" lon="5.90814">
        <ele>232.58</ele>
        <time>2020-10-19T08:04:59.000Z</time>
      </trkpt>
      <trkpt lat="45.29395" lon="5.90826">
        <ele>233.95</ele>
        <time>2020-10-19T08:05:04.000Z</time>
      </trkpt>
      <trkpt lat="45.29418" lon="5.90838">
        <ele>234.43</ele>
        <time>2020-10-19T08:05:09.000Z</time>
      </trkpt>
      <trkpt lat="45.29445" lon="5.9085">
        <ele>238.81</ele>
        <time>2020-10-19T08:05:14.000Z</time>
      </trkpt>
      <trkpt lat="45.29469" lon="5.90862">
        <ele>238.91</ele>
        <time>2020-10-19T08:05:19.000Z</time>
      </trkpt>
      <trkpt lat="45.29495" lon="5.90871">
        <ele>238.33</ele>
        <time>2020-10-19T08:05:24.000Z</time>
      </trkpt>
      <trkpt lat="45.29518" lon="5.90887">
        <ele>238.67</ele>
        <time>2020-10-19T08:05:29.000Z</time>
      </trkpt>
      <trkpt lat="45.29547" lon="5.90899">
        <ele>240.53</ele>
        <time>2020-10-19T08:05:34.000Z</time>
      </trkpt>
      <trkpt lat="45.29579" lon="5.9091">
        <ele>239.44</ele>
        <time>2020-10-19T08:05:39.000Z</time>
      </trkpt>
      <trkpt lat="45.29607" lon="5.90919">
        <ele>236.29</ele>
        <time>2020-10-19T08:05:44.000Z</time>
      </trkpt>
      <trkpt lat="45.29635" lon="5.90929">
        <ele>236.61</ele>
        <time>2020-10-19T08:05:49.000Z</time>
      </trkpt>
      <trkpt lat="45.29663" lon="5.90938">
        <ele>235.9</ele>
        <time>2020-10-19T08:05:54.000Z</time>
      </trkpt>
      <trkpt lat="45.29691" lon="5.90952">
        <ele>236.1</ele>
        <time>2020-10-19T08:05:59.000Z</time>
      </trkpt>
      <trkpt lat="45.29719" lon="5.90964">
        <ele>234.18</ele>
        <time>2020-10-19T08:06:04.000Z</time>
      </trkpt>
      <trkpt lat="45.29747" lon="5.90977">
        <ele>235.72</ele>
        <time>2020-10-19T08:06:09.000Z</time>
      </trkpt>
      <trkpt lat="45.29776" lon="5.90989">
        <ele>239.96</ele>
        <time>2020-10-19T08:06:14.000Z</time>
      </trkpt>
      <trkpt lat="45.298" lon="5.90998">
        <ele>238.04</ele>
        <time>2020-10-19T08:06:19.000Z</time>
      </trkpt>
      <trkpt lat="45.29831" lon="5.91011">
        <ele>238.73</ele>
        <time>2020-10-19T08:06:24.000Z</time>
      </trkpt>
      <trkpt lat="45.29857" lon="5.91021">
        <ele>240.5</ele>
        <time>2020-10-19T08:06:29.000Z</time>
      </trkpt>
      <trkpt lat="45.29882" lon="5.91028">
        <ele>241.6</ele>
        <time>2020-10-19T08:06:34.000Z</time>
      </trkpt>
      <trkpt lat="45.29909" lon="5.91041">
        <ele>242.96</ele>
        <time>2020-10-19T08:06:39.000Z</time>
      </trkpt>
      <trkpt lat="45.29931" lon="5.91054">
        <ele>241.95</ele>
        <time>2020-10-19T08:06:44.000Z</time>
      </trkpt>
      <trkpt lat="45.29951" lon="5.91069">
        <ele>241.68</ele>
        <time>2020-10-19T08:06:49.000Z</time>
      </trkpt>
      <trkpt lat="45.2997" lon="5.91088">
        <ele>236.09</ele>
        <time>2020-10-19T08:06:54.000Z</time>
      </trkpt>
      <trkpt lat="45.2999" lon="5.91105">
        <ele>234.57</ele>
        <time>2020-10-19T08:06:59.000Z</time>
      </trkpt>
      <trkpt lat="45.30009" lon="5.9112">
        <ele>235.89</ele>
        <time>2020-10-19T08:07:04.000Z</time>
      </trkpt>
      <trkpt lat="45.30028" lon="5.91139">
        <ele>237.68</ele>
        <time>2020-10-19T08:07:09.000Z</time>
      </trkpt>
      <trkpt lat="45.3005" lon="5.9116">
        <ele>236.46</ele>
        <time>2020-10-19T08:07:14.000Z</time>
      </trkpt>
      <trkpt lat="45.30075" lon="5.91185">
        <ele>234.1</ele>
        <time>2020-10-19T08:07:19.000Z</time>
      </trkpt>
      <trkpt lat="45.301" lon="5.91208">
        <ele>235.46</ele>
        <time>2020-10-19T08:07:24.000Z</time>
      </trkpt>
      <trkpt lat="45.30124" lon="5.9123">
        <ele>235.69</ele>
        <time>2020-10-19T08:07:29.000Z</time>
      </trkpt>
      <trkpt lat="45.30145" lon="5.91254">
        <ele>234.94</ele>
        <time>2020-10-19T08:07:34.000Z</time>
      </trkpt>
      <trkpt lat="45.30165" lon="5.91272">
        <ele>234.32</ele>
        <time>2020-10-19T08:07:39.000Z</time>
      </trkpt>
      <trkpt lat="45.30185" lon="5.91292">
        <ele>230.85</ele>
        <time>2020-10-19T08:07:44.000Z</time>
      </trkpt>
      <trkpt lat="45.30203" lon="5.91311">
        <ele>230.6</ele>
        <time>2020-10-19T08:07:49.000Z</time>
      </trkpt>
      <trkpt lat="45.30225" lon="5.91333">
        <ele>231.27</ele>
        <time>2020-10-19T08:07:54.000Z</time>
      </trkpt>
      <trkpt lat="45.30248" lon="5.91354">
        <ele>232.02</ele>
        <time>2020-10-19T08:07:59.000Z</time>
      </trkpt>
      <trkpt lat="45.30265" lon="5.91374">
        <ele>231.81</ele>
        <time>2020-10-19T08:08:04.000Z</time>
      </trkpt>
      <trkpt lat="45.30285" lon="5.91393">
        <ele>230.1</ele>
        <time>2020-10-19T08:08:09.000Z</time>
      </trkpt>
      <trkpt lat="45.30306" lon="5.91413">
        <ele>229.52</ele>
        <time>2020-10-19T08:08:14.000Z</time>
      </trkpt>
      <trkpt lat="45.30329" lon="5.91433">
        <ele>230.81</ele>
        <time>2020-10-19T08:08:19.000Z</time>
      </trkpt>
      <trkpt lat="45.30353" lon="5.91456">
        <ele>231.67</ele>
        <time>2020-10-19T08:08:24.000Z</time>
      </trkpt>
      <trkpt lat="45.30373" lon="5.91474">
        <ele>231.97</ele>
        <time>2020-10-19T08:08:29.000Z</time>
      </trkpt>
      <trkpt lat="45.30395" lon="5.91494">
        <ele>231.34</ele>
        <time>2020-10-19T08:08:34.000Z</time>
      </trkpt>
      <trkpt lat="45.30415" lon="5.91517">
        <ele>231.29</ele>
        <time>2020-10-19T08:08:39.000Z</time>
      </trkpt>
      <trkpt lat="45.30438" lon="5.9154">
        <ele>232.54</ele>
        <time>2020-10-19T08:08:44.000Z</time>
      </trkpt>
      <trkpt lat="45.30463" lon="5.91563">
        <ele>234.7</ele>
        <time>2020-10-19T08:08:49.000Z</time>
      </trkpt>
      <trkpt lat="45.30487" lon="5.91589">
        <ele>235.22</ele>
        <time>2020-10-19T08:08:54.000Z</time>
      </trkpt>
      <trkpt lat="45.30513" lon="5.91612">
        <ele>235.39</ele>
        <time>2020-10-19T08:08:59.000Z</time>
      </trkpt>
      <trkpt lat="45.30532" lon="5.91637">
        <ele>235.12</ele>
        <time>2020-10-19T08:09:04.000Z</time>
      </trkpt>
      <trkpt lat="45.30542" lon="5.91658">
        <ele>237.63</ele>
        <time>2020-10-19T08:09:09.000Z</time>
      </trkpt>
      <trkpt lat="45.30539" lon="5.91673">
        <ele>235.79</ele>
        <time>2020-10-19T08:09:15.000Z</time>
      </trkpt>
      <trkpt lat="45.30529" lon="5.91697">
        <ele>234.56</ele>
        <time>2020-10-19T08:09:20.000Z</time>
      </trkpt>
      <trkpt lat="45.30517" lon="5.91728">
        <ele>232.82</ele>
        <time>2020-10-19T08:09:25.000Z</time>
      </trkpt>
      <trkpt lat="45.30506" lon="5.91757">
        <ele>234.4</ele>
        <time>2020-10-19T08:09:30.000Z</time>
      </trkpt>
      <trkpt lat="45.30499" lon="5.91795">
        <ele>235.43</ele>
        <time>2020-10-19T08:09:35.000Z</time>
      </trkpt>
      <trkpt lat="45.30495" lon="5.91826">
        <ele>235.95</ele>
        <time>2020-10-19T08:09:40.000Z</time>
      </trkpt>
      <trkpt lat="45.30504" lon="5.91855">
        <ele>235.2</ele>
        <time>2020-10-19T08:09:45.000Z</time>
      </trkpt>
      <trkpt lat="45.30503" lon="5.9189">
        <ele>237.57</ele>
        <time>2020-10-19T08:09:50.000Z</time>
      </trkpt>
      <trkpt lat="45.30488" lon="5.91921">
        <ele>236.23</ele>
        <time>2020-10-19T08:09:55.000Z</time>
      </trkpt>
      <trkpt lat="45.30473" lon="5.91951">
        <ele>237.76</ele>
        <time>2020-10-19T08:10:00.000Z</time>
      </trkpt>
      <trkpt lat="45.30462" lon="5.9198">
        <ele>238.83</ele>
        <time>2020-10-19T08:10:05.000Z</time>
      </trkpt>
      <trkpt lat="45.3047" lon="5.92016">
        <ele>238.4</ele>
        <time>2020-10-19T08:10:10.000Z</time>
      </trkpt>
      <trkpt lat="45.30482" lon="5.92047">
        <ele>239.16</ele>
        <time>2020-10-19T08:10:15.000Z</time>
      </trkpt>
      <trkpt lat="45.30496" lon="5.92079">
        <ele>241.95</ele>
        <time>2020-10-19T08:10:20.000Z</time>
      </trkpt>
      <trkpt lat="45.3051" lon="5.92113">
        <ele>243.01</ele>
        <time>2020-10-19T08:10:25.000Z</time>
      </trkpt>
      <trkpt lat="45.30525" lon="5.92142">
        <ele>241.28</ele>
        <time>2020-10-19T08:10:30.000Z</time>
      </trkpt>
      <trkpt lat="45.30539" lon="5.9217">
        <ele>240.89</ele>
        <time>2020-10-19T08:10:35.000Z</time>
      </trkpt>
      <trkpt lat="45.30533" lon="5.92209">
        <ele>243.88</ele>
        <time>2020-10-19T08:10:40.000Z</time>
      </trkpt>
      <trkpt lat="45.30519" lon="5.9223">
        <ele>243.56</ele>
        <time>2020-10-19T08:10:45.000Z</time>
      </trkpt>
      <trkpt lat="45.30528" lon="5.92273">
        <ele>242.49</ele>
        <time>2020-10-19T08:10:50.000Z</time>
      </trkpt>
      <trkpt lat="45.30534" lon="5.92315">
        <ele>240.78</ele>
        <time>2020-10-19T08:10:55.000Z</time>
      </trkpt>
      <trkpt lat="45.3055" lon="5.92354">
        <ele>241.65</ele>
        <time>2020-10-19T08:11:00.000Z</time>
      </trkpt>
      <trkpt lat="45.30563" lon="5.92391">
        <ele>240.84</ele>
        <time>2020-10-19T08:11:05.000Z</time>
      </trkpt>
      <trkpt lat="45.3057" lon="5.92425">
        <ele>240.25</ele>
        <time>2020-10-19T08:11:10.000Z</time>
      </trkpt>
      <trkpt lat="45.30572" lon="5.92457">
        <ele>238.95</ele>
        <time>2020-10-19T08:11:15.000Z</time>
      </trkpt>
      <trkpt lat="45.30573" lon="5.9249">
        <ele>237.81</ele>
        <time>2020-10-19T08:11:20.000Z</time>
      </trkpt>
      <trkpt lat="45.30581" lon="5.92525">
        <ele>236.32</ele>
        <time>2020-10-19T08:11:25.000Z</time>
      </trkpt>
      <trkpt lat="45.30584" lon="5.92566">
        <ele>236.92</ele>
        <time>2020-10-19T08:11:30.000Z</time>
      </trkpt>
      <trkpt lat="45.30575" lon="5.92597">
        <ele>236.5</ele>
        <time>2020-10-19T08:11:35.000Z</time>
      </trkpt>
      <trkpt lat="45.30566" lon="5.92637">
        <ele>237.31</ele>
        <time>2020-10-19T08:11:40.000Z</time>
      </trkpt>
      <trkpt lat="45.30575" lon="5.92683">
        <ele>238.43</ele>
        <time>2020-10-19T08:11:45.000Z</time>
      </trkpt>
      <trkpt lat="45.30593" lon="5.92722">
        <ele>239.69</ele>
        <time>2020-10-19T08:11:50.000Z</time>
      </trkpt>
      <trkpt lat="45.30609" lon="5.92757">
        <ele>239.37</ele>
        <time>2020-10-19T08:11:55.000Z</time>
      </trkpt>
      <trkpt lat="45.30626" lon="5.92791">
        <ele>237.74</ele>
        <time>2020-10-19T08:12:00.000Z</time>
      </trkpt>
      <trkpt lat="45.30647" lon="5.92812">
        <ele>237.58</ele>
        <time>2020-10-19T08:12:05.000Z</time>
      </trkpt>
      <trkpt lat="45.3067" lon="5.92831">
        <ele>236.58</ele>
        <time>2020-10-19T08:12:10.000Z</time>
      </trkpt>
      <trkpt lat="45.30695" lon="5.92854">
        <ele>233.86</ele>
        <time>2020-10-19T08:12:15.000Z</time>
      </trkpt>
      <trkpt lat="45.30718" lon="5.92873">
        <ele>234.32</ele>
        <time>2020-10-19T08:12:20.000Z</time>
      </trkpt>
      <trkpt lat="45.30742" lon="5.92892">
        <ele>231.72</ele>
        <time>2020-10-19T08:12:25.000Z</time>
      </trkpt>
      <trkpt lat="45.30763" lon="5.92908">
        <ele>233.99</ele>
        <time>2020-10-19T08:12:30.000Z</time>
      </trkpt>
      <trkpt lat="45.30784" lon="5.92927">
        <ele>233.25</ele>
        <time>2020-10-19T08:12:35.000Z</time>
      </trkpt>
      <trkpt lat="45.30811" lon="5.92933">
        <ele>230.88</ele>
        <time>2020-10-19T08:12:40.000Z</time>
      </trkpt>
      <trkpt lat="45.30831" lon="5.92938">
        <ele>229.62</ele>
        <time>2020-10-19T08:12:45.000Z</time>
      </trkpt>
      <trkpt lat="45.30844" lon="5.9294">
        <ele>228.95</ele>
        <time>2020-10-19T08:12:50.000Z</time>
      </trkpt>
      <trkpt lat="45.3087" lon="5.92943">
        <ele>229.11</ele>
        <time>2020-10-19T08:12:55.000Z</time>
      </trkpt>
      <trkpt lat="45.30889" lon="5.92924">
        <ele>229.3</ele>
        <time>2020-10-19T08:13:00.000Z</time>
      </trkpt>
      <trkpt lat="45.30905" lon="5.92901">
        <ele>226.86</ele>
        <time>2020-10-19T08:13:05.000Z</time>
      </trkpt>
      <trkpt lat="45.30924" lon="5.92877">
        <ele>227.75</ele>
        <time>2020-10-19T08:13:10.000Z</time>
      </trkpt>
      <trkpt lat="45.30939" lon="5.92856">
        <ele>228.37</ele>
        <time>2020-10-19T08:13:15.000Z</time>
      </trkpt>
      <trkpt lat="45.30949" lon="5.92843">
        <ele>231.5</ele>
        <time>2020-10-19T08:13:20.000Z</time>
      </trkpt>
      <trkpt lat="45.30957" lon="5.92834">
        <ele>233.21</ele>
        <time>2020-10-19T08:13:25.000Z</time>
      </trkpt>
      <trkpt lat="45.30967" lon="5.92831">
        <ele>233.96</ele>
        <time>2020-10-19T08:13:32.000Z</time>
      </trkpt>
      <trkpt lat="45.30974" lon="5.9284">
        <ele>238.94</ele>
        <time>2020-10-19T08:14:20.000Z</time>
      </trkpt>
      <trkpt lat="45.30988" lon="5.92858">
        <ele>239.12</ele>
        <time>2020-10-19T08:14:25.000Z</time>
      </trkpt>
      <trkpt lat="45.31001" lon="5.92876">
        <ele>238.93</ele>
        <time>2020-10-19T08:14:30.000Z</time>
      </trkpt>
      <trkpt lat="45.31017" lon="5.92901">
        <ele>241.36</ele>
        <time>2020-10-19T08:14:35.000Z</time>
      </trkpt>
      <trkpt lat="45.31033" lon="5.92927">
        <ele>241.95</ele>
        <time>2020-10-19T08:14:40.000Z</time>
      </trkpt>
      <trkpt lat="45.31029" lon="5.92953">
        <ele>240.89</ele>
        <time>2020-10-19T08:14:45.000Z</time>
      </trkpt>
      <trkpt lat="45.31019" lon="5.92987">
        <ele>238.86</ele>
        <time>2020-10-19T08:14:50.000Z</time>
      </trkpt>
      <trkpt lat="45.31041" lon="5.93019">
        <ele>239.18</ele>
        <time>2020-10-19T08:14:55.000Z</time>
      </trkpt>
      <trkpt lat="45.31067" lon="5.93043">
        <ele>241.59</ele>
        <time>2020-10-19T08:15:00.000Z</time>
      </trkpt>
      <trkpt lat="45.31092" lon="5.93066">
        <ele>244.57</ele>
        <time>2020-10-19T08:15:05.000Z</time>
      </trkpt>
      <trkpt lat="45.31122" lon="5.93089">
        <ele>242.66</ele>
        <time>2020-10-19T08:15:10.000Z</time>
      </trkpt>
      <trkpt lat="45.31147" lon="5.93104">
        <ele>241.5</ele>
        <time>2020-10-19T08:15:15.000Z</time>
      </trkpt>
      <trkpt lat="45.31169" lon="5.93117">
        <ele>239.33</ele>
        <time>2020-10-19T08:15:20.000Z</time>
      </trkpt>
      <trkpt lat="45.31193" lon="5.93134">
        <ele>240.45</ele>
        <time>2020-10-19T08:15:25.000Z</time>
      </trkpt>
      <trkpt lat="45.31227" lon="5.93153">
        <ele>240.53</ele>
        <time>2020-10-19T08:15:30.000Z</time>
      </trkpt>
      <trkpt lat="45.31257" lon="5.93166">
        <ele>239.12</ele>
        <time>2020-10-19T08:15:35.000Z</time>
      </trkpt>
      <trkpt lat="45.31286" lon="5.93167">
        <ele>239.57</ele>
        <time>2020-10-19T08:15:40.000Z</time>
      </trkpt>
      <trkpt lat="45.31307" lon="5.93138">
        <ele>239.99</ele>
        <time>2020-10-19T08:15:45.000Z</time>
      </trkpt>
      <trkpt lat="45.31319" lon="5.93109">
        <ele>240.53</ele>
        <time>2020-10-19T08:15:50.000Z</time>
      </trkpt>
      <trkpt lat="45.31332" lon="5.93082">
        <ele>240.43</ele>
        <time>2020-10-19T08:15:55.000Z</time>
      </trkpt>
      <trkpt lat="45.31344" lon="5.93055">
        <ele>240.68</ele>
        <time>2020-10-19T08:16:00.000Z</time>
      </trkpt>
      <trkpt lat="45.31351" lon="5.93023">
        <ele>240.61</ele>
        <time>2020-10-19T08:16:05.000Z</time>
      </trkpt>
      <trkpt lat="45.31355" lon="5.92992">
        <ele>243.05</ele>
        <time>2020-10-19T08:16:10.000Z</time>
      </trkpt>
      <trkpt lat="45.31368" lon="5.92965">
        <ele>241.78</ele>
        <time>2020-10-19T08:16:15.000Z</time>
      </trkpt>
      <trkpt lat="45.31387" lon="5.9295">
        <ele>242.33</ele>
        <time>2020-10-19T08:16:20.000Z</time>
      </trkpt>
      <trkpt lat="45.3141" lon="5.92936">
        <ele>243.09</ele>
        <time>2020-10-19T08:16:25.000Z</time>
      </trkpt>
      <trkpt lat="45.3143" lon="5.92924">
        <ele>245.01</ele>
        <time>2020-10-19T08:16:30.000Z</time>
      </trkpt>
      <trkpt lat="45.31451" lon="5.92905">
        <ele>245.3</ele>
        <time>2020-10-19T08:16:35.000Z</time>
      </trkpt>
      <trkpt lat="45.31468" lon="5.92883">
        <ele>241.39</ele>
        <time>2020-10-19T08:16:40.000Z</time>
      </trkpt>
      <trkpt lat="45.31483" lon="5.92856">
        <ele>240.96</ele>
        <time>2020-10-19T08:16:45.000Z</time>
      </trkpt>
      <trkpt lat="45.31492" lon="5.92827">
        <ele>242.37</ele>
        <time>2020-10-19T08:16:50.000Z</time>
      </trkpt>
      <trkpt lat="45.31507" lon="5.92801">
        <ele>243</ele>
        <time>2020-10-19T08:16:55.000Z</time>
      </trkpt>
      <trkpt lat="45.31519" lon="5.92773">
        <ele>239.88</ele>
        <time>2020-10-19T08:17:00.000Z</time>
      </trkpt>
      <trkpt lat="45.3153" lon="5.92743">
        <ele>241.85</ele>
        <time>2020-10-19T08:17:05.000Z</time>
      </trkpt>
      <trkpt lat="45.3154" lon="5.92712">
        <ele>243.19</ele>
        <time>2020-10-19T08:17:10.000Z</time>
      </trkpt>
      <trkpt lat="45.31553" lon="5.92682">
        <ele>243.2</ele>
        <time>2020-10-19T08:17:15.000Z</time>
      </trkpt>
      <trkpt lat="45.31563" lon="5.92655">
        <ele>243.91</ele>
        <time>2020-10-19T08:17:20.000Z</time>
      </trkpt>
      <trkpt lat="45.31575" lon="5.9263">
        <ele>246.65</ele>
        <time>2020-10-19T08:17:25.000Z</time>
      </trkpt>
      <trkpt lat="45.31592" lon="5.92604">
        <ele>246.06</ele>
        <time>2020-10-19T08:17:30.000Z</time>
      </trkpt>
      <trkpt lat="45.31601" lon="5.92598">
        <ele>248.73</ele>
        <time>2020-10-19T08:17:35.000Z</time>
      </trkpt>
      <trkpt lat="45.31599" lon="5.92615">
        <ele>250.34</ele>
        <time>2020-10-19T08:17:55.000Z</time>
      </trkpt>
      <trkpt lat="45.31607" lon="5.92653">
        <ele>255.39</ele>
        <time>2020-10-19T08:18:00.000Z</time>
      </trkpt>
      <trkpt lat="45.31622" lon="5.92686">
        <ele>256.31</ele>
        <time>2020-10-19T08:18:05.000Z</time>
      </trkpt>
      <trkpt lat="45.31638" lon="5.92719">
        <ele>253.35</ele>
        <time>2020-10-19T08:18:10.000Z</time>
      </trkpt>
      <trkpt lat="45.31652" lon="5.92752">
        <ele>252.54</ele>
        <time>2020-10-19T08:18:15.000Z</time>
      </trkpt>
      <trkpt lat="45.31668" lon="5.92788">
        <ele>256.47</ele>
        <time>2020-10-19T08:18:20.000Z</time>
      </trkpt>
      <trkpt lat="45.31688" lon="5.92828">
        <ele>258.21</ele>
        <time>2020-10-19T08:18:25.000Z</time>
      </trkpt>
      <trkpt lat="45.31706" lon="5.9287">
        <ele>258.26</ele>
        <time>2020-10-19T08:18:30.000Z</time>
      </trkpt>
      <trkpt lat="45.31727" lon="5.9291">
        <ele>255.61</ele>
        <time>2020-10-19T08:18:35.000Z</time>
      </trkpt>
      <trkpt lat="45.31752" lon="5.9295">
        <ele>252.3</ele>
        <time>2020-10-19T08:18:40.000Z</time>
      </trkpt>
      <trkpt lat="45.31774" lon="5.93002">
        <ele>247.51</ele>
        <time>2020-10-19T08:18:45.000Z</time>
      </trkpt>
      <trkpt lat="45.318" lon="5.93053">
        <ele>246.62</ele>
        <time>2020-10-19T08:18:50.000Z</time>
      </trkpt>
      <trkpt lat="45.31818" lon="5.931">
        <ele>243.9</ele>
        <time>2020-10-19T08:18:55.000Z</time>
      </trkpt>
      <trkpt lat="45.31843" lon="5.9315">
        <ele>244.5</ele>
        <time>2020-10-19T08:19:00.000Z</time>
      </trkpt>
      <trkpt lat="45.31862" lon="5.9319">
        <ele>242.27</ele>
        <time>2020-10-19T08:19:05.000Z</time>
      </trkpt>
      <trkpt lat="45.3189" lon="5.93194">
        <ele>240.6</ele>
        <time>2020-10-19T08:19:10.000Z</time>
      </trkpt>
      <trkpt lat="45.31916" lon="5.93192">
        <ele>238.99</ele>
        <time>2020-10-19T08:19:15.000Z</time>
      </trkpt>
      <trkpt lat="45.3194" lon="5.93192">
        <ele>238.99</ele>
        <time>2020-10-19T08:19:20.000Z</time>
      </trkpt>
      <trkpt lat="45.31961" lon="5.93201">
        <ele>237.04</ele>
        <time>2020-10-19T08:19:25.000Z</time>
      </trkpt>
      <trkpt lat="45.31984" lon="5.93215">
        <ele>236.97</ele>
        <time>2020-10-19T08:19:30.000Z</time>
      </trkpt>
      <trkpt lat="45.32004" lon="5.93234">
        <ele>237.03</ele>
        <time>2020-10-19T08:19:35.000Z</time>
      </trkpt>
      <trkpt lat="45.32027" lon="5.93254">
        <ele>235.35</ele>
        <time>2020-10-19T08:19:40.000Z</time>
      </trkpt>
      <trkpt lat="45.32047" lon="5.93275">
        <ele>235.82</ele>
        <time>2020-10-19T08:19:45.000Z</time>
      </trkpt>
      <trkpt lat="45.32069" lon="5.933">
        <ele>235.89</ele>
        <time>2020-10-19T08:19:50.000Z</time>
      </trkpt>
      <trkpt lat="45.32088" lon="5.93325">
        <ele>238.44</ele>
        <time>2020-10-19T08:19:55.000Z</time>
      </trkpt>
      <trkpt lat="45.32108" lon="5.93349">
        <ele>244.89</ele>
        <time>2020-10-19T08:20:00.000Z</time>
      </trkpt>
      <trkpt lat="45.3212" lon="5.93369">
        <ele>243.82</ele>
        <time>2020-10-19T08:20:05.000Z</time>
      </trkpt>
      <trkpt lat="45.32133" lon="5.93387">
        <ele>246.64</ele>
        <time>2020-10-19T08:20:10.000Z</time>
      </trkpt>
      <trkpt lat="45.32147" lon="5.93407">
        <ele>245.92</ele>
        <time>2020-10-19T08:20:15.000Z</time>
      </trkpt>
      <trkpt lat="45.32155" lon="5.93433">
        <ele>246.67</ele>
        <time>2020-10-19T08:20:20.000Z</time>
      </trkpt>
      <trkpt lat="45.32175" lon="5.93464">
        <ele>245.04</ele>
        <time>2020-10-19T08:20:25.000Z</time>
      </trkpt>
      <trkpt lat="45.32195" lon="5.935">
        <ele>243.95</ele>
        <time>2020-10-19T08:20:30.000Z</time>
      </trkpt>
      <trkpt lat="45.32213" lon="5.93532">
        <ele>245.09</ele>
        <time>2020-10-19T08:20:35.000Z</time>
      </trkpt>
      <trkpt lat="45.3223" lon="5.93561">
        <ele>244.22</ele>
        <time>2020-10-19T08:20:40.000Z</time>
      </trkpt>
      <trkpt lat="45.32247" lon="5.93586">
        <ele>243.54</ele>
        <time>2020-10-19T08:20:45.000Z</time>
      </trkpt>
      <trkpt lat="45.32269" lon="5.93615">
        <ele>243.54</ele>
        <time>2020-10-19T08:20:50.000Z</time>
      </trkpt>
      <trkpt lat="45.32293" lon="5.93643">
        <ele>241.95</ele>
        <time>2020-10-19T08:20:55.000Z</time>
      </trkpt>
      <trkpt lat="45.32314" lon="5.93665">
        <ele>241.28</ele>
        <time>2020-10-19T08:21:00.000Z</time>
      </trkpt>
      <trkpt lat="45.32339" lon="5.93693">
        <ele>240.87</ele>
        <time>2020-10-19T08:21:05.000Z</time>
      </trkpt>
      <trkpt lat="45.3236" lon="5.93715">
        <ele>243.21</ele>
        <time>2020-10-19T08:21:10.000Z</time>
      </trkpt>
      <trkpt lat="45.32379" lon="5.93739">
        <ele>244.26</ele>
        <time>2020-10-19T08:21:15.000Z</time>
      </trkpt>
      <trkpt lat="45.32387" lon="5.93768">
        <ele>244.37</ele>
        <time>2020-10-19T08:21:20.000Z</time>
      </trkpt>
      <trkpt lat="45.32402" lon="5.93791">
        <ele>244.5</ele>
        <time>2020-10-19T08:21:25.000Z</time>
      </trkpt>
      <trkpt lat="45.3242" lon="5.93814">
        <ele>240.84</ele>
        <time>2020-10-19T08:21:30.000Z</time>
      </trkpt>
      <trkpt lat="45.32438" lon="5.93842">
        <ele>241.02</ele>
        <time>2020-10-19T08:21:35.000Z</time>
      </trkpt>
      <trkpt lat="45.32458" lon="5.9387">
        <ele>239.06</ele>
        <time>2020-10-19T08:21:40.000Z</time>
      </trkpt>
      <trkpt lat="45.32482" lon="5.93893">
        <ele>236.79</ele>
        <time>2020-10-19T08:21:45.000Z</time>
      </trkpt>
      <trkpt lat="45.32503" lon="5.93905">
        <ele>240.43</ele>
        <time>2020-10-19T08:21:50.000Z</time>
      </trkpt>
      <trkpt lat="45.32512" lon="5.93912">
        <ele>241.45</ele>
        <time>2020-10-19T08:21:55.000Z</time>
      </trkpt>
      <trkpt lat="45.32522" lon="5.93907">
        <ele>241.73</ele>
        <time>2020-10-19T08:22:00.000Z</time>
      </trkpt>
      <trkpt lat="45.32538" lon="5.93889">
        <ele>243.07</ele>
        <time>2020-10-19T08:22:05.000Z</time>
      </trkpt>
      <trkpt lat="45.32559" lon="5.93866">
        <ele>243.34</ele>
        <time>2020-10-19T08:22:10.000Z</time>
      </trkpt>
      <trkpt lat="45.32578" lon="5.93844">
        <ele>245.22</ele>
        <time>2020-10-19T08:22:15.000Z</time>
      </trkpt>
      <trkpt lat="45.32599" lon="5.93824">
        <ele>247.12</ele>
        <time>2020-10-19T08:22:20.000Z</time>
      </trkpt>
      <trkpt lat="45.32617" lon="5.93804">
        <ele>247.7</ele>
        <time>2020-10-19T08:22:25.000Z</time>
      </trkpt>
      <trkpt lat="45.32632" lon="5.93785">
        <ele>250.07</ele>
        <time>2020-10-19T08:22:30.000Z</time>
      </trkpt>
      <trkpt lat="45.32646" lon="5.93763">
        <ele>249.83</ele>
        <time>2020-10-19T08:22:35.000Z</time>
      </trkpt>
      <trkpt lat="45.32659" lon="5.93736">
        <ele>249.43</ele>
        <time>2020-10-19T08:22:40.000Z</time>
      </trkpt>
      <trkpt lat="45.32669" lon="5.93708">
        <ele>249.39</ele>
        <time>2020-10-19T08:22:45.000Z</time>
      </trkpt>
      <trkpt lat="45.3268" lon="5.93696">
        <ele>250.97</ele>
        <time>2020-10-19T08:22:50.000Z</time>
      </trkpt>
      <trkpt lat="45.32693" lon="5.93694">
        <ele>250.82</ele>
        <time>2020-10-19T08:22:55.000Z</time>
      </trkpt>
      <trkpt lat="45.32704" lon="5.93692">
        <ele>251.21</ele>
        <time>2020-10-19T08:23:00.000Z</time>
      </trkpt>
      <trkpt lat="45.32717" lon="5.93702">
        <ele>252.2</ele>
        <time>2020-10-19T08:23:05.000Z</time>
      </trkpt>
      <trkpt lat="45.32736" lon="5.9371">
        <ele>250.26</ele>
        <time>2020-10-19T08:23:10.000Z</time>
      </trkpt>
      <trkpt lat="45.32761" lon="5.93719">
        <ele>247.84</ele>
        <time>2020-10-19T08:23:15.000Z</time>
      </trkpt>
      <trkpt lat="45.32785" lon="5.93724">
        <ele>248.35</ele>
        <time>2020-10-19T08:23:20.000Z</time>
      </trkpt>
      <trkpt lat="45.3281" lon="5.93728">
        <ele>246.25</ele>
        <time>2020-10-19T08:23:25.000Z</time>
      </trkpt>
      <trkpt lat="45.32836" lon="5.93733">
        <ele>247.79</ele>
        <time>2020-10-19T08:23:30.000Z</time>
      </trkpt>
      <trkpt lat="45.32871" lon="5.93744">
        <ele>246.45</ele>
        <time>2020-10-19T08:23:35.000Z</time>
      </trkpt>
      <trkpt lat="45.32908" lon="5.93754">
        <ele>243.44</ele>
        <time>2020-10-19T08:23:40.000Z</time>
      </trkpt>
      <trkpt lat="45.3295" lon="5.93764">
        <ele>241.89</ele>
        <time>2020-10-19T08:23:45.000Z</time>
      </trkpt>
      <trkpt lat="45.32982" lon="5.93787">
        <ele>241.8</ele>
        <time>2020-10-19T08:23:50.000Z</time>
      </trkpt>
      <trkpt lat="45.32994" lon="5.93803">
        <ele>242.88</ele>
        <time>2020-10-19T08:23:55.000Z</time>
      </trkpt>
      <trkpt lat="45.33001" lon="5.93826">
        <ele>243.39</ele>
        <time>2020-10-19T08:24:00.000Z</time>
      </trkpt>
      <trkpt lat="45.33006" lon="5.93854">
        <ele>243.56</ele>
        <time>2020-10-19T08:24:05.000Z</time>
      </trkpt>
      <trkpt lat="45.33015" lon="5.93889">
        <ele>241.54</ele>
        <time>2020-10-19T08:24:10.000Z</time>
      </trkpt>
      <trkpt lat="45.33025" lon="5.93922">
        <ele>239.08</ele>
        <time>2020-10-19T08:24:15.000Z</time>
      </trkpt>
      <trkpt lat="45.33033" lon="5.93953">
        <ele>238.51</ele>
        <time>2020-10-19T08:24:20.000Z</time>
      </trkpt>
      <trkpt lat="45.33038" lon="5.93984">
        <ele>239.35</ele>
        <time>2020-10-19T08:24:25.000Z</time>
      </trkpt>
      <trkpt lat="45.33048" lon="5.94015">
        <ele>238.02</ele>
        <time>2020-10-19T08:24:30.000Z</time>
      </trkpt>
      <trkpt lat="45.33053" lon="5.94044">
        <ele>238.22</ele>
        <time>2020-10-19T08:24:35.000Z</time>
      </trkpt>
      <trkpt lat="45.33057" lon="5.94069">
        <ele>239.35</ele>
        <time>2020-10-19T08:24:40.000Z</time>
      </trkpt>
      <trkpt lat="45.33065" lon="5.94093">
        <ele>240.94</ele>
        <time>2020-10-19T08:24:45.000Z</time>
      </trkpt>
      <trkpt lat="45.33073" lon="5.94125">
        <ele>240.95</ele>
        <time>2020-10-19T08:24:50.000Z</time>
      </trkpt>
      <trkpt lat="45.33083" lon="5.94159">
        <ele>239.83</ele>
        <time>2020-10-19T08:24:55.000Z</time>
      </trkpt>
      <trkpt lat="45.33094" lon="5.94194">
        <ele>237.84</ele>
        <time>2020-10-19T08:25:00.000Z</time>
      </trkpt>
      <trkpt lat="45.331" lon="5.94229">
        <ele>238.76</ele>
        <time>2020-10-19T08:25:05.000Z</time>
      </trkpt>
      <trkpt lat="45.33087" lon="5.9426">
        <ele>239.06</ele>
        <time>2020-10-19T08:25:10.000Z</time>
      </trkpt>
      <trkpt lat="45.3307" lon="5.94289">
        <ele>238.55</ele>
        <time>2020-10-19T08:25:15.000Z</time>
      </trkpt>
      <trkpt lat="45.33064" lon="5.9432">
        <ele>238.95</ele>
        <time>2020-10-19T08:25:20.000Z</time>
      </trkpt>
      <trkpt lat="45.33076" lon="5.94348">
        <ele>239.8</ele>
        <time>2020-10-19T08:25:25.000Z</time>
      </trkpt>
      <trkpt lat="45.33092" lon="5.94376">
        <ele>243.08</ele>
        <time>2020-10-19T08:25:30.000Z</time>
      </trkpt>
      <trkpt lat="45.33105" lon="5.94402">
        <ele>242.86</ele>
        <time>2020-10-19T08:25:35.000Z</time>
      </trkpt>
      <trkpt lat="45.33114" lon="5.94435">
        <ele>241.71</ele>
        <time>2020-10-19T08:25:40.000Z</time>
      </trkpt>
      <trkpt lat="45.33123" lon="5.94471">
        <ele>238.56</ele>
        <time>2020-10-19T08:25:45.000Z</time>
      </trkpt>
      <trkpt lat="45.33131" lon="5.94508">
        <ele>240.13</ele>
        <time>2020-10-19T08:25:50.000Z</time>
      </trkpt>
      <trkpt lat="45.33146" lon="5.94547">
        <ele>243.42</ele>
        <time>2020-10-19T08:25:55.000Z</time>
      </trkpt>
      <trkpt lat="45.33157" lon="5.94583">
        <ele>242.81</ele>
        <time>2020-10-19T08:26:00.000Z</time>
      </trkpt>
      <trkpt lat="45.3317" lon="5.94622">
        <ele>242.17</ele>
        <time>2020-10-19T08:26:05.000Z</time>
      </trkpt>
      <trkpt lat="45.33186" lon="5.94668">
        <ele>237.57</ele>
        <time>2020-10-19T08:26:10.000Z</time>
      </trkpt>
      <trkpt lat="45.33193" lon="5.94705">
        <ele>237.69</ele>
        <time>2020-10-19T08:26:15.000Z</time>
      </trkpt>
      <trkpt lat="45.33201" lon="5.94741">
        <ele>242.23</ele>
        <time>2020-10-19T08:26:20.000Z</time>
      </trkpt>
      <trkpt lat="45.33223" lon="5.94771">
        <ele>240.47</ele>
        <time>2020-10-19T08:26:25.000Z</time>
      </trkpt>
      <trkpt lat="45.33248" lon="5.94796">
        <ele>239.97</ele>
        <time>2020-10-19T08:26:30.000Z</time>
      </trkpt>
      <trkpt lat="45.33275" lon="5.94818">
        <ele>243.15</ele>
        <time>2020-10-19T08:26:35.000Z</time>
      </trkpt>
      <trkpt lat="45.33298" lon="5.94843">
        <ele>241.48</ele>
        <time>2020-10-19T08:26:40.000Z</time>
      </trkpt>
      <trkpt lat="45.33321" lon="5.94867">
        <ele>240.28</ele>
        <time>2020-10-19T08:26:45.000Z</time>
      </trkpt>
      <trkpt lat="45.33343" lon="5.94895">
        <ele>238.97</ele>
        <time>2020-10-19T08:26:50.000Z</time>
      </trkpt>
      <trkpt lat="45.33369" lon="5.94916">
        <ele>237.41</ele>
        <time>2020-10-19T08:26:55.000Z</time>
      </trkpt>
      <trkpt lat="45.33395" lon="5.94937">
        <ele>236.03</ele>
        <time>2020-10-19T08:27:00.000Z</time>
      </trkpt>
      <trkpt lat="45.33415" lon="5.94961">
        <ele>239.16</ele>
        <time>2020-10-19T08:27:05.000Z</time>
      </trkpt>
      <trkpt lat="45.33428" lon="5.94995">
        <ele>239.14</ele>
        <time>2020-10-19T08:27:10.000Z</time>
      </trkpt>
      <trkpt lat="45.33438" lon="5.95031">
        <ele>237.79</ele>
        <time>2020-10-19T08:27:15.000Z</time>
      </trkpt>
      <trkpt lat="45.33458" lon="5.95066">
        <ele>237.7</ele>
        <time>2020-10-19T08:27:20.000Z</time>
      </trkpt>
      <trkpt lat="45.33476" lon="5.951">
        <ele>237.46</ele>
        <time>2020-10-19T08:27:25.000Z</time>
      </trkpt>
      <trkpt lat="45.33494" lon="5.95129">
        <ele>236.42</ele>
        <time>2020-10-19T08:27:30.000Z</time>
      </trkpt>
      <trkpt lat="45.33512" lon="5.95161">
        <ele>234.79</ele>
        <time>2020-10-19T08:27:35.000Z</time>
      </trkpt>
      <trkpt lat="45.3353" lon="5.95193">
        <ele>233.67</ele>
        <time>2020-10-19T08:27:40.000Z</time>
      </trkpt>
      <trkpt lat="45.33549" lon="5.95222">
        <ele>232.47</ele>
        <time>2020-10-19T08:27:45.000Z</time>
      </trkpt>
      <trkpt lat="45.33572" lon="5.95247">
        <ele>232.52</ele>
        <time>2020-10-19T08:27:50.000Z</time>
      </trkpt>
      <trkpt lat="45.33594" lon="5.95275">
        <ele>234.65</ele>
        <time>2020-10-19T08:27:55.000Z</time>
      </trkpt>
      <trkpt lat="45.33608" lon="5.95311">
        <ele>235.1</ele>
        <time>2020-10-19T08:28:00.000Z</time>
      </trkpt>
      <trkpt lat="45.33627" lon="5.95346">
        <ele>236.57</ele>
        <time>2020-10-19T08:28:05.000Z</time>
      </trkpt>
      <trkpt lat="45.33647" lon="5.95376">
        <ele>235.15</ele>
        <time>2020-10-19T08:28:10.000Z</time>
      </trkpt>
      <trkpt lat="45.33667" lon="5.95407">
        <ele>234.12</ele>
        <time>2020-10-19T08:28:15.000Z</time>
      </trkpt>
      <trkpt lat="45.33687" lon="5.95438">
        <ele>231.29</ele>
        <time>2020-10-19T08:28:20.000Z</time>
      </trkpt>
      <trkpt lat="45.33709" lon="5.95469">
        <ele>227.24</ele>
        <time>2020-10-19T08:28:25.000Z</time>
      </trkpt>
      <trkpt lat="45.33727" lon="5.95501">
        <ele>223.93</ele>
        <time>2020-10-19T08:28:30.000Z</time>
      </trkpt>
      <trkpt lat="45.33745" lon="5.95532">
        <ele>226.07</ele>
        <time>2020-10-19T08:28:35.000Z</time>
      </trkpt>
      <trkpt lat="45.33761" lon="5.95563">
        <ele>226.9</ele>
        <time>2020-10-19T08:28:40.000Z</time>
      </trkpt>
      <trkpt lat="45.33769" lon="5.95603">
        <ele>231.73</ele>
        <time>2020-10-19T08:28:45.000Z</time>
      </trkpt>
      <trkpt lat="45.33791" lon="5.9563">
        <ele>230.89</ele>
        <time>2020-10-19T08:28:50.000Z</time>
      </trkpt>
      <trkpt lat="45.33817" lon="5.95657">
        <ele>232.75</ele>
        <time>2020-10-19T08:28:55.000Z</time>
      </trkpt>
      <trkpt lat="45.33839" lon="5.95687">
        <ele>232.37</ele>
        <time>2020-10-19T08:29:00.000Z</time>
      </trkpt>
      <trkpt lat="45.33859" lon="5.95722">
        <ele>230.48</ele>
        <time>2020-10-19T08:29:05.000Z</time>
      </trkpt>
      <trkpt lat="45.33884" lon="5.95753">
        <ele>233.27</ele>
        <time>2020-10-19T08:29:10.000Z</time>
      </trkpt>
      <trkpt lat="45.33915" lon="5.95777">
        <ele>232.88</ele>
        <time>2020-10-19T08:29:15.000Z</time>
      </trkpt>
      <trkpt lat="45.33946" lon="5.95801">
        <ele>232.13</ele>
        <time>2020-10-19T08:29:20.000Z</time>
      </trkpt>
      <trkpt lat="45.33977" lon="5.95815">
        <ele>235.97</ele>
        <time>2020-10-19T08:29:25.000Z</time>
      </trkpt>
      <trkpt lat="45.34006" lon="5.9583">
        <ele>234.32</ele>
        <time>2020-10-19T08:29:30.000Z</time>
      </trkpt>
      <trkpt lat="45.34035" lon="5.95841">
        <ele>234.38</ele>
        <time>2020-10-19T08:29:35.000Z</time>
      </trkpt>
      <trkpt lat="45.34065" lon="5.95854">
        <ele>236.19</ele>
        <time>2020-10-19T08:29:40.000Z</time>
      </trkpt>
      <trkpt lat="45.34098" lon="5.95867">
        <ele>237.04</ele>
        <time>2020-10-19T08:29:45.000Z</time>
      </trkpt>
      <trkpt lat="45.34125" lon="5.95884">
        <ele>236.79</ele>
        <time>2020-10-19T08:29:50.000Z</time>
      </trkpt>
      <trkpt lat="45.34155" lon="5.95901">
        <ele>240.45</ele>
        <time>2020-10-19T08:29:55.000Z</time>
      </trkpt>
      <trkpt lat="45.34181" lon="5.95924">
        <ele>239.72</ele>
        <time>2020-10-19T08:30:00.000Z</time>
      </trkpt>
      <trkpt lat="45.34209" lon="5.95943">
        <ele>237.58</ele>
        <time>2020-10-19T08:30:05.000Z</time>
      </trkpt>
      <trkpt lat="45.34238" lon="5.95961">
        <ele>234.44</ele>
        <time>2020-10-19T08:30:10.000Z</time>
      </trkpt>
      <trkpt lat="45.3427" lon="5.95971">
        <ele>233.72</ele>
        <time>2020-10-19T08:30:15.000Z</time>
      </trkpt>
      <trkpt lat="45.34301" lon="5.95986">
        <ele>234.85</ele>
        <time>2020-10-19T08:30:20.000Z</time>
      </trkpt>
      <trkpt lat="45.34328" lon="5.96008">
        <ele>236.13</ele>
        <time>2020-10-19T08:30:25.000Z</time>
      </trkpt>
      <trkpt lat="45.34355" lon="5.96036">
        <ele>236.84</ele>
        <time>2020-10-19T08:30:30.000Z</time>
      </trkpt>
      <trkpt lat="45.34379" lon="5.96059">
        <ele>235.41</ele>
        <time>2020-10-19T08:30:35.000Z</time>
      </trkpt>
      <trkpt lat="45.34411" lon="5.96077">
        <ele>234.78</ele>
        <time>2020-10-19T08:30:40.000Z</time>
      </trkpt>
      <trkpt lat="45.34442" lon="5.96093">
        <ele>233.27</ele>
        <time>2020-10-19T08:30:45.000Z</time>
      </trkpt>
      <trkpt lat="45.34471" lon="5.96113">
        <ele>235.83</ele>
        <time>2020-10-19T08:30:50.000Z</time>
      </trkpt>
      <trkpt lat="45.345" lon="5.96134">
        <ele>235.67</ele>
        <time>2020-10-19T08:30:55.000Z</time>
      </trkpt>
      <trkpt lat="45.34528" lon="5.96152">
        <ele>234.43</ele>
        <time>2020-10-19T08:31:00.000Z</time>
      </trkpt>
      <trkpt lat="45.34558" lon="5.9617">
        <ele>234.96</ele>
        <time>2020-10-19T08:31:05.000Z</time>
      </trkpt>
      <trkpt lat="45.34586" lon="5.96187">
        <ele>235.61</ele>
        <time>2020-10-19T08:31:10.000Z</time>
      </trkpt>
      <trkpt lat="45.34613" lon="5.96206">
        <ele>236.32</ele>
        <time>2020-10-19T08:31:15.000Z</time>
      </trkpt>
      <trkpt lat="45.34641" lon="5.96223">
        <ele>235.16</ele>
        <time>2020-10-19T08:31:20.000Z</time>
      </trkpt>
      <trkpt lat="45.34668" lon="5.9624">
        <ele>232.41</ele>
        <time>2020-10-19T08:31:25.000Z</time>
      </trkpt>
      <trkpt lat="45.34696" lon="5.96264">
        <ele>224.41</ele>
        <time>2020-10-19T08:31:30.000Z</time>
      </trkpt>
      <trkpt lat="45.34724" lon="5.96283">
        <ele>226.87</ele>
        <time>2020-10-19T08:31:35.000Z</time>
      </trkpt>
      <trkpt lat="45.34754" lon="5.96297">
        <ele>231.88</ele>
        <time>2020-10-19T08:31:40.000Z</time>
      </trkpt>
      <trkpt lat="45.34785" lon="5.96318">
        <ele>233.41</ele>
        <time>2020-10-19T08:31:45.000Z</time>
      </trkpt>
      <trkpt lat="45.34815" lon="5.96335">
        <ele>235.54</ele>
        <time>2020-10-19T08:31:50.000Z</time>
      </trkpt>
      <trkpt lat="45.34843" lon="5.96336">
        <ele>234.39</ele>
        <time>2020-10-19T08:31:55.000Z</time>
      </trkpt>
      <trkpt lat="45.34874" lon="5.96318">
        <ele>232.55</ele>
        <time>2020-10-19T08:32:00.000Z</time>
      </trkpt>
      <trkpt lat="45.34904" lon="5.96307">
        <ele>233.15</ele>
        <time>2020-10-19T08:32:05.000Z</time>
      </trkpt>
      <trkpt lat="45.34929" lon="5.96298">
        <ele>235.42</ele>
        <time>2020-10-19T08:32:10.000Z</time>
      </trkpt>
      <trkpt lat="45.34964" lon="5.96291">
        <ele>235.84</ele>
        <time>2020-10-19T08:32:15.000Z</time>
      </trkpt>
      <trkpt lat="45.34994" lon="5.96278">
        <ele>236.5</ele>
        <time>2020-10-19T08:32:20.000Z</time>
      </trkpt>
      <trkpt lat="45.35027" lon="5.96272">
        <ele>238.02</ele>
        <time>2020-10-19T08:32:25.000Z</time>
      </trkpt>
      <trkpt lat="45.35059" lon="5.96266">
        <ele>241.11</ele>
        <time>2020-10-19T08:32:30.000Z</time>
      </trkpt>
      <trkpt lat="45.35092" lon="5.96258">
        <ele>239.26</ele>
        <time>2020-10-19T08:32:35.000Z</time>
      </trkpt>
      <trkpt lat="45.35117" lon="5.96258">
        <ele>238.09</ele>
        <time>2020-10-19T08:32:40.000Z</time>
      </trkpt>
      <trkpt lat="45.35134" lon="5.96264">
        <ele>239.39</ele>
        <time>2020-10-19T08:32:45.000Z</time>
      </trkpt>
      <trkpt lat="45.35142" lon="5.96283">
        <ele>241.07</ele>
        <time>2020-10-19T08:32:50.000Z</time>
      </trkpt>
      <trkpt lat="45.35151" lon="5.96295">
        <ele>244.01</ele>
        <time>2020-10-19T08:32:55.000Z</time>
      </trkpt>
      <trkpt lat="45.3516" lon="5.96306">
        <ele>242.26</ele>
        <time>2020-10-19T08:33:11.000Z</time>
      </trkpt>
      <trkpt lat="45.3517" lon="5.96325">
        <ele>240.84</ele>
        <time>2020-10-19T08:33:16.000Z</time>
      </trkpt>
      <trkpt lat="45.35168" lon="5.96349">
        <ele>240.98</ele>
        <time>2020-10-19T08:33:21.000Z</time>
      </trkpt>
      <trkpt lat="45.35173" lon="5.96382">
        <ele>241.05</ele>
        <time>2020-10-19T08:33:26.000Z</time>
      </trkpt>
      <trkpt lat="45.35176" lon="5.96417">
        <ele>241.61</ele>
        <time>2020-10-19T08:33:31.000Z</time>
      </trkpt>
      <trkpt lat="45.35168" lon="5.96453">
        <ele>241.59</ele>
        <time>2020-10-19T08:33:36.000Z</time>
      </trkpt>
      <trkpt lat="45.35158" lon="5.96487">
        <ele>240.27</ele>
        <time>2020-10-19T08:33:41.000Z</time>
      </trkpt>
      <trkpt lat="45.35145" lon="5.9652">
        <ele>238.51</ele>
        <time>2020-10-19T08:33:46.000Z</time>
      </trkpt>
      <trkpt lat="45.35146" lon="5.9655">
        <ele>236.73</ele>
        <time>2020-10-19T08:33:51.000Z</time>
      </trkpt>
      <trkpt lat="45.35166" lon="5.96565">
        <ele>237.07</ele>
        <time>2020-10-19T08:33:56.000Z</time>
      </trkpt>
      <trkpt lat="45.35189" lon="5.96584">
        <ele>237.92</ele>
        <time>2020-10-19T08:34:01.000Z</time>
      </trkpt>
      <trkpt lat="45.35213" lon="5.966">
        <ele>234.9</ele>
        <time>2020-10-19T08:34:06.000Z</time>
      </trkpt>
      <trkpt lat="45.35237" lon="5.96616">
        <ele>233.7</ele>
        <time>2020-10-19T08:34:11.000Z</time>
      </trkpt>
      <trkpt lat="45.35263" lon="5.96631">
        <ele>232.76</ele>
        <time>2020-10-19T08:34:16.000Z</time>
      </trkpt>
      <trkpt lat="45.35289" lon="5.96645">
        <ele>234.21</ele>
        <time>2020-10-19T08:34:21.000Z</time>
      </trkpt>
      <trkpt lat="45.35314" lon="5.96656">
        <ele>234.79</ele>
        <time>2020-10-19T08:34:26.000Z</time>
      </trkpt>
      <trkpt lat="45.35346" lon="5.96662">
        <ele>237.67</ele>
        <time>2020-10-19T08:34:31.000Z</time>
      </trkpt>
      <trkpt lat="45.35371" lon="5.96667">
        <ele>235.05</ele>
        <time>2020-10-19T08:34:36.000Z</time>
      </trkpt>
      <trkpt lat="45.35398" lon="5.96674">
        <ele>234.36</ele>
        <time>2020-10-19T08:34:41.000Z</time>
      </trkpt>
      <trkpt lat="45.35427" lon="5.96673">
        <ele>233.21</ele>
        <time>2020-10-19T08:34:46.000Z</time>
      </trkpt>
      <trkpt lat="45.35458" lon="5.96684">
        <ele>231.26</ele>
        <time>2020-10-19T08:34:51.000Z</time>
      </trkpt>
      <trkpt lat="45.35486" lon="5.9669">
        <ele>234.71</ele>
        <time>2020-10-19T08:34:56.000Z</time>
      </trkpt>
      <trkpt lat="45.35516" lon="5.96698">
        <ele>237.92</ele>
        <time>2020-10-19T08:35:01.000Z</time>
      </trkpt>
      <trkpt lat="45.35545" lon="5.96702">
        <ele>238.55</ele>
        <time>2020-10-19T08:35:06.000Z</time>
      </trkpt>
      <trkpt lat="45.35575" lon="5.96707">
        <ele>237.1</ele>
        <time>2020-10-19T08:35:11.000Z</time>
      </trkpt>
      <trkpt lat="45.35602" lon="5.96713">
        <ele>237.8</ele>
        <time>2020-10-19T08:35:16.000Z</time>
      </trkpt>
      <trkpt lat="45.3563" lon="5.96711">
        <ele>239.66</ele>
        <time>2020-10-19T08:35:21.000Z</time>
      </trkpt>
      <trkpt lat="45.35662" lon="5.9672">
        <ele>238.34</ele>
        <time>2020-10-19T08:35:26.000Z</time>
      </trkpt>
      <trkpt lat="45.35693" lon="5.96722">
        <ele>242.54</ele>
        <time>2020-10-19T08:35:31.000Z</time>
      </trkpt>
      <trkpt lat="45.35713" lon="5.96731">
        <ele>239.69</ele>
        <time>2020-10-19T08:35:36.000Z</time>
      </trkpt>
      <trkpt lat="45.35743" lon="5.96734">
        <ele>242.42</ele>
        <time>2020-10-19T08:35:41.000Z</time>
      </trkpt>
      <trkpt lat="45.35768" lon="5.96742">
        <ele>241.99</ele>
        <time>2020-10-19T08:35:46.000Z</time>
      </trkpt>
      <trkpt lat="45.35792" lon="5.96754">
        <ele>242.07</ele>
        <time>2020-10-19T08:35:51.000Z</time>
      </trkpt>
      <trkpt lat="45.35821" lon="5.96763">
        <ele>244.33</ele>
        <time>2020-10-19T08:35:56.000Z</time>
      </trkpt>
      <trkpt lat="45.35846" lon="5.96765">
        <ele>244.87</ele>
        <time>2020-10-19T08:36:01.000Z</time>
      </trkpt>
      <trkpt lat="45.35875" lon="5.96759">
        <ele>245.7</ele>
        <time>2020-10-19T08:36:06.000Z</time>
      </trkpt>
      <trkpt lat="45.35904" lon="5.96764">
        <ele>244.65</ele>
        <time>2020-10-19T08:36:11.000Z</time>
      </trkpt>
      <trkpt lat="45.3593" lon="5.96764">
        <ele>245.43</ele>
        <time>2020-10-19T08:36:16.000Z</time>
      </trkpt>
      <trkpt lat="45.3596" lon="5.96768">
        <ele>244.11</ele>
        <time>2020-10-19T08:36:21.000Z</time>
      </trkpt>
      <trkpt lat="45.3599" lon="5.96765">
        <ele>243.7</ele>
        <time>2020-10-19T08:36:26.000Z</time>
      </trkpt>
      <trkpt lat="45.3602" lon="5.96763">
        <ele>242.54</ele>
        <time>2020-10-19T08:36:31.000Z</time>
      </trkpt>
      <trkpt lat="45.36052" lon="5.9676">
        <ele>242.18</ele>
        <time>2020-10-19T08:36:36.000Z</time>
      </trkpt>
      <trkpt lat="45.36068" lon="5.96757">
        <ele>240.31</ele>
        <time>2020-10-19T08:36:41.000Z</time>
      </trkpt>
      <trkpt lat="45.3608" lon="5.96752">
        <ele>242.53</ele>
        <time>2020-10-19T08:36:46.000Z</time>
      </trkpt>
      <trkpt lat="45.36095" lon="5.9675">
        <ele>242.01</ele>
        <time>2020-10-19T08:36:51.000Z</time>
      </trkpt>
      <trkpt lat="45.36114" lon="5.96756">
        <ele>241.78</ele>
        <time>2020-10-19T08:36:56.000Z</time>
      </trkpt>
      <trkpt lat="45.36135" lon="5.96758">
        <ele>245.27</ele>
        <time>2020-10-19T08:37:01.000Z</time>
      </trkpt>
      <trkpt lat="45.36155" lon="5.96756">
        <ele>247.5</ele>
        <time>2020-10-19T08:37:06.000Z</time>
      </trkpt>
      <trkpt lat="45.36184" lon="5.96748">
        <ele>245.68</ele>
        <time>2020-10-19T08:37:11.000Z</time>
      </trkpt>
      <trkpt lat="45.36208" lon="5.96743">
        <ele>244.02</ele>
        <time>2020-10-19T08:37:16.000Z</time>
      </trkpt>
      <trkpt lat="45.3623" lon="5.96745">
        <ele>243.94</ele>
        <time>2020-10-19T08:37:21.000Z</time>
      </trkpt>
      <trkpt lat="45.36254" lon="5.96748">
        <ele>245.09</ele>
        <time>2020-10-19T08:37:26.000Z</time>
      </trkpt>
      <trkpt lat="45.36277" lon="5.96749">
        <ele>245.67</ele>
        <time>2020-10-19T08:37:31.000Z</time>
      </trkpt>
      <trkpt lat="45.363" lon="5.96749">
        <ele>246.87</ele>
        <time>2020-10-19T08:37:36.000Z</time>
      </trkpt>
      <trkpt lat="45.36327" lon="5.96745">
        <ele>248.13</ele>
        <time>2020-10-19T08:37:41.000Z</time>
      </trkpt>
      <trkpt lat="45.36351" lon="5.96738">
        <ele>248.66</ele>
        <time>2020-10-19T08:37:46.000Z</time>
      </trkpt>
      <trkpt lat="45.36375" lon="5.96748">
        <ele>247.67</ele>
        <time>2020-10-19T08:37:51.000Z</time>
      </trkpt>
      <trkpt lat="45.36397" lon="5.96758">
        <ele>247.13</ele>
        <time>2020-10-19T08:37:56.000Z</time>
      </trkpt>
      <trkpt lat="45.36429" lon="5.96766">
        <ele>249</ele>
        <time>2020-10-19T08:38:01.000Z</time>
      </trkpt>
      <trkpt lat="45.36459" lon="5.96773">
        <ele>247.78</ele>
        <time>2020-10-19T08:38:06.000Z</time>
      </trkpt>
      <trkpt lat="45.36488" lon="5.96783">
        <ele>245.63</ele>
        <time>2020-10-19T08:38:11.000Z</time>
      </trkpt>
      <trkpt lat="45.36516" lon="5.96792">
        <ele>245.24</ele>
        <time>2020-10-19T08:38:16.000Z</time>
      </trkpt>
      <trkpt lat="45.36547" lon="5.96799">
        <ele>247.43</ele>
        <time>2020-10-19T08:38:21.000Z</time>
      </trkpt>
      <trkpt lat="45.36578" lon="5.96806">
        <ele>245.75</ele>
        <time>2020-10-19T08:38:26.000Z</time>
      </trkpt>
      <trkpt lat="45.36608" lon="5.96813">
        <ele>247.67</ele>
        <time>2020-10-19T08:38:31.000Z</time>
      </trkpt>
      <trkpt lat="45.36639" lon="5.96819">
        <ele>250.35</ele>
        <time>2020-10-19T08:38:36.000Z</time>
      </trkpt>
      <trkpt lat="45.36667" lon="5.96827">
        <ele>248.46</ele>
        <time>2020-10-19T08:38:41.000Z</time>
      </trkpt>
      <trkpt lat="45.36694" lon="5.96837">
        <ele>246.98</ele>
        <time>2020-10-19T08:38:46.000Z</time>
      </trkpt>
      <trkpt lat="45.3672" lon="5.96854">
        <ele>247.15</ele>
        <time>2020-10-19T08:38:51.000Z</time>
      </trkpt>
      <trkpt lat="45.36745" lon="5.96871">
        <ele>247.99</ele>
        <time>2020-10-19T08:38:56.000Z</time>
      </trkpt>
      <trkpt lat="45.36772" lon="5.96888">
        <ele>250.02</ele>
        <time>2020-10-19T08:39:01.000Z</time>
      </trkpt>
      <trkpt lat="45.36796" lon="5.96909">
        <ele>249.66</ele>
        <time>2020-10-19T08:39:06.000Z</time>
      </trkpt>
      <trkpt lat="45.36823" lon="5.96926">
        <ele>247.99</ele>
        <time>2020-10-19T08:39:11.000Z</time>
      </trkpt>
      <trkpt lat="45.36848" lon="5.96946">
        <ele>244.69</ele>
        <time>2020-10-19T08:39:16.000Z</time>
      </trkpt>
      <trkpt lat="45.36876" lon="5.96963">
        <ele>242.84</ele>
        <time>2020-10-19T08:39:21.000Z</time>
      </trkpt>
      <trkpt lat="45.36904" lon="5.96984">
        <ele>240.81</ele>
        <time>2020-10-19T08:39:26.000Z</time>
      </trkpt>
      <trkpt lat="45.36935" lon="5.97001">
        <ele>241.21</ele>
        <time>2020-10-19T08:39:31.000Z</time>
      </trkpt>
      <trkpt lat="45.36966" lon="5.97013">
        <ele>240.54</ele>
        <time>2020-10-19T08:39:36.000Z</time>
      </trkpt>
      <trkpt lat="45.37" lon="5.97028">
        <ele>242.58</ele>
        <time>2020-10-19T08:39:41.000Z</time>
      </trkpt>
      <trkpt lat="45.37034" lon="5.97019">
        <ele>241.32</ele>
        <time>2020-10-19T08:39:46.000Z</time>
      </trkpt>
      <trkpt lat="45.37071" lon="5.97008">
        <ele>241.05</ele>
        <time>2020-10-19T08:39:51.000Z</time>
      </trkpt>
      <trkpt lat="45.37103" lon="5.97021">
        <ele>242.77</ele>
        <time>2020-10-19T08:39:56.000Z</time>
      </trkpt>
      <trkpt lat="45.37134" lon="5.97038">
        <ele>240.2</ele>
        <time>2020-10-19T08:40:01.000Z</time>
      </trkpt>
      <trkpt lat="45.37162" lon="5.97055">
        <ele>240.75</ele>
        <time>2020-10-19T08:40:06.000Z</time>
      </trkpt>
      <trkpt lat="45.3719" lon="5.97074">
        <ele>240.33</ele>
        <time>2020-10-19T08:40:11.000Z</time>
      </trkpt>
      <trkpt lat="45.3722" lon="5.97094">
        <ele>237.13</ele>
        <time>2020-10-19T08:40:16.000Z</time>
      </trkpt>
      <trkpt lat="45.37247" lon="5.97113">
        <ele>238.65</ele>
        <time>2020-10-19T08:40:21.000Z</time>
      </trkpt>
      <trkpt lat="45.37274" lon="5.97131">
        <ele>242.08</ele>
        <time>2020-10-19T08:40:26.000Z</time>
      </trkpt>
      <trkpt lat="45.37302" lon="5.97151">
        <ele>243.23</ele>
        <time>2020-10-19T08:40:31.000Z</time>
      </trkpt>
      <trkpt lat="45.37327" lon="5.97172">
        <ele>245.67</ele>
        <time>2020-10-19T08:40:36.000Z</time>
      </trkpt>
      <trkpt lat="45.37354" lon="5.97187">
        <ele>246.11</ele>
        <time>2020-10-19T08:40:41.000Z</time>
      </trkpt>
      <trkpt lat="45.37378" lon="5.97196">
        <ele>247.56</ele>
        <time>2020-10-19T08:40:46.000Z</time>
      </trkpt>
      <trkpt lat="45.37406" lon="5.97205">
        <ele>248.63</ele>
        <time>2020-10-19T08:40:51.000Z</time>
      </trkpt>
      <trkpt lat="45.37431" lon="5.97212">
        <ele>249.72</ele>
        <time>2020-10-19T08:40:56.000Z</time>
      </trkpt>
      <trkpt lat="45.37456" lon="5.9722">
        <ele>251.45</ele>
        <time>2020-10-19T08:41:01.000Z</time>
      </trkpt>
      <trkpt lat="45.3748" lon="5.97226">
        <ele>251.94</ele>
        <time>2020-10-19T08:41:06.000Z</time>
      </trkpt>
      <trkpt lat="45.37504" lon="5.97232">
        <ele>253.44</ele>
        <time>2020-10-19T08:41:11.000Z</time>
      </trkpt>
      <trkpt lat="45.37528" lon="5.9724">
        <ele>251.4</ele>
        <time>2020-10-19T08:41:16.000Z</time>
      </trkpt>
      <trkpt lat="45.3755" lon="5.97249">
        <ele>250.42</ele>
        <time>2020-10-19T08:41:21.000Z</time>
      </trkpt>
      <trkpt lat="45.37577" lon="5.97255">
        <ele>250.57</ele>
        <time>2020-10-19T08:41:26.000Z</time>
      </trkpt>
      <trkpt lat="45.37602" lon="5.97248">
        <ele>249.32</ele>
        <time>2020-10-19T08:41:31.000Z</time>
      </trkpt>
      <trkpt lat="45.37624" lon="5.97252">
        <ele>247.93</ele>
        <time>2020-10-19T08:41:36.000Z</time>
      </trkpt>
      <trkpt lat="45.37638" lon="5.97254">
        <ele>249.81</ele>
        <time>2020-10-19T08:41:41.000Z</time>
      </trkpt>
      <trkpt lat="45.37649" lon="5.97257">
        <ele>251</ele>
        <time>2020-10-19T08:41:47.000Z</time>
      </trkpt>
      <trkpt lat="45.3767" lon="5.97265">
        <ele>252.19</ele>
        <time>2020-10-19T08:41:52.000Z</time>
      </trkpt>
      <trkpt lat="45.37696" lon="5.97275">
        <ele>252.03</ele>
        <time>2020-10-19T08:41:57.000Z</time>
      </trkpt>
      <trkpt lat="45.37722" lon="5.97281">
        <ele>251.7</ele>
        <time>2020-10-19T08:42:02.000Z</time>
      </trkpt>
      <trkpt lat="45.3775" lon="5.97284">
        <ele>249.81</ele>
        <time>2020-10-19T08:42:07.000Z</time>
      </trkpt>
      <trkpt lat="45.37777" lon="5.97288">
        <ele>249.6</ele>
        <time>2020-10-19T08:42:12.000Z</time>
      </trkpt>
      <trkpt lat="45.37806" lon="5.97297">
        <ele>251.03</ele>
        <time>2020-10-19T08:42:17.000Z</time>
      </trkpt>
      <trkpt lat="45.37835" lon="5.97299">
        <ele>254.11</ele>
        <time>2020-10-19T08:42:22.000Z</time>
      </trkpt>
      <trkpt lat="45.37863" lon="5.973">
        <ele>254.01</ele>
        <time>2020-10-19T08:42:27.000Z</time>
      </trkpt>
      <trkpt lat="45.37892" lon="5.97302">
        <ele>253.25</ele>
        <time>2020-10-19T08:42:32.000Z</time>
      </trkpt>
      <trkpt lat="45.37921" lon="5.973">
        <ele>253.25</ele>
        <time>2020-10-19T08:42:37.000Z</time>
      </trkpt>
      <trkpt lat="45.37948" lon="5.973">
        <ele>252.73</ele>
        <time>2020-10-19T08:42:42.000Z</time>
      </trkpt>
      <trkpt lat="45.37976" lon="5.97295">
        <ele>251.82</ele>
        <time>2020-10-19T08:42:47.000Z</time>
      </trkpt>
      <trkpt lat="45.38005" lon="5.97297">
        <ele>252.71</ele>
        <time>2020-10-19T08:42:52.000Z</time>
      </trkpt>
      <trkpt lat="45.38036" lon="5.97301">
        <ele>251.44</ele>
        <time>2020-10-19T08:42:57.000Z</time>
      </trkpt>
      <trkpt lat="45.38064" lon="5.97311">
        <ele>251.77</ele>
        <time>2020-10-19T08:43:02.000Z</time>
      </trkpt>
      <trkpt lat="45.38095" lon="5.97329">
        <ele>247.98</ele>
        <time>2020-10-19T08:43:07.000Z</time>
      </trkpt>
      <trkpt lat="45.38123" lon="5.97339">
        <ele>248.35</ele>
        <time>2020-10-19T08:43:12.000Z</time>
      </trkpt>
      <trkpt lat="45.3815" lon="5.97341">
        <ele>249.78</ele>
        <time>2020-10-19T08:43:17.000Z</time>
      </trkpt>
      <trkpt lat="45.38174" lon="5.97322">
        <ele>251.96</ele>
        <time>2020-10-19T08:43:22.000Z</time>
      </trkpt>
      <trkpt lat="45.38199" lon="5.97312">
        <ele>247</ele>
        <time>2020-10-19T08:43:27.000Z</time>
      </trkpt>
      <trkpt lat="45.38227" lon="5.97315">
        <ele>245.81</ele>
        <time>2020-10-19T08:43:32.000Z</time>
      </trkpt>
      <trkpt lat="45.38258" lon="5.9732">
        <ele>245.94</ele>
        <time>2020-10-19T08:43:37.000Z</time>
      </trkpt>
      <trkpt lat="45.38283" lon="5.97337">
        <ele>245.52</ele>
        <time>2020-10-19T08:43:42.000Z</time>
      </trkpt>
      <trkpt lat="45.38308" lon="5.97351">
        <ele>244.2</ele>
        <time>2020-10-19T08:43:47.000Z</time>
      </trkpt>
      <trkpt lat="45.38332" lon="5.97365">
        <ele>244.03</ele>
        <time>2020-10-19T08:43:52.000Z</time>
      </trkpt>
      <trkpt lat="45.38357" lon="5.97378">
        <ele>244.34</ele>
        <time>2020-10-19T08:43:57.000Z</time>
      </trkpt>
      <trkpt lat="45.38389" lon="5.97397">
        <ele>242.56</ele>
        <time>2020-10-19T08:44:02.000Z</time>
      </trkpt>
      <trkpt lat="45.38413" lon="5.97411">
        <ele>242.35</ele>
        <time>2020-10-19T08:44:07.000Z</time>
      </trkpt>
      <trkpt lat="45.38438" lon="5.97425">
        <ele>242.02</ele>
        <time>2020-10-19T08:44:12.000Z</time>
      </trkpt>
      <trkpt lat="45.3847" lon="5.97442">
        <ele>241.82</ele>
        <time>2020-10-19T08:44:17.000Z</time>
      </trkpt>
      <trkpt lat="45.38494" lon="5.97459">
        <ele>244.7</ele>
        <time>2020-10-19T08:44:22.000Z</time>
      </trkpt>
      <trkpt lat="45.38523" lon="5.97472">
        <ele>245.12</ele>
        <time>2020-10-19T08:44:27.000Z</time>
      </trkpt>
      <trkpt lat="45.38546" lon="5.97485">
        <ele>245.47</ele>
        <time>2020-10-19T08:44:32.000Z</time>
      </trkpt>
      <trkpt lat="45.38574" lon="5.97499">
        <ele>242.91</ele>
        <time>2020-10-19T08:44:37.000Z</time>
      </trkpt>
      <trkpt lat="45.38597" lon="5.97512">
        <ele>244.49</ele>
        <time>2020-10-19T08:44:42.000Z</time>
      </trkpt>
      <trkpt lat="45.38626" lon="5.9753">
        <ele>244.72</ele>
        <time>2020-10-19T08:44:47.000Z</time>
      </trkpt>
      <trkpt lat="45.3866" lon="5.97545">
        <ele>244.98</ele>
        <time>2020-10-19T08:44:52.000Z</time>
      </trkpt>
      <trkpt lat="45.3869" lon="5.97562">
        <ele>242.18</ele>
        <time>2020-10-19T08:44:57.000Z</time>
      </trkpt>
      <trkpt lat="45.38718" lon="5.97574">
        <ele>241.99</ele>
        <time>2020-10-19T08:45:02.000Z</time>
      </trkpt>
      <trkpt lat="45.38747" lon="5.9759">
        <ele>241.38</ele>
        <time>2020-10-19T08:45:07.000Z</time>
      </trkpt>
      <trkpt lat="45.38777" lon="5.97609">
        <ele>238.76</ele>
        <time>2020-10-19T08:45:12.000Z</time>
      </trkpt>
      <trkpt lat="45.38803" lon="5.97624">
        <ele>239.59</ele>
        <time>2020-10-19T08:45:17.000Z</time>
      </trkpt>
      <trkpt lat="45.38828" lon="5.97636">
        <ele>238.55</ele>
        <time>2020-10-19T08:45:22.000Z</time>
      </trkpt>
      <trkpt lat="45.38853" lon="5.97652">
        <ele>237.24</ele>
        <time>2020-10-19T08:45:27.000Z</time>
      </trkpt>
      <trkpt lat="45.38881" lon="5.97665">
        <ele>240.03</ele>
        <time>2020-10-19T08:45:32.000Z</time>
      </trkpt>
      <trkpt lat="45.3891" lon="5.97682">
        <ele>241.65</ele>
        <time>2020-10-19T08:45:37.000Z</time>
      </trkpt>
      <trkpt lat="45.38937" lon="5.97698">
        <ele>242.35</ele>
        <time>2020-10-19T08:45:42.000Z</time>
      </trkpt>
      <trkpt lat="45.38965" lon="5.97711">
        <ele>242.64</ele>
        <time>2020-10-19T08:45:47.000Z</time>
      </trkpt>
      <trkpt lat="45.38995" lon="5.97729">
        <ele>242.35</ele>
        <time>2020-10-19T08:45:52.000Z</time>
      </trkpt>
      <trkpt lat="45.39022" lon="5.97747">
        <ele>241.12</ele>
        <time>2020-10-19T08:45:57.000Z</time>
      </trkpt>
      <trkpt lat="45.39051" lon="5.97767">
        <ele>240.48</ele>
        <time>2020-10-19T08:46:02.000Z</time>
      </trkpt>
      <trkpt lat="45.39079" lon="5.97783">
        <ele>239.85</ele>
        <time>2020-10-19T08:46:07.000Z</time>
      </trkpt>
      <trkpt lat="45.39107" lon="5.97796">
        <ele>238.87</ele>
        <time>2020-10-19T08:46:12.000Z</time>
      </trkpt>
      <trkpt lat="45.39134" lon="5.97812">
        <ele>238.75</ele>
        <time>2020-10-19T08:46:17.000Z</time>
      </trkpt>
      <trkpt lat="45.39162" lon="5.97825">
        <ele>239.3</ele>
        <time>2020-10-19T08:46:22.000Z</time>
      </trkpt>
      <trkpt lat="45.39188" lon="5.9784">
        <ele>239.08</ele>
        <time>2020-10-19T08:46:27.000Z</time>
      </trkpt>
      <trkpt lat="45.39215" lon="5.97856">
        <ele>238.52</ele>
        <time>2020-10-19T08:46:32.000Z</time>
      </trkpt>
      <trkpt lat="45.39236" lon="5.97865">
        <ele>239.47</ele>
        <time>2020-10-19T08:46:37.000Z</time>
      </trkpt>
      <trkpt lat="45.39253" lon="5.97872">
        <ele>239.77</ele>
        <time>2020-10-19T08:46:42.000Z</time>
      </trkpt>
      <trkpt lat="45.39271" lon="5.97883">
        <ele>239.65</ele>
        <time>2020-10-19T08:46:47.000Z</time>
      </trkpt>
      <trkpt lat="45.39284" lon="5.97889">
        <ele>239.52</ele>
        <time>2020-10-19T08:46:52.000Z</time>
      </trkpt>
      <trkpt lat="45.39295" lon="5.97894">
        <ele>240.57</ele>
        <time>2020-10-19T08:46:57.000Z</time>
      </trkpt>
      <trkpt lat="45.39312" lon="5.97905">
        <ele>239.26</ele>
        <time>2020-10-19T08:47:02.000Z</time>
      </trkpt>
      <trkpt lat="45.39335" lon="5.97918">
        <ele>239.5</ele>
        <time>2020-10-19T08:47:07.000Z</time>
      </trkpt>
      <trkpt lat="45.39354" lon="5.97927">
        <ele>241.01</ele>
        <time>2020-10-19T08:47:12.000Z</time>
      </trkpt>
      <trkpt lat="45.39373" lon="5.97941">
        <ele>240.64</ele>
        <time>2020-10-19T08:47:17.000Z</time>
      </trkpt>
      <trkpt lat="45.39402" lon="5.97953">
        <ele>240.87</ele>
        <time>2020-10-19T08:47:22.000Z</time>
      </trkpt>
      <trkpt lat="45.39427" lon="5.97967">
        <ele>240.04</ele>
        <time>2020-10-19T08:47:27.000Z</time>
      </trkpt>
      <trkpt lat="45.39453" lon="5.97981">
        <ele>239.47</ele>
        <time>2020-10-19T08:47:32.000Z</time>
      </trkpt>
      <trkpt lat="45.39486" lon="5.97996">
        <ele>241.39</ele>
        <time>2020-10-19T08:47:37.000Z</time>
      </trkpt>
      <trkpt lat="45.39509" lon="5.98006">
        <ele>240.84</ele>
        <time>2020-10-19T08:47:42.000Z</time>
      </trkpt>
      <trkpt lat="45.39531" lon="5.98017">
        <ele>237.55</ele>
        <time>2020-10-19T08:47:47.000Z</time>
      </trkpt>
      <trkpt lat="45.39549" lon="5.98026">
        <ele>240.07</ele>
        <time>2020-10-19T08:47:52.000Z</time>
      </trkpt>
      <trkpt lat="45.39558" lon="5.98035">
        <ele>240.06</ele>
        <time>2020-10-19T08:47:57.000Z</time>
      </trkpt>
      <trkpt lat="45.39568" lon="5.9804">
        <ele>241.38</ele>
        <time>2020-10-19T08:51:15.000Z</time>
      </trkpt>
      <trkpt lat="45.39587" lon="5.98049">
        <ele>233.89</ele>
        <time>2020-10-19T08:51:20.000Z</time>
      </trkpt>
      <trkpt lat="45.39606" lon="5.9806">
        <ele>230.65</ele>
        <time>2020-10-19T08:51:25.000Z</time>
      </trkpt>
      <trkpt lat="45.39627" lon="5.9807">
        <ele>231.15</ele>
        <time>2020-10-19T08:51:30.000Z</time>
      </trkpt>
      <trkpt lat="45.39649" lon="5.98081">
        <ele>233.7</ele>
        <time>2020-10-19T08:51:35.000Z</time>
      </trkpt>
      <trkpt lat="45.39681" lon="5.98098">
        <ele>237.01</ele>
        <time>2020-10-19T08:51:40.000Z</time>
      </trkpt>
      <trkpt lat="45.39708" lon="5.98112">
        <ele>239.18</ele>
        <time>2020-10-19T08:51:45.000Z</time>
      </trkpt>
      <trkpt lat="45.39735" lon="5.98126">
        <ele>238.63</ele>
        <time>2020-10-19T08:51:50.000Z</time>
      </trkpt>
      <trkpt lat="45.39763" lon="5.98139">
        <ele>239.42</ele>
        <time>2020-10-19T08:51:55.000Z</time>
      </trkpt>
      <trkpt lat="45.39791" lon="5.98152">
        <ele>239.01</ele>
        <time>2020-10-19T08:52:00.000Z</time>
      </trkpt>
      <trkpt lat="45.39816" lon="5.98165">
        <ele>238.53</ele>
        <time>2020-10-19T08:52:05.000Z</time>
      </trkpt>
      <trkpt lat="45.39845" lon="5.98184">
        <ele>239.18</ele>
        <time>2020-10-19T08:52:10.000Z</time>
      </trkpt>
      <trkpt lat="45.39875" lon="5.98196">
        <ele>241.27</ele>
        <time>2020-10-19T08:52:15.000Z</time>
      </trkpt>
      <trkpt lat="45.39903" lon="5.98213">
        <ele>242.23</ele>
        <time>2020-10-19T08:52:20.000Z</time>
      </trkpt>
      <trkpt lat="45.39932" lon="5.98232">
        <ele>240.47</ele>
        <time>2020-10-19T08:52:25.000Z</time>
      </trkpt>
      <trkpt lat="45.39958" lon="5.9825">
        <ele>240.65</ele>
        <time>2020-10-19T08:52:30.000Z</time>
      </trkpt>
      <trkpt lat="45.39983" lon="5.98258">
        <ele>245.37</ele>
        <time>2020-10-19T08:52:35.000Z</time>
      </trkpt>
      <trkpt lat="45.39994" lon="5.98266">
        <ele>246.51</ele>
        <time>2020-10-19T08:52:40.000Z</time>
      </trkpt>
      <trkpt lat="45.40008" lon="5.98275">
        <ele>248.76</ele>
        <time>2020-10-19T08:52:45.000Z</time>
      </trkpt>
      <trkpt lat="45.40029" lon="5.98291">
        <ele>248.99</ele>
        <time>2020-10-19T08:52:50.000Z</time>
      </trkpt>
      <trkpt lat="45.4005" lon="5.98305">
        <ele>250.49</ele>
        <time>2020-10-19T08:52:55.000Z</time>
      </trkpt>
      <trkpt lat="45.40072" lon="5.98319">
        <ele>249.34</ele>
        <time>2020-10-19T08:53:00.000Z</time>
      </trkpt>
      <trkpt lat="45.40094" lon="5.98337">
        <ele>250.9</ele>
        <time>2020-10-19T08:53:05.000Z</time>
      </trkpt>
      <trkpt lat="45.40117" lon="5.98357">
        <ele>252.11</ele>
        <time>2020-10-19T08:53:10.000Z</time>
      </trkpt>
      <trkpt lat="45.40141" lon="5.98374">
        <ele>251.58</ele>
        <time>2020-10-19T08:53:15.000Z</time>
      </trkpt>
      <trkpt lat="45.40165" lon="5.98388">
        <ele>252.28</ele>
        <time>2020-10-19T08:53:20.000Z</time>
      </trkpt>
      <trkpt lat="45.40192" lon="5.984">
        <ele>251.25</ele>
        <time>2020-10-19T08:53:25.000Z</time>
      </trkpt>
      <trkpt lat="45.40215" lon="5.98412">
        <ele>249.19</ele>
        <time>2020-10-19T08:53:30.000Z</time>
      </trkpt>
      <trkpt lat="45.40239" lon="5.98419">
        <ele>252.26</ele>
        <time>2020-10-19T08:53:35.000Z</time>
      </trkpt>
      <trkpt lat="45.40262" lon="5.98424">
        <ele>254.61</ele>
        <time>2020-10-19T08:53:40.000Z</time>
      </trkpt>
      <trkpt lat="45.40279" lon="5.98429">
        <ele>256.7</ele>
        <time>2020-10-19T08:53:45.000Z</time>
      </trkpt>
      <trkpt lat="45.40304" lon="5.98444">
        <ele>254.18</ele>
        <time>2020-10-19T08:53:50.000Z</time>
      </trkpt>
      <trkpt lat="45.4033" lon="5.98459">
        <ele>253.44</ele>
        <time>2020-10-19T08:53:55.000Z</time>
      </trkpt>
      <trkpt lat="45.40359" lon="5.98473">
        <ele>254</ele>
        <time>2020-10-19T08:54:00.000Z</time>
      </trkpt>
      <trkpt lat="45.40386" lon="5.98485">
        <ele>251.41</ele>
        <time>2020-10-19T08:54:05.000Z</time>
      </trkpt>
      <trkpt lat="45.40412" lon="5.98498">
        <ele>249.94</ele>
        <time>2020-10-19T08:54:10.000Z</time>
      </trkpt>
      <trkpt lat="45.40436" lon="5.98513">
        <ele>249.02</ele>
        <time>2020-10-19T08:54:15.000Z</time>
      </trkpt>
      <trkpt lat="45.40463" lon="5.98526">
        <ele>250.73</ele>
        <time>2020-10-19T08:54:20.000Z</time>
      </trkpt>
      <trkpt lat="45.40489" lon="5.98541">
        <ele>251.31</ele>
        <time>2020-10-19T08:54:25.000Z</time>
      </trkpt>
      <trkpt lat="45.40518" lon="5.98558">
        <ele>253.47</ele>
        <time>2020-10-19T08:54:30.000Z</time>
      </trkpt>
      <trkpt lat="45.40544" lon="5.98577">
        <ele>253.81</ele>
        <time>2020-10-19T08:54:35.000Z</time>
      </trkpt>
      <trkpt lat="45.40566" lon="5.98586">
        <ele>254.85</ele>
        <time>2020-10-19T08:54:40.000Z</time>
      </trkpt>
      <trkpt lat="45.40596" lon="5.98603">
        <ele>253.2</ele>
        <time>2020-10-19T08:54:45.000Z</time>
      </trkpt>
      <trkpt lat="45.40623" lon="5.98617">
        <ele>251.26</ele>
        <time>2020-10-19T08:54:50.000Z</time>
      </trkpt>
      <trkpt lat="45.40653" lon="5.98633">
        <ele>251.16</ele>
        <time>2020-10-19T08:54:55.000Z</time>
      </trkpt>
      <trkpt lat="45.40684" lon="5.98648">
        <ele>251.4</ele>
        <time>2020-10-19T08:55:00.000Z</time>
      </trkpt>
      <trkpt lat="45.40712" lon="5.98662">
        <ele>250.31</ele>
        <time>2020-10-19T08:55:05.000Z</time>
      </trkpt>
      <trkpt lat="45.40739" lon="5.98662">
        <ele>254.55</ele>
        <time>2020-10-19T08:55:10.000Z</time>
      </trkpt>
      <trkpt lat="45.40754" lon="5.98637">
        <ele>256.96</ele>
        <time>2020-10-19T08:55:15.000Z</time>
      </trkpt>
      <trkpt lat="45.4076" lon="5.98605">
        <ele>253.92</ele>
        <time>2020-10-19T08:55:20.000Z</time>
      </trkpt>
      <trkpt lat="45.40774" lon="5.98568">
        <ele>254.74</ele>
        <time>2020-10-19T08:55:25.000Z</time>
      </trkpt>
      <trkpt lat="45.40781" lon="5.98533">
        <ele>254.33</ele>
        <time>2020-10-19T08:55:30.000Z</time>
      </trkpt>
      <trkpt lat="45.40794" lon="5.98502">
        <ele>254.13</ele>
        <time>2020-10-19T08:55:35.000Z</time>
      </trkpt>
      <trkpt lat="45.40804" lon="5.98467">
        <ele>253.76</ele>
        <time>2020-10-19T08:55:40.000Z</time>
      </trkpt>
      <trkpt lat="45.40818" lon="5.98432">
        <ele>252.26</ele>
        <time>2020-10-19T08:55:45.000Z</time>
      </trkpt>
      <trkpt lat="45.4083" lon="5.98397">
        <ele>252.61</ele>
        <time>2020-10-19T08:55:50.000Z</time>
      </trkpt>
      <trkpt lat="45.40841" lon="5.98366">
        <ele>253.45</ele>
        <time>2020-10-19T08:55:55.000Z</time>
      </trkpt>
      <trkpt lat="45.40852" lon="5.98328">
        <ele>254.84</ele>
        <time>2020-10-19T08:56:00.000Z</time>
      </trkpt>
      <trkpt lat="45.40867" lon="5.98295">
        <ele>252.2</ele>
        <time>2020-10-19T08:56:05.000Z</time>
      </trkpt>
      <trkpt lat="45.40876" lon="5.98264">
        <ele>253.05</ele>
        <time>2020-10-19T08:56:10.000Z</time>
      </trkpt>
      <trkpt lat="45.40886" lon="5.98235">
        <ele>252.55</ele>
        <time>2020-10-19T08:56:15.000Z</time>
      </trkpt>
      <trkpt lat="45.40893" lon="5.98211">
        <ele>252.49</ele>
        <time>2020-10-19T08:56:20.000Z</time>
      </trkpt>
      <trkpt lat="45.40898" lon="5.98174">
        <ele>253.34</ele>
        <time>2020-10-19T08:56:25.000Z</time>
      </trkpt>
      <trkpt lat="45.40909" lon="5.98144">
        <ele>254.9</ele>
        <time>2020-10-19T08:56:30.000Z</time>
      </trkpt>
      <trkpt lat="45.4092" lon="5.9811">
        <ele>254.03</ele>
        <time>2020-10-19T08:56:35.000Z</time>
      </trkpt>
      <trkpt lat="45.40927" lon="5.98072">
        <ele>256.88</ele>
        <time>2020-10-19T08:56:40.000Z</time>
      </trkpt>
      <trkpt lat="45.40934" lon="5.98039">
        <ele>257.53</ele>
        <time>2020-10-19T08:56:45.000Z</time>
      </trkpt>
      <trkpt lat="45.40943" lon="5.98005">
        <ele>261.65</ele>
        <time>2020-10-19T08:56:50.000Z</time>
      </trkpt>
      <trkpt lat="45.40944" lon="5.97977">
        <ele>262.14</ele>
        <time>2020-10-19T08:56:55.000Z</time>
      </trkpt>
      <trkpt lat="45.4095" lon="5.97965">
        <ele>264.15</ele>
        <time>2020-10-19T08:57:01.000Z</time>
      </trkpt>
      <trkpt lat="45.4097" lon="5.97976">
        <ele>260.57</ele>
        <time>2020-10-19T08:57:06.000Z</time>
      </trkpt>
      <trkpt lat="45.40994" lon="5.97982">
        <ele>259.96</ele>
        <time>2020-10-19T08:57:11.000Z</time>
      </trkpt>
      <trkpt lat="45.41017" lon="5.97996">
        <ele>257.26</ele>
        <time>2020-10-19T08:57:16.000Z</time>
      </trkpt>
      <trkpt lat="45.4104" lon="5.98012">
        <ele>255.65</ele>
        <time>2020-10-19T08:57:21.000Z</time>
      </trkpt>
      <trkpt lat="45.41065" lon="5.98027">
        <ele>256.08</ele>
        <time>2020-10-19T08:57:26.000Z</time>
      </trkpt>
      <trkpt lat="45.41088" lon="5.9804">
        <ele>256.5</ele>
        <time>2020-10-19T08:57:31.000Z</time>
      </trkpt>
      <trkpt lat="45.41114" lon="5.98052">
        <ele>256.06</ele>
        <time>2020-10-19T08:57:36.000Z</time>
      </trkpt>
      <trkpt lat="45.41138" lon="5.98061">
        <ele>254.93</ele>
        <time>2020-10-19T08:57:41.000Z</time>
      </trkpt>
      <trkpt lat="45.41162" lon="5.98068">
        <ele>256.24</ele>
        <time>2020-10-19T08:57:46.000Z</time>
      </trkpt>
      <trkpt lat="45.41187" lon="5.98073">
        <ele>255.73</ele>
        <time>2020-10-19T08:57:51.000Z</time>
      </trkpt>
      <trkpt lat="45.41213" lon="5.9808">
        <ele>254.39</ele>
        <time>2020-10-19T08:57:56.000Z</time>
      </trkpt>
      <trkpt lat="45.41238" lon="5.98087">
        <ele>253.5</ele>
        <time>2020-10-19T08:58:01.000Z</time>
      </trkpt>
      <trkpt lat="45.41265" lon="5.98094">
        <ele>252.87</ele>
        <time>2020-10-19T08:58:06.000Z</time>
      </trkpt>
      <trkpt lat="45.41294" lon="5.98099">
        <ele>255.63</ele>
        <time>2020-10-19T08:58:11.000Z</time>
      </trkpt>
      <trkpt lat="45.41323" lon="5.98103">
        <ele>251.67</ele>
        <time>2020-10-19T08:58:16.000Z</time>
      </trkpt>
      <trkpt lat="45.41352" lon="5.9811">
        <ele>251.62</ele>
        <time>2020-10-19T08:58:21.000Z</time>
      </trkpt>
      <trkpt lat="45.41384" lon="5.98118">
        <ele>252.73</ele>
        <time>2020-10-19T08:58:26.000Z</time>
      </trkpt>
      <trkpt lat="45.41414" lon="5.98127">
        <ele>255.04</ele>
        <time>2020-10-19T08:58:31.000Z</time>
      </trkpt>
      <trkpt lat="45.41442" lon="5.98134">
        <ele>253.25</ele>
        <time>2020-10-19T08:58:36.000Z</time>
      </trkpt>
      <trkpt lat="45.41473" lon="5.98143">
        <ele>254.91</ele>
        <time>2020-10-19T08:58:41.000Z</time>
      </trkpt>
      <trkpt lat="45.41501" lon="5.98149">
        <ele>253.86</ele>
        <time>2020-10-19T08:58:46.000Z</time>
      </trkpt>
      <trkpt lat="45.41527" lon="5.98154">
        <ele>253.32</ele>
        <time>2020-10-19T08:58:51.000Z</time>
      </trkpt>
      <trkpt lat="45.41558" lon="5.98159">
        <ele>252.68</ele>
        <time>2020-10-19T08:58:56.000Z</time>
      </trkpt>
      <trkpt lat="45.41588" lon="5.98165">
        <ele>251.54</ele>
        <time>2020-10-19T08:59:01.000Z</time>
      </trkpt>
      <trkpt lat="45.41617" lon="5.98173">
        <ele>252.38</ele>
        <time>2020-10-19T08:59:06.000Z</time>
      </trkpt>
      <trkpt lat="45.41645" lon="5.98177">
        <ele>251.02</ele>
        <time>2020-10-19T08:59:11.000Z</time>
      </trkpt>
      <trkpt lat="45.41676" lon="5.98184">
        <ele>253.78</ele>
        <time>2020-10-19T08:59:16.000Z</time>
      </trkpt>
      <trkpt lat="45.41705" lon="5.98191">
        <ele>251.74</ele>
        <time>2020-10-19T08:59:21.000Z</time>
      </trkpt>
      <trkpt lat="45.41734" lon="5.98195">
        <ele>251.93</ele>
        <time>2020-10-19T08:59:26.000Z</time>
      </trkpt>
      <trkpt lat="45.41762" lon="5.98203">
        <ele>252.76</ele>
        <time>2020-10-19T08:59:31.000Z</time>
      </trkpt>
      <trkpt lat="45.41789" lon="5.9821">
        <ele>254.68</ele>
        <time>2020-10-19T08:59:36.000Z</time>
      </trkpt>
      <trkpt lat="45.41812" lon="5.98217">
        <ele>258.81</ele>
        <time>2020-10-19T08:59:41.000Z</time>
      </trkpt>
      <trkpt lat="45.41837" lon="5.98223">
        <ele>258.9</ele>
        <time>2020-10-19T08:59:46.000Z</time>
      </trkpt>
      <trkpt lat="45.41862" lon="5.9823">
        <ele>255.57</ele>
        <time>2020-10-19T08:59:51.000Z</time>
      </trkpt>
      <trkpt lat="45.41886" lon="5.98233">
        <ele>254.03</ele>
        <time>2020-10-19T08:59:56.000Z</time>
      </trkpt>
      <trkpt lat="45.41912" lon="5.98241">
        <ele>255.19</ele>
        <time>2020-10-19T09:00:01.000Z</time>
      </trkpt>
      <trkpt lat="45.41935" lon="5.98246">
        <ele>259.61</ele>
        <time>2020-10-19T09:00:06.000Z</time>
      </trkpt>
      <trkpt lat="45.41957" lon="5.98251">
        <ele>261.62</ele>
        <time>2020-10-19T09:00:11.000Z</time>
      </trkpt>
      <trkpt lat="45.41972" lon="5.98256">
        <ele>262.26</ele>
        <time>2020-10-19T09:00:16.000Z</time>
      </trkpt>
      <trkpt lat="45.41989" lon="5.98261">
        <ele>264.24</ele>
        <time>2020-10-19T09:00:21.000Z</time>
      </trkpt>
      <trkpt lat="45.42006" lon="5.98267">
        <ele>263.5</ele>
        <time>2020-10-19T09:00:26.000Z</time>
      </trkpt>
      <trkpt lat="45.42023" lon="5.98269">
        <ele>264.77</ele>
        <time>2020-10-19T09:00:31.000Z</time>
      </trkpt>
      <trkpt lat="45.4204" lon="5.98272">
        <ele>267.62</ele>
        <time>2020-10-19T09:00:36.000Z</time>
      </trkpt>
      <trkpt lat="45.42053" lon="5.98267">
        <ele>266.92</ele>
        <time>2020-10-19T09:00:41.000Z</time>
      </trkpt>
      <trkpt lat="45.4207" lon="5.98259">
        <ele>268.73</ele>
        <time>2020-10-19T09:00:46.000Z</time>
      </trkpt>
      <trkpt lat="45.42086" lon="5.98248">
        <ele>272.59</ele>
        <time>2020-10-19T09:00:51.000Z</time>
      </trkpt>
      <trkpt lat="45.42102" lon="5.98249">
        <ele>274.95</ele>
        <time>2020-10-19T09:00:56.000Z</time>
      </trkpt>
      <trkpt lat="45.42096" lon="5.9827">
        <ele>277.31</ele>
        <time>2020-10-19T09:01:01.000Z</time>
      </trkpt>
      <trkpt lat="45.4209" lon="5.98292">
        <ele>278.45</ele>
        <time>2020-10-19T09:01:06.000Z</time>
      </trkpt>
      <trkpt lat="45.42095" lon="5.98315">
        <ele>282.87</ele>
        <time>2020-10-19T09:01:11.000Z</time>
      </trkpt>
      <trkpt lat="45.42108" lon="5.9833">
        <ele>285.41</ele>
        <time>2020-10-19T09:01:16.000Z</time>
      </trkpt>
      <trkpt lat="45.42123" lon="5.98329">
        <ele>287.64</ele>
        <time>2020-10-19T09:01:21.000Z</time>
      </trkpt>
      <trkpt lat="45.42119" lon="5.98305">
        <ele>286.36</ele>
        <time>2020-10-19T09:01:26.000Z</time>
      </trkpt>
      <trkpt lat="45.4212" lon="5.98278">
        <ele>287.49</ele>
        <time>2020-10-19T09:01:31.000Z</time>
      </trkpt>
      <trkpt lat="45.42134" lon="5.98264">
        <ele>286.97</ele>
        <time>2020-10-19T09:01:36.000Z</time>
      </trkpt>
      <trkpt lat="45.42152" lon="5.98268">
        <ele>288.69</ele>
        <time>2020-10-19T09:01:41.000Z</time>
      </trkpt>
      <trkpt lat="45.42168" lon="5.98279">
        <ele>291.37</ele>
        <time>2020-10-19T09:01:46.000Z</time>
      </trkpt>
      <trkpt lat="45.42182" lon="5.98291">
        <ele>294.1</ele>
        <time>2020-10-19T09:01:51.000Z</time>
      </trkpt>
      <trkpt lat="45.42197" lon="5.98305">
        <ele>295.45</ele>
        <time>2020-10-19T09:01:56.000Z</time>
      </trkpt>
      <trkpt lat="45.42211" lon="5.98313">
        <ele>298.36</ele>
        <time>2020-10-19T09:02:01.000Z</time>
      </trkpt>
      <trkpt lat="45.42225" lon="5.98313">
        <ele>301.07</ele>
        <time>2020-10-19T09:02:06.000Z</time>
      </trkpt>
      <trkpt lat="45.42241" lon="5.98304">
        <ele>305.22</ele>
        <time>2020-10-19T09:02:11.000Z</time>
      </trkpt>
      <trkpt lat="45.42257" lon="5.98293">
        <ele>304.38</ele>
        <time>2020-10-19T09:02:16.000Z</time>
      </trkpt>
      <trkpt lat="45.42271" lon="5.9828">
        <ele>302.42</ele>
        <time>2020-10-19T09:02:21.000Z</time>
      </trkpt>
      <trkpt lat="45.42288" lon="5.98268">
        <ele>300.46</ele>
        <time>2020-10-19T09:02:26.000Z</time>
      </trkpt>
      <trkpt lat="45.42302" lon="5.98256">
        <ele>301.35</ele>
        <time>2020-10-19T09:02:31.000Z</time>
      </trkpt>
      <trkpt lat="45.42317" lon="5.98245">
        <ele>301.97</ele>
        <time>2020-10-19T09:02:36.000Z</time>
      </trkpt>
      <trkpt lat="45.4233" lon="5.98231">
        <ele>306.95</ele>
        <time>2020-10-19T09:02:41.000Z</time>
      </trkpt>
      <trkpt lat="45.42343" lon="5.98216">
        <ele>308.68</ele>
        <time>2020-10-19T09:02:46.000Z</time>
      </trkpt>
      <trkpt lat="45.42356" lon="5.98201">
        <ele>309.98</ele>
        <time>2020-10-19T09:02:51.000Z</time>
      </trkpt>
      <trkpt lat="45.42372" lon="5.98188">
        <ele>307.65</ele>
        <time>2020-10-19T09:02:56.000Z</time>
      </trkpt>
      <trkpt lat="45.4239" lon="5.98182">
        <ele>309.98</ele>
        <time>2020-10-19T09:03:01.000Z</time>
      </trkpt>
      <trkpt lat="45.42406" lon="5.98177">
        <ele>311.84</ele>
        <time>2020-10-19T09:03:06.000Z</time>
      </trkpt>
      <trkpt lat="45.42422" lon="5.98175">
        <ele>312.52</ele>
        <time>2020-10-19T09:03:11.000Z</time>
      </trkpt>
      <trkpt lat="45.4244" lon="5.98174">
        <ele>315.61</ele>
        <time>2020-10-19T09:03:16.000Z</time>
      </trkpt>
      <trkpt lat="45.42459" lon="5.98172">
        <ele>317.03</ele>
        <time>2020-10-19T09:03:21.000Z</time>
      </trkpt>
      <trkpt lat="45.42475" lon="5.98169">
        <ele>319.48</ele>
        <time>2020-10-19T09:03:26.000Z</time>
      </trkpt>
      <trkpt lat="45.42493" lon="5.98169">
        <ele>321.42</ele>
        <time>2020-10-19T09:03:31.000Z</time>
      </trkpt>
      <trkpt lat="45.42513" lon="5.98167">
        <ele>324.31</ele>
        <time>2020-10-19T09:03:36.000Z</time>
      </trkpt>
      <trkpt lat="45.42537" lon="5.98167">
        <ele>323.44</ele>
        <time>2020-10-19T09:03:41.000Z</time>
      </trkpt>
      <trkpt lat="45.42559" lon="5.98167">
        <ele>320.13</ele>
        <time>2020-10-19T09:03:46.000Z</time>
      </trkpt>
      <trkpt lat="45.42576" lon="5.98165">
        <ele>322.08</ele>
        <time>2020-10-19T09:03:51.000Z</time>
      </trkpt>
      <trkpt lat="45.42596" lon="5.98161">
        <ele>320.87</ele>
        <time>2020-10-19T09:03:56.000Z</time>
      </trkpt>
      <trkpt lat="45.42616" lon="5.98161">
        <ele>319.19</ele>
        <time>2020-10-19T09:04:01.000Z</time>
      </trkpt>
      <trkpt lat="45.42637" lon="5.98162">
        <ele>319.5</ele>
        <time>2020-10-19T09:04:06.000Z</time>
      </trkpt>
      <trkpt lat="45.42659" lon="5.98161">
        <ele>322.4</ele>
        <time>2020-10-19T09:04:11.000Z</time>
      </trkpt>
      <trkpt lat="45.42681" lon="5.98161">
        <ele>321.37</ele>
        <time>2020-10-19T09:04:16.000Z</time>
      </trkpt>
      <trkpt lat="45.42706" lon="5.98161">
        <ele>320.99</ele>
        <time>2020-10-19T09:04:21.000Z</time>
      </trkpt>
      <trkpt lat="45.42737" lon="5.98163">
        <ele>320.95</ele>
        <time>2020-10-19T09:04:26.000Z</time>
      </trkpt>
      <trkpt lat="45.42767" lon="5.98158">
        <ele>320.13</ele>
        <time>2020-10-19T09:04:31.000Z</time>
      </trkpt>
      <trkpt lat="45.42795" lon="5.98158">
        <ele>320.33</ele>
        <time>2020-10-19T09:04:36.000Z</time>
      </trkpt>
      <trkpt lat="45.42824" lon="5.98158">
        <ele>317.13</ele>
        <time>2020-10-19T09:04:41.000Z</time>
      </trkpt>
      <trkpt lat="45.42851" lon="5.98156">
        <ele>316.01</ele>
        <time>2020-10-19T09:04:46.000Z</time>
      </trkpt>
      <trkpt lat="45.42876" lon="5.98156">
        <ele>317.2</ele>
        <time>2020-10-19T09:04:51.000Z</time>
      </trkpt>
      <trkpt lat="45.42901" lon="5.98156">
        <ele>316.26</ele>
        <time>2020-10-19T09:04:56.000Z</time>
      </trkpt>
      <trkpt lat="45.42929" lon="5.98155">
        <ele>317.56</ele>
        <time>2020-10-19T09:05:01.000Z</time>
      </trkpt>
      <trkpt lat="45.42955" lon="5.98154">
        <ele>319.22</ele>
        <time>2020-10-19T09:05:06.000Z</time>
      </trkpt>
      <trkpt lat="45.42982" lon="5.98155">
        <ele>322.39</ele>
        <time>2020-10-19T09:05:11.000Z</time>
      </trkpt>
      <trkpt lat="45.43008" lon="5.98156">
        <ele>323.9</ele>
        <time>2020-10-19T09:05:16.000Z</time>
      </trkpt>
      <trkpt lat="45.43034" lon="5.98153">
        <ele>325.04</ele>
        <time>2020-10-19T09:05:21.000Z</time>
      </trkpt>
      <trkpt lat="45.43061" lon="5.98158">
        <ele>329.72</ele>
        <time>2020-10-19T09:05:26.000Z</time>
      </trkpt>
      <trkpt lat="45.43088" lon="5.98155">
        <ele>331.81</ele>
        <time>2020-10-19T09:05:31.000Z</time>
      </trkpt>
      <trkpt lat="45.43114" lon="5.98153">
        <ele>328.98</ele>
        <time>2020-10-19T09:05:36.000Z</time>
      </trkpt>
      <trkpt lat="45.43138" lon="5.98156">
        <ele>332.82</ele>
        <time>2020-10-19T09:05:41.000Z</time>
      </trkpt>
      <trkpt lat="45.43161" lon="5.98169">
        <ele>329.8</ele>
        <time>2020-10-19T09:05:46.000Z</time>
      </trkpt>
      <trkpt lat="45.43192" lon="5.98174">
        <ele>329.99</ele>
        <time>2020-10-19T09:05:51.000Z</time>
      </trkpt>
      <trkpt lat="45.43219" lon="5.98181">
        <ele>330.29</ele>
        <time>2020-10-19T09:05:56.000Z</time>
      </trkpt>
      <trkpt lat="45.43245" lon="5.9819">
        <ele>329.42</ele>
        <time>2020-10-19T09:06:01.000Z</time>
      </trkpt>
      <trkpt lat="45.43267" lon="5.982">
        <ele>331.69</ele>
        <time>2020-10-19T09:06:06.000Z</time>
      </trkpt>
      <trkpt lat="45.43291" lon="5.98214">
        <ele>332.04</ele>
        <time>2020-10-19T09:06:11.000Z</time>
      </trkpt>
      <trkpt lat="45.43323" lon="5.98221">
        <ele>331.66</ele>
        <time>2020-10-19T09:06:16.000Z</time>
      </trkpt>
      <trkpt lat="45.43357" lon="5.98223">
        <ele>326.22</ele>
        <time>2020-10-19T09:06:21.000Z</time>
      </trkpt>
      <trkpt lat="45.43374" lon="5.98237">
        <ele>330.05</ele>
        <time>2020-10-19T09:06:26.000Z</time>
      </trkpt>
      <trkpt lat="45.43399" lon="5.98246">
        <ele>331.75</ele>
        <time>2020-10-19T09:06:31.000Z</time>
      </trkpt>
      <trkpt lat="45.43428" lon="5.98252">
        <ele>330.04</ele>
        <time>2020-10-19T09:06:36.000Z</time>
      </trkpt>
      <trkpt lat="45.43454" lon="5.98261">
        <ele>330.86</ele>
        <time>2020-10-19T09:06:41.000Z</time>
      </trkpt>
      <trkpt lat="45.43479" lon="5.98265">
        <ele>329.02</ele>
        <time>2020-10-19T09:06:46.000Z</time>
      </trkpt>
      <trkpt lat="45.43505" lon="5.98279">
        <ele>332.94</ele>
        <time>2020-10-19T09:06:51.000Z</time>
      </trkpt>
      <trkpt lat="45.43534" lon="5.98289">
        <ele>328.51</ele>
        <time>2020-10-19T09:06:56.000Z</time>
      </trkpt>
      <trkpt lat="45.43558" lon="5.98298">
        <ele>328.9</ele>
        <time>2020-10-19T09:07:01.000Z</time>
      </trkpt>
      <trkpt lat="45.43584" lon="5.98312">
        <ele>335.1</ele>
        <time>2020-10-19T09:07:06.000Z</time>
      </trkpt>
      <trkpt lat="45.43607" lon="5.9832">
        <ele>335.49</ele>
        <time>2020-10-19T09:07:11.000Z</time>
      </trkpt>
      <trkpt lat="45.43635" lon="5.9833">
        <ele>336.3</ele>
        <time>2020-10-19T09:07:16.000Z</time>
      </trkpt>
      <trkpt lat="45.43659" lon="5.98332">
        <ele>331.91</ele>
        <time>2020-10-19T09:07:21.000Z</time>
      </trkpt>
      <trkpt lat="45.43676" lon="5.98337">
        <ele>335.21</ele>
        <time>2020-10-19T09:07:26.000Z</time>
      </trkpt>
      <trkpt lat="45.43692" lon="5.9834">
        <ele>333.41</ele>
        <time>2020-10-19T09:07:31.000Z</time>
      </trkpt>
      <trkpt lat="45.43703" lon="5.98345">
        <ele>332.05</ele>
        <time>2020-10-19T09:07:36.000Z</time>
      </trkpt>
      <trkpt lat="45.43713" lon="5.9835">
        <ele>333.58</ele>
        <time>2020-10-19T09:07:41.000Z</time>
      </trkpt>
      <trkpt lat="45.43723" lon="5.98357">
        <ele>332.18</ele>
        <time>2020-10-19T09:07:46.000Z</time>
      </trkpt>
      <trkpt lat="45.4374" lon="5.98362">
        <ele>335.71</ele>
        <time>2020-10-19T09:07:51.000Z</time>
      </trkpt>
      <trkpt lat="45.43757" lon="5.9837">
        <ele>335.93</ele>
        <time>2020-10-19T09:07:56.000Z</time>
      </trkpt>
      <trkpt lat="45.43772" lon="5.98379">
        <ele>337.49</ele>
        <time>2020-10-19T09:08:01.000Z</time>
      </trkpt>
      <trkpt lat="45.43787" lon="5.98384">
        <ele>337.28</ele>
        <time>2020-10-19T09:08:06.000Z</time>
      </trkpt>
      <trkpt lat="45.438" lon="5.98389">
        <ele>337.63</ele>
        <time>2020-10-19T09:08:11.000Z</time>
      </trkpt>
      <trkpt lat="45.43814" lon="5.9839">
        <ele>335.52</ele>
        <time>2020-10-19T09:08:16.000Z</time>
      </trkpt>
      <trkpt lat="45.43829" lon="5.98393">
        <ele>334.07</ele>
        <time>2020-10-19T09:08:21.000Z</time>
      </trkpt>
      <trkpt lat="45.43841" lon="5.98395">
        <ele>334.18</ele>
        <time>2020-10-19T09:08:26.000Z</time>
      </trkpt>
      <trkpt lat="45.43853" lon="5.98403">
        <ele>334.88</ele>
        <time>2020-10-19T09:08:31.000Z</time>
      </trkpt>
      <trkpt lat="45.43866" lon="5.98408">
        <ele>334.43</ele>
        <time>2020-10-19T09:08:36.000Z</time>
      </trkpt>
      <trkpt lat="45.43878" lon="5.98412">
        <ele>334.33</ele>
        <time>2020-10-19T09:08:41.000Z</time>
      </trkpt>
      <trkpt lat="45.4389" lon="5.98417">
        <ele>335.27</ele>
        <time>2020-10-19T09:08:46.000Z</time>
      </trkpt>
      <trkpt lat="45.43903" lon="5.98418">
        <ele>335.87</ele>
        <time>2020-10-19T09:08:51.000Z</time>
      </trkpt>
      <trkpt lat="45.43915" lon="5.98423">
        <ele>335.65</ele>
        <time>2020-10-19T09:08:56.000Z</time>
      </trkpt>
      <trkpt lat="45.4393" lon="5.98429">
        <ele>336.58</ele>
        <time>2020-10-19T09:09:01.000Z</time>
      </trkpt>
      <trkpt lat="45.43946" lon="5.98436">
        <ele>336.6</ele>
        <time>2020-10-19T09:09:06.000Z</time>
      </trkpt>
      <trkpt lat="45.43965" lon="5.98443">
        <ele>336.2</ele>
        <time>2020-10-19T09:09:11.000Z</time>
      </trkpt>
      <trkpt lat="45.43983" lon="5.9845">
        <ele>332.93</ele>
        <time>2020-10-19T09:09:16.000Z</time>
      </trkpt>
      <trkpt lat="45.44006" lon="5.9846">
        <ele>333.75</ele>
        <time>2020-10-19T09:09:21.000Z</time>
      </trkpt>
      <trkpt lat="45.4403" lon="5.98467">
        <ele>333.59</ele>
        <time>2020-10-19T09:09:26.000Z</time>
      </trkpt>
      <trkpt lat="45.44046" lon="5.98473">
        <ele>331.44</ele>
        <time>2020-10-19T09:09:31.000Z</time>
      </trkpt>
      <trkpt lat="45.44064" lon="5.98481">
        <ele>334.55</ele>
        <time>2020-10-19T09:09:36.000Z</time>
      </trkpt>
      <trkpt lat="45.44075" lon="5.98475">
        <ele>333.2</ele>
        <time>2020-10-19T09:09:41.000Z</time>
      </trkpt>
      <trkpt lat="45.44086" lon="5.98481">
        <ele>333.04</ele>
        <time>2020-10-19T09:09:46.000Z</time>
      </trkpt>
      <trkpt lat="45.441" lon="5.98488">
        <ele>330.47</ele>
        <time>2020-10-19T09:09:51.000Z</time>
      </trkpt>
      <trkpt lat="45.44115" lon="5.98493">
        <ele>329.24</ele>
        <time>2020-10-19T09:09:56.000Z</time>
      </trkpt>
      <trkpt lat="45.44132" lon="5.98497">
        <ele>330.68</ele>
        <time>2020-10-19T09:10:01.000Z</time>
      </trkpt>
      <trkpt lat="45.44147" lon="5.98505">
        <ele>330.32</ele>
        <time>2020-10-19T09:10:06.000Z</time>
      </trkpt>
      <trkpt lat="45.44162" lon="5.98511">
        <ele>328.25</ele>
        <time>2020-10-19T09:10:11.000Z</time>
      </trkpt>
      <trkpt lat="45.44178" lon="5.98516">
        <ele>327.74</ele>
        <time>2020-10-19T09:10:16.000Z</time>
      </trkpt>
      <trkpt lat="45.44196" lon="5.98521">
        <ele>327.32</ele>
        <time>2020-10-19T09:10:21.000Z</time>
      </trkpt>
      <trkpt lat="45.44215" lon="5.98525">
        <ele>326.19</ele>
        <time>2020-10-19T09:10:26.000Z</time>
      </trkpt>
      <trkpt lat="45.4423" lon="5.98528">
        <ele>325.89</ele>
        <time>2020-10-19T09:10:31.000Z</time>
      </trkpt>
      <trkpt lat="45.44244" lon="5.98535">
        <ele>325.8</ele>
        <time>2020-10-19T09:10:36.000Z</time>
      </trkpt>
      <trkpt lat="45.44257" lon="5.98539">
        <ele>324.55</ele>
        <time>2020-10-19T09:10:41.000Z</time>
      </trkpt>
      <trkpt lat="45.4427" lon="5.98545">
        <ele>329.12</ele>
        <time>2020-10-19T09:12:10.000Z</time>
      </trkpt>
      <trkpt lat="45.44293" lon="5.98555">
        <ele>331.69</ele>
        <time>2020-10-19T09:12:15.000Z</time>
      </trkpt>
      <trkpt lat="45.44315" lon="5.98563">
        <ele>332.97</ele>
        <time>2020-10-19T09:12:20.000Z</time>
      </trkpt>
      <trkpt lat="45.44339" lon="5.98573">
        <ele>334.82</ele>
        <time>2020-10-19T09:12:25.000Z</time>
      </trkpt>
      <trkpt lat="45.44363" lon="5.98583">
        <ele>335.51</ele>
        <time>2020-10-19T09:12:30.000Z</time>
      </trkpt>
      <trkpt lat="45.44387" lon="5.98599">
        <ele>334.14</ele>
        <time>2020-10-19T09:12:35.000Z</time>
      </trkpt>
      <trkpt lat="45.44412" lon="5.98623">
        <ele>333.14</ele>
        <time>2020-10-19T09:12:40.000Z</time>
      </trkpt>
      <trkpt lat="45.44434" lon="5.9865">
        <ele>333.53</ele>
        <time>2020-10-19T09:12:45.000Z</time>
      </trkpt>
      <trkpt lat="45.4446" lon="5.98684">
        <ele>334.91</ele>
        <time>2020-10-19T09:12:50.000Z</time>
      </trkpt>
      <trkpt lat="45.44482" lon="5.98704">
        <ele>336.19</ele>
        <time>2020-10-19T09:12:55.000Z</time>
      </trkpt>
      <trkpt lat="45.44503" lon="5.98729">
        <ele>337.86</ele>
        <time>2020-10-19T09:13:00.000Z</time>
      </trkpt>
      <trkpt lat="45.44524" lon="5.98754">
        <ele>337.2</ele>
        <time>2020-10-19T09:13:05.000Z</time>
      </trkpt>
      <trkpt lat="45.44548" lon="5.98778">
        <ele>338.57</ele>
        <time>2020-10-19T09:13:10.000Z</time>
      </trkpt>
      <trkpt lat="45.4457" lon="5.98805">
        <ele>339</ele>
        <time>2020-10-19T09:13:15.000Z</time>
      </trkpt>
      <trkpt lat="45.44595" lon="5.98831">
        <ele>338.49</ele>
        <time>2020-10-19T09:13:20.000Z</time>
      </trkpt>
      <trkpt lat="45.44618" lon="5.98857">
        <ele>337.36</ele>
        <time>2020-10-19T09:13:25.000Z</time>
      </trkpt>
      <trkpt lat="45.44646" lon="5.98885">
        <ele>335.19</ele>
        <time>2020-10-19T09:13:30.000Z</time>
      </trkpt>
      <trkpt lat="45.44671" lon="5.9891">
        <ele>332.76</ele>
        <time>2020-10-19T09:13:35.000Z</time>
      </trkpt>
      <trkpt lat="45.44695" lon="5.98937">
        <ele>328.93</ele>
        <time>2020-10-19T09:13:40.000Z</time>
      </trkpt>
      <trkpt lat="45.44718" lon="5.98961">
        <ele>326.08</ele>
        <time>2020-10-19T09:13:45.000Z</time>
      </trkpt>
      <trkpt lat="45.44744" lon="5.98987">
        <ele>326.88</ele>
        <time>2020-10-19T09:13:50.000Z</time>
      </trkpt>
      <trkpt lat="45.44765" lon="5.99016">
        <ele>327.91</ele>
        <time>2020-10-19T09:13:55.000Z</time>
      </trkpt>
      <trkpt lat="45.44787" lon="5.99042">
        <ele>327.02</ele>
        <time>2020-10-19T09:14:00.000Z</time>
      </trkpt>
      <trkpt lat="45.44813" lon="5.99068">
        <ele>325.27</ele>
        <time>2020-10-19T09:14:05.000Z</time>
      </trkpt>
      <trkpt lat="45.44835" lon="5.99093">
        <ele>322.54</ele>
        <time>2020-10-19T09:14:10.000Z</time>
      </trkpt>
      <trkpt lat="45.44861" lon="5.99125">
        <ele>325.62</ele>
        <time>2020-10-19T09:14:15.000Z</time>
      </trkpt>
      <trkpt lat="45.44887" lon="5.99154">
        <ele>327.43</ele>
        <time>2020-10-19T09:14:20.000Z</time>
      </trkpt>
      <trkpt lat="45.44911" lon="5.99182">
        <ele>328.01</ele>
        <time>2020-10-19T09:14:25.000Z</time>
      </trkpt>
      <trkpt lat="45.44936" lon="5.99207">
        <ele>331.29</ele>
        <time>2020-10-19T09:14:30.000Z</time>
      </trkpt>
      <trkpt lat="45.44963" lon="5.99226">
        <ele>331.7</ele>
        <time>2020-10-19T09:14:35.000Z</time>
      </trkpt>
      <trkpt lat="45.44993" lon="5.99243">
        <ele>333.49</ele>
        <time>2020-10-19T09:14:40.000Z</time>
      </trkpt>
      <trkpt lat="45.45029" lon="5.99258">
        <ele>333.35</ele>
        <time>2020-10-19T09:14:45.000Z</time>
      </trkpt>
      <trkpt lat="45.45062" lon="5.99261">
        <ele>331.79</ele>
        <time>2020-10-19T09:14:50.000Z</time>
      </trkpt>
      <trkpt lat="45.45094" lon="5.99255">
        <ele>331.3</ele>
        <time>2020-10-19T09:14:55.000Z</time>
      </trkpt>
      <trkpt lat="45.45131" lon="5.99248">
        <ele>332.68</ele>
        <time>2020-10-19T09:15:00.000Z</time>
      </trkpt>
      <trkpt lat="45.45165" lon="5.9924">
        <ele>330.98</ele>
        <time>2020-10-19T09:15:05.000Z</time>
      </trkpt>
      <trkpt lat="45.45198" lon="5.99231">
        <ele>330.86</ele>
        <time>2020-10-19T09:15:10.000Z</time>
      </trkpt>
      <trkpt lat="45.45228" lon="5.99221">
        <ele>325.56</ele>
        <time>2020-10-19T09:15:15.000Z</time>
      </trkpt>
      <trkpt lat="45.45255" lon="5.99213">
        <ele>324.52</ele>
        <time>2020-10-19T09:15:20.000Z</time>
      </trkpt>
      <trkpt lat="45.45283" lon="5.99208">
        <ele>324.59</ele>
        <time>2020-10-19T09:15:25.000Z</time>
      </trkpt>
      <trkpt lat="45.45308" lon="5.99204">
        <ele>325.86</ele>
        <time>2020-10-19T09:15:30.000Z</time>
      </trkpt>
      <trkpt lat="45.45327" lon="5.99199">
        <ele>327.37</ele>
        <time>2020-10-19T09:15:35.000Z</time>
      </trkpt>
      <trkpt lat="45.45346" lon="5.99197">
        <ele>326.98</ele>
        <time>2020-10-19T09:15:40.000Z</time>
      </trkpt>
      <trkpt lat="45.45365" lon="5.99193">
        <ele>325.9</ele>
        <time>2020-10-19T09:15:45.000Z</time>
      </trkpt>
      <trkpt lat="45.4538" lon="5.99189">
        <ele>324.67</ele>
        <time>2020-10-19T09:15:50.000Z</time>
      </trkpt>
      <trkpt lat="45.45396" lon="5.99185">
        <ele>326.13</ele>
        <time>2020-10-19T09:15:55.000Z</time>
      </trkpt>
      <trkpt lat="45.45413" lon="5.99183">
        <ele>326.19</ele>
        <time>2020-10-19T09:16:00.000Z</time>
      </trkpt>
      <trkpt lat="45.4543" lon="5.99178">
        <ele>325.29</ele>
        <time>2020-10-19T09:16:05.000Z</time>
      </trkpt>
      <trkpt lat="45.45447" lon="5.99176">
        <ele>324.37</ele>
        <time>2020-10-19T09:16:10.000Z</time>
      </trkpt>
      <trkpt lat="45.45466" lon="5.99171">
        <ele>326.98</ele>
        <time>2020-10-19T09:16:15.000Z</time>
      </trkpt>
      <trkpt lat="45.45484" lon="5.99168">
        <ele>326.54</ele>
        <time>2020-10-19T09:16:20.000Z</time>
      </trkpt>
      <trkpt lat="45.45497" lon="5.99164">
        <ele>325.08</ele>
        <time>2020-10-19T09:16:25.000Z</time>
      </trkpt>
      <trkpt lat="45.45506" lon="5.99164">
        <ele>324.65</ele>
        <time>2020-10-19T09:16:30.000Z</time>
      </trkpt>
      <trkpt lat="45.4552" lon="5.99162">
        <ele>324.26</ele>
        <time>2020-10-19T09:16:35.000Z</time>
      </trkpt>
      <trkpt lat="45.45537" lon="5.99157">
        <ele>323.96</ele>
        <time>2020-10-19T09:16:40.000Z</time>
      </trkpt>
      <trkpt lat="45.45551" lon="5.99153">
        <ele>319.84</ele>
        <time>2020-10-19T09:16:45.000Z</time>
      </trkpt>
      <trkpt lat="45.45572" lon="5.99149">
        <ele>319.05</ele>
        <time>2020-10-19T09:16:50.000Z</time>
      </trkpt>
      <trkpt lat="45.45591" lon="5.99144">
        <ele>317.91</ele>
        <time>2020-10-19T09:16:55.000Z</time>
      </trkpt>
      <trkpt lat="45.45603" lon="5.99137">
        <ele>318.73</ele>
        <time>2020-10-19T09:17:00.000Z</time>
      </trkpt>
      <trkpt lat="45.45615" lon="5.99132">
        <ele>317.05</ele>
        <time>2020-10-19T09:17:05.000Z</time>
      </trkpt>
      <trkpt lat="45.45629" lon="5.99128">
        <ele>315.92</ele>
        <time>2020-10-19T09:17:10.000Z</time>
      </trkpt>
      <trkpt lat="45.45642" lon="5.99128">
        <ele>317.8</ele>
        <time>2020-10-19T09:17:15.000Z</time>
      </trkpt>
      <trkpt lat="45.45653" lon="5.99127">
        <ele>316.97</ele>
        <time>2020-10-19T09:17:20.000Z</time>
      </trkpt>
      <trkpt lat="45.45662" lon="5.99121">
        <ele>315.33</ele>
        <time>2020-10-19T09:17:25.000Z</time>
      </trkpt>
      <trkpt lat="45.45672" lon="5.99122">
        <ele>313.97</ele>
        <time>2020-10-19T09:17:30.000Z</time>
      </trkpt>
      <trkpt lat="45.45682" lon="5.99119">
        <ele>314.17</ele>
        <time>2020-10-19T09:17:38.000Z</time>
      </trkpt>
      <trkpt lat="45.45692" lon="5.99116">
        <ele>313.93</ele>
        <time>2020-10-19T09:17:43.000Z</time>
      </trkpt>
      <trkpt lat="45.45702" lon="5.99115">
        <ele>314.09</ele>
        <time>2020-10-19T09:17:48.000Z</time>
      </trkpt>
      <trkpt lat="45.45713" lon="5.99113">
        <ele>313.25</ele>
        <time>2020-10-19T09:17:53.000Z</time>
      </trkpt>
      <trkpt lat="45.45726" lon="5.99113">
        <ele>313.58</ele>
        <time>2020-10-19T09:17:58.000Z</time>
      </trkpt>
      <trkpt lat="45.45736" lon="5.99111">
        <ele>313.96</ele>
        <time>2020-10-19T09:18:03.000Z</time>
      </trkpt>
      <trkpt lat="45.45747" lon="5.99109">
        <ele>315.55</ele>
        <time>2020-10-19T09:18:08.000Z</time>
      </trkpt>
      <trkpt lat="45.45766" lon="5.99105">
        <ele>315.01</ele>
        <time>2020-10-19T09:18:13.000Z</time>
      </trkpt>
      <trkpt lat="45.45797" lon="5.99097">
        <ele>309.83</ele>
        <time>2020-10-19T09:18:18.000Z</time>
      </trkpt>
      <trkpt lat="45.45834" lon="5.9909">
        <ele>306.48</ele>
        <time>2020-10-19T09:18:23.000Z</time>
      </trkpt>
      <trkpt lat="45.45876" lon="5.99078">
        <ele>305.66</ele>
        <time>2020-10-19T09:18:28.000Z</time>
      </trkpt>
      <trkpt lat="45.45922" lon="5.99067">
        <ele>305.5</ele>
        <time>2020-10-19T09:18:33.000Z</time>
      </trkpt>
      <trkpt lat="45.45964" lon="5.99058">
        <ele>304.12</ele>
        <time>2020-10-19T09:18:38.000Z</time>
      </trkpt>
      <trkpt lat="45.46003" lon="5.9905">
        <ele>301.26</ele>
        <time>2020-10-19T09:18:43.000Z</time>
      </trkpt>
      <trkpt lat="45.46048" lon="5.99043">
        <ele>304.36</ele>
        <time>2020-10-19T09:18:48.000Z</time>
      </trkpt>
      <trkpt lat="45.46093" lon="5.99036">
        <ele>302.57</ele>
        <time>2020-10-19T09:18:53.000Z</time>
      </trkpt>
      <trkpt lat="45.46124" lon="5.99026">
        <ele>299.39</ele>
        <time>2020-10-19T09:18:58.000Z</time>
      </trkpt>
      <trkpt lat="45.46143" lon="5.99022">
        <ele>296.84</ele>
        <time>2020-10-19T09:19:03.000Z</time>
      </trkpt>
      <trkpt lat="45.46168" lon="5.98994">
        <ele>300.65</ele>
        <time>2020-10-19T09:19:08.000Z</time>
      </trkpt>
      <trkpt lat="45.46191" lon="5.98969">
        <ele>296.54</ele>
        <time>2020-10-19T09:19:13.000Z</time>
      </trkpt>
      <trkpt lat="45.46214" lon="5.98974">
        <ele>294.55</ele>
        <time>2020-10-19T09:19:18.000Z</time>
      </trkpt>
      <trkpt lat="45.46238" lon="5.9899">
        <ele>294.93</ele>
        <time>2020-10-19T09:19:23.000Z</time>
      </trkpt>
      <trkpt lat="45.46251" lon="5.98998">
        <ele>294.83</ele>
        <time>2020-10-19T09:19:28.000Z</time>
      </trkpt>
      <trkpt lat="45.46261" lon="5.99006">
        <ele>292.18</ele>
        <time>2020-10-19T09:19:33.000Z</time>
      </trkpt>
      <trkpt lat="45.46275" lon="5.99021">
        <ele>292.84</ele>
        <time>2020-10-19T09:19:38.000Z</time>
      </trkpt>
      <trkpt lat="45.46302" lon="5.99039">
        <ele>291.64</ele>
        <time>2020-10-19T09:19:43.000Z</time>
      </trkpt>
      <trkpt lat="45.4633" lon="5.99041">
        <ele>295.21</ele>
        <time>2020-10-19T09:19:48.000Z</time>
      </trkpt>
      <trkpt lat="45.46357" lon="5.9904">
        <ele>295.23</ele>
        <time>2020-10-19T09:19:53.000Z</time>
      </trkpt>
      <trkpt lat="45.46381" lon="5.9904">
        <ele>295.17</ele>
        <time>2020-10-19T09:19:58.000Z</time>
      </trkpt>
      <trkpt lat="45.46405" lon="5.99035">
        <ele>294.66</ele>
        <time>2020-10-19T09:20:03.000Z</time>
      </trkpt>
      <trkpt lat="45.46438" lon="5.99038">
        <ele>294.11</ele>
        <time>2020-10-19T09:20:08.000Z</time>
      </trkpt>
      <trkpt lat="45.46463" lon="5.99037">
        <ele>292.08</ele>
        <time>2020-10-19T09:20:13.000Z</time>
      </trkpt>
      <trkpt lat="45.46492" lon="5.99028">
        <ele>291.05</ele>
        <time>2020-10-19T09:20:18.000Z</time>
      </trkpt>
      <trkpt lat="45.46525" lon="5.99018">
        <ele>288.26</ele>
        <time>2020-10-19T09:20:23.000Z</time>
      </trkpt>
      <trkpt lat="45.46552" lon="5.99011">
        <ele>287.97</ele>
        <time>2020-10-19T09:20:28.000Z</time>
      </trkpt>
      <trkpt lat="45.46565" lon="5.98989">
        <ele>281.43</ele>
        <time>2020-10-19T09:20:33.000Z</time>
      </trkpt>
      <trkpt lat="45.46564" lon="5.98955">
        <ele>279.09</ele>
        <time>2020-10-19T09:20:38.000Z</time>
      </trkpt>
      <trkpt lat="45.4656" lon="5.98922">
        <ele>281.65</ele>
        <time>2020-10-19T09:20:43.000Z</time>
      </trkpt>
      <trkpt lat="45.46558" lon="5.98888">
        <ele>278.46</ele>
        <time>2020-10-19T09:20:48.000Z</time>
      </trkpt>
      <trkpt lat="45.46555" lon="5.98854">
        <ele>278.79</ele>
        <time>2020-10-19T09:20:53.000Z</time>
      </trkpt>
      <trkpt lat="45.46554" lon="5.98818">
        <ele>277.13</ele>
        <time>2020-10-19T09:20:58.000Z</time>
      </trkpt>
      <trkpt lat="45.46549" lon="5.98794">
        <ele>278.06</ele>
        <time>2020-10-19T09:21:03.000Z</time>
      </trkpt>
      <trkpt lat="45.46552" lon="5.98765">
        <ele>279.4</ele>
        <time>2020-10-19T09:21:08.000Z</time>
      </trkpt>
      <trkpt lat="45.46553" lon="5.98728">
        <ele>281.7</ele>
        <time>2020-10-19T09:21:13.000Z</time>
      </trkpt>
      <trkpt lat="45.46549" lon="5.9869">
        <ele>283.59</ele>
        <time>2020-10-19T09:21:18.000Z</time>
      </trkpt>
      <trkpt lat="45.46551" lon="5.98661">
        <ele>288.34</ele>
        <time>2020-10-19T09:21:23.000Z</time>
      </trkpt>
      <trkpt lat="45.46565" lon="5.98635">
        <ele>288.37</ele>
        <time>2020-10-19T09:21:28.000Z</time>
      </trkpt>
      <trkpt lat="45.46573" lon="5.98607">
        <ele>290.13</ele>
        <time>2020-10-19T09:21:33.000Z</time>
      </trkpt>
      <trkpt lat="45.46577" lon="5.98585">
        <ele>292.7</ele>
        <time>2020-10-19T09:21:38.000Z</time>
      </trkpt>
      <trkpt lat="45.46584" lon="5.98562">
        <ele>291.66</ele>
        <time>2020-10-19T09:21:43.000Z</time>
      </trkpt>
      <trkpt lat="45.4659" lon="5.98538">
        <ele>291.24</ele>
        <time>2020-10-19T09:21:48.000Z</time>
      </trkpt>
      <trkpt lat="45.46599" lon="5.98516">
        <ele>294</ele>
        <time>2020-10-19T09:21:53.000Z</time>
      </trkpt>
      <trkpt lat="45.46608" lon="5.98498">
        <ele>294.07</ele>
        <time>2020-10-19T09:21:58.000Z</time>
      </trkpt>
      <trkpt lat="45.46617" lon="5.98478">
        <ele>294.69</ele>
        <time>2020-10-19T09:22:03.000Z</time>
      </trkpt>
      <trkpt lat="45.46625" lon="5.9846">
        <ele>295.25</ele>
        <time>2020-10-19T09:22:08.000Z</time>
      </trkpt>
      <trkpt lat="45.46633" lon="5.98442">
        <ele>291.42</ele>
        <time>2020-10-19T09:22:13.000Z</time>
      </trkpt>
      <trkpt lat="45.46643" lon="5.98419">
        <ele>297.78</ele>
        <time>2020-10-19T09:22:18.000Z</time>
      </trkpt>
      <trkpt lat="45.46644" lon="5.98394">
        <ele>296.48</ele>
        <time>2020-10-19T09:22:23.000Z</time>
      </trkpt>
      <trkpt lat="45.46647" lon="5.98369">
        <ele>300.28</ele>
        <time>2020-10-19T09:22:28.000Z</time>
      </trkpt>
      <trkpt lat="45.4665" lon="5.9834">
        <ele>300.32</ele>
        <time>2020-10-19T09:22:33.000Z</time>
      </trkpt>
      <trkpt lat="45.46655" lon="5.98309">
        <ele>304.93</ele>
        <time>2020-10-19T09:22:38.000Z</time>
      </trkpt>
      <trkpt lat="45.46664" lon="5.98281">
        <ele>309.15</ele>
        <time>2020-10-19T09:22:43.000Z</time>
      </trkpt>
      <trkpt lat="45.46674" lon="5.98257">
        <ele>314.25</ele>
        <time>2020-10-19T09:22:48.000Z</time>
      </trkpt>
      <trkpt lat="45.46681" lon="5.98229">
        <ele>314.07</ele>
        <time>2020-10-19T09:22:53.000Z</time>
      </trkpt>
      <trkpt lat="45.46687" lon="5.982">
        <ele>315.05</ele>
        <time>2020-10-19T09:22:58.000Z</time>
      </trkpt>
      <trkpt lat="45.46692" lon="5.9817">
        <ele>316.7</ele>
        <time>2020-10-19T09:23:03.000Z</time>
      </trkpt>
      <trkpt lat="45.46698" lon="5.98145">
        <ele>318.83</ele>
        <time>2020-10-19T09:23:08.000Z</time>
      </trkpt>
      <trkpt lat="45.46703" lon="5.98121">
        <ele>321.38</ele>
        <time>2020-10-19T09:23:13.000Z</time>
      </trkpt>
      <trkpt lat="45.46708" lon="5.98098">
        <ele>321.84</ele>
        <time>2020-10-19T09:23:18.000Z</time>
      </trkpt>
      <trkpt lat="45.46716" lon="5.98078">
        <ele>324.61</ele>
        <time>2020-10-19T09:23:23.000Z</time>
      </trkpt>
      <trkpt lat="45.46729" lon="5.98054">
        <ele>319.91</ele>
        <time>2020-10-19T09:23:28.000Z</time>
      </trkpt>
      <trkpt lat="45.46742" lon="5.98034">
        <ele>321.88</ele>
        <time>2020-10-19T09:23:33.000Z</time>
      </trkpt>
      <trkpt lat="45.46756" lon="5.98015">
        <ele>323.52</ele>
        <time>2020-10-19T09:23:38.000Z</time>
      </trkpt>
      <trkpt lat="45.46767" lon="5.97996">
        <ele>324.41</ele>
        <time>2020-10-19T09:23:43.000Z</time>
      </trkpt>
      <trkpt lat="45.46774" lon="5.97973">
        <ele>323.04</ele>
        <time>2020-10-19T09:23:48.000Z</time>
      </trkpt>
      <trkpt lat="45.46784" lon="5.97952">
        <ele>328.29</ele>
        <time>2020-10-19T09:23:53.000Z</time>
      </trkpt>
      <trkpt lat="45.46796" lon="5.97934">
        <ele>330.75</ele>
        <time>2020-10-19T09:23:58.000Z</time>
      </trkpt>
      <trkpt lat="45.46805" lon="5.97913">
        <ele>330.86</ele>
        <time>2020-10-19T09:24:03.000Z</time>
      </trkpt>
      <trkpt lat="45.46817" lon="5.97898">
        <ele>329.36</ele>
        <time>2020-10-19T09:24:08.000Z</time>
      </trkpt>
      <trkpt lat="45.46834" lon="5.97889">
        <ele>332.27</ele>
        <time>2020-10-19T09:24:13.000Z</time>
      </trkpt>
      <trkpt lat="45.4685" lon="5.9788">
        <ele>332.66</ele>
        <time>2020-10-19T09:24:18.000Z</time>
      </trkpt>
      <trkpt lat="45.46868" lon="5.97871">
        <ele>334.16</ele>
        <time>2020-10-19T09:24:23.000Z</time>
      </trkpt>
      <trkpt lat="45.46886" lon="5.97865">
        <ele>334.83</ele>
        <time>2020-10-19T09:24:28.000Z</time>
      </trkpt>
      <trkpt lat="45.46905" lon="5.97853">
        <ele>336.97</ele>
        <time>2020-10-19T09:24:33.000Z</time>
      </trkpt>
      <trkpt lat="45.46924" lon="5.97846">
        <ele>336.33</ele>
        <time>2020-10-19T09:24:38.000Z</time>
      </trkpt>
      <trkpt lat="45.46944" lon="5.97837">
        <ele>333.13</ele>
        <time>2020-10-19T09:24:43.000Z</time>
      </trkpt>
      <trkpt lat="45.4696" lon="5.97833">
        <ele>334.39</ele>
        <time>2020-10-19T09:24:48.000Z</time>
      </trkpt>
      <trkpt lat="45.46973" lon="5.97825">
        <ele>336.21</ele>
        <time>2020-10-19T09:24:53.000Z</time>
      </trkpt>
      <trkpt lat="45.46982" lon="5.97822">
        <ele>339.94</ele>
        <time>2020-10-19T09:27:07.000Z</time>
      </trkpt>
      <trkpt lat="45.46996" lon="5.97821">
        <ele>342.74</ele>
        <time>2020-10-19T09:27:12.000Z</time>
      </trkpt>
      <trkpt lat="45.4701" lon="5.9782">
        <ele>348.03</ele>
        <time>2020-10-19T09:27:17.000Z</time>
      </trkpt>
      <trkpt lat="45.47023" lon="5.97819">
        <ele>351.77</ele>
        <time>2020-10-19T09:27:22.000Z</time>
      </trkpt>
      <trkpt lat="45.47042" lon="5.97814">
        <ele>350.89</ele>
        <time>2020-10-19T09:27:27.000Z</time>
      </trkpt>
      <trkpt lat="45.47052" lon="5.9781">
        <ele>349.97</ele>
        <time>2020-10-19T09:27:32.000Z</time>
      </trkpt>
      <trkpt lat="45.47068" lon="5.97804">
        <ele>350.3</ele>
        <time>2020-10-19T09:27:37.000Z</time>
      </trkpt>
      <trkpt lat="45.47083" lon="5.97788">
        <ele>349.47</ele>
        <time>2020-10-19T09:27:42.000Z</time>
      </trkpt>
      <trkpt lat="45.47099" lon="5.97786">
        <ele>353.09</ele>
        <time>2020-10-19T09:27:47.000Z</time>
      </trkpt>
      <trkpt lat="45.47112" lon="5.97779">
        <ele>357.29</ele>
        <time>2020-10-19T09:27:52.000Z</time>
      </trkpt>
      <trkpt lat="45.47127" lon="5.97768">
        <ele>362.37</ele>
        <time>2020-10-19T09:27:57.000Z</time>
      </trkpt>
      <trkpt lat="45.47142" lon="5.9776">
        <ele>360.68</ele>
        <time>2020-10-19T09:28:02.000Z</time>
      </trkpt>
      <trkpt lat="45.47159" lon="5.97746">
        <ele>361.78</ele>
        <time>2020-10-19T09:28:07.000Z</time>
      </trkpt>
      <trkpt lat="45.47176" lon="5.97736">
        <ele>360.59</ele>
        <time>2020-10-19T09:28:12.000Z</time>
      </trkpt>
      <trkpt lat="45.47194" lon="5.97723">
        <ele>361.32</ele>
        <time>2020-10-19T09:28:17.000Z</time>
      </trkpt>
      <trkpt lat="45.47212" lon="5.97709">
        <ele>362.04</ele>
        <time>2020-10-19T09:28:22.000Z</time>
      </trkpt>
      <trkpt lat="45.47233" lon="5.97701">
        <ele>367.19</ele>
        <time>2020-10-19T09:28:27.000Z</time>
      </trkpt>
      <trkpt lat="45.4725" lon="5.97693">
        <ele>366.59</ele>
        <time>2020-10-19T09:28:32.000Z</time>
      </trkpt>
      <trkpt lat="45.47266" lon="5.97683">
        <ele>362.82</ele>
        <time>2020-10-19T09:28:37.000Z</time>
      </trkpt>
      <trkpt lat="45.47287" lon="5.97674">
        <ele>367.66</ele>
        <time>2020-10-19T09:28:42.000Z</time>
      </trkpt>
      <trkpt lat="45.47305" lon="5.97666">
        <ele>368.1</ele>
        <time>2020-10-19T09:28:47.000Z</time>
      </trkpt>
      <trkpt lat="45.47326" lon="5.97661">
        <ele>373.82</ele>
        <time>2020-10-19T09:28:52.000Z</time>
      </trkpt>
      <trkpt lat="45.47346" lon="5.97656">
        <ele>377.12</ele>
        <time>2020-10-19T09:28:57.000Z</time>
      </trkpt>
      <trkpt lat="45.47366" lon="5.97651">
        <ele>381.07</ele>
        <time>2020-10-19T09:29:02.000Z</time>
      </trkpt>
      <trkpt lat="45.47386" lon="5.97645">
        <ele>377.35</ele>
        <time>2020-10-19T09:29:07.000Z</time>
      </trkpt>
      <trkpt lat="45.47407" lon="5.9764">
        <ele>378.42</ele>
        <time>2020-10-19T09:29:12.000Z</time>
      </trkpt>
      <trkpt lat="45.47424" lon="5.97637">
        <ele>382.87</ele>
        <time>2020-10-19T09:29:17.000Z</time>
      </trkpt>
      <trkpt lat="45.47443" lon="5.97634">
        <ele>380.87</ele>
        <time>2020-10-19T09:29:22.000Z</time>
      </trkpt>
      <trkpt lat="45.47462" lon="5.97631">
        <ele>381.4</ele>
        <time>2020-10-19T09:29:27.000Z</time>
      </trkpt>
      <trkpt lat="45.4748" lon="5.97625">
        <ele>385.74</ele>
        <time>2020-10-19T09:29:32.000Z</time>
      </trkpt>
      <trkpt lat="45.47501" lon="5.97608">
        <ele>386.49</ele>
        <time>2020-10-19T09:29:37.000Z</time>
      </trkpt>
      <trkpt lat="45.47517" lon="5.97592">
        <ele>388.26</ele>
        <time>2020-10-19T09:29:42.000Z</time>
      </trkpt>
      <trkpt lat="45.47533" lon="5.97581">
        <ele>390.82</ele>
        <time>2020-10-19T09:29:47.000Z</time>
      </trkpt>
      <trkpt lat="45.4755" lon="5.97571">
        <ele>392.77</ele>
        <time>2020-10-19T09:29:52.000Z</time>
      </trkpt>
      <trkpt lat="45.4757" lon="5.97562">
        <ele>395.25</ele>
        <time>2020-10-19T09:29:57.000Z</time>
      </trkpt>
      <trkpt lat="45.4759" lon="5.97561">
        <ele>398.05</ele>
        <time>2020-10-19T09:30:02.000Z</time>
      </trkpt>
      <trkpt lat="45.4761" lon="5.97566">
        <ele>400.8</ele>
        <time>2020-10-19T09:30:07.000Z</time>
      </trkpt>
      <trkpt lat="45.47629" lon="5.97568">
        <ele>400.71</ele>
        <time>2020-10-19T09:30:12.000Z</time>
      </trkpt>
      <trkpt lat="45.47649" lon="5.9757">
        <ele>401.99</ele>
        <time>2020-10-19T09:30:17.000Z</time>
      </trkpt>
      <trkpt lat="45.47669" lon="5.97573">
        <ele>405.79</ele>
        <time>2020-10-19T09:30:22.000Z</time>
      </trkpt>
      <trkpt lat="45.47688" lon="5.97577">
        <ele>404.74</ele>
        <time>2020-10-19T09:30:27.000Z</time>
      </trkpt>
      <trkpt lat="45.47707" lon="5.97584">
        <ele>406.9</ele>
        <time>2020-10-19T09:30:32.000Z</time>
      </trkpt>
      <trkpt lat="45.47724" lon="5.97592">
        <ele>408.37</ele>
        <time>2020-10-19T09:30:37.000Z</time>
      </trkpt>
      <trkpt lat="45.47743" lon="5.976">
        <ele>413.23</ele>
        <time>2020-10-19T09:30:42.000Z</time>
      </trkpt>
      <trkpt lat="45.47763" lon="5.97607">
        <ele>415.48</ele>
        <time>2020-10-19T09:30:47.000Z</time>
      </trkpt>
      <trkpt lat="45.47782" lon="5.97614">
        <ele>419.31</ele>
        <time>2020-10-19T09:30:52.000Z</time>
      </trkpt>
      <trkpt lat="45.47802" lon="5.97616">
        <ele>418.74</ele>
        <time>2020-10-19T09:30:57.000Z</time>
      </trkpt>
      <trkpt lat="45.4782" lon="5.97618">
        <ele>420.32</ele>
        <time>2020-10-19T09:31:02.000Z</time>
      </trkpt>
      <trkpt lat="45.47839" lon="5.9762">
        <ele>422.22</ele>
        <time>2020-10-19T09:31:07.000Z</time>
      </trkpt>
      <trkpt lat="45.47858" lon="5.97622">
        <ele>421.61</ele>
        <time>2020-10-19T09:31:12.000Z</time>
      </trkpt>
      <trkpt lat="45.47876" lon="5.9762">
        <ele>422.17</ele>
        <time>2020-10-19T09:31:17.000Z</time>
      </trkpt>
      <trkpt lat="45.47896" lon="5.97615">
        <ele>426.4</ele>
        <time>2020-10-19T09:31:22.000Z</time>
      </trkpt>
      <trkpt lat="45.47915" lon="5.97605">
        <ele>427.78</ele>
        <time>2020-10-19T09:31:27.000Z</time>
      </trkpt>
      <trkpt lat="45.47933" lon="5.97594">
        <ele>427.21</ele>
        <time>2020-10-19T09:31:32.000Z</time>
      </trkpt>
      <trkpt lat="45.47949" lon="5.97578">
        <ele>428.75</ele>
        <time>2020-10-19T09:31:37.000Z</time>
      </trkpt>
      <trkpt lat="45.47959" lon="5.97553">
        <ele>429.38</ele>
        <time>2020-10-19T09:31:42.000Z</time>
      </trkpt>
      <trkpt lat="45.47955" lon="5.97524">
        <ele>430.84</ele>
        <time>2020-10-19T09:31:47.000Z</time>
      </trkpt>
      <trkpt lat="45.4794" lon="5.97502">
        <ele>431.73</ele>
        <time>2020-10-19T09:31:52.000Z</time>
      </trkpt>
      <trkpt lat="45.4792" lon="5.97491">
        <ele>434.44</ele>
        <time>2020-10-19T09:31:57.000Z</time>
      </trkpt>
      <trkpt lat="45.479" lon="5.97484">
        <ele>438.57</ele>
        <time>2020-10-19T09:32:02.000Z</time>
      </trkpt>
      <trkpt lat="45.47881" lon="5.97476">
        <ele>437.79</ele>
        <time>2020-10-19T09:32:07.000Z</time>
      </trkpt>
      <trkpt lat="45.47863" lon="5.9746">
        <ele>438.77</ele>
        <time>2020-10-19T09:32:12.000Z</time>
      </trkpt>
      <trkpt lat="45.47852" lon="5.97437">
        <ele>440.46</ele>
        <time>2020-10-19T09:32:17.000Z</time>
      </trkpt>
      <trkpt lat="45.47851" lon="5.9741">
        <ele>441.52</ele>
        <time>2020-10-19T09:32:22.000Z</time>
      </trkpt>
      <trkpt lat="45.47858" lon="5.97383">
        <ele>442.99</ele>
        <time>2020-10-19T09:32:27.000Z</time>
      </trkpt>
      <trkpt lat="45.47869" lon="5.97358">
        <ele>444.69</ele>
        <time>2020-10-19T09:32:32.000Z</time>
      </trkpt>
      <trkpt lat="45.4788" lon="5.97334">
        <ele>446.58</ele>
        <time>2020-10-19T09:32:37.000Z</time>
      </trkpt>
      <trkpt lat="45.47888" lon="5.97311">
        <ele>447.85</ele>
        <time>2020-10-19T09:32:42.000Z</time>
      </trkpt>
      <trkpt lat="45.47888" lon="5.97284">
        <ele>447.29</ele>
        <time>2020-10-19T09:32:47.000Z</time>
      </trkpt>
      <trkpt lat="45.47878" lon="5.97259">
        <ele>450.69</ele>
        <time>2020-10-19T09:32:52.000Z</time>
      </trkpt>
      <trkpt lat="45.47866" lon="5.97234">
        <ele>452.82</ele>
        <time>2020-10-19T09:32:57.000Z</time>
      </trkpt>
      <trkpt lat="45.47857" lon="5.97211">
        <ele>456.36</ele>
        <time>2020-10-19T09:33:02.000Z</time>
      </trkpt>
      <trkpt lat="45.4785" lon="5.97182">
        <ele>459.71</ele>
        <time>2020-10-19T09:33:07.000Z</time>
      </trkpt>
      <trkpt lat="45.47845" lon="5.97157">
        <ele>463.32</ele>
        <time>2020-10-19T09:33:12.000Z</time>
      </trkpt>
      <trkpt lat="45.47844" lon="5.97131">
        <ele>463.63</ele>
        <time>2020-10-19T09:33:17.000Z</time>
      </trkpt>
      <trkpt lat="45.47844" lon="5.97107">
        <ele>465.35</ele>
        <time>2020-10-19T09:33:22.000Z</time>
      </trkpt>
      <trkpt lat="45.47845" lon="5.97079">
        <ele>466.87</ele>
        <time>2020-10-19T09:33:27.000Z</time>
      </trkpt>
      <trkpt lat="45.47843" lon="5.9705">
        <ele>468.24</ele>
        <time>2020-10-19T09:33:32.000Z</time>
      </trkpt>
      <trkpt lat="45.47833" lon="5.97027">
        <ele>467.35</ele>
        <time>2020-10-19T09:33:37.000Z</time>
      </trkpt>
      <trkpt lat="45.47819" lon="5.97006">
        <ele>466.87</ele>
        <time>2020-10-19T09:33:42.000Z</time>
      </trkpt>
      <trkpt lat="45.47813" lon="5.96975">
        <ele>468.06</ele>
        <time>2020-10-19T09:33:47.000Z</time>
      </trkpt>
      <trkpt lat="45.47815" lon="5.96951">
        <ele>468.12</ele>
        <time>2020-10-19T09:33:52.000Z</time>
      </trkpt>
      <trkpt lat="45.47827" lon="5.96933">
        <ele>469.89</ele>
        <time>2020-10-19T09:33:57.000Z</time>
      </trkpt>
      <trkpt lat="45.47841" lon="5.96916">
        <ele>470.21</ele>
        <time>2020-10-19T09:34:02.000Z</time>
      </trkpt>
      <trkpt lat="45.47854" lon="5.969">
        <ele>471.4</ele>
        <time>2020-10-19T09:34:07.000Z</time>
      </trkpt>
      <trkpt lat="45.47866" lon="5.9688">
        <ele>471.37</ele>
        <time>2020-10-19T09:34:12.000Z</time>
      </trkpt>
      <trkpt lat="45.4788" lon="5.9686">
        <ele>471.18</ele>
        <time>2020-10-19T09:34:17.000Z</time>
      </trkpt>
      <trkpt lat="45.47893" lon="5.96839">
        <ele>474.19</ele>
        <time>2020-10-19T09:34:22.000Z</time>
      </trkpt>
      <trkpt lat="45.47904" lon="5.96816">
        <ele>475.24</ele>
        <time>2020-10-19T09:34:27.000Z</time>
      </trkpt>
      <trkpt lat="45.47917" lon="5.96795">
        <ele>477.91</ele>
        <time>2020-10-19T09:34:32.000Z</time>
      </trkpt>
      <trkpt lat="45.47923" lon="5.96772">
        <ele>478.89</ele>
        <time>2020-10-19T09:34:37.000Z</time>
      </trkpt>
      <trkpt lat="45.47905" lon="5.96759">
        <ele>482.97</ele>
        <time>2020-10-19T09:34:42.000Z</time>
      </trkpt>
      <trkpt lat="45.47885" lon="5.96753">
        <ele>484.79</ele>
        <time>2020-10-19T09:34:47.000Z</time>
      </trkpt>
      <trkpt lat="45.47865" lon="5.96748">
        <ele>486.47</ele>
        <time>2020-10-19T09:34:52.000Z</time>
      </trkpt>
      <trkpt lat="45.47845" lon="5.96745">
        <ele>488.32</ele>
        <time>2020-10-19T09:34:57.000Z</time>
      </trkpt>
      <trkpt lat="45.47826" lon="5.96744">
        <ele>487.55</ele>
        <time>2020-10-19T09:35:02.000Z</time>
      </trkpt>
      <trkpt lat="45.47807" lon="5.96738">
        <ele>491.22</ele>
        <time>2020-10-19T09:35:07.000Z</time>
      </trkpt>
      <trkpt lat="45.47798" lon="5.96719">
        <ele>493.73</ele>
        <time>2020-10-19T09:35:12.000Z</time>
      </trkpt>
      <trkpt lat="45.47793" lon="5.96698">
        <ele>494.18</ele>
        <time>2020-10-19T09:35:17.000Z</time>
      </trkpt>
      <trkpt lat="45.47787" lon="5.96674">
        <ele>496.69</ele>
        <time>2020-10-19T09:35:22.000Z</time>
      </trkpt>
      <trkpt lat="45.4778" lon="5.96653">
        <ele>499.15</ele>
        <time>2020-10-19T09:35:27.000Z</time>
      </trkpt>
      <trkpt lat="45.47768" lon="5.96637">
        <ele>500.79</ele>
        <time>2020-10-19T09:35:32.000Z</time>
      </trkpt>
      <trkpt lat="45.47747" lon="5.96635">
        <ele>505.36</ele>
        <time>2020-10-19T09:35:37.000Z</time>
      </trkpt>
      <trkpt lat="45.47727" lon="5.96633">
        <ele>504.04</ele>
        <time>2020-10-19T09:35:42.000Z</time>
      </trkpt>
      <trkpt lat="45.47709" lon="5.96625">
        <ele>503.64</ele>
        <time>2020-10-19T09:35:47.000Z</time>
      </trkpt>
      <trkpt lat="45.47695" lon="5.96613">
        <ele>510.92</ele>
        <time>2020-10-19T09:35:52.000Z</time>
      </trkpt>
      <trkpt lat="45.47703" lon="5.96603">
        <ele>505.53</ele>
        <time>2020-10-19T09:39:18.000Z</time>
      </trkpt>
      <trkpt lat="45.47718" lon="5.9659">
        <ele>506.81</ele>
        <time>2020-10-19T09:39:23.000Z</time>
      </trkpt>
      <trkpt lat="45.47732" lon="5.9658">
        <ele>507.71</ele>
        <time>2020-10-19T09:39:28.000Z</time>
      </trkpt>
      <trkpt lat="45.47749" lon="5.96574">
        <ele>508.64</ele>
        <time>2020-10-19T09:39:33.000Z</time>
      </trkpt>
      <trkpt lat="45.47763" lon="5.96561">
        <ele>515.88</ele>
        <time>2020-10-19T09:39:38.000Z</time>
      </trkpt>
      <trkpt lat="45.47768" lon="5.96539">
        <ele>515.52</ele>
        <time>2020-10-19T09:39:43.000Z</time>
      </trkpt>
      <trkpt lat="45.47767" lon="5.96516">
        <ele>521.48</ele>
        <time>2020-10-19T09:39:48.000Z</time>
      </trkpt>
      <trkpt lat="45.47765" lon="5.9649">
        <ele>520.4</ele>
        <time>2020-10-19T09:39:53.000Z</time>
      </trkpt>
      <trkpt lat="45.47763" lon="5.96468">
        <ele>519.75</ele>
        <time>2020-10-19T09:39:58.000Z</time>
      </trkpt>
      <trkpt lat="45.47759" lon="5.96444">
        <ele>521.17</ele>
        <time>2020-10-19T09:40:03.000Z</time>
      </trkpt>
      <trkpt lat="45.47753" lon="5.96422">
        <ele>525.37</ele>
        <time>2020-10-19T09:40:08.000Z</time>
      </trkpt>
      <trkpt lat="45.47751" lon="5.96399">
        <ele>527.42</ele>
        <time>2020-10-19T09:40:13.000Z</time>
      </trkpt>
      <trkpt lat="45.47749" lon="5.96371">
        <ele>533.22</ele>
        <time>2020-10-19T09:40:18.000Z</time>
      </trkpt>
      <trkpt lat="45.47745" lon="5.96346">
        <ele>534.26</ele>
        <time>2020-10-19T09:40:23.000Z</time>
      </trkpt>
      <trkpt lat="45.47743" lon="5.9632">
        <ele>534.9</ele>
        <time>2020-10-19T09:40:28.000Z</time>
      </trkpt>
      <trkpt lat="45.4774" lon="5.96296">
        <ele>538.83</ele>
        <time>2020-10-19T09:40:33.000Z</time>
      </trkpt>
      <trkpt lat="45.47744" lon="5.96271">
        <ele>542.64</ele>
        <time>2020-10-19T09:40:38.000Z</time>
      </trkpt>
      <trkpt lat="45.47747" lon="5.96248">
        <ele>546.71</ele>
        <time>2020-10-19T09:40:43.000Z</time>
      </trkpt>
      <trkpt lat="45.4775" lon="5.96221">
        <ele>546.89</ele>
        <time>2020-10-19T09:40:48.000Z</time>
      </trkpt>
      <trkpt lat="45.47751" lon="5.96197">
        <ele>548.43</ele>
        <time>2020-10-19T09:40:53.000Z</time>
      </trkpt>
      <trkpt lat="45.4775" lon="5.9617">
        <ele>551.75</ele>
        <time>2020-10-19T09:40:58.000Z</time>
      </trkpt>
      <trkpt lat="45.4775" lon="5.96143">
        <ele>551.63</ele>
        <time>2020-10-19T09:41:03.000Z</time>
      </trkpt>
      <trkpt lat="45.47752" lon="5.96116">
        <ele>555.3</ele>
        <time>2020-10-19T09:41:08.000Z</time>
      </trkpt>
      <trkpt lat="45.47757" lon="5.96089">
        <ele>558.11</ele>
        <time>2020-10-19T09:41:13.000Z</time>
      </trkpt>
      <trkpt lat="45.47765" lon="5.96063">
        <ele>558.2</ele>
        <time>2020-10-19T09:41:18.000Z</time>
      </trkpt>
      <trkpt lat="45.47771" lon="5.9604">
        <ele>559.33</ele>
        <time>2020-10-19T09:41:23.000Z</time>
      </trkpt>
      <trkpt lat="45.47777" lon="5.96023">
        <ele>561.55</ele>
        <time>2020-10-19T09:41:28.000Z</time>
      </trkpt>
      <trkpt lat="45.47773" lon="5.96009">
        <ele>565.96</ele>
        <time>2020-10-19T09:43:26.000Z</time>
      </trkpt>
      <trkpt lat="45.47777" lon="5.95986">
        <ele>564.37</ele>
        <time>2020-10-19T09:43:31.000Z</time>
      </trkpt>
      <trkpt lat="45.47777" lon="5.95962">
        <ele>567.02</ele>
        <time>2020-10-19T09:43:36.000Z</time>
      </trkpt>
      <trkpt lat="45.47776" lon="5.95935">
        <ele>570.99</ele>
        <time>2020-10-19T09:43:41.000Z</time>
      </trkpt>
      <trkpt lat="45.47774" lon="5.95906">
        <ele>574.95</ele>
        <time>2020-10-19T09:43:46.000Z</time>
      </trkpt>
      <trkpt lat="45.47773" lon="5.9588">
        <ele>575.55</ele>
        <time>2020-10-19T09:43:51.000Z</time>
      </trkpt>
      <trkpt lat="45.47772" lon="5.95854">
        <ele>577.25</ele>
        <time>2020-10-19T09:43:56.000Z</time>
      </trkpt>
      <trkpt lat="45.47771" lon="5.95829">
        <ele>576.64</ele>
        <time>2020-10-19T09:44:01.000Z</time>
      </trkpt>
      <trkpt lat="45.47771" lon="5.95807">
        <ele>578.56</ele>
        <time>2020-10-19T09:44:06.000Z</time>
      </trkpt>
      <trkpt lat="45.47771" lon="5.95785">
        <ele>581.13</ele>
        <time>2020-10-19T09:44:11.000Z</time>
      </trkpt>
      <trkpt lat="45.47773" lon="5.95761">
        <ele>581.67</ele>
        <time>2020-10-19T09:44:16.000Z</time>
      </trkpt>
      <trkpt lat="45.47775" lon="5.95737">
        <ele>585.08</ele>
        <time>2020-10-19T09:44:21.000Z</time>
      </trkpt>
      <trkpt lat="45.47781" lon="5.95714">
        <ele>587.09</ele>
        <time>2020-10-19T09:44:26.000Z</time>
      </trkpt>
      <trkpt lat="45.4779" lon="5.9569">
        <ele>585.59</ele>
        <time>2020-10-19T09:44:31.000Z</time>
      </trkpt>
      <trkpt lat="45.47799" lon="5.95671">
        <ele>585.96</ele>
        <time>2020-10-19T09:44:36.000Z</time>
      </trkpt>
      <trkpt lat="45.47807" lon="5.95646">
        <ele>586.55</ele>
        <time>2020-10-19T09:44:41.000Z</time>
      </trkpt>
      <trkpt lat="45.47816" lon="5.95622">
        <ele>588.06</ele>
        <time>2020-10-19T09:44:46.000Z</time>
      </trkpt>
      <trkpt lat="45.47827" lon="5.95606">
        <ele>587.61</ele>
        <time>2020-10-19T09:44:51.000Z</time>
      </trkpt>
      <trkpt lat="45.47839" lon="5.95592">
        <ele>592.19</ele>
        <time>2020-10-19T09:44:56.000Z</time>
      </trkpt>
      <trkpt lat="45.47851" lon="5.95579">
        <ele>591.8</ele>
        <time>2020-10-19T09:45:01.000Z</time>
      </trkpt>
      <trkpt lat="45.47865" lon="5.95563">
        <ele>592.44</ele>
        <time>2020-10-19T09:45:06.000Z</time>
      </trkpt>
      <trkpt lat="45.47877" lon="5.95543">
        <ele>594.32</ele>
        <time>2020-10-19T09:45:11.000Z</time>
      </trkpt>
      <trkpt lat="45.47888" lon="5.9552">
        <ele>595.02</ele>
        <time>2020-10-19T09:45:16.000Z</time>
      </trkpt>
      <trkpt lat="45.47897" lon="5.95498">
        <ele>596.19</ele>
        <time>2020-10-19T09:45:21.000Z</time>
      </trkpt>
      <trkpt lat="45.47909" lon="5.9548">
        <ele>598.34</ele>
        <time>2020-10-19T09:45:26.000Z</time>
      </trkpt>
      <trkpt lat="45.47922" lon="5.9546">
        <ele>599.98</ele>
        <time>2020-10-19T09:45:31.000Z</time>
      </trkpt>
      <trkpt lat="45.47934" lon="5.95443">
        <ele>601.98</ele>
        <time>2020-10-19T09:45:36.000Z</time>
      </trkpt>
      <trkpt lat="45.47948" lon="5.95427">
        <ele>602.58</ele>
        <time>2020-10-19T09:45:41.000Z</time>
      </trkpt>
      <trkpt lat="45.4796" lon="5.95411">
        <ele>605.53</ele>
        <time>2020-10-19T09:45:46.000Z</time>
      </trkpt>
      <trkpt lat="45.47974" lon="5.95395">
        <ele>608.44</ele>
        <time>2020-10-19T09:45:51.000Z</time>
      </trkpt>
      <trkpt lat="45.47988" lon="5.9538">
        <ele>612.41</ele>
        <time>2020-10-19T09:45:56.000Z</time>
      </trkpt>
      <trkpt lat="45.48001" lon="5.95367">
        <ele>620.15</ele>
        <time>2020-10-19T09:46:01.000Z</time>
      </trkpt>
      <trkpt lat="45.48018" lon="5.95359">
        <ele>620.61</ele>
        <time>2020-10-19T09:46:06.000Z</time>
      </trkpt>
      <trkpt lat="45.48037" lon="5.95344">
        <ele>614.22</ele>
        <time>2020-10-19T09:46:11.000Z</time>
      </trkpt>
      <trkpt lat="45.4805" lon="5.95323">
        <ele>617.67</ele>
        <time>2020-10-19T09:46:16.000Z</time>
      </trkpt>
      <trkpt lat="45.4806" lon="5.95297">
        <ele>617.3</ele>
        <time>2020-10-19T09:46:21.000Z</time>
      </trkpt>
      <trkpt lat="45.48069" lon="5.95272">
        <ele>617.52</ele>
        <time>2020-10-19T09:46:26.000Z</time>
      </trkpt>
      <trkpt lat="45.48077" lon="5.95252">
        <ele>621.75</ele>
        <time>2020-10-19T09:46:31.000Z</time>
      </trkpt>
      <trkpt lat="45.48081" lon="5.95225">
        <ele>623.56</ele>
        <time>2020-10-19T09:46:36.000Z</time>
      </trkpt>
      <trkpt lat="45.48082" lon="5.95198">
        <ele>624.75</ele>
        <time>2020-10-19T09:46:41.000Z</time>
      </trkpt>
      <trkpt lat="45.48077" lon="5.95175">
        <ele>627.22</ele>
        <time>2020-10-19T09:46:46.000Z</time>
      </trkpt>
      <trkpt lat="45.48071" lon="5.9515">
        <ele>627.29</ele>
        <time>2020-10-19T09:46:51.000Z</time>
      </trkpt>
      <trkpt lat="45.48065" lon="5.95125">
        <ele>627.34</ele>
        <time>2020-10-19T09:46:56.000Z</time>
      </trkpt>
      <trkpt lat="45.48058" lon="5.95099">
        <ele>628.41</ele>
        <time>2020-10-19T09:47:01.000Z</time>
      </trkpt>
      <trkpt lat="45.48052" lon="5.9507">
        <ele>630.3</ele>
        <time>2020-10-19T09:47:06.000Z</time>
      </trkpt>
      <trkpt lat="45.48045" lon="5.95044">
        <ele>633.21</ele>
        <time>2020-10-19T09:47:11.000Z</time>
      </trkpt>
      <trkpt lat="45.4804" lon="5.9502">
        <ele>635.66</ele>
        <time>2020-10-19T09:47:16.000Z</time>
      </trkpt>
      <trkpt lat="45.48042" lon="5.94996">
        <ele>634.7</ele>
        <time>2020-10-19T09:47:21.000Z</time>
      </trkpt>
      <trkpt lat="45.48044" lon="5.94973">
        <ele>640.47</ele>
        <time>2020-10-19T09:47:26.000Z</time>
      </trkpt>
      <trkpt lat="45.48048" lon="5.94946">
        <ele>643.15</ele>
        <time>2020-10-19T09:47:31.000Z</time>
      </trkpt>
      <trkpt lat="45.48054" lon="5.94919">
        <ele>648.91</ele>
        <time>2020-10-19T09:47:36.000Z</time>
      </trkpt>
      <trkpt lat="45.48055" lon="5.94886">
        <ele>651.19</ele>
        <time>2020-10-19T09:47:41.000Z</time>
      </trkpt>
      <trkpt lat="45.48043" lon="5.94862">
        <ele>657.04</ele>
        <time>2020-10-19T09:47:46.000Z</time>
      </trkpt>
      <trkpt lat="45.48026" lon="5.94865">
        <ele>655.18</ele>
        <time>2020-10-19T09:47:51.000Z</time>
      </trkpt>
      <trkpt lat="45.48023" lon="5.94893">
        <ele>654.64</ele>
        <time>2020-10-19T09:47:56.000Z</time>
      </trkpt>
      <trkpt lat="45.48024" lon="5.94926">
        <ele>656.25</ele>
        <time>2020-10-19T09:48:01.000Z</time>
      </trkpt>
      <trkpt lat="45.48024" lon="5.94962">
        <ele>655.24</ele>
        <time>2020-10-19T09:48:06.000Z</time>
      </trkpt>
      <trkpt lat="45.48022" lon="5.94987">
        <ele>653.07</ele>
        <time>2020-10-19T09:48:11.000Z</time>
      </trkpt>
      <trkpt lat="45.48023" lon="5.95009">
        <ele>655</ele>
        <time>2020-10-19T09:48:16.000Z</time>
      </trkpt>
      <trkpt lat="45.48024" lon="5.95035">
        <ele>657.93</ele>
        <time>2020-10-19T09:48:21.000Z</time>
      </trkpt>
      <trkpt lat="45.48026" lon="5.95064">
        <ele>662.26</ele>
        <time>2020-10-19T09:48:26.000Z</time>
      </trkpt>
      <trkpt lat="45.48027" lon="5.951">
        <ele>664.62</ele>
        <time>2020-10-19T09:48:31.000Z</time>
      </trkpt>
      <trkpt lat="45.48029" lon="5.95126">
        <ele>664.35</ele>
        <time>2020-10-19T09:48:36.000Z</time>
      </trkpt>
      <trkpt lat="45.48017" lon="5.95153">
        <ele>663.78</ele>
        <time>2020-10-19T09:48:41.000Z</time>
      </trkpt>
      <trkpt lat="45.48001" lon="5.9517">
        <ele>661.63</ele>
        <time>2020-10-19T09:48:46.000Z</time>
      </trkpt>
      <trkpt lat="45.47979" lon="5.95165">
        <ele>660.52</ele>
        <time>2020-10-19T09:48:51.000Z</time>
      </trkpt>
      <trkpt lat="45.47964" lon="5.95144">
        <ele>661.39</ele>
        <time>2020-10-19T09:48:56.000Z</time>
      </trkpt>
      <trkpt lat="45.47951" lon="5.9512">
        <ele>656.59</ele>
        <time>2020-10-19T09:49:01.000Z</time>
      </trkpt>
      <trkpt lat="45.47933" lon="5.95105">
        <ele>658.35</ele>
        <time>2020-10-19T09:49:06.000Z</time>
      </trkpt>
      <trkpt lat="45.47911" lon="5.95103">
        <ele>656.33</ele>
        <time>2020-10-19T09:49:11.000Z</time>
      </trkpt>
      <trkpt lat="45.4789" lon="5.951">
        <ele>658.67</ele>
        <time>2020-10-19T09:49:16.000Z</time>
      </trkpt>
      <trkpt lat="45.47869" lon="5.95093">
        <ele>654.88</ele>
        <time>2020-10-19T09:49:21.000Z</time>
      </trkpt>
      <trkpt lat="45.47852" lon="5.95091">
        <ele>656.05</ele>
        <time>2020-10-19T09:49:26.000Z</time>
      </trkpt>
      <trkpt lat="45.47835" lon="5.95078">
        <ele>657.57</ele>
        <time>2020-10-19T09:49:31.000Z</time>
      </trkpt>
      <trkpt lat="45.47818" lon="5.95067">
        <ele>658.26</ele>
        <time>2020-10-19T09:49:36.000Z</time>
      </trkpt>
      <trkpt lat="45.47797" lon="5.95069">
        <ele>658.42</ele>
        <time>2020-10-19T09:49:41.000Z</time>
      </trkpt>
      <trkpt lat="45.47776" lon="5.95075">
        <ele>654.9</ele>
        <time>2020-10-19T09:49:46.000Z</time>
      </trkpt>
      <trkpt lat="45.4776" lon="5.95076">
        <ele>656.31</ele>
        <time>2020-10-19T09:49:51.000Z</time>
      </trkpt>
      <trkpt lat="45.47753" lon="5.95052">
        <ele>657.55</ele>
        <time>2020-10-19T09:49:56.000Z</time>
      </trkpt>
      <trkpt lat="45.4775" lon="5.95019">
        <ele>660.6</ele>
        <time>2020-10-19T09:50:01.000Z</time>
      </trkpt>
      <trkpt lat="45.47748" lon="5.94996">
        <ele>658.39</ele>
        <time>2020-10-19T09:50:06.000Z</time>
      </trkpt>
      <trkpt lat="45.47745" lon="5.9497">
        <ele>656.41</ele>
        <time>2020-10-19T09:50:11.000Z</time>
      </trkpt>
      <trkpt lat="45.47745" lon="5.94943">
        <ele>657.39</ele>
        <time>2020-10-19T09:50:16.000Z</time>
      </trkpt>
      <trkpt lat="45.47754" lon="5.94942">
        <ele>660.3</ele>
        <time>2020-10-19T09:50:21.000Z</time>
      </trkpt>
      <trkpt lat="45.47765" lon="5.94964">
        <ele>660.22</ele>
        <time>2020-10-19T09:50:26.000Z</time>
      </trkpt>
      <trkpt lat="45.47775" lon="5.94989">
        <ele>659.7</ele>
        <time>2020-10-19T09:50:31.000Z</time>
      </trkpt>
      <trkpt lat="45.47787" lon="5.95006">
        <ele>661.05</ele>
        <time>2020-10-19T09:50:36.000Z</time>
      </trkpt>
      <trkpt lat="45.47806" lon="5.95002">
        <ele>663.09</ele>
        <time>2020-10-19T09:50:41.000Z</time>
      </trkpt>
      <trkpt lat="45.47819" lon="5.94966">
        <ele>662.39</ele>
        <time>2020-10-19T09:50:46.000Z</time>
      </trkpt>
      <trkpt lat="45.47821" lon="5.94934">
        <ele>666.23</ele>
        <time>2020-10-19T09:50:51.000Z</time>
      </trkpt>
      <trkpt lat="45.47819" lon="5.94903">
        <ele>667.09</ele>
        <time>2020-10-19T09:50:56.000Z</time>
      </trkpt>
      <trkpt lat="45.47818" lon="5.94863">
        <ele>674.83</ele>
        <time>2020-10-19T09:51:01.000Z</time>
      </trkpt>
      <trkpt lat="45.47816" lon="5.9484">
        <ele>684.27</ele>
        <time>2020-10-19T09:51:06.000Z</time>
      </trkpt>
      <trkpt lat="45.47824" lon="5.94819">
        <ele>690.12</ele>
        <time>2020-10-19T09:51:11.000Z</time>
      </trkpt>
      <trkpt lat="45.47829" lon="5.94793">
        <ele>694.33</ele>
        <time>2020-10-19T09:51:16.000Z</time>
      </trkpt>
      <trkpt lat="45.4783" lon="5.94771">
        <ele>700.36</ele>
        <time>2020-10-19T09:51:21.000Z</time>
      </trkpt>
      <trkpt lat="45.47825" lon="5.94747">
        <ele>708.76</ele>
        <time>2020-10-19T09:51:26.000Z</time>
      </trkpt>
      <trkpt lat="45.47821" lon="5.94725">
        <ele>708.18</ele>
        <time>2020-10-19T09:51:31.000Z</time>
      </trkpt>
      <trkpt lat="45.47813" lon="5.94699">
        <ele>708.28</ele>
        <time>2020-10-19T09:51:36.000Z</time>
      </trkpt>
      <trkpt lat="45.47803" lon="5.94677">
        <ele>713.59</ele>
        <time>2020-10-19T09:51:41.000Z</time>
      </trkpt>
      <trkpt lat="45.47796" lon="5.94659">
        <ele>716.63</ele>
        <time>2020-10-19T09:51:46.000Z</time>
      </trkpt>
      <trkpt lat="45.47788" lon="5.94629">
        <ele>721.77</ele>
        <time>2020-10-19T09:51:51.000Z</time>
      </trkpt>
      <trkpt lat="45.4778" lon="5.94608">
        <ele>726.7</ele>
        <time>2020-10-19T09:51:56.000Z</time>
      </trkpt>
      <trkpt lat="45.47773" lon="5.94592">
        <ele>726.31</ele>
        <time>2020-10-19T09:52:01.000Z</time>
      </trkpt>
      <trkpt lat="45.47768" lon="5.94569">
        <ele>728.55</ele>
        <time>2020-10-19T09:52:06.000Z</time>
      </trkpt>
      <trkpt lat="45.4776" lon="5.94544">
        <ele>729.62</ele>
        <time>2020-10-19T09:52:11.000Z</time>
      </trkpt>
      <trkpt lat="45.47756" lon="5.94514">
        <ele>732.05</ele>
        <time>2020-10-19T09:52:16.000Z</time>
      </trkpt>
      <trkpt lat="45.47762" lon="5.94492">
        <ele>735.96</ele>
        <time>2020-10-19T09:52:21.000Z</time>
      </trkpt>
      <trkpt lat="45.47773" lon="5.94472">
        <ele>737.26</ele>
        <time>2020-10-19T09:52:26.000Z</time>
      </trkpt>
      <trkpt lat="45.47787" lon="5.94461">
        <ele>741.57</ele>
        <time>2020-10-19T09:52:31.000Z</time>
      </trkpt>
      <trkpt lat="45.47802" lon="5.9445">
        <ele>741.43</ele>
        <time>2020-10-19T09:52:36.000Z</time>
      </trkpt>
      <trkpt lat="45.4781" lon="5.94425">
        <ele>745.62</ele>
        <time>2020-10-19T09:52:41.000Z</time>
      </trkpt>
      <trkpt lat="45.47813" lon="5.94402">
        <ele>746.27</ele>
        <time>2020-10-19T09:52:46.000Z</time>
      </trkpt>
      <trkpt lat="45.47815" lon="5.94389">
        <ele>745.47</ele>
        <time>2020-10-19T09:52:56.000Z</time>
      </trkpt>
      <trkpt lat="45.47809" lon="5.944">
        <ele>745.78</ele>
        <time>2020-10-19T09:53:08.000Z</time>
      </trkpt>
      <trkpt lat="45.47811" lon="5.94386">
        <ele>743.94</ele>
        <time>2020-10-19T09:53:19.000Z</time>
      </trkpt>
      <trkpt lat="45.47817" lon="5.94371">
        <ele>745.25</ele>
        <time>2020-10-19T09:53:24.000Z</time>
      </trkpt>
      <trkpt lat="45.47826" lon="5.94354">
        <ele>746.95</ele>
        <time>2020-10-19T09:53:29.000Z</time>
      </trkpt>
      <trkpt lat="45.47834" lon="5.94339">
        <ele>748.47</ele>
        <time>2020-10-19T09:53:34.000Z</time>
      </trkpt>
      <trkpt lat="45.47842" lon="5.94324">
        <ele>750.43</ele>
        <time>2020-10-19T09:53:39.000Z</time>
      </trkpt>
      <trkpt lat="45.47848" lon="5.94305">
        <ele>752.87</ele>
        <time>2020-10-19T09:53:44.000Z</time>
      </trkpt>
      <trkpt lat="45.47848" lon="5.94282">
        <ele>754.18</ele>
        <time>2020-10-19T09:53:49.000Z</time>
      </trkpt>
      <trkpt lat="45.47841" lon="5.94259">
        <ele>759.11</ele>
        <time>2020-10-19T09:53:54.000Z</time>
      </trkpt>
      <trkpt lat="45.4783" lon="5.9425">
        <ele>762.57</ele>
        <time>2020-10-19T09:53:59.000Z</time>
      </trkpt>
      <trkpt lat="45.47818" lon="5.94235">
        <ele>764.76</ele>
        <time>2020-10-19T09:54:04.000Z</time>
      </trkpt>
      <trkpt lat="45.47802" lon="5.9423">
        <ele>768.7</ele>
        <time>2020-10-19T09:54:09.000Z</time>
      </trkpt>
      <trkpt lat="45.47787" lon="5.94233">
        <ele>767.42</ele>
        <time>2020-10-19T09:54:14.000Z</time>
      </trkpt>
      <trkpt lat="45.47772" lon="5.94241">
        <ele>770.34</ele>
        <time>2020-10-19T09:54:19.000Z</time>
      </trkpt>
      <trkpt lat="45.47757" lon="5.94249">
        <ele>772.38</ele>
        <time>2020-10-19T09:54:24.000Z</time>
      </trkpt>
      <trkpt lat="45.47741" lon="5.94252">
        <ele>773.18</ele>
        <time>2020-10-19T09:54:29.000Z</time>
      </trkpt>
      <trkpt lat="45.47727" lon="5.94253">
        <ele>776.49</ele>
        <time>2020-10-19T09:54:34.000Z</time>
      </trkpt>
      <trkpt lat="45.47713" lon="5.94248">
        <ele>776.48</ele>
        <time>2020-10-19T09:54:39.000Z</time>
      </trkpt>
      <trkpt lat="45.47703" lon="5.94237">
        <ele>778.01</ele>
        <time>2020-10-19T09:54:44.000Z</time>
      </trkpt>
      <trkpt lat="45.47693" lon="5.94226">
        <ele>778.31</ele>
        <time>2020-10-19T09:54:49.000Z</time>
      </trkpt>
      <trkpt lat="45.47682" lon="5.94213">
        <ele>781.06</ele>
        <time>2020-10-19T09:54:54.000Z</time>
      </trkpt>
      <trkpt lat="45.47669" lon="5.94215">
        <ele>783.33</ele>
        <time>2020-10-19T09:54:59.000Z</time>
      </trkpt>
      <trkpt lat="45.47655" lon="5.9422">
        <ele>783.46</ele>
        <time>2020-10-19T09:55:04.000Z</time>
      </trkpt>
      <trkpt lat="45.47643" lon="5.94223">
        <ele>781.63</ele>
        <time>2020-10-19T09:55:09.000Z</time>
      </trkpt>
      <trkpt lat="45.47629" lon="5.94218">
        <ele>782.44</ele>
        <time>2020-10-19T09:55:14.000Z</time>
      </trkpt>
      <trkpt lat="45.47621" lon="5.94197">
        <ele>787.81</ele>
        <time>2020-10-19T09:55:19.000Z</time>
      </trkpt>
      <trkpt lat="45.47622" lon="5.94178">
        <ele>789.22</ele>
        <time>2020-10-19T09:55:24.000Z</time>
      </trkpt>
      <trkpt lat="45.47629" lon="5.94167">
        <ele>792.38</ele>
        <time>2020-10-19T09:55:30.000Z</time>
      </trkpt>
      <trkpt lat="45.47636" lon="5.94155">
        <ele>795.91</ele>
        <time>2020-10-19T09:55:36.000Z</time>
      </trkpt>
      <trkpt lat="45.47643" lon="5.94144">
        <ele>798.39</ele>
        <time>2020-10-19T09:55:41.000Z</time>
      </trkpt>
      <trkpt lat="45.47656" lon="5.9413">
        <ele>800.25</ele>
        <time>2020-10-19T09:55:46.000Z</time>
      </trkpt>
      <trkpt lat="45.4767" lon="5.94115">
        <ele>805.59</ele>
        <time>2020-10-19T09:55:51.000Z</time>
      </trkpt>
      <trkpt lat="45.47684" lon="5.94108">
        <ele>805.41</ele>
        <time>2020-10-19T09:55:56.000Z</time>
      </trkpt>
      <trkpt lat="45.47696" lon="5.94111">
        <ele>806.17</ele>
        <time>2020-10-19T09:56:01.000Z</time>
      </trkpt>
      <trkpt lat="45.47707" lon="5.94115">
        <ele>807.64</ele>
        <time>2020-10-19T09:56:06.000Z</time>
      </trkpt>
      <trkpt lat="45.47722" lon="5.94111">
        <ele>811.99</ele>
        <time>2020-10-19T09:56:11.000Z</time>
      </trkpt>
      <trkpt lat="45.47737" lon="5.94097">
        <ele>816.83</ele>
        <time>2020-10-19T09:56:16.000Z</time>
      </trkpt>
      <trkpt lat="45.47744" lon="5.94079">
        <ele>817.63</ele>
        <time>2020-10-19T09:56:21.000Z</time>
      </trkpt>
      <trkpt lat="45.47744" lon="5.94061">
        <ele>818.76</ele>
        <time>2020-10-19T09:56:26.000Z</time>
      </trkpt>
      <trkpt lat="45.47743" lon="5.94044">
        <ele>821.35</ele>
        <time>2020-10-19T09:56:31.000Z</time>
      </trkpt>
      <trkpt lat="45.47745" lon="5.94021">
        <ele>821.96</ele>
        <time>2020-10-19T09:56:36.000Z</time>
      </trkpt>
      <trkpt lat="45.47744" lon="5.93994">
        <ele>821.41</ele>
        <time>2020-10-19T09:56:43.000Z</time>
      </trkpt>
      <trkpt lat="45.47745" lon="5.93947">
        <ele>824.92</ele>
        <time>2020-10-19T09:56:54.000Z</time>
      </trkpt>
      <trkpt lat="45.47749" lon="5.93927">
        <ele>828.48</ele>
        <time>2020-10-19T09:56:59.000Z</time>
      </trkpt>
      <trkpt lat="45.47753" lon="5.93906">
        <ele>829.89</ele>
        <time>2020-10-19T09:57:04.000Z</time>
      </trkpt>
      <trkpt lat="45.47759" lon="5.93886">
        <ele>832.6</ele>
        <time>2020-10-19T09:57:09.000Z</time>
      </trkpt>
      <trkpt lat="45.47766" lon="5.93868">
        <ele>834.35</ele>
        <time>2020-10-19T09:57:14.000Z</time>
      </trkpt>
      <trkpt lat="45.47772" lon="5.9385">
        <ele>835.68</ele>
        <time>2020-10-19T09:57:19.000Z</time>
      </trkpt>
      <trkpt lat="45.47777" lon="5.9383">
        <ele>839.52</ele>
        <time>2020-10-19T09:57:24.000Z</time>
      </trkpt>
      <trkpt lat="45.47785" lon="5.9381">
        <ele>841.2</ele>
        <time>2020-10-19T09:57:29.000Z</time>
      </trkpt>
      <trkpt lat="45.47793" lon="5.93793">
        <ele>842.38</ele>
        <time>2020-10-19T09:57:34.000Z</time>
      </trkpt>
      <trkpt lat="45.478" lon="5.93778">
        <ele>843.83</ele>
        <time>2020-10-19T09:57:39.000Z</time>
      </trkpt>
      <trkpt lat="45.47806" lon="5.93759">
        <ele>845.37</ele>
        <time>2020-10-19T09:57:44.000Z</time>
      </trkpt>
      <trkpt lat="45.4781" lon="5.93739">
        <ele>848.9</ele>
        <time>2020-10-19T09:57:49.000Z</time>
      </trkpt>
      <trkpt lat="45.47813" lon="5.93722">
        <ele>851.44</ele>
        <time>2020-10-19T09:57:54.000Z</time>
      </trkpt>
      <trkpt lat="45.47821" lon="5.93703">
        <ele>852.46</ele>
        <time>2020-10-19T09:57:59.000Z</time>
      </trkpt>
      <trkpt lat="45.4783" lon="5.93684">
        <ele>852.74</ele>
        <time>2020-10-19T09:58:04.000Z</time>
      </trkpt>
      <trkpt lat="45.47839" lon="5.93672">
        <ele>850.89</ele>
        <time>2020-10-19T09:58:09.000Z</time>
      </trkpt>
      <trkpt lat="45.47851" lon="5.93663">
        <ele>852.16</ele>
        <time>2020-10-19T09:58:14.000Z</time>
      </trkpt>
      <trkpt lat="45.47864" lon="5.93657">
        <ele>852.52</ele>
        <time>2020-10-19T09:58:19.000Z</time>
      </trkpt>
      <trkpt lat="45.47877" lon="5.9365">
        <ele>852.35</ele>
        <time>2020-10-19T09:58:24.000Z</time>
      </trkpt>
      <trkpt lat="45.47891" lon="5.93638">
        <ele>856.65</ele>
        <time>2020-10-19T09:58:29.000Z</time>
      </trkpt>
      <trkpt lat="45.47908" lon="5.93628">
        <ele>859.12</ele>
        <time>2020-10-19T09:58:34.000Z</time>
      </trkpt>
      <trkpt lat="45.47919" lon="5.93609">
        <ele>859.35</ele>
        <time>2020-10-19T09:58:39.000Z</time>
      </trkpt>
      <trkpt lat="45.47927" lon="5.93589">
        <ele>862.73</ele>
        <time>2020-10-19T09:58:44.000Z</time>
      </trkpt>
      <trkpt lat="45.47918" lon="5.93571">
        <ele>864.62</ele>
        <time>2020-10-19T09:58:49.000Z</time>
      </trkpt>
      <trkpt lat="45.47902" lon="5.9357">
        <ele>868.72</ele>
        <time>2020-10-19T09:58:54.000Z</time>
      </trkpt>
      <trkpt lat="45.47887" lon="5.93573">
        <ele>869.13</ele>
        <time>2020-10-19T09:58:59.000Z</time>
      </trkpt>
      <trkpt lat="45.47873" lon="5.93569">
        <ele>868.5</ele>
        <time>2020-10-19T09:59:04.000Z</time>
      </trkpt>
      <trkpt lat="45.47863" lon="5.93558">
        <ele>871.84</ele>
        <time>2020-10-19T09:59:09.000Z</time>
      </trkpt>
      <trkpt lat="45.47856" lon="5.93548">
        <ele>875.1</ele>
        <time>2020-10-19T09:59:15.000Z</time>
      </trkpt>
      <trkpt lat="45.4785" lon="5.93536">
        <ele>870.26</ele>
        <time>2020-10-19T09:59:21.000Z</time>
      </trkpt>
      <trkpt lat="45.47844" lon="5.93515">
        <ele>869.9</ele>
        <time>2020-10-19T09:59:26.000Z</time>
      </trkpt>
      <trkpt lat="45.4783" lon="5.93501">
        <ele>871.56</ele>
        <time>2020-10-19T09:59:31.000Z</time>
      </trkpt>
      <trkpt lat="45.47815" lon="5.93499">
        <ele>876.19</ele>
        <time>2020-10-19T09:59:36.000Z</time>
      </trkpt>
      <trkpt lat="45.47803" lon="5.93498">
        <ele>873.72</ele>
        <time>2020-10-19T09:59:41.000Z</time>
      </trkpt>
      <trkpt lat="45.4779" lon="5.93492">
        <ele>871.49</ele>
        <time>2020-10-19T09:59:46.000Z</time>
      </trkpt>
      <trkpt lat="45.47778" lon="5.93483">
        <ele>875.09</ele>
        <time>2020-10-19T09:59:51.000Z</time>
      </trkpt>
      <trkpt lat="45.47765" lon="5.93469">
        <ele>877.07</ele>
        <time>2020-10-19T09:59:56.000Z</time>
      </trkpt>
      <trkpt lat="45.47754" lon="5.93458">
        <ele>877.32</ele>
        <time>2020-10-19T10:00:01.000Z</time>
      </trkpt>
      <trkpt lat="45.47745" lon="5.93442">
        <ele>881.92</ele>
        <time>2020-10-19T10:00:06.000Z</time>
      </trkpt>
      <trkpt lat="45.4774" lon="5.93425">
        <ele>886.49</ele>
        <time>2020-10-19T10:00:11.000Z</time>
      </trkpt>
      <trkpt lat="45.47743" lon="5.93405">
        <ele>887.9</ele>
        <time>2020-10-19T10:00:16.000Z</time>
      </trkpt>
      <trkpt lat="45.47749" lon="5.93384">
        <ele>887.29</ele>
        <time>2020-10-19T10:00:21.000Z</time>
      </trkpt>
      <trkpt lat="45.47758" lon="5.93375">
        <ele>890.33</ele>
        <time>2020-10-19T10:00:26.000Z</time>
      </trkpt>
      <trkpt lat="45.4777" lon="5.93373">
        <ele>891.34</ele>
        <time>2020-10-19T10:00:31.000Z</time>
      </trkpt>
      <trkpt lat="45.47784" lon="5.93374">
        <ele>893.06</ele>
        <time>2020-10-19T10:00:36.000Z</time>
      </trkpt>
      <trkpt lat="45.47797" lon="5.93381">
        <ele>892.15</ele>
        <time>2020-10-19T10:00:41.000Z</time>
      </trkpt>
      <trkpt lat="45.47809" lon="5.93387">
        <ele>894.9</ele>
        <time>2020-10-19T10:00:46.000Z</time>
      </trkpt>
      <trkpt lat="45.47822" lon="5.93381">
        <ele>902.3</ele>
        <time>2020-10-19T10:00:51.000Z</time>
      </trkpt>
      <trkpt lat="45.47826" lon="5.93364">
        <ele>906.93</ele>
        <time>2020-10-19T10:00:56.000Z</time>
      </trkpt>
      <trkpt lat="45.47819" lon="5.93352">
        <ele>908.84</ele>
        <time>2020-10-19T10:04:01.000Z</time>
      </trkpt>
      <trkpt lat="45.4781" lon="5.93344">
        <ele>908.14</ele>
        <time>2020-10-19T10:04:06.000Z</time>
      </trkpt>
      <trkpt lat="45.47795" lon="5.93335">
        <ele>908.59</ele>
        <time>2020-10-19T10:04:11.000Z</time>
      </trkpt>
      <trkpt lat="45.47777" lon="5.93321">
        <ele>911.54</ele>
        <time>2020-10-19T10:04:16.000Z</time>
      </trkpt>
      <trkpt lat="45.47768" lon="5.93293">
        <ele>910.91</ele>
        <time>2020-10-19T10:04:21.000Z</time>
      </trkpt>
      <trkpt lat="45.47768" lon="5.93262">
        <ele>914.11</ele>
        <time>2020-10-19T10:04:26.000Z</time>
      </trkpt>
      <trkpt lat="45.47778" lon="5.93237">
        <ele>915.4</ele>
        <time>2020-10-19T10:04:31.000Z</time>
      </trkpt>
      <trkpt lat="45.47785" lon="5.93209">
        <ele>914.99</ele>
        <time>2020-10-19T10:04:36.000Z</time>
      </trkpt>
      <trkpt lat="45.47787" lon="5.93182">
        <ele>912.05</ele>
        <time>2020-10-19T10:04:41.000Z</time>
      </trkpt>
      <trkpt lat="45.4779" lon="5.93151">
        <ele>914.43</ele>
        <time>2020-10-19T10:04:46.000Z</time>
      </trkpt>
      <trkpt lat="45.47791" lon="5.93121">
        <ele>917.2</ele>
        <time>2020-10-19T10:04:51.000Z</time>
      </trkpt>
      <trkpt lat="45.47793" lon="5.93092">
        <ele>918.3</ele>
        <time>2020-10-19T10:04:56.000Z</time>
      </trkpt>
      <trkpt lat="45.4779" lon="5.93068">
        <ele>920.85</ele>
        <time>2020-10-19T10:05:01.000Z</time>
      </trkpt>
      <trkpt lat="45.47789" lon="5.93041">
        <ele>922.58</ele>
        <time>2020-10-19T10:05:06.000Z</time>
      </trkpt>
      <trkpt lat="45.47785" lon="5.93016">
        <ele>924.06</ele>
        <time>2020-10-19T10:05:11.000Z</time>
      </trkpt>
      <trkpt lat="45.47788" lon="5.92993">
        <ele>926.5</ele>
        <time>2020-10-19T10:05:16.000Z</time>
      </trkpt>
      <trkpt lat="45.4779" lon="5.92967">
        <ele>928.22</ele>
        <time>2020-10-19T10:05:21.000Z</time>
      </trkpt>
      <trkpt lat="45.47787" lon="5.92941">
        <ele>930.49</ele>
        <time>2020-10-19T10:05:26.000Z</time>
      </trkpt>
      <trkpt lat="45.47782" lon="5.92916">
        <ele>932.47</ele>
        <time>2020-10-19T10:05:31.000Z</time>
      </trkpt>
      <trkpt lat="45.47778" lon="5.92889">
        <ele>933.6</ele>
        <time>2020-10-19T10:05:36.000Z</time>
      </trkpt>
      <trkpt lat="45.47768" lon="5.92865">
        <ele>941.41</ele>
        <time>2020-10-19T10:05:41.000Z</time>
      </trkpt>
      <trkpt lat="45.4776" lon="5.92841">
        <ele>943.28</ele>
        <time>2020-10-19T10:05:46.000Z</time>
      </trkpt>
      <trkpt lat="45.47754" lon="5.92812">
        <ele>944.53</ele>
        <time>2020-10-19T10:05:51.000Z</time>
      </trkpt>
      <trkpt lat="45.47756" lon="5.92783">
        <ele>943.75</ele>
        <time>2020-10-19T10:05:56.000Z</time>
      </trkpt>
      <trkpt lat="45.47757" lon="5.92755">
        <ele>938.47</ele>
        <time>2020-10-19T10:06:01.000Z</time>
      </trkpt>
      <trkpt lat="45.4775" lon="5.92729">
        <ele>937.94</ele>
        <time>2020-10-19T10:06:06.000Z</time>
      </trkpt>
      <trkpt lat="45.47744" lon="5.9271">
        <ele>940.95</ele>
        <time>2020-10-19T10:06:11.000Z</time>
      </trkpt>
      <trkpt lat="45.47739" lon="5.92692">
        <ele>945.21</ele>
        <time>2020-10-19T10:06:16.000Z</time>
      </trkpt>
      <trkpt lat="45.47737" lon="5.92673">
        <ele>949.78</ele>
        <time>2020-10-19T10:06:21.000Z</time>
      </trkpt>
      <trkpt lat="45.47733" lon="5.92649">
        <ele>948.92</ele>
        <time>2020-10-19T10:06:26.000Z</time>
      </trkpt>
      <trkpt lat="45.47732" lon="5.9263">
        <ele>951.31</ele>
        <time>2020-10-19T10:06:31.000Z</time>
      </trkpt>
      <trkpt lat="45.47732" lon="5.92609">
        <ele>951.7</ele>
        <time>2020-10-19T10:06:36.000Z</time>
      </trkpt>
      <trkpt lat="45.4773" lon="5.92587">
        <ele>953.09</ele>
        <time>2020-10-19T10:06:41.000Z</time>
      </trkpt>
      <trkpt lat="45.47726" lon="5.92565">
        <ele>959.04</ele>
        <time>2020-10-19T10:06:46.000Z</time>
      </trkpt>
      <trkpt lat="45.47721" lon="5.9254">
        <ele>959.26</ele>
        <time>2020-10-19T10:06:51.000Z</time>
      </trkpt>
      <trkpt lat="45.47722" lon="5.92516">
        <ele>963.5</ele>
        <time>2020-10-19T10:06:56.000Z</time>
      </trkpt>
      <trkpt lat="45.47729" lon="5.92497">
        <ele>966.57</ele>
        <time>2020-10-19T10:07:01.000Z</time>
      </trkpt>
      <trkpt lat="45.47735" lon="5.92479">
        <ele>967.86</ele>
        <time>2020-10-19T10:07:06.000Z</time>
      </trkpt>
      <trkpt lat="45.47741" lon="5.92461">
        <ele>965.83</ele>
        <time>2020-10-19T10:07:11.000Z</time>
      </trkpt>
      <trkpt lat="45.47747" lon="5.92441">
        <ele>967.79</ele>
        <time>2020-10-19T10:07:16.000Z</time>
      </trkpt>
      <trkpt lat="45.47749" lon="5.92421">
        <ele>970.15</ele>
        <time>2020-10-19T10:07:21.000Z</time>
      </trkpt>
      <trkpt lat="45.47742" lon="5.92396">
        <ele>973.33</ele>
        <time>2020-10-19T10:07:26.000Z</time>
      </trkpt>
      <trkpt lat="45.47734" lon="5.92372">
        <ele>975.38</ele>
        <time>2020-10-19T10:07:31.000Z</time>
      </trkpt>
      <trkpt lat="45.47728" lon="5.92357">
        <ele>976.57</ele>
        <time>2020-10-19T10:07:36.000Z</time>
      </trkpt>
      <trkpt lat="45.47727" lon="5.92336">
        <ele>978.04</ele>
        <time>2020-10-19T10:07:41.000Z</time>
      </trkpt>
      <trkpt lat="45.47724" lon="5.92315">
        <ele>978.23</ele>
        <time>2020-10-19T10:07:46.000Z</time>
      </trkpt>
      <trkpt lat="45.47719" lon="5.92298">
        <ele>980.4</ele>
        <time>2020-10-19T10:07:51.000Z</time>
      </trkpt>
      <trkpt lat="45.47712" lon="5.92279">
        <ele>984.24</ele>
        <time>2020-10-19T10:07:56.000Z</time>
      </trkpt>
      <trkpt lat="45.47711" lon="5.92259">
        <ele>986.61</ele>
        <time>2020-10-19T10:08:01.000Z</time>
      </trkpt>
      <trkpt lat="45.47716" lon="5.92241">
        <ele>988.15</ele>
        <time>2020-10-19T10:08:06.000Z</time>
      </trkpt>
      <trkpt lat="45.47722" lon="5.92221">
        <ele>988.49</ele>
        <time>2020-10-19T10:08:11.000Z</time>
      </trkpt>
      <trkpt lat="45.47733" lon="5.92204">
        <ele>990.67</ele>
        <time>2020-10-19T10:08:16.000Z</time>
      </trkpt>
      <trkpt lat="45.47741" lon="5.92187">
        <ele>988.83</ele>
        <time>2020-10-19T10:08:21.000Z</time>
      </trkpt>
      <trkpt lat="45.47751" lon="5.92175">
        <ele>995.64</ele>
        <time>2020-10-19T10:08:26.000Z</time>
      </trkpt>
      <trkpt lat="45.47762" lon="5.92165">
        <ele>998.7</ele>
        <time>2020-10-19T10:08:31.000Z</time>
      </trkpt>
      <trkpt lat="45.47774" lon="5.92154">
        <ele>1001.55</ele>
        <time>2020-10-19T10:08:36.000Z</time>
      </trkpt>
      <trkpt lat="45.47787" lon="5.92144">
        <ele>1005.37</ele>
        <time>2020-10-19T10:08:41.000Z</time>
      </trkpt>
      <trkpt lat="45.478" lon="5.92137">
        <ele>1006.84</ele>
        <time>2020-10-19T10:08:46.000Z</time>
      </trkpt>
      <trkpt lat="45.47812" lon="5.92133">
        <ele>1008.41</ele>
        <time>2020-10-19T10:08:51.000Z</time>
      </trkpt>
      <trkpt lat="45.47823" lon="5.92128">
        <ele>1010.18</ele>
        <time>2020-10-19T10:08:56.000Z</time>
      </trkpt>
      <trkpt lat="45.47836" lon="5.92125">
        <ele>1013.19</ele>
        <time>2020-10-19T10:09:01.000Z</time>
      </trkpt>
      <trkpt lat="45.47851" lon="5.92119">
        <ele>1015.93</ele>
        <time>2020-10-19T10:09:06.000Z</time>
      </trkpt>
      <trkpt lat="45.47865" lon="5.92113">
        <ele>1019.36</ele>
        <time>2020-10-19T10:09:11.000Z</time>
      </trkpt>
      <trkpt lat="45.47878" lon="5.92103">
        <ele>1019.16</ele>
        <time>2020-10-19T10:09:16.000Z</time>
      </trkpt>
      <trkpt lat="45.47893" lon="5.92098">
        <ele>1018.89</ele>
        <time>2020-10-19T10:09:21.000Z</time>
      </trkpt>
      <trkpt lat="45.47909" lon="5.92091">
        <ele>1020.28</ele>
        <time>2020-10-19T10:09:26.000Z</time>
      </trkpt>
      <trkpt lat="45.47923" lon="5.92076">
        <ele>1020.38</ele>
        <time>2020-10-19T10:09:31.000Z</time>
      </trkpt>
      <trkpt lat="45.47941" lon="5.9204">
        <ele>1020.29</ele>
        <time>2020-10-19T10:09:41.000Z</time>
      </trkpt>
      <trkpt lat="45.4795" lon="5.92024">
        <ele>1022.76</ele>
        <time>2020-10-19T10:09:46.000Z</time>
      </trkpt>
      <trkpt lat="45.47961" lon="5.92008">
        <ele>1029.06</ele>
        <time>2020-10-19T10:09:51.000Z</time>
      </trkpt>
      <trkpt lat="45.47973" lon="5.91997">
        <ele>1031.6</ele>
        <time>2020-10-19T10:09:56.000Z</time>
      </trkpt>
      <trkpt lat="45.47986" lon="5.91997">
        <ele>1029.86</ele>
        <time>2020-10-19T10:10:01.000Z</time>
      </trkpt>
      <trkpt lat="45.47997" lon="5.92003">
        <ele>1028.79</ele>
        <time>2020-10-19T10:10:06.000Z</time>
      </trkpt>
      <trkpt lat="45.48011" lon="5.92007">
        <ele>1028.63</ele>
        <time>2020-10-19T10:10:11.000Z</time>
      </trkpt>
      <trkpt lat="45.48025" lon="5.92014">
        <ele>1029.79</ele>
        <time>2020-10-19T10:10:16.000Z</time>
      </trkpt>
      <trkpt lat="45.48036" lon="5.92021">
        <ele>1032.48</ele>
        <time>2020-10-19T10:10:21.000Z</time>
      </trkpt>
      <trkpt lat="45.48048" lon="5.92023">
        <ele>1025.83</ele>
        <time>2020-10-19T10:10:26.000Z</time>
      </trkpt>
      <trkpt lat="45.48062" lon="5.92011">
        <ele>1023.08</ele>
        <time>2020-10-19T10:10:31.000Z</time>
      </trkpt>
      <trkpt lat="45.48075" lon="5.91997">
        <ele>1024.04</ele>
        <time>2020-10-19T10:10:36.000Z</time>
      </trkpt>
      <trkpt lat="45.48088" lon="5.91987">
        <ele>1026.87</ele>
        <time>2020-10-19T10:10:41.000Z</time>
      </trkpt>
      <trkpt lat="45.48101" lon="5.91976">
        <ele>1033.13</ele>
        <time>2020-10-19T10:10:46.000Z</time>
      </trkpt>
      <trkpt lat="45.48108" lon="5.91963">
        <ele>1034.83</ele>
        <time>2020-10-19T10:10:51.000Z</time>
      </trkpt>
      <trkpt lat="45.48117" lon="5.91948">
        <ele>1035.94</ele>
        <time>2020-10-19T10:10:56.000Z</time>
      </trkpt>
      <trkpt lat="45.48123" lon="5.91931">
        <ele>1038.15</ele>
        <time>2020-10-19T10:11:01.000Z</time>
      </trkpt>
      <trkpt lat="45.48132" lon="5.9192">
        <ele>1041.6</ele>
        <time>2020-10-19T10:11:06.000Z</time>
      </trkpt>
      <trkpt lat="45.4814" lon="5.91908">
        <ele>1044.23</ele>
        <time>2020-10-19T10:11:11.000Z</time>
      </trkpt>
      <trkpt lat="45.48147" lon="5.91889">
        <ele>1048.01</ele>
        <time>2020-10-19T10:11:16.000Z</time>
      </trkpt>
      <trkpt lat="45.48136" lon="5.91877">
        <ele>1046.92</ele>
        <time>2020-10-19T10:11:21.000Z</time>
      </trkpt>
      <trkpt lat="45.48122" lon="5.91873">
        <ele>1048.11</ele>
        <time>2020-10-19T10:11:26.000Z</time>
      </trkpt>
      <trkpt lat="45.48112" lon="5.91869">
        <ele>1050.59</ele>
        <time>2020-10-19T10:11:31.000Z</time>
      </trkpt>
      <trkpt lat="45.48099" lon="5.91867">
        <ele>1052.4</ele>
        <time>2020-10-19T10:11:36.000Z</time>
      </trkpt>
      <trkpt lat="45.48086" lon="5.91858">
        <ele>1053.06</ele>
        <time>2020-10-19T10:11:41.000Z</time>
      </trkpt>
      <trkpt lat="45.48074" lon="5.9185">
        <ele>1055.76</ele>
        <time>2020-10-19T10:11:46.000Z</time>
      </trkpt>
      <trkpt lat="45.48059" lon="5.91849">
        <ele>1060.82</ele>
        <time>2020-10-19T10:11:51.000Z</time>
      </trkpt>
      <trkpt lat="45.48045" lon="5.91853">
        <ele>1059.77</ele>
        <time>2020-10-19T10:11:56.000Z</time>
      </trkpt>
      <trkpt lat="45.48031" lon="5.9186">
        <ele>1061.06</ele>
        <time>2020-10-19T10:12:01.000Z</time>
      </trkpt>
      <trkpt lat="45.48016" lon="5.91854">
        <ele>1066.32</ele>
        <time>2020-10-19T10:12:06.000Z</time>
      </trkpt>
      <trkpt lat="45.48008" lon="5.91838">
        <ele>1067.64</ele>
        <time>2020-10-19T10:12:11.000Z</time>
      </trkpt>
      <trkpt lat="45.48013" lon="5.9182">
        <ele>1072.2</ele>
        <time>2020-10-19T10:12:16.000Z</time>
      </trkpt>
      <trkpt lat="45.48027" lon="5.9181">
        <ele>1072.22</ele>
        <time>2020-10-19T10:12:21.000Z</time>
      </trkpt>
      <trkpt lat="45.48039" lon="5.91804">
        <ele>1077.4</ele>
        <time>2020-10-19T10:12:26.000Z</time>
      </trkpt>
      <trkpt lat="45.48051" lon="5.91795">
        <ele>1079.83</ele>
        <time>2020-10-19T10:12:31.000Z</time>
      </trkpt>
      <trkpt lat="45.48058" lon="5.91778">
        <ele>1080.99</ele>
        <time>2020-10-19T10:12:36.000Z</time>
      </trkpt>
      <trkpt lat="45.4806" lon="5.9176">
        <ele>1081.63</ele>
        <time>2020-10-19T10:12:41.000Z</time>
      </trkpt>
      <trkpt lat="45.48068" lon="5.91745">
        <ele>1083.5</ele>
        <time>2020-10-19T10:12:46.000Z</time>
      </trkpt>
      <trkpt lat="45.48079" lon="5.91736">
        <ele>1083.57</ele>
        <time>2020-10-19T10:12:51.000Z</time>
      </trkpt>
      <trkpt lat="45.48089" lon="5.91731">
        <ele>1084.53</ele>
        <time>2020-10-19T10:12:56.000Z</time>
      </trkpt>
      <trkpt lat="45.48102" lon="5.91726">
        <ele>1086.19</ele>
        <time>2020-10-19T10:13:01.000Z</time>
      </trkpt>
      <trkpt lat="45.48116" lon="5.91728">
        <ele>1086.53</ele>
        <time>2020-10-19T10:13:06.000Z</time>
      </trkpt>
      <trkpt lat="45.4813" lon="5.91731">
        <ele>1086.99</ele>
        <time>2020-10-19T10:13:11.000Z</time>
      </trkpt>
      <trkpt lat="45.48145" lon="5.91739">
        <ele>1089.49</ele>
        <time>2020-10-19T10:13:16.000Z</time>
      </trkpt>
      <trkpt lat="45.48158" lon="5.91748">
        <ele>1088.59</ele>
        <time>2020-10-19T10:13:21.000Z</time>
      </trkpt>
      <trkpt lat="45.48171" lon="5.91735">
        <ele>1084.32</ele>
        <time>2020-10-19T10:13:26.000Z</time>
      </trkpt>
      <trkpt lat="45.48184" lon="5.91716">
        <ele>1089.2</ele>
        <time>2020-10-19T10:13:31.000Z</time>
      </trkpt>
      <trkpt lat="45.48195" lon="5.91698">
        <ele>1087.53</ele>
        <time>2020-10-19T10:13:36.000Z</time>
      </trkpt>
      <trkpt lat="45.48203" lon="5.91684">
        <ele>1089.83</ele>
        <time>2020-10-19T10:13:41.000Z</time>
      </trkpt>
      <trkpt lat="45.48206" lon="5.91665">
        <ele>1091.91</ele>
        <time>2020-10-19T10:13:46.000Z</time>
      </trkpt>
      <trkpt lat="45.48204" lon="5.91644">
        <ele>1094.95</ele>
        <time>2020-10-19T10:13:51.000Z</time>
      </trkpt>
      <trkpt lat="45.48199" lon="5.91627">
        <ele>1097.63</ele>
        <time>2020-10-19T10:13:56.000Z</time>
      </trkpt>
      <trkpt lat="45.4819" lon="5.91613">
        <ele>1100.79</ele>
        <time>2020-10-19T10:14:01.000Z</time>
      </trkpt>
      <trkpt lat="45.4818" lon="5.91597">
        <ele>1102.82</ele>
        <time>2020-10-19T10:14:06.000Z</time>
      </trkpt>
      <trkpt lat="45.48172" lon="5.91576">
        <ele>1104.94</ele>
        <time>2020-10-19T10:14:11.000Z</time>
      </trkpt>
      <trkpt lat="45.48168" lon="5.91554">
        <ele>1111.05</ele>
        <time>2020-10-19T10:14:16.000Z</time>
      </trkpt>
      <trkpt lat="45.4816" lon="5.91534">
        <ele>1114.33</ele>
        <time>2020-10-19T10:14:21.000Z</time>
      </trkpt>
      <trkpt lat="45.48149" lon="5.91518">
        <ele>1116.43</ele>
        <time>2020-10-19T10:14:26.000Z</time>
      </trkpt>
      <trkpt lat="45.48132" lon="5.91516">
        <ele>1120.31</ele>
        <time>2020-10-19T10:14:31.000Z</time>
      </trkpt>
      <trkpt lat="45.48114" lon="5.91519">
        <ele>1124.7</ele>
        <time>2020-10-19T10:14:36.000Z</time>
      </trkpt>
      <trkpt lat="45.48101" lon="5.91522">
        <ele>1122.67</ele>
        <time>2020-10-19T10:14:41.000Z</time>
      </trkpt>
      <trkpt lat="45.48086" lon="5.91525">
        <ele>1124.05</ele>
        <time>2020-10-19T10:14:46.000Z</time>
      </trkpt>
      <trkpt lat="45.48071" lon="5.91522">
        <ele>1126.25</ele>
        <time>2020-10-19T10:14:51.000Z</time>
      </trkpt>
      <trkpt lat="45.48057" lon="5.91514">
        <ele>1128.97</ele>
        <time>2020-10-19T10:14:56.000Z</time>
      </trkpt>
      <trkpt lat="45.48049" lon="5.91495">
        <ele>1130.07</ele>
        <time>2020-10-19T10:15:01.000Z</time>
      </trkpt>
      <trkpt lat="45.48039" lon="5.91488">
        <ele>1127.38</ele>
        <time>2020-10-19T10:15:06.000Z</time>
      </trkpt>
      <trkpt lat="45.48029" lon="5.91488">
        <ele>1130.96</ele>
        <time>2020-10-19T10:15:16.000Z</time>
      </trkpt>
      <trkpt lat="45.48024" lon="5.91478">
        <ele>1128.47</ele>
        <time>2020-10-19T10:21:59.000Z</time>
      </trkpt>
      <trkpt lat="45.48015" lon="5.91463">
        <ele>1126.34</ele>
        <time>2020-10-19T10:22:04.000Z</time>
      </trkpt>
      <trkpt lat="45.48003" lon="5.91443">
        <ele>1128.11</ele>
        <time>2020-10-19T10:22:09.000Z</time>
      </trkpt>
      <trkpt lat="45.47985" lon="5.91417">
        <ele>1128.91</ele>
        <time>2020-10-19T10:22:14.000Z</time>
      </trkpt>
      <trkpt lat="45.47967" lon="5.91388">
        <ele>1126.4</ele>
        <time>2020-10-19T10:22:19.000Z</time>
      </trkpt>
      <trkpt lat="45.47944" lon="5.91347">
        <ele>1126.77</ele>
        <time>2020-10-19T10:22:24.000Z</time>
      </trkpt>
      <trkpt lat="45.47916" lon="5.91308">
        <ele>1128.33</ele>
        <time>2020-10-19T10:22:29.000Z</time>
      </trkpt>
      <trkpt lat="45.47887" lon="5.91268">
        <ele>1128.02</ele>
        <time>2020-10-19T10:22:34.000Z</time>
      </trkpt>
      <trkpt lat="45.47856" lon="5.91219">
        <ele>1124.02</ele>
        <time>2020-10-19T10:22:39.000Z</time>
      </trkpt>
      <trkpt lat="45.47823" lon="5.91155">
        <ele>1114.15</ele>
        <time>2020-10-19T10:22:44.000Z</time>
      </trkpt>
      <trkpt lat="45.47794" lon="5.91076">
        <ele>1107.91</ele>
        <time>2020-10-19T10:22:49.000Z</time>
      </trkpt>
      <trkpt lat="45.47767" lon="5.91011">
        <ele>1101.45</ele>
        <time>2020-10-19T10:22:54.000Z</time>
      </trkpt>
      <trkpt lat="45.4772" lon="5.90966">
        <ele>1100.27</ele>
        <time>2020-10-19T10:22:59.000Z</time>
      </trkpt>
      <trkpt lat="45.47682" lon="5.90898">
        <ele>1094.52</ele>
        <time>2020-10-19T10:23:04.000Z</time>
      </trkpt>
      <trkpt lat="45.47636" lon="5.90827">
        <ele>1092.54</ele>
        <time>2020-10-19T10:23:09.000Z</time>
      </trkpt>
      <trkpt lat="45.4758" lon="5.90772">
        <ele>1090.24</ele>
        <time>2020-10-19T10:23:14.000Z</time>
      </trkpt>
      <trkpt lat="45.47542" lon="5.90707">
        <ele>1082.37</ele>
        <time>2020-10-19T10:23:19.000Z</time>
      </trkpt>
      <trkpt lat="45.47509" lon="5.90643">
        <ele>1074.85</ele>
        <time>2020-10-19T10:23:24.000Z</time>
      </trkpt>
      <trkpt lat="45.47476" lon="5.90644">
        <ele>1070.01</ele>
        <time>2020-10-19T10:23:29.000Z</time>
      </trkpt>
      <trkpt lat="45.47442" lon="5.90666">
        <ele>1065.58</ele>
        <time>2020-10-19T10:23:34.000Z</time>
      </trkpt>
      <trkpt lat="45.474" lon="5.90676">
        <ele>1063.02</ele>
        <time>2020-10-19T10:23:39.000Z</time>
      </trkpt>
      <trkpt lat="45.47359" lon="5.9066">
        <ele>1063.84</ele>
        <time>2020-10-19T10:23:44.000Z</time>
      </trkpt>
      <trkpt lat="45.47326" lon="5.90639">
        <ele>1062.8</ele>
        <time>2020-10-19T10:23:49.000Z</time>
      </trkpt>
      <trkpt lat="45.47296" lon="5.90611">
        <ele>1063.25</ele>
        <time>2020-10-19T10:23:54.000Z</time>
      </trkpt>
      <trkpt lat="45.4727" lon="5.90586">
        <ele>1061.55</ele>
        <time>2020-10-19T10:23:59.000Z</time>
      </trkpt>
      <trkpt lat="45.47241" lon="5.90567">
        <ele>1064.09</ele>
        <time>2020-10-19T10:24:04.000Z</time>
      </trkpt>
      <trkpt lat="45.47209" lon="5.90553">
        <ele>1062.22</ele>
        <time>2020-10-19T10:24:09.000Z</time>
      </trkpt>
      <trkpt lat="45.4718" lon="5.90527">
        <ele>1061.73</ele>
        <time>2020-10-19T10:24:14.000Z</time>
      </trkpt>
      <trkpt lat="45.47148" lon="5.90495">
        <ele>1059.45</ele>
        <time>2020-10-19T10:24:19.000Z</time>
      </trkpt>
      <trkpt lat="45.47114" lon="5.90461">
        <ele>1054.6</ele>
        <time>2020-10-19T10:24:24.000Z</time>
      </trkpt>
      <trkpt lat="45.47084" lon="5.90417">
        <ele>1050.78</ele>
        <time>2020-10-19T10:24:29.000Z</time>
      </trkpt>
      <trkpt lat="45.47065" lon="5.90363">
        <ele>1049.96</ele>
        <time>2020-10-19T10:24:34.000Z</time>
      </trkpt>
      <trkpt lat="45.47047" lon="5.9031">
        <ele>1053.12</ele>
        <time>2020-10-19T10:24:39.000Z</time>
      </trkpt>
      <trkpt lat="45.4701" lon="5.90293">
        <ele>1049.95</ele>
        <time>2020-10-19T10:24:44.000Z</time>
      </trkpt>
      <trkpt lat="45.46965" lon="5.90277">
        <ele>1047.7</ele>
        <time>2020-10-19T10:24:49.000Z</time>
      </trkpt>
      <trkpt lat="45.46923" lon="5.90241">
        <ele>1038.32</ele>
        <time>2020-10-19T10:24:54.000Z</time>
      </trkpt>
      <trkpt lat="45.46887" lon="5.902">
        <ele>1035.21</ele>
        <time>2020-10-19T10:24:59.000Z</time>
      </trkpt>
      <trkpt lat="45.46844" lon="5.90173">
        <ele>1035.11</ele>
        <time>2020-10-19T10:25:04.000Z</time>
      </trkpt>
      <trkpt lat="45.46802" lon="5.90125">
        <ele>1032.99</ele>
        <time>2020-10-19T10:25:09.000Z</time>
      </trkpt>
      <trkpt lat="45.46764" lon="5.90066">
        <ele>1027.75</ele>
        <time>2020-10-19T10:25:14.000Z</time>
      </trkpt>
      <trkpt lat="45.46729" lon="5.9003">
        <ele>1026.5</ele>
        <time>2020-10-19T10:25:19.000Z</time>
      </trkpt>
      <trkpt lat="45.46681" lon="5.90011">
        <ele>1020.18</ele>
        <time>2020-10-19T10:25:24.000Z</time>
      </trkpt>
      <trkpt lat="45.46643" lon="5.8999">
        <ele>1016.85</ele>
        <time>2020-10-19T10:25:29.000Z</time>
      </trkpt>
      <trkpt lat="45.466" lon="5.90007">
        <ele>1010.26</ele>
        <time>2020-10-19T10:25:34.000Z</time>
      </trkpt>
      <trkpt lat="45.4655" lon="5.90006">
        <ele>1005.68</ele>
        <time>2020-10-19T10:25:39.000Z</time>
      </trkpt>
      <trkpt lat="45.46496" lon="5.89979">
        <ele>1001.04</ele>
        <time>2020-10-19T10:25:44.000Z</time>
      </trkpt>
      <trkpt lat="45.4644" lon="5.89965">
        <ele>1000.86</ele>
        <time>2020-10-19T10:25:49.000Z</time>
      </trkpt>
      <trkpt lat="45.46385" lon="5.89943">
        <ele>996.71</ele>
        <time>2020-10-19T10:25:54.000Z</time>
      </trkpt>
      <trkpt lat="45.46348" lon="5.8989">
        <ele>993.98</ele>
        <time>2020-10-19T10:25:59.000Z</time>
      </trkpt>
      <trkpt lat="45.46329" lon="5.89832">
        <ele>991.51</ele>
        <time>2020-10-19T10:26:04.000Z</time>
      </trkpt>
      <trkpt lat="45.46307" lon="5.89781">
        <ele>988.14</ele>
        <time>2020-10-19T10:26:09.000Z</time>
      </trkpt>
      <trkpt lat="45.46305" lon="5.89749">
        <ele>984.9</ele>
        <time>2020-10-19T10:26:14.000Z</time>
      </trkpt>
      <trkpt lat="45.46338" lon="5.89786">
        <ele>976.92</ele>
        <time>2020-10-19T10:26:19.000Z</time>
      </trkpt>
      <trkpt lat="45.46379" lon="5.89817">
        <ele>971.35</ele>
        <time>2020-10-19T10:26:24.000Z</time>
      </trkpt>
      <trkpt lat="45.46419" lon="5.89822">
        <ele>969.7</ele>
        <time>2020-10-19T10:26:29.000Z</time>
      </trkpt>
      <trkpt lat="45.4641" lon="5.89794">
        <ele>968.8</ele>
        <time>2020-10-19T10:26:34.000Z</time>
      </trkpt>
      <trkpt lat="45.46356" lon="5.89739">
        <ele>966.32</ele>
        <time>2020-10-19T10:26:39.000Z</time>
      </trkpt>
      <trkpt lat="45.46309" lon="5.89688">
        <ele>960.35</ele>
        <time>2020-10-19T10:26:44.000Z</time>
      </trkpt>
      <trkpt lat="45.46272" lon="5.8964">
        <ele>954.75</ele>
        <time>2020-10-19T10:26:49.000Z</time>
      </trkpt>
      <trkpt lat="45.46239" lon="5.89635">
        <ele>948.89</ele>
        <time>2020-10-19T10:26:54.000Z</time>
      </trkpt>
      <trkpt lat="45.46199" lon="5.89635">
        <ele>944.13</ele>
        <time>2020-10-19T10:26:59.000Z</time>
      </trkpt>
      <trkpt lat="45.46151" lon="5.89628">
        <ele>941.95</ele>
        <time>2020-10-19T10:27:04.000Z</time>
      </trkpt>
      <trkpt lat="45.46101" lon="5.89593">
        <ele>937.4</ele>
        <time>2020-10-19T10:27:09.000Z</time>
      </trkpt>
      <trkpt lat="45.46056" lon="5.89541">
        <ele>935.32</ele>
        <time>2020-10-19T10:27:14.000Z</time>
      </trkpt>
      <trkpt lat="45.46017" lon="5.89472">
        <ele>933.6</ele>
        <time>2020-10-19T10:27:19.000Z</time>
      </trkpt>
      <trkpt lat="45.45966" lon="5.89443">
        <ele>928.95</ele>
        <time>2020-10-19T10:27:24.000Z</time>
      </trkpt>
      <trkpt lat="45.45915" lon="5.89417">
        <ele>923.4</ele>
        <time>2020-10-19T10:27:29.000Z</time>
      </trkpt>
      <trkpt lat="45.45887" lon="5.89345">
        <ele>921.63</ele>
        <time>2020-10-19T10:27:34.000Z</time>
      </trkpt>
      <trkpt lat="45.45854" lon="5.89302">
        <ele>913.84</ele>
        <time>2020-10-19T10:27:39.000Z</time>
      </trkpt>
      <trkpt lat="45.45817" lon="5.89253">
        <ele>912.44</ele>
        <time>2020-10-19T10:27:44.000Z</time>
      </trkpt>
      <trkpt lat="45.45784" lon="5.89207">
        <ele>913.61</ele>
        <time>2020-10-19T10:27:49.000Z</time>
      </trkpt>
      <trkpt lat="45.4575" lon="5.89163">
        <ele>913.29</ele>
        <time>2020-10-19T10:27:54.000Z</time>
      </trkpt>
      <trkpt lat="45.45713" lon="5.89124">
        <ele>909.08</ele>
        <time>2020-10-19T10:27:59.000Z</time>
      </trkpt>
      <trkpt lat="45.45683" lon="5.89085">
        <ele>907.77</ele>
        <time>2020-10-19T10:28:04.000Z</time>
      </trkpt>
      <trkpt lat="45.45656" lon="5.89032">
        <ele>904.1</ele>
        <time>2020-10-19T10:28:09.000Z</time>
      </trkpt>
      <trkpt lat="45.45632" lon="5.88976">
        <ele>900.54</ele>
        <time>2020-10-19T10:28:14.000Z</time>
      </trkpt>
      <trkpt lat="45.45613" lon="5.88906">
        <ele>896.64</ele>
        <time>2020-10-19T10:28:19.000Z</time>
      </trkpt>
      <trkpt lat="45.45603" lon="5.88839">
        <ele>889.27</ele>
        <time>2020-10-19T10:28:24.000Z</time>
      </trkpt>
      <trkpt lat="45.45595" lon="5.88771">
        <ele>888.28</ele>
        <time>2020-10-19T10:28:29.000Z</time>
      </trkpt>
      <trkpt lat="45.45572" lon="5.88711">
        <ele>885.64</ele>
        <time>2020-10-19T10:28:34.000Z</time>
      </trkpt>
      <trkpt lat="45.45562" lon="5.88649">
        <ele>879.48</ele>
        <time>2020-10-19T10:28:39.000Z</time>
      </trkpt>
      <trkpt lat="45.45561" lon="5.8859">
        <ele>876.41</ele>
        <time>2020-10-19T10:28:44.000Z</time>
      </trkpt>
      <trkpt lat="45.45544" lon="5.88554">
        <ele>877.9</ele>
        <time>2020-10-19T10:28:49.000Z</time>
      </trkpt>
      <trkpt lat="45.4552" lon="5.88518">
        <ele>880.06</ele>
        <time>2020-10-19T10:28:54.000Z</time>
      </trkpt>
      <trkpt lat="45.45479" lon="5.88479">
        <ele>873.73</ele>
        <time>2020-10-19T10:28:59.000Z</time>
      </trkpt>
      <trkpt lat="45.45439" lon="5.88438">
        <ele>868.91</ele>
        <time>2020-10-19T10:29:04.000Z</time>
      </trkpt>
      <trkpt lat="45.45407" lon="5.88412">
        <ele>866.75</ele>
        <time>2020-10-19T10:29:09.000Z</time>
      </trkpt>
      <trkpt lat="45.45382" lon="5.88414">
        <ele>861.81</ele>
        <time>2020-10-19T10:29:14.000Z</time>
      </trkpt>
      <trkpt lat="45.45362" lon="5.88422">
        <ele>858.7</ele>
        <time>2020-10-19T10:29:19.000Z</time>
      </trkpt>
      <trkpt lat="45.45342" lon="5.8842">
        <ele>855.42</ele>
        <time>2020-10-19T10:29:24.000Z</time>
      </trkpt>
      <trkpt lat="45.4532" lon="5.88421">
        <ele>852.16</ele>
        <time>2020-10-19T10:29:29.000Z</time>
      </trkpt>
      <trkpt lat="45.453" lon="5.88413">
        <ele>849.86</ele>
        <time>2020-10-19T10:29:34.000Z</time>
      </trkpt>
      <trkpt lat="45.4528" lon="5.88402">
        <ele>845.96</ele>
        <time>2020-10-19T10:29:39.000Z</time>
      </trkpt>
      <trkpt lat="45.45259" lon="5.88396">
        <ele>842.82</ele>
        <time>2020-10-19T10:29:44.000Z</time>
      </trkpt>
      <trkpt lat="45.45242" lon="5.8839">
        <ele>842.09</ele>
        <time>2020-10-19T10:29:49.000Z</time>
      </trkpt>
      <trkpt lat="45.45247" lon="5.88378">
        <ele>840.57</ele>
        <time>2020-10-19T10:32:51.000Z</time>
      </trkpt>
      <trkpt lat="45.45242" lon="5.88367">
        <ele>837.13</ele>
        <time>2020-10-19T10:36:55.000Z</time>
      </trkpt>
      <trkpt lat="45.45243" lon="5.88354">
        <ele>839.35</ele>
        <time>2020-10-19T11:58:23.000Z</time>
      </trkpt>
      <trkpt lat="45.45247" lon="5.88368">
        <ele>841.55</ele>
        <time>2020-10-19T12:06:42.000Z</time>
      </trkpt>
      <trkpt lat="45.45251" lon="5.88379">
        <ele>842.55</ele>
        <time>2020-10-19T12:06:50.000Z</time>
      </trkpt>
      <trkpt lat="45.45259" lon="5.88388">
        <ele>842.69</ele>
        <time>2020-10-19T12:06:57.000Z</time>
      </trkpt>
      <trkpt lat="45.4525" lon="5.88394">
        <ele>832.48</ele>
        <time>2020-10-19T12:10:18.000Z</time>
      </trkpt>
      <trkpt lat="45.4523" lon="5.88394">
        <ele>835.47</ele>
        <time>2020-10-19T12:10:23.000Z</time>
      </trkpt>
      <trkpt lat="45.452" lon="5.88391">
        <ele>836.41</ele>
        <time>2020-10-19T12:10:28.000Z</time>
      </trkpt>
      <trkpt lat="45.4517" lon="5.88394">
        <ele>838.21</ele>
        <time>2020-10-19T12:10:33.000Z</time>
      </trkpt>
      <trkpt lat="45.45143" lon="5.88378">
        <ele>836.55</ele>
        <time>2020-10-19T12:10:38.000Z</time>
      </trkpt>
      <trkpt lat="45.45121" lon="5.88363">
        <ele>836.91</ele>
        <time>2020-10-19T12:10:43.000Z</time>
      </trkpt>
      <trkpt lat="45.45095" lon="5.88351">
        <ele>836.38</ele>
        <time>2020-10-19T12:10:48.000Z</time>
      </trkpt>
      <trkpt lat="45.45068" lon="5.88342">
        <ele>838.68</ele>
        <time>2020-10-19T12:10:53.000Z</time>
      </trkpt>
      <trkpt lat="45.45038" lon="5.88327">
        <ele>837.55</ele>
        <time>2020-10-19T12:10:58.000Z</time>
      </trkpt>
      <trkpt lat="45.45009" lon="5.88301">
        <ele>836.9</ele>
        <time>2020-10-19T12:11:03.000Z</time>
      </trkpt>
      <trkpt lat="45.44994" lon="5.88276">
        <ele>837.81</ele>
        <time>2020-10-19T12:11:08.000Z</time>
      </trkpt>
      <trkpt lat="45.44971" lon="5.88265">
        <ele>837.73</ele>
        <time>2020-10-19T12:11:13.000Z</time>
      </trkpt>
      <trkpt lat="45.44955" lon="5.88248">
        <ele>840.32</ele>
        <time>2020-10-19T12:11:18.000Z</time>
      </trkpt>
      <trkpt lat="45.4494" lon="5.88234">
        <ele>836.08</ele>
        <time>2020-10-19T12:11:23.000Z</time>
      </trkpt>
      <trkpt lat="45.44925" lon="5.88222">
        <ele>835.4</ele>
        <time>2020-10-19T12:11:28.000Z</time>
      </trkpt>
      <trkpt lat="45.4491" lon="5.8821">
        <ele>836.86</ele>
        <time>2020-10-19T12:11:33.000Z</time>
      </trkpt>
      <trkpt lat="45.44895" lon="5.88193">
        <ele>835.81</ele>
        <time>2020-10-19T12:11:38.000Z</time>
      </trkpt>
      <trkpt lat="45.4488" lon="5.88164">
        <ele>835.97</ele>
        <time>2020-10-19T12:11:43.000Z</time>
      </trkpt>
      <trkpt lat="45.44861" lon="5.88143">
        <ele>836.88</ele>
        <time>2020-10-19T12:11:48.000Z</time>
      </trkpt>
      <trkpt lat="45.4484" lon="5.88124">
        <ele>836.15</ele>
        <time>2020-10-19T12:11:53.000Z</time>
      </trkpt>
      <trkpt lat="45.4482" lon="5.88108">
        <ele>835.91</ele>
        <time>2020-10-19T12:11:58.000Z</time>
      </trkpt>
      <trkpt lat="45.44795" lon="5.88086">
        <ele>835.21</ele>
        <time>2020-10-19T12:12:03.000Z</time>
      </trkpt>
      <trkpt lat="45.44767" lon="5.88054">
        <ele>835.57</ele>
        <time>2020-10-19T12:12:08.000Z</time>
      </trkpt>
      <trkpt lat="45.4474" lon="5.88046">
        <ele>835.58</ele>
        <time>2020-10-19T12:12:13.000Z</time>
      </trkpt>
      <trkpt lat="45.44714" lon="5.88022">
        <ele>834.37</ele>
        <time>2020-10-19T12:12:18.000Z</time>
      </trkpt>
      <trkpt lat="45.44685" lon="5.88019">
        <ele>829.49</ele>
        <time>2020-10-19T12:12:23.000Z</time>
      </trkpt>
      <trkpt lat="45.44653" lon="5.88019">
        <ele>828.64</ele>
        <time>2020-10-19T12:12:28.000Z</time>
      </trkpt>
      <trkpt lat="45.4462" lon="5.88023">
        <ele>826.58</ele>
        <time>2020-10-19T12:12:33.000Z</time>
      </trkpt>
      <trkpt lat="45.44594" lon="5.88024">
        <ele>822.46</ele>
        <time>2020-10-19T12:12:38.000Z</time>
      </trkpt>
      <trkpt lat="45.4457" lon="5.88007">
        <ele>822.07</ele>
        <time>2020-10-19T12:12:43.000Z</time>
      </trkpt>
      <trkpt lat="45.44553" lon="5.88003">
        <ele>818.26</ele>
        <time>2020-10-19T12:12:48.000Z</time>
      </trkpt>
      <trkpt lat="45.44535" lon="5.87996">
        <ele>818.98</ele>
        <time>2020-10-19T12:12:53.000Z</time>
      </trkpt>
      <trkpt lat="45.44509" lon="5.87992">
        <ele>819.37</ele>
        <time>2020-10-19T12:12:58.000Z</time>
      </trkpt>
      <trkpt lat="45.44474" lon="5.87981">
        <ele>817.34</ele>
        <time>2020-10-19T12:13:03.000Z</time>
      </trkpt>
      <trkpt lat="45.44432" lon="5.88003">
        <ele>817.75</ele>
        <time>2020-10-19T12:13:08.000Z</time>
      </trkpt>
      <trkpt lat="45.4439" lon="5.88039">
        <ele>814.88</ele>
        <time>2020-10-19T12:13:13.000Z</time>
      </trkpt>
      <trkpt lat="45.44339" lon="5.88021">
        <ele>810.68</ele>
        <time>2020-10-19T12:13:18.000Z</time>
      </trkpt>
      <trkpt lat="45.4429" lon="5.88009">
        <ele>804.67</ele>
        <time>2020-10-19T12:13:23.000Z</time>
      </trkpt>
      <trkpt lat="45.44231" lon="5.87982">
        <ele>802.83</ele>
        <time>2020-10-19T12:13:28.000Z</time>
      </trkpt>
      <trkpt lat="45.44169" lon="5.87957">
        <ele>801.49</ele>
        <time>2020-10-19T12:13:33.000Z</time>
      </trkpt>
      <trkpt lat="45.44103" lon="5.87942">
        <ele>798.1</ele>
        <time>2020-10-19T12:13:38.000Z</time>
      </trkpt>
      <trkpt lat="45.44038" lon="5.87897">
        <ele>789.69</ele>
        <time>2020-10-19T12:13:43.000Z</time>
      </trkpt>
      <trkpt lat="45.43977" lon="5.87852">
        <ele>787.13</ele>
        <time>2020-10-19T12:13:48.000Z</time>
      </trkpt>
      <trkpt lat="45.43911" lon="5.87818">
        <ele>785.81</ele>
        <time>2020-10-19T12:13:53.000Z</time>
      </trkpt>
      <trkpt lat="45.43855" lon="5.87769">
        <ele>780.02</ele>
        <time>2020-10-19T12:13:58.000Z</time>
      </trkpt>
      <trkpt lat="45.43807" lon="5.87729">
        <ele>771.8</ele>
        <time>2020-10-19T12:14:03.000Z</time>
      </trkpt>
      <trkpt lat="45.43751" lon="5.87723">
        <ele>760.07</ele>
        <time>2020-10-19T12:14:08.000Z</time>
      </trkpt>
      <trkpt lat="45.43687" lon="5.87736">
        <ele>757.9</ele>
        <time>2020-10-19T12:14:13.000Z</time>
      </trkpt>
      <trkpt lat="45.43641" lon="5.87709">
        <ele>759</ele>
        <time>2020-10-19T12:14:18.000Z</time>
      </trkpt>
      <trkpt lat="45.43596" lon="5.87695">
        <ele>759.29</ele>
        <time>2020-10-19T12:14:23.000Z</time>
      </trkpt>
      <trkpt lat="45.43549" lon="5.87676">
        <ele>757.73</ele>
        <time>2020-10-19T12:14:28.000Z</time>
      </trkpt>
      <trkpt lat="45.43494" lon="5.87671">
        <ele>756.31</ele>
        <time>2020-10-19T12:14:33.000Z</time>
      </trkpt>
      <trkpt lat="45.43435" lon="5.87653">
        <ele>754.41</ele>
        <time>2020-10-19T12:14:38.000Z</time>
      </trkpt>
      <trkpt lat="45.43405" lon="5.87574">
        <ele>750.15</ele>
        <time>2020-10-19T12:14:43.000Z</time>
      </trkpt>
      <trkpt lat="45.43404" lon="5.87497">
        <ele>745.75</ele>
        <time>2020-10-19T12:14:48.000Z</time>
      </trkpt>
      <trkpt lat="45.43346" lon="5.87438">
        <ele>738.26</ele>
        <time>2020-10-19T12:14:53.000Z</time>
      </trkpt>
      <trkpt lat="45.43358" lon="5.87329">
        <ele>736.7</ele>
        <time>2020-10-19T12:14:58.000Z</time>
      </trkpt>
      <trkpt lat="45.43339" lon="5.8725">
        <ele>738.83</ele>
        <time>2020-10-19T12:15:03.000Z</time>
      </trkpt>
      <trkpt lat="45.43325" lon="5.87201">
        <ele>731.14</ele>
        <time>2020-10-19T12:15:08.000Z</time>
      </trkpt>
      <trkpt lat="45.43274" lon="5.87198">
        <ele>726.87</ele>
        <time>2020-10-19T12:15:13.000Z</time>
      </trkpt>
      <trkpt lat="45.43237" lon="5.87163">
        <ele>722.54</ele>
        <time>2020-10-19T12:15:18.000Z</time>
      </trkpt>
      <trkpt lat="45.4321" lon="5.87103">
        <ele>722.94</ele>
        <time>2020-10-19T12:15:23.000Z</time>
      </trkpt>
      <trkpt lat="45.43173" lon="5.87079">
        <ele>723.6</ele>
        <time>2020-10-19T12:15:28.000Z</time>
      </trkpt>
      <trkpt lat="45.43155" lon="5.87074">
        <ele>720.43</ele>
        <time>2020-10-19T12:15:33.000Z</time>
      </trkpt>
      <trkpt lat="45.43118" lon="5.87058">
        <ele>718.5</ele>
        <time>2020-10-19T12:15:38.000Z</time>
      </trkpt>
      <trkpt lat="45.43079" lon="5.87032">
        <ele>720.38</ele>
        <time>2020-10-19T12:15:43.000Z</time>
      </trkpt>
      <trkpt lat="45.43028" lon="5.87007">
        <ele>719.71</ele>
        <time>2020-10-19T12:15:48.000Z</time>
      </trkpt>
      <trkpt lat="45.4298" lon="5.8696">
        <ele>719.97</ele>
        <time>2020-10-19T12:15:53.000Z</time>
      </trkpt>
      <trkpt lat="45.42927" lon="5.86953">
        <ele>716.54</ele>
        <time>2020-10-19T12:15:58.000Z</time>
      </trkpt>
      <trkpt lat="45.42863" lon="5.86945">
        <ele>714.27</ele>
        <time>2020-10-19T12:16:03.000Z</time>
      </trkpt>
      <trkpt lat="45.42791" lon="5.8691">
        <ele>702.44</ele>
        <time>2020-10-19T12:16:08.000Z</time>
      </trkpt>
      <trkpt lat="45.42806" lon="5.86801">
        <ele>698.83</ele>
        <time>2020-10-19T12:16:13.000Z</time>
      </trkpt>
      <trkpt lat="45.42789" lon="5.86771">
        <ele>697.45</ele>
        <time>2020-10-19T12:16:18.000Z</time>
      </trkpt>
      <trkpt lat="45.42778" lon="5.86732">
        <ele>691.03</ele>
        <time>2020-10-19T12:16:23.000Z</time>
      </trkpt>
      <trkpt lat="45.42742" lon="5.86715">
        <ele>687.85</ele>
        <time>2020-10-19T12:16:28.000Z</time>
      </trkpt>
      <trkpt lat="45.42704" lon="5.8669">
        <ele>687.3</ele>
        <time>2020-10-19T12:16:33.000Z</time>
      </trkpt>
      <trkpt lat="45.42648" lon="5.86677">
        <ele>684.49</ele>
        <time>2020-10-19T12:16:38.000Z</time>
      </trkpt>
      <trkpt lat="45.42594" lon="5.86665">
        <ele>679.13</ele>
        <time>2020-10-19T12:16:43.000Z</time>
      </trkpt>
      <trkpt lat="45.42541" lon="5.86667">
        <ele>675.96</ele>
        <time>2020-10-19T12:16:48.000Z</time>
      </trkpt>
      <trkpt lat="45.42504" lon="5.86626">
        <ele>674.43</ele>
        <time>2020-10-19T12:16:53.000Z</time>
      </trkpt>
      <trkpt lat="45.42511" lon="5.8655">
        <ele>670.67</ele>
        <time>2020-10-19T12:16:58.000Z</time>
      </trkpt>
      <trkpt lat="45.42497" lon="5.86476">
        <ele>669.71</ele>
        <time>2020-10-19T12:17:03.000Z</time>
      </trkpt>
      <trkpt lat="45.42476" lon="5.86411">
        <ele>665.98</ele>
        <time>2020-10-19T12:17:08.000Z</time>
      </trkpt>
      <trkpt lat="45.42435" lon="5.86385">
        <ele>662.34</ele>
        <time>2020-10-19T12:17:13.000Z</time>
      </trkpt>
      <trkpt lat="45.42404" lon="5.86344">
        <ele>659.77</ele>
        <time>2020-10-19T12:17:18.000Z</time>
      </trkpt>
      <trkpt lat="45.42387" lon="5.86287">
        <ele>657.77</ele>
        <time>2020-10-19T12:17:23.000Z</time>
      </trkpt>
      <trkpt lat="45.42365" lon="5.86255">
        <ele>656.34</ele>
        <time>2020-10-19T12:17:28.000Z</time>
      </trkpt>
      <trkpt lat="45.42342" lon="5.86226">
        <ele>652.88</ele>
        <time>2020-10-19T12:17:33.000Z</time>
      </trkpt>
      <trkpt lat="45.42314" lon="5.86196">
        <ele>651.46</ele>
        <time>2020-10-19T12:17:38.000Z</time>
      </trkpt>
      <trkpt lat="45.42277" lon="5.86166">
        <ele>651.09</ele>
        <time>2020-10-19T12:17:43.000Z</time>
      </trkpt>
      <trkpt lat="45.4224" lon="5.86155">
        <ele>652.05</ele>
        <time>2020-10-19T12:17:48.000Z</time>
      </trkpt>
      <trkpt lat="45.42199" lon="5.86142">
        <ele>654.4</ele>
        <time>2020-10-19T12:17:53.000Z</time>
      </trkpt>
      <trkpt lat="45.4216" lon="5.86139">
        <ele>648.37</ele>
        <time>2020-10-19T12:17:58.000Z</time>
      </trkpt>
      <trkpt lat="45.42118" lon="5.86115">
        <ele>652.57</ele>
        <time>2020-10-19T12:18:03.000Z</time>
      </trkpt>
      <trkpt lat="45.42104" lon="5.86075">
        <ele>650.93</ele>
        <time>2020-10-19T12:18:08.000Z</time>
      </trkpt>
      <trkpt lat="45.42108" lon="5.86015">
        <ele>650.53</ele>
        <time>2020-10-19T12:18:13.000Z</time>
      </trkpt>
      <trkpt lat="45.42107" lon="5.85963">
        <ele>649.9</ele>
        <time>2020-10-19T12:18:18.000Z</time>
      </trkpt>
      <trkpt lat="45.42124" lon="5.85899">
        <ele>647.83</ele>
        <time>2020-10-19T12:18:23.000Z</time>
      </trkpt>
      <trkpt lat="45.42105" lon="5.85855">
        <ele>648.21</ele>
        <time>2020-10-19T12:18:28.000Z</time>
      </trkpt>
      <trkpt lat="45.42071" lon="5.85835">
        <ele>647.27</ele>
        <time>2020-10-19T12:18:33.000Z</time>
      </trkpt>
      <trkpt lat="45.42034" lon="5.85813">
        <ele>650.51</ele>
        <time>2020-10-19T12:18:38.000Z</time>
      </trkpt>
      <trkpt lat="45.42002" lon="5.85794">
        <ele>650.12</ele>
        <time>2020-10-19T12:18:43.000Z</time>
      </trkpt>
      <trkpt lat="45.41964" lon="5.85781">
        <ele>649.88</ele>
        <time>2020-10-19T12:18:48.000Z</time>
      </trkpt>
      <trkpt lat="45.41936" lon="5.85741">
        <ele>650.53</ele>
        <time>2020-10-19T12:18:53.000Z</time>
      </trkpt>
      <trkpt lat="45.4191" lon="5.85707">
        <ele>651.58</ele>
        <time>2020-10-19T12:18:58.000Z</time>
      </trkpt>
      <trkpt lat="45.41887" lon="5.85672">
        <ele>653.52</ele>
        <time>2020-10-19T12:19:03.000Z</time>
      </trkpt>
      <trkpt lat="45.4187" lon="5.85639">
        <ele>652.85</ele>
        <time>2020-10-19T12:19:08.000Z</time>
      </trkpt>
      <trkpt lat="45.41846" lon="5.85613">
        <ele>653.24</ele>
        <time>2020-10-19T12:19:13.000Z</time>
      </trkpt>
      <trkpt lat="45.41827" lon="5.85583">
        <ele>649.99</ele>
        <time>2020-10-19T12:19:18.000Z</time>
      </trkpt>
      <trkpt lat="45.41812" lon="5.85552">
        <ele>646.94</ele>
        <time>2020-10-19T12:19:23.000Z</time>
      </trkpt>
      <trkpt lat="45.41793" lon="5.85531">
        <ele>647.41</ele>
        <time>2020-10-19T12:19:28.000Z</time>
      </trkpt>
      <trkpt lat="45.41781" lon="5.85509">
        <ele>648.21</ele>
        <time>2020-10-19T12:19:33.000Z</time>
      </trkpt>
      <trkpt lat="45.41766" lon="5.85498">
        <ele>646.55</ele>
        <time>2020-10-19T12:19:38.000Z</time>
      </trkpt>
      <trkpt lat="45.41748" lon="5.85492">
        <ele>649.51</ele>
        <time>2020-10-19T12:19:43.000Z</time>
      </trkpt>
      <trkpt lat="45.4173" lon="5.85488">
        <ele>652.6</ele>
        <time>2020-10-19T12:19:48.000Z</time>
      </trkpt>
      <trkpt lat="45.41705" lon="5.85474">
        <ele>646.12</ele>
        <time>2020-10-19T12:19:53.000Z</time>
      </trkpt>
      <trkpt lat="45.41682" lon="5.85473">
        <ele>647.31</ele>
        <time>2020-10-19T12:19:58.000Z</time>
      </trkpt>
      <trkpt lat="45.41666" lon="5.85463">
        <ele>652.71</ele>
        <time>2020-10-19T12:20:03.000Z</time>
      </trkpt>
      <trkpt lat="45.41645" lon="5.85437">
        <ele>651.98</ele>
        <time>2020-10-19T12:20:08.000Z</time>
      </trkpt>
      <trkpt lat="45.41628" lon="5.85437">
        <ele>654.52</ele>
        <time>2020-10-19T12:20:13.000Z</time>
      </trkpt>
      <trkpt lat="45.41614" lon="5.85445">
        <ele>655.4</ele>
        <time>2020-10-19T12:20:18.000Z</time>
      </trkpt>
      <trkpt lat="45.4159" lon="5.85456">
        <ele>654.23</ele>
        <time>2020-10-19T12:20:23.000Z</time>
      </trkpt>
      <trkpt lat="45.41569" lon="5.85462">
        <ele>651.03</ele>
        <time>2020-10-19T12:20:28.000Z</time>
      </trkpt>
      <trkpt lat="45.41545" lon="5.85473">
        <ele>649.79</ele>
        <time>2020-10-19T12:20:33.000Z</time>
      </trkpt>
      <trkpt lat="45.41516" lon="5.85479">
        <ele>652.03</ele>
        <time>2020-10-19T12:20:38.000Z</time>
      </trkpt>
      <trkpt lat="45.41499" lon="5.85475">
        <ele>655.52</ele>
        <time>2020-10-19T12:20:43.000Z</time>
      </trkpt>
      <trkpt lat="45.4148" lon="5.85472">
        <ele>655.54</ele>
        <time>2020-10-19T12:20:48.000Z</time>
      </trkpt>
      <trkpt lat="45.4146" lon="5.85476">
        <ele>658.18</ele>
        <time>2020-10-19T12:20:53.000Z</time>
      </trkpt>
      <trkpt lat="45.4144" lon="5.85476">
        <ele>659.56</ele>
        <time>2020-10-19T12:20:58.000Z</time>
      </trkpt>
      <trkpt lat="45.41423" lon="5.85479">
        <ele>657.29</ele>
        <time>2020-10-19T12:21:03.000Z</time>
      </trkpt>
      <trkpt lat="45.41403" lon="5.8547">
        <ele>654.69</ele>
        <time>2020-10-19T12:21:08.000Z</time>
      </trkpt>
      <trkpt lat="45.41386" lon="5.85464">
        <ele>656.85</ele>
        <time>2020-10-19T12:21:13.000Z</time>
      </trkpt>
      <trkpt lat="45.41375" lon="5.8546">
        <ele>657.77</ele>
        <time>2020-10-19T12:21:18.000Z</time>
      </trkpt>
      <trkpt lat="45.41365" lon="5.85459">
        <ele>666.73</ele>
        <time>2020-10-19T12:21:48.000Z</time>
      </trkpt>
      <trkpt lat="45.41362" lon="5.85446">
        <ele>663.56</ele>
        <time>2020-10-19T12:22:15.000Z</time>
      </trkpt>
      <trkpt lat="45.41349" lon="5.85435">
        <ele>657.63</ele>
        <time>2020-10-19T12:22:20.000Z</time>
      </trkpt>
      <trkpt lat="45.41338" lon="5.85412">
        <ele>652.89</ele>
        <time>2020-10-19T12:22:25.000Z</time>
      </trkpt>
      <trkpt lat="45.41326" lon="5.854">
        <ele>650.87</ele>
        <time>2020-10-19T12:22:30.000Z</time>
      </trkpt>
      <trkpt lat="45.41309" lon="5.85388">
        <ele>653.73</ele>
        <time>2020-10-19T12:22:35.000Z</time>
      </trkpt>
      <trkpt lat="45.41292" lon="5.85376">
        <ele>651.98</ele>
        <time>2020-10-19T12:22:40.000Z</time>
      </trkpt>
      <trkpt lat="45.41273" lon="5.85369">
        <ele>650.66</ele>
        <time>2020-10-19T12:22:45.000Z</time>
      </trkpt>
      <trkpt lat="45.41255" lon="5.85354">
        <ele>648.8</ele>
        <time>2020-10-19T12:22:50.000Z</time>
      </trkpt>
      <trkpt lat="45.41238" lon="5.85349">
        <ele>649.86</ele>
        <time>2020-10-19T12:22:55.000Z</time>
      </trkpt>
      <trkpt lat="45.41217" lon="5.85344">
        <ele>655.56</ele>
        <time>2020-10-19T12:23:00.000Z</time>
      </trkpt>
      <trkpt lat="45.41195" lon="5.85353">
        <ele>659.69</ele>
        <time>2020-10-19T12:23:05.000Z</time>
      </trkpt>
      <trkpt lat="45.41188" lon="5.85371">
        <ele>660.96</ele>
        <time>2020-10-19T12:23:10.000Z</time>
      </trkpt>
      <trkpt lat="45.41186" lon="5.85395">
        <ele>663.72</ele>
        <time>2020-10-19T12:23:15.000Z</time>
      </trkpt>
      <trkpt lat="45.41194" lon="5.85411">
        <ele>662.42</ele>
        <time>2020-10-19T12:23:20.000Z</time>
      </trkpt>
      <trkpt lat="45.41216" lon="5.85418">
        <ele>664.17</ele>
        <time>2020-10-19T12:23:25.000Z</time>
      </trkpt>
      <trkpt lat="45.41235" lon="5.85427">
        <ele>663.87</ele>
        <time>2020-10-19T12:23:30.000Z</time>
      </trkpt>
      <trkpt lat="45.41245" lon="5.85449">
        <ele>663.45</ele>
        <time>2020-10-19T12:23:35.000Z</time>
      </trkpt>
      <trkpt lat="45.41243" lon="5.85475">
        <ele>662</ele>
        <time>2020-10-19T12:23:40.000Z</time>
      </trkpt>
      <trkpt lat="45.41256" lon="5.85494">
        <ele>662.83</ele>
        <time>2020-10-19T12:23:45.000Z</time>
      </trkpt>
      <trkpt lat="45.41266" lon="5.85514">
        <ele>666.57</ele>
        <time>2020-10-19T12:23:50.000Z</time>
      </trkpt>
      <trkpt lat="45.41262" lon="5.85538">
        <ele>666.57</ele>
        <time>2020-10-19T12:23:55.000Z</time>
      </trkpt>
      <trkpt lat="45.41247" lon="5.85551">
        <ele>666.32</ele>
        <time>2020-10-19T12:24:00.000Z</time>
      </trkpt>
      <trkpt lat="45.41236" lon="5.85553">
        <ele>666.47</ele>
        <time>2020-10-19T12:24:05.000Z</time>
      </trkpt>
      <trkpt lat="45.41226" lon="5.85553">
        <ele>661.12</ele>
        <time>2020-10-19T12:26:26.000Z</time>
      </trkpt>
      <trkpt lat="45.4121" lon="5.85565">
        <ele>659.54</ele>
        <time>2020-10-19T12:26:31.000Z</time>
      </trkpt>
      <trkpt lat="45.41195" lon="5.85579">
        <ele>663.22</ele>
        <time>2020-10-19T12:26:36.000Z</time>
      </trkpt>
      <trkpt lat="45.41176" lon="5.85587">
        <ele>665.71</ele>
        <time>2020-10-19T12:26:41.000Z</time>
      </trkpt>
      <trkpt lat="45.41161" lon="5.85594">
        <ele>666.04</ele>
        <time>2020-10-19T12:26:46.000Z</time>
      </trkpt>
      <trkpt lat="45.41142" lon="5.85605">
        <ele>665.01</ele>
        <time>2020-10-19T12:26:51.000Z</time>
      </trkpt>
      <trkpt lat="45.41125" lon="5.85622">
        <ele>665.96</ele>
        <time>2020-10-19T12:26:56.000Z</time>
      </trkpt>
      <trkpt lat="45.41109" lon="5.85644">
        <ele>669.17</ele>
        <time>2020-10-19T12:27:01.000Z</time>
      </trkpt>
      <trkpt lat="45.41094" lon="5.8566">
        <ele>669.84</ele>
        <time>2020-10-19T12:27:06.000Z</time>
      </trkpt>
      <trkpt lat="45.41081" lon="5.85679">
        <ele>669.66</ele>
        <time>2020-10-19T12:27:11.000Z</time>
      </trkpt>
      <trkpt lat="45.41068" lon="5.8569">
        <ele>666.36</ele>
        <time>2020-10-19T12:27:16.000Z</time>
      </trkpt>
      <trkpt lat="45.4105" lon="5.85696">
        <ele>675.52</ele>
        <time>2020-10-19T12:27:21.000Z</time>
      </trkpt>
      <trkpt lat="45.41031" lon="5.857">
        <ele>682.37</ele>
        <time>2020-10-19T12:27:26.000Z</time>
      </trkpt>
      <trkpt lat="45.41018" lon="5.85689">
        <ele>690.48</ele>
        <time>2020-10-19T12:27:31.000Z</time>
      </trkpt>
      <trkpt lat="45.41028" lon="5.85671">
        <ele>693.12</ele>
        <time>2020-10-19T12:27:36.000Z</time>
      </trkpt>
      <trkpt lat="45.41045" lon="5.85653">
        <ele>697.27</ele>
        <time>2020-10-19T12:27:41.000Z</time>
      </trkpt>
      <trkpt lat="45.41059" lon="5.85632">
        <ele>701.24</ele>
        <time>2020-10-19T12:27:46.000Z</time>
      </trkpt>
      <trkpt lat="45.41068" lon="5.85615">
        <ele>701.47</ele>
        <time>2020-10-19T12:27:51.000Z</time>
      </trkpt>
      <trkpt lat="45.41068" lon="5.85593">
        <ele>701.72</ele>
        <time>2020-10-19T12:27:56.000Z</time>
      </trkpt>
      <trkpt lat="45.41046" lon="5.85593">
        <ele>699.87</ele>
        <time>2020-10-19T12:28:01.000Z</time>
      </trkpt>
      <trkpt lat="45.41027" lon="5.85602">
        <ele>702.87</ele>
        <time>2020-10-19T12:28:06.000Z</time>
      </trkpt>
      <trkpt lat="45.41011" lon="5.85587">
        <ele>706.55</ele>
        <time>2020-10-19T12:28:11.000Z</time>
      </trkpt>
      <trkpt lat="45.41003" lon="5.85568">
        <ele>708.13</ele>
        <time>2020-10-19T12:28:16.000Z</time>
      </trkpt>
      <trkpt lat="45.40995" lon="5.85546">
        <ele>711.05</ele>
        <time>2020-10-19T12:28:21.000Z</time>
      </trkpt>
      <trkpt lat="45.40984" lon="5.85529">
        <ele>711.41</ele>
        <time>2020-10-19T12:28:26.000Z</time>
      </trkpt>
      <trkpt lat="45.40967" lon="5.85512">
        <ele>715.52</ele>
        <time>2020-10-19T12:28:31.000Z</time>
      </trkpt>
      <trkpt lat="45.40949" lon="5.85498">
        <ele>721.51</ele>
        <time>2020-10-19T12:28:36.000Z</time>
      </trkpt>
      <trkpt lat="45.40933" lon="5.85487">
        <ele>722.76</ele>
        <time>2020-10-19T12:28:41.000Z</time>
      </trkpt>
      <trkpt lat="45.40919" lon="5.85474">
        <ele>723.61</ele>
        <time>2020-10-19T12:28:46.000Z</time>
      </trkpt>
      <trkpt lat="45.40904" lon="5.85459">
        <ele>723.17</ele>
        <time>2020-10-19T12:28:51.000Z</time>
      </trkpt>
      <trkpt lat="45.40887" lon="5.8545">
        <ele>722.92</ele>
        <time>2020-10-19T12:28:56.000Z</time>
      </trkpt>
      <trkpt lat="45.4087" lon="5.85457">
        <ele>723.22</ele>
        <time>2020-10-19T12:29:01.000Z</time>
      </trkpt>
      <trkpt lat="45.40873" lon="5.85473">
        <ele>729.66</ele>
        <time>2020-10-19T12:32:14.000Z</time>
      </trkpt>
      <trkpt lat="45.40888" lon="5.85502">
        <ele>732.19</ele>
        <time>2020-10-19T12:32:19.000Z</time>
      </trkpt>
      <trkpt lat="45.40893" lon="5.85531">
        <ele>729.23</ele>
        <time>2020-10-19T12:32:24.000Z</time>
      </trkpt>
      <trkpt lat="45.40904" lon="5.85564">
        <ele>725.92</ele>
        <time>2020-10-19T12:32:29.000Z</time>
      </trkpt>
      <trkpt lat="45.40908" lon="5.85592">
        <ele>726.3</ele>
        <time>2020-10-19T12:32:34.000Z</time>
      </trkpt>
      <trkpt lat="45.40903" lon="5.85616">
        <ele>728.71</ele>
        <time>2020-10-19T12:32:39.000Z</time>
      </trkpt>
      <trkpt lat="45.40888" lon="5.85622">
        <ele>731.45</ele>
        <time>2020-10-19T12:32:44.000Z</time>
      </trkpt>
      <trkpt lat="45.40867" lon="5.85624">
        <ele>729.78</ele>
        <time>2020-10-19T12:32:49.000Z</time>
      </trkpt>
      <trkpt lat="45.4085" lon="5.85632">
        <ele>729.97</ele>
        <time>2020-10-19T12:32:54.000Z</time>
      </trkpt>
      <trkpt lat="45.40834" lon="5.85645">
        <ele>731.1</ele>
        <time>2020-10-19T12:32:59.000Z</time>
      </trkpt>
      <trkpt lat="45.40819" lon="5.85659">
        <ele>733.87</ele>
        <time>2020-10-19T12:33:04.000Z</time>
      </trkpt>
      <trkpt lat="45.40804" lon="5.85673">
        <ele>737.44</ele>
        <time>2020-10-19T12:33:09.000Z</time>
      </trkpt>
      <trkpt lat="45.40792" lon="5.85683">
        <ele>736.47</ele>
        <time>2020-10-19T12:33:14.000Z</time>
      </trkpt>
      <trkpt lat="45.40779" lon="5.85695">
        <ele>739.21</ele>
        <time>2020-10-19T12:33:19.000Z</time>
      </trkpt>
      <trkpt lat="45.40766" lon="5.85709">
        <ele>742.73</ele>
        <time>2020-10-19T12:33:24.000Z</time>
      </trkpt>
      <trkpt lat="45.40747" lon="5.8572">
        <ele>746.13</ele>
        <time>2020-10-19T12:33:29.000Z</time>
      </trkpt>
      <trkpt lat="45.40731" lon="5.85731">
        <ele>747.31</ele>
        <time>2020-10-19T12:33:34.000Z</time>
      </trkpt>
      <trkpt lat="45.40713" lon="5.8574">
        <ele>749.68</ele>
        <time>2020-10-19T12:33:39.000Z</time>
      </trkpt>
      <trkpt lat="45.40695" lon="5.85743">
        <ele>750.34</ele>
        <time>2020-10-19T12:33:44.000Z</time>
      </trkpt>
      <trkpt lat="45.40679" lon="5.85728">
        <ele>749.09</ele>
        <time>2020-10-19T12:33:49.000Z</time>
      </trkpt>
      <trkpt lat="45.40665" lon="5.85709">
        <ele>751.59</ele>
        <time>2020-10-19T12:33:54.000Z</time>
      </trkpt>
      <trkpt lat="45.40653" lon="5.85688">
        <ele>752.72</ele>
        <time>2020-10-19T12:33:59.000Z</time>
      </trkpt>
      <trkpt lat="45.40638" lon="5.85667">
        <ele>754.83</ele>
        <time>2020-10-19T12:34:04.000Z</time>
      </trkpt>
      <trkpt lat="45.40624" lon="5.85649">
        <ele>755.01</ele>
        <time>2020-10-19T12:34:09.000Z</time>
      </trkpt>
      <trkpt lat="45.40606" lon="5.85639">
        <ele>754.87</ele>
        <time>2020-10-19T12:34:14.000Z</time>
      </trkpt>
      <trkpt lat="45.40594" lon="5.85636">
        <ele>757.39</ele>
        <time>2020-10-19T12:34:19.000Z</time>
      </trkpt>
      <trkpt lat="45.40572" lon="5.85636">
        <ele>758.62</ele>
        <time>2020-10-19T12:34:24.000Z</time>
      </trkpt>
      <trkpt lat="45.40547" lon="5.85639">
        <ele>762.58</ele>
        <time>2020-10-19T12:34:29.000Z</time>
      </trkpt>
      <trkpt lat="45.40528" lon="5.85642">
        <ele>765.92</ele>
        <time>2020-10-19T12:34:34.000Z</time>
      </trkpt>
      <trkpt lat="45.4051" lon="5.8564">
        <ele>768.21</ele>
        <time>2020-10-19T12:34:39.000Z</time>
      </trkpt>
      <trkpt lat="45.40491" lon="5.8564">
        <ele>768.79</ele>
        <time>2020-10-19T12:34:44.000Z</time>
      </trkpt>
      <trkpt lat="45.40475" lon="5.85641">
        <ele>768.82</ele>
        <time>2020-10-19T12:34:49.000Z</time>
      </trkpt>
      <trkpt lat="45.40458" lon="5.85643">
        <ele>770.63</ele>
        <time>2020-10-19T12:34:54.000Z</time>
      </trkpt>
      <trkpt lat="45.40438" lon="5.85646">
        <ele>769.95</ele>
        <time>2020-10-19T12:34:59.000Z</time>
      </trkpt>
      <trkpt lat="45.4042" lon="5.85652">
        <ele>772.72</ele>
        <time>2020-10-19T12:35:04.000Z</time>
      </trkpt>
      <trkpt lat="45.40403" lon="5.85665">
        <ele>777.09</ele>
        <time>2020-10-19T12:35:09.000Z</time>
      </trkpt>
      <trkpt lat="45.40385" lon="5.85676">
        <ele>777.87</ele>
        <time>2020-10-19T12:35:14.000Z</time>
      </trkpt>
      <trkpt lat="45.40366" lon="5.85681">
        <ele>775.74</ele>
        <time>2020-10-19T12:35:19.000Z</time>
      </trkpt>
      <trkpt lat="45.40348" lon="5.85675">
        <ele>777.52</ele>
        <time>2020-10-19T12:35:24.000Z</time>
      </trkpt>
      <trkpt lat="45.40331" lon="5.85675">
        <ele>777.04</ele>
        <time>2020-10-19T12:35:29.000Z</time>
      </trkpt>
      <trkpt lat="45.40314" lon="5.8568">
        <ele>776.24</ele>
        <time>2020-10-19T12:35:34.000Z</time>
      </trkpt>
      <trkpt lat="45.40305" lon="5.85701">
        <ele>772.67</ele>
        <time>2020-10-19T12:35:39.000Z</time>
      </trkpt>
      <trkpt lat="45.40299" lon="5.85723">
        <ele>775.55</ele>
        <time>2020-10-19T12:35:44.000Z</time>
      </trkpt>
      <trkpt lat="45.40293" lon="5.85746">
        <ele>775.81</ele>
        <time>2020-10-19T12:35:49.000Z</time>
      </trkpt>
      <trkpt lat="45.40288" lon="5.8577">
        <ele>774.21</ele>
        <time>2020-10-19T12:35:54.000Z</time>
      </trkpt>
      <trkpt lat="45.40281" lon="5.85792">
        <ele>775.59</ele>
        <time>2020-10-19T12:35:59.000Z</time>
      </trkpt>
      <trkpt lat="45.4027" lon="5.85807">
        <ele>778.03</ele>
        <time>2020-10-19T12:36:04.000Z</time>
      </trkpt>
      <trkpt lat="45.40257" lon="5.85809">
        <ele>781.01</ele>
        <time>2020-10-19T12:36:09.000Z</time>
      </trkpt>
      <trkpt lat="45.40247" lon="5.85804">
        <ele>781.69</ele>
        <time>2020-10-19T12:36:14.000Z</time>
      </trkpt>
      <trkpt lat="45.40234" lon="5.85797">
        <ele>785.33</ele>
        <time>2020-10-19T12:36:19.000Z</time>
      </trkpt>
      <trkpt lat="45.40216" lon="5.85784">
        <ele>786.3</ele>
        <time>2020-10-19T12:36:24.000Z</time>
      </trkpt>
      <trkpt lat="45.402" lon="5.85771">
        <ele>791.87</ele>
        <time>2020-10-19T12:36:29.000Z</time>
      </trkpt>
      <trkpt lat="45.40183" lon="5.85758">
        <ele>792.29</ele>
        <time>2020-10-19T12:36:34.000Z</time>
      </trkpt>
      <trkpt lat="45.40165" lon="5.85748">
        <ele>795.75</ele>
        <time>2020-10-19T12:36:39.000Z</time>
      </trkpt>
      <trkpt lat="45.40144" lon="5.85738">
        <ele>796.6</ele>
        <time>2020-10-19T12:36:44.000Z</time>
      </trkpt>
      <trkpt lat="45.40124" lon="5.85728">
        <ele>799.71</ele>
        <time>2020-10-19T12:36:49.000Z</time>
      </trkpt>
      <trkpt lat="45.40106" lon="5.8572">
        <ele>802.49</ele>
        <time>2020-10-19T12:36:54.000Z</time>
      </trkpt>
      <trkpt lat="45.40089" lon="5.85713">
        <ele>802.16</ele>
        <time>2020-10-19T12:36:59.000Z</time>
      </trkpt>
      <trkpt lat="45.40073" lon="5.85707">
        <ele>803.57</ele>
        <time>2020-10-19T12:37:04.000Z</time>
      </trkpt>
      <trkpt lat="45.40053" lon="5.85703">
        <ele>807.82</ele>
        <time>2020-10-19T12:37:09.000Z</time>
      </trkpt>
      <trkpt lat="45.40031" lon="5.85703">
        <ele>806</ele>
        <time>2020-10-19T12:37:14.000Z</time>
      </trkpt>
      <trkpt lat="45.40017" lon="5.85707">
        <ele>806.72</ele>
        <time>2020-10-19T12:37:19.000Z</time>
      </trkpt>
      <trkpt lat="45.40003" lon="5.85709">
        <ele>806.78</ele>
        <time>2020-10-19T12:37:24.000Z</time>
      </trkpt>
      <trkpt lat="45.3999" lon="5.85708">
        <ele>807.47</ele>
        <time>2020-10-19T12:37:29.000Z</time>
      </trkpt>
      <trkpt lat="45.39971" lon="5.85703">
        <ele>809.33</ele>
        <time>2020-10-19T12:37:34.000Z</time>
      </trkpt>
      <trkpt lat="45.39954" lon="5.85696">
        <ele>808.98</ele>
        <time>2020-10-19T12:37:39.000Z</time>
      </trkpt>
      <trkpt lat="45.39933" lon="5.85688">
        <ele>811.16</ele>
        <time>2020-10-19T12:37:44.000Z</time>
      </trkpt>
      <trkpt lat="45.3991" lon="5.85684">
        <ele>811.76</ele>
        <time>2020-10-19T12:37:49.000Z</time>
      </trkpt>
      <trkpt lat="45.39896" lon="5.85669">
        <ele>815.15</ele>
        <time>2020-10-19T12:37:54.000Z</time>
      </trkpt>
      <trkpt lat="45.39875" lon="5.8566">
        <ele>814.18</ele>
        <time>2020-10-19T12:37:59.000Z</time>
      </trkpt>
      <trkpt lat="45.39851" lon="5.85657">
        <ele>814.94</ele>
        <time>2020-10-19T12:38:04.000Z</time>
      </trkpt>
      <trkpt lat="45.39832" lon="5.85654">
        <ele>816.18</ele>
        <time>2020-10-19T12:38:09.000Z</time>
      </trkpt>
      <trkpt lat="45.39811" lon="5.85649">
        <ele>818.7</ele>
        <time>2020-10-19T12:38:14.000Z</time>
      </trkpt>
      <trkpt lat="45.39797" lon="5.85646">
        <ele>822.43</ele>
        <time>2020-10-19T12:38:19.000Z</time>
      </trkpt>
      <trkpt lat="45.39784" lon="5.85643">
        <ele>820.73</ele>
        <time>2020-10-19T12:38:24.000Z</time>
      </trkpt>
      <trkpt lat="45.39767" lon="5.85645">
        <ele>822.91</ele>
        <time>2020-10-19T12:38:29.000Z</time>
      </trkpt>
      <trkpt lat="45.39751" lon="5.85646">
        <ele>824.71</ele>
        <time>2020-10-19T12:38:34.000Z</time>
      </trkpt>
      <trkpt lat="45.39735" lon="5.8564">
        <ele>829.25</ele>
        <time>2020-10-19T12:38:39.000Z</time>
      </trkpt>
      <trkpt lat="45.39715" lon="5.85631">
        <ele>832.02</ele>
        <time>2020-10-19T12:38:44.000Z</time>
      </trkpt>
      <trkpt lat="45.397" lon="5.85625">
        <ele>832.9</ele>
        <time>2020-10-19T12:38:49.000Z</time>
      </trkpt>
      <trkpt lat="45.3968" lon="5.85618">
        <ele>826.29</ele>
        <time>2020-10-19T12:38:54.000Z</time>
      </trkpt>
      <trkpt lat="45.39662" lon="5.85603">
        <ele>829.82</ele>
        <time>2020-10-19T12:38:59.000Z</time>
      </trkpt>
      <trkpt lat="45.39644" lon="5.8559">
        <ele>830.06</ele>
        <time>2020-10-19T12:39:04.000Z</time>
      </trkpt>
      <trkpt lat="45.39628" lon="5.85579">
        <ele>833.71</ele>
        <time>2020-10-19T12:39:09.000Z</time>
      </trkpt>
      <trkpt lat="45.3961" lon="5.8557">
        <ele>839.91</ele>
        <time>2020-10-19T12:39:14.000Z</time>
      </trkpt>
      <trkpt lat="45.39592" lon="5.85561">
        <ele>842.83</ele>
        <time>2020-10-19T12:39:19.000Z</time>
      </trkpt>
      <trkpt lat="45.39574" lon="5.85555">
        <ele>845.68</ele>
        <time>2020-10-19T12:39:24.000Z</time>
      </trkpt>
      <trkpt lat="45.39554" lon="5.85548">
        <ele>851.07</ele>
        <time>2020-10-19T12:39:29.000Z</time>
      </trkpt>
      <trkpt lat="45.39535" lon="5.85539">
        <ele>851.8</ele>
        <time>2020-10-19T12:39:34.000Z</time>
      </trkpt>
      <trkpt lat="45.39515" lon="5.85531">
        <ele>851.83</ele>
        <time>2020-10-19T12:39:39.000Z</time>
      </trkpt>
      <trkpt lat="45.39495" lon="5.85527">
        <ele>851.73</ele>
        <time>2020-10-19T12:39:44.000Z</time>
      </trkpt>
      <trkpt lat="45.39479" lon="5.85528">
        <ele>850.26</ele>
        <time>2020-10-19T12:39:49.000Z</time>
      </trkpt>
      <trkpt lat="45.39461" lon="5.85527">
        <ele>850.43</ele>
        <time>2020-10-19T12:39:54.000Z</time>
      </trkpt>
      <trkpt lat="45.39434" lon="5.85523">
        <ele>853.17</ele>
        <time>2020-10-19T12:39:59.000Z</time>
      </trkpt>
      <trkpt lat="45.39425" lon="5.85521">
        <ele>852.4</ele>
        <time>2020-10-19T12:40:04.000Z</time>
      </trkpt>
      <trkpt lat="45.39413" lon="5.85509">
        <ele>854.68</ele>
        <time>2020-10-19T12:40:09.000Z</time>
      </trkpt>
      <trkpt lat="45.39409" lon="5.85484">
        <ele>854.26</ele>
        <time>2020-10-19T12:40:14.000Z</time>
      </trkpt>
      <trkpt lat="45.39399" lon="5.85465">
        <ele>855.38</ele>
        <time>2020-10-19T12:40:19.000Z</time>
      </trkpt>
      <trkpt lat="45.39378" lon="5.85458">
        <ele>856.54</ele>
        <time>2020-10-19T12:40:24.000Z</time>
      </trkpt>
      <trkpt lat="45.39356" lon="5.85451">
        <ele>856.56</ele>
        <time>2020-10-19T12:40:29.000Z</time>
      </trkpt>
      <trkpt lat="45.39334" lon="5.85443">
        <ele>858.01</ele>
        <time>2020-10-19T12:40:34.000Z</time>
      </trkpt>
      <trkpt lat="45.39315" lon="5.85435">
        <ele>860.23</ele>
        <time>2020-10-19T12:40:39.000Z</time>
      </trkpt>
      <trkpt lat="45.39295" lon="5.8543">
        <ele>859.05</ele>
        <time>2020-10-19T12:40:44.000Z</time>
      </trkpt>
      <trkpt lat="45.39277" lon="5.8542">
        <ele>862.15</ele>
        <time>2020-10-19T12:40:49.000Z</time>
      </trkpt>
      <trkpt lat="45.39258" lon="5.85409">
        <ele>864.81</ele>
        <time>2020-10-19T12:40:54.000Z</time>
      </trkpt>
      <trkpt lat="45.39241" lon="5.85404">
        <ele>865.14</ele>
        <time>2020-10-19T12:40:59.000Z</time>
      </trkpt>
      <trkpt lat="45.39217" lon="5.85396">
        <ele>863.92</ele>
        <time>2020-10-19T12:41:04.000Z</time>
      </trkpt>
      <trkpt lat="45.39194" lon="5.85388">
        <ele>863.42</ele>
        <time>2020-10-19T12:41:09.000Z</time>
      </trkpt>
      <trkpt lat="45.39175" lon="5.85384">
        <ele>864.46</ele>
        <time>2020-10-19T12:41:14.000Z</time>
      </trkpt>
      <trkpt lat="45.39153" lon="5.8538">
        <ele>863.81</ele>
        <time>2020-10-19T12:41:19.000Z</time>
      </trkpt>
      <trkpt lat="45.3913" lon="5.85379">
        <ele>865.16</ele>
        <time>2020-10-19T12:41:24.000Z</time>
      </trkpt>
      <trkpt lat="45.3911" lon="5.85377">
        <ele>865.4</ele>
        <time>2020-10-19T12:41:29.000Z</time>
      </trkpt>
      <trkpt lat="45.39087" lon="5.85373">
        <ele>864.95</ele>
        <time>2020-10-19T12:41:34.000Z</time>
      </trkpt>
      <trkpt lat="45.39068" lon="5.85363">
        <ele>866.53</ele>
        <time>2020-10-19T12:41:39.000Z</time>
      </trkpt>
      <trkpt lat="45.3905" lon="5.85358">
        <ele>866.51</ele>
        <time>2020-10-19T12:41:44.000Z</time>
      </trkpt>
      <trkpt lat="45.39033" lon="5.85357">
        <ele>867.49</ele>
        <time>2020-10-19T12:41:49.000Z</time>
      </trkpt>
      <trkpt lat="45.39012" lon="5.85361">
        <ele>868.61</ele>
        <time>2020-10-19T12:41:54.000Z</time>
      </trkpt>
      <trkpt lat="45.38992" lon="5.85366">
        <ele>869.91</ele>
        <time>2020-10-19T12:41:59.000Z</time>
      </trkpt>
      <trkpt lat="45.38976" lon="5.85364">
        <ele>871.97</ele>
        <time>2020-10-19T12:42:04.000Z</time>
      </trkpt>
      <trkpt lat="45.3896" lon="5.85354">
        <ele>871.98</ele>
        <time>2020-10-19T12:42:09.000Z</time>
      </trkpt>
      <trkpt lat="45.3894" lon="5.85341">
        <ele>870.32</ele>
        <time>2020-10-19T12:42:14.000Z</time>
      </trkpt>
      <trkpt lat="45.38922" lon="5.8533">
        <ele>868.49</ele>
        <time>2020-10-19T12:42:19.000Z</time>
      </trkpt>
      <trkpt lat="45.38901" lon="5.85313">
        <ele>867.8</ele>
        <time>2020-10-19T12:42:24.000Z</time>
      </trkpt>
      <trkpt lat="45.3888" lon="5.85303">
        <ele>865.06</ele>
        <time>2020-10-19T12:42:29.000Z</time>
      </trkpt>
      <trkpt lat="45.38857" lon="5.85297">
        <ele>866.79</ele>
        <time>2020-10-19T12:42:34.000Z</time>
      </trkpt>
      <trkpt lat="45.38835" lon="5.85289">
        <ele>866.88</ele>
        <time>2020-10-19T12:42:39.000Z</time>
      </trkpt>
      <trkpt lat="45.38814" lon="5.8528">
        <ele>876.68</ele>
        <time>2020-10-19T12:42:44.000Z</time>
      </trkpt>
      <trkpt lat="45.38786" lon="5.85276">
        <ele>874.53</ele>
        <time>2020-10-19T12:42:49.000Z</time>
      </trkpt>
      <trkpt lat="45.38765" lon="5.85279">
        <ele>878.6</ele>
        <time>2020-10-19T12:42:54.000Z</time>
      </trkpt>
      <trkpt lat="45.38741" lon="5.85274">
        <ele>883.45</ele>
        <time>2020-10-19T12:42:59.000Z</time>
      </trkpt>
      <trkpt lat="45.38717" lon="5.8527">
        <ele>884.75</ele>
        <time>2020-10-19T12:43:04.000Z</time>
      </trkpt>
      <trkpt lat="45.38696" lon="5.85269">
        <ele>884.66</ele>
        <time>2020-10-19T12:43:09.000Z</time>
      </trkpt>
      <trkpt lat="45.38676" lon="5.85269">
        <ele>882.45</ele>
        <time>2020-10-19T12:43:14.000Z</time>
      </trkpt>
      <trkpt lat="45.38654" lon="5.85269">
        <ele>881.15</ele>
        <time>2020-10-19T12:43:19.000Z</time>
      </trkpt>
      <trkpt lat="45.38631" lon="5.8527">
        <ele>885.88</ele>
        <time>2020-10-19T12:43:24.000Z</time>
      </trkpt>
      <trkpt lat="45.38611" lon="5.85268">
        <ele>888.43</ele>
        <time>2020-10-19T12:43:29.000Z</time>
      </trkpt>
      <trkpt lat="45.38586" lon="5.85269">
        <ele>893.53</ele>
        <time>2020-10-19T12:43:34.000Z</time>
      </trkpt>
      <trkpt lat="45.38565" lon="5.85271">
        <ele>897.49</ele>
        <time>2020-10-19T12:43:39.000Z</time>
      </trkpt>
      <trkpt lat="45.38547" lon="5.85275">
        <ele>896.1</ele>
        <time>2020-10-19T12:43:44.000Z</time>
      </trkpt>
      <trkpt lat="45.38531" lon="5.85284">
        <ele>898.18</ele>
        <time>2020-10-19T12:43:49.000Z</time>
      </trkpt>
      <trkpt lat="45.38512" lon="5.85289">
        <ele>893.6</ele>
        <time>2020-10-19T12:43:54.000Z</time>
      </trkpt>
      <trkpt lat="45.38493" lon="5.85293">
        <ele>891.34</ele>
        <time>2020-10-19T12:43:59.000Z</time>
      </trkpt>
      <trkpt lat="45.38472" lon="5.85299">
        <ele>891.71</ele>
        <time>2020-10-19T12:44:04.000Z</time>
      </trkpt>
      <trkpt lat="45.38452" lon="5.85325">
        <ele>888.95</ele>
        <time>2020-10-19T12:44:09.000Z</time>
      </trkpt>
      <trkpt lat="45.38433" lon="5.8534">
        <ele>890.07</ele>
        <time>2020-10-19T12:44:14.000Z</time>
      </trkpt>
      <trkpt lat="45.38411" lon="5.85354">
        <ele>897.25</ele>
        <time>2020-10-19T12:44:19.000Z</time>
      </trkpt>
      <trkpt lat="45.38386" lon="5.85367">
        <ele>902.5</ele>
        <time>2020-10-19T12:44:24.000Z</time>
      </trkpt>
      <trkpt lat="45.38366" lon="5.85385">
        <ele>910.36</ele>
        <time>2020-10-19T12:44:29.000Z</time>
      </trkpt>
      <trkpt lat="45.38348" lon="5.85403">
        <ele>912.48</ele>
        <time>2020-10-19T12:44:34.000Z</time>
      </trkpt>
      <trkpt lat="45.38326" lon="5.8542">
        <ele>916.1</ele>
        <time>2020-10-19T12:44:39.000Z</time>
      </trkpt>
      <trkpt lat="45.3831" lon="5.85427">
        <ele>919.66</ele>
        <time>2020-10-19T12:44:44.000Z</time>
      </trkpt>
      <trkpt lat="45.38299" lon="5.85436">
        <ele>918.48</ele>
        <time>2020-10-19T12:44:49.000Z</time>
      </trkpt>
      <trkpt lat="45.38291" lon="5.8544">
        <ele>918.69</ele>
        <time>2020-10-19T12:44:54.000Z</time>
      </trkpt>
      <trkpt lat="45.38274" lon="5.8545">
        <ele>920.99</ele>
        <time>2020-10-19T12:44:59.000Z</time>
      </trkpt>
      <trkpt lat="45.38249" lon="5.8546">
        <ele>920.29</ele>
        <time>2020-10-19T12:45:04.000Z</time>
      </trkpt>
      <trkpt lat="45.38225" lon="5.85476">
        <ele>922.9</ele>
        <time>2020-10-19T12:45:09.000Z</time>
      </trkpt>
      <trkpt lat="45.38197" lon="5.85499">
        <ele>927.18</ele>
        <time>2020-10-19T12:45:14.000Z</time>
      </trkpt>
      <trkpt lat="45.38161" lon="5.85515">
        <ele>928.44</ele>
        <time>2020-10-19T12:45:19.000Z</time>
      </trkpt>
      <trkpt lat="45.38128" lon="5.85515">
        <ele>924.37</ele>
        <time>2020-10-19T12:45:24.000Z</time>
      </trkpt>
      <trkpt lat="45.38087" lon="5.85523">
        <ele>919.09</ele>
        <time>2020-10-19T12:45:29.000Z</time>
      </trkpt>
      <trkpt lat="45.38048" lon="5.85558">
        <ele>916.71</ele>
        <time>2020-10-19T12:45:34.000Z</time>
      </trkpt>
      <trkpt lat="45.37999" lon="5.85568">
        <ele>915.46</ele>
        <time>2020-10-19T12:45:39.000Z</time>
      </trkpt>
      <trkpt lat="45.37948" lon="5.85569">
        <ele>914.91</ele>
        <time>2020-10-19T12:45:44.000Z</time>
      </trkpt>
      <trkpt lat="45.37906" lon="5.85601">
        <ele>910.32</ele>
        <time>2020-10-19T12:45:49.000Z</time>
      </trkpt>
      <trkpt lat="45.37866" lon="5.85561">
        <ele>908.59</ele>
        <time>2020-10-19T12:45:54.000Z</time>
      </trkpt>
      <trkpt lat="45.37883" lon="5.85514">
        <ele>907.93</ele>
        <time>2020-10-19T12:45:59.000Z</time>
      </trkpt>
      <trkpt lat="45.3789" lon="5.85484">
        <ele>908.38</ele>
        <time>2020-10-19T12:46:04.000Z</time>
      </trkpt>
      <trkpt lat="45.37896" lon="5.85459">
        <ele>909.53</ele>
        <time>2020-10-19T12:46:09.000Z</time>
      </trkpt>
      <trkpt lat="45.37899" lon="5.85438">
        <ele>911.4</ele>
        <time>2020-10-19T12:46:14.000Z</time>
      </trkpt>
      <trkpt lat="45.37897" lon="5.85422">
        <ele>911.48</ele>
        <time>2020-10-19T12:46:19.000Z</time>
      </trkpt>
      <trkpt lat="45.3791" lon="5.85394">
        <ele>911.87</ele>
        <time>2020-10-19T12:46:24.000Z</time>
      </trkpt>
      <trkpt lat="45.37925" lon="5.85383">
        <ele>913.71</ele>
        <time>2020-10-19T12:46:29.000Z</time>
      </trkpt>
      <trkpt lat="45.37943" lon="5.85377">
        <ele>915.09</ele>
        <time>2020-10-19T12:46:34.000Z</time>
      </trkpt>
      <trkpt lat="45.37963" lon="5.85371">
        <ele>912.34</ele>
        <time>2020-10-19T12:46:39.000Z</time>
      </trkpt>
      <trkpt lat="45.37989" lon="5.85357">
        <ele>903.48</ele>
        <time>2020-10-19T12:46:44.000Z</time>
      </trkpt>
      <trkpt lat="45.38006" lon="5.85333">
        <ele>902.09</ele>
        <time>2020-10-19T12:46:49.000Z</time>
      </trkpt>
      <trkpt lat="45.38023" lon="5.85311">
        <ele>901.18</ele>
        <time>2020-10-19T12:46:54.000Z</time>
      </trkpt>
      <trkpt lat="45.38036" lon="5.85288">
        <ele>899.36</ele>
        <time>2020-10-19T12:46:59.000Z</time>
      </trkpt>
      <trkpt lat="45.38054" lon="5.85264">
        <ele>900.51</ele>
        <time>2020-10-19T12:47:04.000Z</time>
      </trkpt>
      <trkpt lat="45.38063" lon="5.85233">
        <ele>900.68</ele>
        <time>2020-10-19T12:47:09.000Z</time>
      </trkpt>
      <trkpt lat="45.38077" lon="5.85202">
        <ele>905.4</ele>
        <time>2020-10-19T12:47:14.000Z</time>
      </trkpt>
      <trkpt lat="45.38093" lon="5.85166">
        <ele>910.17</ele>
        <time>2020-10-19T12:47:19.000Z</time>
      </trkpt>
      <trkpt lat="45.38095" lon="5.85145">
        <ele>913.27</ele>
        <time>2020-10-19T12:47:24.000Z</time>
      </trkpt>
      <trkpt lat="45.38085" lon="5.85125">
        <ele>915.87</ele>
        <time>2020-10-19T12:47:29.000Z</time>
      </trkpt>
      <trkpt lat="45.38076" lon="5.85094">
        <ele>916.42</ele>
        <time>2020-10-19T12:47:34.000Z</time>
      </trkpt>
      <trkpt lat="45.38064" lon="5.85061">
        <ele>916.2</ele>
        <time>2020-10-19T12:47:39.000Z</time>
      </trkpt>
      <trkpt lat="45.38049" lon="5.8503">
        <ele>916.8</ele>
        <time>2020-10-19T12:47:44.000Z</time>
      </trkpt>
      <trkpt lat="45.38025" lon="5.85005">
        <ele>914.17</ele>
        <time>2020-10-19T12:47:49.000Z</time>
      </trkpt>
      <trkpt lat="45.37995" lon="5.84981">
        <ele>912.13</ele>
        <time>2020-10-19T12:47:54.000Z</time>
      </trkpt>
      <trkpt lat="45.37965" lon="5.84972">
        <ele>906</ele>
        <time>2020-10-19T12:47:59.000Z</time>
      </trkpt>
      <trkpt lat="45.37953" lon="5.84973">
        <ele>906.07</ele>
        <time>2020-10-19T12:48:04.000Z</time>
      </trkpt>
      <trkpt lat="45.37934" lon="5.8497">
        <ele>913.81</ele>
        <time>2020-10-19T12:48:09.000Z</time>
      </trkpt>
      <trkpt lat="45.37916" lon="5.84963">
        <ele>916.95</ele>
        <time>2020-10-19T12:48:14.000Z</time>
      </trkpt>
      <trkpt lat="45.379" lon="5.84948">
        <ele>914.33</ele>
        <time>2020-10-19T12:48:19.000Z</time>
      </trkpt>
      <trkpt lat="45.37883" lon="5.84931">
        <ele>920.11</ele>
        <time>2020-10-19T12:48:24.000Z</time>
      </trkpt>
      <trkpt lat="45.37864" lon="5.8491">
        <ele>919.26</ele>
        <time>2020-10-19T12:48:29.000Z</time>
      </trkpt>
      <trkpt lat="45.37854" lon="5.84894">
        <ele>918.76</ele>
        <time>2020-10-19T12:48:34.000Z</time>
      </trkpt>
      <trkpt lat="45.37842" lon="5.84885">
        <ele>918</ele>
        <time>2020-10-19T12:48:39.000Z</time>
      </trkpt>
      <trkpt lat="45.37831" lon="5.84865">
        <ele>921.47</ele>
        <time>2020-10-19T12:48:44.000Z</time>
      </trkpt>
      <trkpt lat="45.3782" lon="5.84846">
        <ele>925.75</ele>
        <time>2020-10-19T12:48:49.000Z</time>
      </trkpt>
      <trkpt lat="45.37811" lon="5.84829">
        <ele>926.95</ele>
        <time>2020-10-19T12:48:54.000Z</time>
      </trkpt>
      <trkpt lat="45.37796" lon="5.84814">
        <ele>931.66</ele>
        <time>2020-10-19T12:48:59.000Z</time>
      </trkpt>
      <trkpt lat="45.37779" lon="5.84801">
        <ele>934.92</ele>
        <time>2020-10-19T12:49:04.000Z</time>
      </trkpt>
      <trkpt lat="45.37764" lon="5.84798">
        <ele>939.7</ele>
        <time>2020-10-19T12:49:09.000Z</time>
      </trkpt>
      <trkpt lat="45.37743" lon="5.84786">
        <ele>939.68</ele>
        <time>2020-10-19T12:49:14.000Z</time>
      </trkpt>
      <trkpt lat="45.37723" lon="5.84761">
        <ele>939.97</ele>
        <time>2020-10-19T12:49:19.000Z</time>
      </trkpt>
      <trkpt lat="45.37713" lon="5.84764">
        <ele>942.55</ele>
        <time>2020-10-19T12:49:24.000Z</time>
      </trkpt>
      <trkpt lat="45.37695" lon="5.84743">
        <ele>939.56</ele>
        <time>2020-10-19T12:49:29.000Z</time>
      </trkpt>
      <trkpt lat="45.37684" lon="5.84739">
        <ele>938.15</ele>
        <time>2020-10-19T12:49:34.000Z</time>
      </trkpt>
      <trkpt lat="45.37674" lon="5.84745">
        <ele>941.87</ele>
        <time>2020-10-19T12:49:39.000Z</time>
      </trkpt>
      <trkpt lat="45.3766" lon="5.84736">
        <ele>941.48</ele>
        <time>2020-10-19T12:49:44.000Z</time>
      </trkpt>
      <trkpt lat="45.37645" lon="5.84717">
        <ele>942.12</ele>
        <time>2020-10-19T12:49:49.000Z</time>
      </trkpt>
      <trkpt lat="45.37627" lon="5.84705">
        <ele>941.78</ele>
        <time>2020-10-19T12:49:54.000Z</time>
      </trkpt>
      <trkpt lat="45.37615" lon="5.84697">
        <ele>937.68</ele>
        <time>2020-10-19T12:49:59.000Z</time>
      </trkpt>
      <trkpt lat="45.37601" lon="5.84684">
        <ele>939.2</ele>
        <time>2020-10-19T12:50:04.000Z</time>
      </trkpt>
      <trkpt lat="45.37583" lon="5.84666">
        <ele>941.66</ele>
        <time>2020-10-19T12:50:09.000Z</time>
      </trkpt>
      <trkpt lat="45.37569" lon="5.84653">
        <ele>942.11</ele>
        <time>2020-10-19T12:50:14.000Z</time>
      </trkpt>
      <trkpt lat="45.3756" lon="5.84648">
        <ele>948.83</ele>
        <time>2020-10-19T12:50:19.000Z</time>
      </trkpt>
      <trkpt lat="45.37544" lon="5.84633">
        <ele>952.25</ele>
        <time>2020-10-19T12:50:24.000Z</time>
      </trkpt>
      <trkpt lat="45.37528" lon="5.84615">
        <ele>956.13</ele>
        <time>2020-10-19T12:50:29.000Z</time>
      </trkpt>
      <trkpt lat="45.37514" lon="5.84594">
        <ele>961.73</ele>
        <time>2020-10-19T12:50:34.000Z</time>
      </trkpt>
      <trkpt lat="45.37501" lon="5.84576">
        <ele>966.39</ele>
        <time>2020-10-19T12:50:39.000Z</time>
      </trkpt>
      <trkpt lat="45.3749" lon="5.8456">
        <ele>971.41</ele>
        <time>2020-10-19T12:50:44.000Z</time>
      </trkpt>
      <trkpt lat="45.37475" lon="5.84541">
        <ele>972.45</ele>
        <time>2020-10-19T12:50:49.000Z</time>
      </trkpt>
      <trkpt lat="45.37458" lon="5.84508">
        <ele>971.49</ele>
        <time>2020-10-19T12:50:54.000Z</time>
      </trkpt>
      <trkpt lat="45.37449" lon="5.84497">
        <ele>973.69</ele>
        <time>2020-10-19T12:50:59.000Z</time>
      </trkpt>
      <trkpt lat="45.37436" lon="5.84483">
        <ele>978.07</ele>
        <time>2020-10-19T12:51:04.000Z</time>
      </trkpt>
      <trkpt lat="45.37423" lon="5.84466">
        <ele>979.11</ele>
        <time>2020-10-19T12:51:09.000Z</time>
      </trkpt>
      <trkpt lat="45.3741" lon="5.84448">
        <ele>979.34</ele>
        <time>2020-10-19T12:51:14.000Z</time>
      </trkpt>
      <trkpt lat="45.37396" lon="5.84432">
        <ele>983.66</ele>
        <time>2020-10-19T12:51:19.000Z</time>
      </trkpt>
      <trkpt lat="45.37387" lon="5.8442">
        <ele>984.59</ele>
        <time>2020-10-19T12:51:24.000Z</time>
      </trkpt>
      <trkpt lat="45.37378" lon="5.84406">
        <ele>984.57</ele>
        <time>2020-10-19T12:51:29.000Z</time>
      </trkpt>
      <trkpt lat="45.37358" lon="5.84394">
        <ele>986.65</ele>
        <time>2020-10-19T12:51:34.000Z</time>
      </trkpt>
      <trkpt lat="45.37339" lon="5.84384">
        <ele>986.29</ele>
        <time>2020-10-19T12:51:39.000Z</time>
      </trkpt>
      <trkpt lat="45.37332" lon="5.84366">
        <ele>987.88</ele>
        <time>2020-10-19T12:51:44.000Z</time>
      </trkpt>
      <trkpt lat="45.37318" lon="5.84351">
        <ele>988.71</ele>
        <time>2020-10-19T12:51:49.000Z</time>
      </trkpt>
      <trkpt lat="45.37301" lon="5.84339">
        <ele>991.74</ele>
        <time>2020-10-19T12:51:54.000Z</time>
      </trkpt>
      <trkpt lat="45.37287" lon="5.84325">
        <ele>993.08</ele>
        <time>2020-10-19T12:51:59.000Z</time>
      </trkpt>
      <trkpt lat="45.37266" lon="5.84309">
        <ele>995.43</ele>
        <time>2020-10-19T12:52:04.000Z</time>
      </trkpt>
      <trkpt lat="45.37242" lon="5.84295">
        <ele>997.51</ele>
        <time>2020-10-19T12:52:09.000Z</time>
      </trkpt>
      <trkpt lat="45.37228" lon="5.84276">
        <ele>999.58</ele>
        <time>2020-10-19T12:52:14.000Z</time>
      </trkpt>
      <trkpt lat="45.37214" lon="5.84263">
        <ele>1000.43</ele>
        <time>2020-10-19T12:52:19.000Z</time>
      </trkpt>
      <trkpt lat="45.37199" lon="5.84252">
        <ele>1001.84</ele>
        <time>2020-10-19T12:52:24.000Z</time>
      </trkpt>
      <trkpt lat="45.37188" lon="5.84237">
        <ele>1005.72</ele>
        <time>2020-10-19T12:52:29.000Z</time>
      </trkpt>
      <trkpt lat="45.37175" lon="5.84223">
        <ele>1006.67</ele>
        <time>2020-10-19T12:52:34.000Z</time>
      </trkpt>
      <trkpt lat="45.37165" lon="5.8421">
        <ele>1007.64</ele>
        <time>2020-10-19T12:52:39.000Z</time>
      </trkpt>
      <trkpt lat="45.37149" lon="5.84198">
        <ele>1007.41</ele>
        <time>2020-10-19T12:52:44.000Z</time>
      </trkpt>
      <trkpt lat="45.37131" lon="5.84186">
        <ele>1009.65</ele>
        <time>2020-10-19T12:52:49.000Z</time>
      </trkpt>
      <trkpt lat="45.37112" lon="5.84169">
        <ele>1013.22</ele>
        <time>2020-10-19T12:52:54.000Z</time>
      </trkpt>
      <trkpt lat="45.37091" lon="5.84152">
        <ele>1016.87</ele>
        <time>2020-10-19T12:52:59.000Z</time>
      </trkpt>
      <trkpt lat="45.3707" lon="5.84136">
        <ele>1017.34</ele>
        <time>2020-10-19T12:53:04.000Z</time>
      </trkpt>
      <trkpt lat="45.37055" lon="5.84123">
        <ele>1018.93</ele>
        <time>2020-10-19T12:53:09.000Z</time>
      </trkpt>
      <trkpt lat="45.37037" lon="5.84104">
        <ele>1020.18</ele>
        <time>2020-10-19T12:53:14.000Z</time>
      </trkpt>
      <trkpt lat="45.37023" lon="5.84088">
        <ele>1018.09</ele>
        <time>2020-10-19T12:53:19.000Z</time>
      </trkpt>
      <trkpt lat="45.37016" lon="5.8407">
        <ele>1016.28</ele>
        <time>2020-10-19T12:53:24.000Z</time>
      </trkpt>
      <trkpt lat="45.37008" lon="5.84049">
        <ele>1014.68</ele>
        <time>2020-10-19T12:53:29.000Z</time>
      </trkpt>
      <trkpt lat="45.37008" lon="5.84016">
        <ele>1014.41</ele>
        <time>2020-10-19T12:53:34.000Z</time>
      </trkpt>
      <trkpt lat="45.37008" lon="5.83987">
        <ele>1021.64</ele>
        <time>2020-10-19T12:53:39.000Z</time>
      </trkpt>
      <trkpt lat="45.37002" lon="5.83967">
        <ele>1030.41</ele>
        <time>2020-10-19T12:53:44.000Z</time>
      </trkpt>
      <trkpt lat="45.37009" lon="5.83944">
        <ele>1027.66</ele>
        <time>2020-10-19T12:53:49.000Z</time>
      </trkpt>
      <trkpt lat="45.37025" lon="5.83926">
        <ele>1033.06</ele>
        <time>2020-10-19T12:53:54.000Z</time>
      </trkpt>
      <trkpt lat="45.37036" lon="5.83912">
        <ele>1037.27</ele>
        <time>2020-10-19T12:53:59.000Z</time>
      </trkpt>
      <trkpt lat="45.37051" lon="5.83908">
        <ele>1044.63</ele>
        <time>2020-10-19T12:54:04.000Z</time>
      </trkpt>
      <trkpt lat="45.3707" lon="5.83909">
        <ele>1047.49</ele>
        <time>2020-10-19T12:54:09.000Z</time>
      </trkpt>
      <trkpt lat="45.37087" lon="5.8391">
        <ele>1047.71</ele>
        <time>2020-10-19T12:54:14.000Z</time>
      </trkpt>
      <trkpt lat="45.37105" lon="5.8391">
        <ele>1050.07</ele>
        <time>2020-10-19T12:54:19.000Z</time>
      </trkpt>
      <trkpt lat="45.37124" lon="5.83904">
        <ele>1049.97</ele>
        <time>2020-10-19T12:54:24.000Z</time>
      </trkpt>
      <trkpt lat="45.3714" lon="5.83885">
        <ele>1052.18</ele>
        <time>2020-10-19T12:54:29.000Z</time>
      </trkpt>
      <trkpt lat="45.37148" lon="5.83864">
        <ele>1056.6</ele>
        <time>2020-10-19T12:54:34.000Z</time>
      </trkpt>
      <trkpt lat="45.37136" lon="5.83846">
        <ele>1056.75</ele>
        <time>2020-10-19T12:54:39.000Z</time>
      </trkpt>
      <trkpt lat="45.37119" lon="5.83848">
        <ele>1058.21</ele>
        <time>2020-10-19T12:54:44.000Z</time>
      </trkpt>
      <trkpt lat="45.37101" lon="5.83861">
        <ele>1061.58</ele>
        <time>2020-10-19T12:54:49.000Z</time>
      </trkpt>
      <trkpt lat="45.3708" lon="5.83857">
        <ele>1063.67</ele>
        <time>2020-10-19T12:54:54.000Z</time>
      </trkpt>
      <trkpt lat="45.37069" lon="5.83833">
        <ele>1060.28</ele>
        <time>2020-10-19T12:54:59.000Z</time>
      </trkpt>
      <trkpt lat="45.37058" lon="5.83809">
        <ele>1063.01</ele>
        <time>2020-10-19T12:55:04.000Z</time>
      </trkpt>
      <trkpt lat="45.37048" lon="5.83788">
        <ele>1061.64</ele>
        <time>2020-10-19T12:55:09.000Z</time>
      </trkpt>
      <trkpt lat="45.37037" lon="5.83767">
        <ele>1060.37</ele>
        <time>2020-10-19T12:55:14.000Z</time>
      </trkpt>
      <trkpt lat="45.37025" lon="5.83746">
        <ele>1060.18</ele>
        <time>2020-10-19T12:55:19.000Z</time>
      </trkpt>
      <trkpt lat="45.37013" lon="5.83727">
        <ele>1063.41</ele>
        <time>2020-10-19T12:55:24.000Z</time>
      </trkpt>
      <trkpt lat="45.36998" lon="5.83706">
        <ele>1062.78</ele>
        <time>2020-10-19T12:55:29.000Z</time>
      </trkpt>
      <trkpt lat="45.36984" lon="5.83686">
        <ele>1068.33</ele>
        <time>2020-10-19T12:55:34.000Z</time>
      </trkpt>
      <trkpt lat="45.3697" lon="5.83674">
        <ele>1075.24</ele>
        <time>2020-10-19T12:55:39.000Z</time>
      </trkpt>
      <trkpt lat="45.36953" lon="5.83663">
        <ele>1078.98</ele>
        <time>2020-10-19T12:55:44.000Z</time>
      </trkpt>
      <trkpt lat="45.36934" lon="5.83657">
        <ele>1083.08</ele>
        <time>2020-10-19T12:55:49.000Z</time>
      </trkpt>
      <trkpt lat="45.36917" lon="5.83657">
        <ele>1085.53</ele>
        <time>2020-10-19T12:55:54.000Z</time>
      </trkpt>
      <trkpt lat="45.36898" lon="5.83656">
        <ele>1084.51</ele>
        <time>2020-10-19T12:55:59.000Z</time>
      </trkpt>
      <trkpt lat="45.36882" lon="5.83653">
        <ele>1086.25</ele>
        <time>2020-10-19T12:56:04.000Z</time>
      </trkpt>
      <trkpt lat="45.36866" lon="5.83642">
        <ele>1093.02</ele>
        <time>2020-10-19T12:56:09.000Z</time>
      </trkpt>
      <trkpt lat="45.36847" lon="5.83631">
        <ele>1093.96</ele>
        <time>2020-10-19T12:56:14.000Z</time>
      </trkpt>
      <trkpt lat="45.36832" lon="5.83613">
        <ele>1092.53</ele>
        <time>2020-10-19T12:56:19.000Z</time>
      </trkpt>
      <trkpt lat="45.36812" lon="5.83588">
        <ele>1085.27</ele>
        <time>2020-10-19T12:56:24.000Z</time>
      </trkpt>
      <trkpt lat="45.36813" lon="5.83556">
        <ele>1084.52</ele>
        <time>2020-10-19T12:56:29.000Z</time>
      </trkpt>
      <trkpt lat="45.36806" lon="5.83537">
        <ele>1085.95</ele>
        <time>2020-10-19T12:56:34.000Z</time>
      </trkpt>
      <trkpt lat="45.36799" lon="5.83515">
        <ele>1086.1</ele>
        <time>2020-10-19T12:56:39.000Z</time>
      </trkpt>
      <trkpt lat="45.36788" lon="5.83494">
        <ele>1086.07</ele>
        <time>2020-10-19T12:56:44.000Z</time>
      </trkpt>
      <trkpt lat="45.36769" lon="5.83479">
        <ele>1090.76</ele>
        <time>2020-10-19T12:56:49.000Z</time>
      </trkpt>
      <trkpt lat="45.36747" lon="5.83474">
        <ele>1097.38</ele>
        <time>2020-10-19T12:56:54.000Z</time>
      </trkpt>
      <trkpt lat="45.36729" lon="5.83462">
        <ele>1102.57</ele>
        <time>2020-10-19T12:56:59.000Z</time>
      </trkpt>
      <trkpt lat="45.36709" lon="5.83455">
        <ele>1107.63</ele>
        <time>2020-10-19T12:57:04.000Z</time>
      </trkpt>
      <trkpt lat="45.36687" lon="5.83451">
        <ele>1110.58</ele>
        <time>2020-10-19T12:57:09.000Z</time>
      </trkpt>
      <trkpt lat="45.36668" lon="5.83445">
        <ele>1111.86</ele>
        <time>2020-10-19T12:57:14.000Z</time>
      </trkpt>
      <trkpt lat="45.36649" lon="5.83442">
        <ele>1116.32</ele>
        <time>2020-10-19T12:57:19.000Z</time>
      </trkpt>
      <trkpt lat="45.36628" lon="5.83437">
        <ele>1119.11</ele>
        <time>2020-10-19T12:57:24.000Z</time>
      </trkpt>
      <trkpt lat="45.36608" lon="5.83433">
        <ele>1122.7</ele>
        <time>2020-10-19T12:57:29.000Z</time>
      </trkpt>
      <trkpt lat="45.36589" lon="5.83427">
        <ele>1124.01</ele>
        <time>2020-10-19T12:57:34.000Z</time>
      </trkpt>
      <trkpt lat="45.3657" lon="5.83419">
        <ele>1124.14</ele>
        <time>2020-10-19T12:57:39.000Z</time>
      </trkpt>
      <trkpt lat="45.36553" lon="5.83408">
        <ele>1127.19</ele>
        <time>2020-10-19T12:57:44.000Z</time>
      </trkpt>
      <trkpt lat="45.3654" lon="5.83401">
        <ele>1131.62</ele>
        <time>2020-10-19T12:57:49.000Z</time>
      </trkpt>
      <trkpt lat="45.36531" lon="5.83398">
        <ele>1132.47</ele>
        <time>2020-10-19T13:04:21.000Z</time>
      </trkpt>
      <trkpt lat="45.36502" lon="5.83378">
        <ele>1128</ele>
        <time>2020-10-19T13:04:26.000Z</time>
      </trkpt>
      <trkpt lat="45.3647" lon="5.83352">
        <ele>1126.27</ele>
        <time>2020-10-19T13:04:31.000Z</time>
      </trkpt>
      <trkpt lat="45.36442" lon="5.83321">
        <ele>1127.65</ele>
        <time>2020-10-19T13:04:36.000Z</time>
      </trkpt>
      <trkpt lat="45.36402" lon="5.83274">
        <ele>1127.66</ele>
        <time>2020-10-19T13:04:41.000Z</time>
      </trkpt>
      <trkpt lat="45.36375" lon="5.83219">
        <ele>1124.94</ele>
        <time>2020-10-19T13:04:46.000Z</time>
      </trkpt>
      <trkpt lat="45.36346" lon="5.83172">
        <ele>1121.88</ele>
        <time>2020-10-19T13:04:51.000Z</time>
      </trkpt>
      <trkpt lat="45.36294" lon="5.83126">
        <ele>1117.58</ele>
        <time>2020-10-19T13:04:56.000Z</time>
      </trkpt>
      <trkpt lat="45.36254" lon="5.83079">
        <ele>1110.95</ele>
        <time>2020-10-19T13:05:01.000Z</time>
      </trkpt>
      <trkpt lat="45.3621" lon="5.83016">
        <ele>1106.64</ele>
        <time>2020-10-19T13:05:06.000Z</time>
      </trkpt>
      <trkpt lat="45.36154" lon="5.82982">
        <ele>1106.21</ele>
        <time>2020-10-19T13:05:11.000Z</time>
      </trkpt>
      <trkpt lat="45.36098" lon="5.8298">
        <ele>1103.88</ele>
        <time>2020-10-19T13:05:16.000Z</time>
      </trkpt>
      <trkpt lat="45.36038" lon="5.82979">
        <ele>1100.19</ele>
        <time>2020-10-19T13:05:21.000Z</time>
      </trkpt>
      <trkpt lat="45.35979" lon="5.82979">
        <ele>1092.46</ele>
        <time>2020-10-19T13:05:26.000Z</time>
      </trkpt>
      <trkpt lat="45.35917" lon="5.82976">
        <ele>1085.18</ele>
        <time>2020-10-19T13:05:31.000Z</time>
      </trkpt>
      <trkpt lat="45.35863" lon="5.82998">
        <ele>1078.91</ele>
        <time>2020-10-19T13:05:36.000Z</time>
      </trkpt>
      <trkpt lat="45.35827" lon="5.8297">
        <ele>1073.37</ele>
        <time>2020-10-19T13:05:41.000Z</time>
      </trkpt>
      <trkpt lat="45.35795" lon="5.82885">
        <ele>1069.51</ele>
        <time>2020-10-19T13:05:46.000Z</time>
      </trkpt>
      <trkpt lat="45.35783" lon="5.82789">
        <ele>1066.06</ele>
        <time>2020-10-19T13:05:51.000Z</time>
      </trkpt>
      <trkpt lat="45.35749" lon="5.82702">
        <ele>1056.44</ele>
        <time>2020-10-19T13:05:56.000Z</time>
      </trkpt>
      <trkpt lat="45.3571" lon="5.82636">
        <ele>1051.32</ele>
        <time>2020-10-19T13:06:01.000Z</time>
      </trkpt>
      <trkpt lat="45.35688" lon="5.82591">
        <ele>1039.9</ele>
        <time>2020-10-19T13:06:06.000Z</time>
      </trkpt>
      <trkpt lat="45.35679" lon="5.82559">
        <ele>1032.57</ele>
        <time>2020-10-19T13:06:11.000Z</time>
      </trkpt>
      <trkpt lat="45.35634" lon="5.8254">
        <ele>1025.35</ele>
        <time>2020-10-19T13:06:16.000Z</time>
      </trkpt>
      <trkpt lat="45.35581" lon="5.82507">
        <ele>1018.97</ele>
        <time>2020-10-19T13:06:21.000Z</time>
      </trkpt>
      <trkpt lat="45.35512" lon="5.82465">
        <ele>1014.25</ele>
        <time>2020-10-19T13:06:26.000Z</time>
      </trkpt>
      <trkpt lat="45.35457" lon="5.82391">
        <ele>1006.9</ele>
        <time>2020-10-19T13:06:31.000Z</time>
      </trkpt>
      <trkpt lat="45.35412" lon="5.82319">
        <ele>1002.19</ele>
        <time>2020-10-19T13:06:36.000Z</time>
      </trkpt>
      <trkpt lat="45.35364" lon="5.82252">
        <ele>997.8</ele>
        <time>2020-10-19T13:06:41.000Z</time>
      </trkpt>
      <trkpt lat="45.35303" lon="5.8223">
        <ele>994.77</ele>
        <time>2020-10-19T13:06:46.000Z</time>
      </trkpt>
      <trkpt lat="45.35251" lon="5.8221">
        <ele>982.85</ele>
        <time>2020-10-19T13:06:51.000Z</time>
      </trkpt>
      <trkpt lat="45.35201" lon="5.82172">
        <ele>968.11</ele>
        <time>2020-10-19T13:06:56.000Z</time>
      </trkpt>
      <trkpt lat="45.35154" lon="5.82092">
        <ele>965.88</ele>
        <time>2020-10-19T13:07:01.000Z</time>
      </trkpt>
      <trkpt lat="45.35113" lon="5.8201">
        <ele>962.86</ele>
        <time>2020-10-19T13:07:06.000Z</time>
      </trkpt>
      <trkpt lat="45.35085" lon="5.81954">
        <ele>956.98</ele>
        <time>2020-10-19T13:07:11.000Z</time>
      </trkpt>
      <trkpt lat="45.3503" lon="5.81955">
        <ele>954.16</ele>
        <time>2020-10-19T13:07:16.000Z</time>
      </trkpt>
      <trkpt lat="45.34972" lon="5.81935">
        <ele>949.08</ele>
        <time>2020-10-19T13:07:21.000Z</time>
      </trkpt>
      <trkpt lat="45.34912" lon="5.81924">
        <ele>943.53</ele>
        <time>2020-10-19T13:07:26.000Z</time>
      </trkpt>
      <trkpt lat="45.34863" lon="5.81898">
        <ele>939</ele>
        <time>2020-10-19T13:07:31.000Z</time>
      </trkpt>
      <trkpt lat="45.34827" lon="5.81814">
        <ele>934.11</ele>
        <time>2020-10-19T13:07:36.000Z</time>
      </trkpt>
      <trkpt lat="45.34789" lon="5.81744">
        <ele>932.85</ele>
        <time>2020-10-19T13:07:41.000Z</time>
      </trkpt>
      <trkpt lat="45.34743" lon="5.81706">
        <ele>924.88</ele>
        <time>2020-10-19T13:07:46.000Z</time>
      </trkpt>
      <trkpt lat="45.34685" lon="5.81686">
        <ele>918.74</ele>
        <time>2020-10-19T13:07:51.000Z</time>
      </trkpt>
      <trkpt lat="45.34637" lon="5.81684">
        <ele>913.65</ele>
        <time>2020-10-19T13:07:56.000Z</time>
      </trkpt>
      <trkpt lat="45.34598" lon="5.81695">
        <ele>911.27</ele>
        <time>2020-10-19T13:08:01.000Z</time>
      </trkpt>
      <trkpt lat="45.34587" lon="5.81687">
        <ele>906.73</ele>
        <time>2020-10-19T13:08:06.000Z</time>
      </trkpt>
      <trkpt lat="45.34593" lon="5.81643">
        <ele>903.95</ele>
        <time>2020-10-19T13:08:11.000Z</time>
      </trkpt>
      <trkpt lat="45.34566" lon="5.81627">
        <ele>898.5</ele>
        <time>2020-10-19T13:08:16.000Z</time>
      </trkpt>
      <trkpt lat="45.34525" lon="5.81633">
        <ele>899.74</ele>
        <time>2020-10-19T13:08:21.000Z</time>
      </trkpt>
      <trkpt lat="45.34492" lon="5.81623">
        <ele>901.75</ele>
        <time>2020-10-19T13:08:26.000Z</time>
      </trkpt>
      <trkpt lat="45.34454" lon="5.81606">
        <ele>898.11</ele>
        <time>2020-10-19T13:08:31.000Z</time>
      </trkpt>
      <trkpt lat="45.34421" lon="5.81587">
        <ele>893.2</ele>
        <time>2020-10-19T13:08:36.000Z</time>
      </trkpt>
      <trkpt lat="45.34394" lon="5.81556">
        <ele>891.39</ele>
        <time>2020-10-19T13:08:41.000Z</time>
      </trkpt>
      <trkpt lat="45.34372" lon="5.81533">
        <ele>888.53</ele>
        <time>2020-10-19T13:08:46.000Z</time>
      </trkpt>
      <trkpt lat="45.34355" lon="5.81517">
        <ele>884.46</ele>
        <time>2020-10-19T13:08:51.000Z</time>
      </trkpt>
      <trkpt lat="45.34337" lon="5.81489">
        <ele>882</ele>
        <time>2020-10-19T13:08:56.000Z</time>
      </trkpt>
      <trkpt lat="45.34312" lon="5.81472">
        <ele>882.55</ele>
        <time>2020-10-19T13:09:01.000Z</time>
      </trkpt>
      <trkpt lat="45.34287" lon="5.8145">
        <ele>883.29</ele>
        <time>2020-10-19T13:09:06.000Z</time>
      </trkpt>
      <trkpt lat="45.34263" lon="5.8143">
        <ele>880.39</ele>
        <time>2020-10-19T13:09:11.000Z</time>
      </trkpt>
      <trkpt lat="45.34246" lon="5.81416">
        <ele>876.87</ele>
        <time>2020-10-19T13:09:16.000Z</time>
      </trkpt>
      <trkpt lat="45.34232" lon="5.81405">
        <ele>872.93</ele>
        <time>2020-10-19T13:09:21.000Z</time>
      </trkpt>
      <trkpt lat="45.34223" lon="5.81401">
        <ele>875.02</ele>
        <time>2020-10-19T13:09:26.000Z</time>
      </trkpt>
      <trkpt lat="45.34214" lon="5.8141">
        <ele>875.92</ele>
        <time>2020-10-19T13:09:32.000Z</time>
      </trkpt>
      <trkpt lat="45.34202" lon="5.81397">
        <ele>874.7</ele>
        <time>2020-10-19T13:09:37.000Z</time>
      </trkpt>
      <trkpt lat="45.34187" lon="5.81363">
        <ele>878.54</ele>
        <time>2020-10-19T13:09:42.000Z</time>
      </trkpt>
      <trkpt lat="45.34164" lon="5.81339">
        <ele>877.87</ele>
        <time>2020-10-19T13:09:47.000Z</time>
      </trkpt>
      <trkpt lat="45.34144" lon="5.81316">
        <ele>878.32</ele>
        <time>2020-10-19T13:09:52.000Z</time>
      </trkpt>
      <trkpt lat="45.34126" lon="5.81283">
        <ele>877.32</ele>
        <time>2020-10-19T13:09:57.000Z</time>
      </trkpt>
      <trkpt lat="45.34131" lon="5.81221">
        <ele>877.58</ele>
        <time>2020-10-19T13:10:02.000Z</time>
      </trkpt>
      <trkpt lat="45.34104" lon="5.81193">
        <ele>874.66</ele>
        <time>2020-10-19T13:10:07.000Z</time>
      </trkpt>
      <trkpt lat="45.34084" lon="5.8119">
        <ele>872.5</ele>
        <time>2020-10-19T13:10:12.000Z</time>
      </trkpt>
      <trkpt lat="45.34091" lon="5.81183">
        <ele>863.61</ele>
        <time>2020-10-19T13:10:32.000Z</time>
      </trkpt>
      <trkpt lat="45.34089" lon="5.81207">
        <ele>852.22</ele>
        <time>2020-10-19T13:11:34.000Z</time>
      </trkpt>
      <trkpt lat="45.34081" lon="5.81253">
        <ele>852.94</ele>
        <time>2020-10-19T13:11:39.000Z</time>
      </trkpt>
      <trkpt lat="45.34083" lon="5.8132">
        <ele>852.52</ele>
        <time>2020-10-19T13:11:44.000Z</time>
      </trkpt>
      <trkpt lat="45.34095" lon="5.81383">
        <ele>846.79</ele>
        <time>2020-10-19T13:11:49.000Z</time>
      </trkpt>
      <trkpt lat="45.34076" lon="5.81424">
        <ele>845.23</ele>
        <time>2020-10-19T13:11:54.000Z</time>
      </trkpt>
      <trkpt lat="45.34056" lon="5.81377">
        <ele>840.44</ele>
        <time>2020-10-19T13:11:59.000Z</time>
      </trkpt>
      <trkpt lat="45.34048" lon="5.81328">
        <ele>836.27</ele>
        <time>2020-10-19T13:12:04.000Z</time>
      </trkpt>
      <trkpt lat="45.34042" lon="5.81263">
        <ele>830.04</ele>
        <time>2020-10-19T13:12:09.000Z</time>
      </trkpt>
      <trkpt lat="45.34032" lon="5.81187">
        <ele>830.26</ele>
        <time>2020-10-19T13:12:14.000Z</time>
      </trkpt>
      <trkpt lat="45.34027" lon="5.81114">
        <ele>825.27</ele>
        <time>2020-10-19T13:12:19.000Z</time>
      </trkpt>
      <trkpt lat="45.34001" lon="5.81047">
        <ele>824.71</ele>
        <time>2020-10-19T13:12:24.000Z</time>
      </trkpt>
      <trkpt lat="45.34003" lon="5.80994">
        <ele>823.42</ele>
        <time>2020-10-19T13:12:29.000Z</time>
      </trkpt>
      <trkpt lat="45.34046" lon="5.80946">
        <ele>818.83</ele>
        <time>2020-10-19T13:12:34.000Z</time>
      </trkpt>
      <trkpt lat="45.34039" lon="5.80893">
        <ele>813.49</ele>
        <time>2020-10-19T13:12:39.000Z</time>
      </trkpt>
      <trkpt lat="45.34005" lon="5.80835">
        <ele>809.4</ele>
        <time>2020-10-19T13:12:44.000Z</time>
      </trkpt>
      <trkpt lat="45.33983" lon="5.80779">
        <ele>801.43</ele>
        <time>2020-10-19T13:12:49.000Z</time>
      </trkpt>
      <trkpt lat="45.3394" lon="5.8075">
        <ele>795.71</ele>
        <time>2020-10-19T13:12:54.000Z</time>
      </trkpt>
      <trkpt lat="45.33908" lon="5.80739">
        <ele>792.33</ele>
        <time>2020-10-19T13:12:59.000Z</time>
      </trkpt>
      <trkpt lat="45.33881" lon="5.80738">
        <ele>792.21</ele>
        <time>2020-10-19T13:13:04.000Z</time>
      </trkpt>
      <trkpt lat="45.33857" lon="5.80748">
        <ele>792.76</ele>
        <time>2020-10-19T13:13:09.000Z</time>
      </trkpt>
      <trkpt lat="45.33836" lon="5.80738">
        <ele>794.22</ele>
        <time>2020-10-19T13:13:14.000Z</time>
      </trkpt>
      <trkpt lat="45.33814" lon="5.80724">
        <ele>795.67</ele>
        <time>2020-10-19T13:13:19.000Z</time>
      </trkpt>
      <trkpt lat="45.33786" lon="5.80716">
        <ele>794.45</ele>
        <time>2020-10-19T13:13:24.000Z</time>
      </trkpt>
      <trkpt lat="45.33763" lon="5.80722">
        <ele>794.41</ele>
        <time>2020-10-19T13:13:29.000Z</time>
      </trkpt>
      <trkpt lat="45.33737" lon="5.80717">
        <ele>792.54</ele>
        <time>2020-10-19T13:13:34.000Z</time>
      </trkpt>
      <trkpt lat="45.33709" lon="5.8071">
        <ele>794.51</ele>
        <time>2020-10-19T13:13:39.000Z</time>
      </trkpt>
      <trkpt lat="45.33684" lon="5.80706">
        <ele>799.21</ele>
        <time>2020-10-19T13:13:44.000Z</time>
      </trkpt>
      <trkpt lat="45.33659" lon="5.80701">
        <ele>798.4</ele>
        <time>2020-10-19T13:13:49.000Z</time>
      </trkpt>
      <trkpt lat="45.33635" lon="5.80704">
        <ele>796.69</ele>
        <time>2020-10-19T13:13:54.000Z</time>
      </trkpt>
      <trkpt lat="45.33612" lon="5.80716">
        <ele>793.24</ele>
        <time>2020-10-19T13:13:59.000Z</time>
      </trkpt>
      <trkpt lat="45.33589" lon="5.80727">
        <ele>792.91</ele>
        <time>2020-10-19T13:14:04.000Z</time>
      </trkpt>
      <trkpt lat="45.33566" lon="5.80735">
        <ele>793.56</ele>
        <time>2020-10-19T13:14:09.000Z</time>
      </trkpt>
      <trkpt lat="45.33544" lon="5.80746">
        <ele>794.22</ele>
        <time>2020-10-19T13:14:14.000Z</time>
      </trkpt>
      <trkpt lat="45.33521" lon="5.80754">
        <ele>793.23</ele>
        <time>2020-10-19T13:14:19.000Z</time>
      </trkpt>
      <trkpt lat="45.33493" lon="5.80755">
        <ele>792.54</ele>
        <time>2020-10-19T13:14:24.000Z</time>
      </trkpt>
      <trkpt lat="45.33467" lon="5.80757">
        <ele>792.3</ele>
        <time>2020-10-19T13:14:29.000Z</time>
      </trkpt>
      <trkpt lat="45.33444" lon="5.80749">
        <ele>790.2</ele>
        <time>2020-10-19T13:14:34.000Z</time>
      </trkpt>
      <trkpt lat="45.33419" lon="5.80736">
        <ele>790.16</ele>
        <time>2020-10-19T13:14:39.000Z</time>
      </trkpt>
      <trkpt lat="45.33393" lon="5.80724">
        <ele>791.2</ele>
        <time>2020-10-19T13:14:44.000Z</time>
      </trkpt>
      <trkpt lat="45.33367" lon="5.80711">
        <ele>790.26</ele>
        <time>2020-10-19T13:14:49.000Z</time>
      </trkpt>
      <trkpt lat="45.33344" lon="5.80693">
        <ele>790.88</ele>
        <time>2020-10-19T13:14:54.000Z</time>
      </trkpt>
      <trkpt lat="45.33326" lon="5.80666">
        <ele>792.71</ele>
        <time>2020-10-19T13:14:59.000Z</time>
      </trkpt>
      <trkpt lat="45.33305" lon="5.80648">
        <ele>790.56</ele>
        <time>2020-10-19T13:15:04.000Z</time>
      </trkpt>
      <trkpt lat="45.33284" lon="5.80635">
        <ele>792.3</ele>
        <time>2020-10-19T13:15:09.000Z</time>
      </trkpt>
      <trkpt lat="45.33266" lon="5.80625">
        <ele>795.41</ele>
        <time>2020-10-19T13:15:14.000Z</time>
      </trkpt>
      <trkpt lat="45.33255" lon="5.80638">
        <ele>795.72</ele>
        <time>2020-10-19T13:15:19.000Z</time>
      </trkpt>
      <trkpt lat="45.33245" lon="5.80667">
        <ele>798.19</ele>
        <time>2020-10-19T13:15:24.000Z</time>
      </trkpt>
      <trkpt lat="45.33241" lon="5.80698">
        <ele>800.38</ele>
        <time>2020-10-19T13:15:29.000Z</time>
      </trkpt>
      <trkpt lat="45.3323" lon="5.80726">
        <ele>801.27</ele>
        <time>2020-10-19T13:15:34.000Z</time>
      </trkpt>
      <trkpt lat="45.33226" lon="5.80749">
        <ele>802.67</ele>
        <time>2020-10-19T13:15:39.000Z</time>
      </trkpt>
      <trkpt lat="45.33229" lon="5.80773">
        <ele>803.81</ele>
        <time>2020-10-19T13:15:44.000Z</time>
      </trkpt>
      <trkpt lat="45.33225" lon="5.80799">
        <ele>805.53</ele>
        <time>2020-10-19T13:15:49.000Z</time>
      </trkpt>
      <trkpt lat="45.3322" lon="5.8082">
        <ele>805.09</ele>
        <time>2020-10-19T13:15:54.000Z</time>
      </trkpt>
      <trkpt lat="45.33197" lon="5.80827">
        <ele>803.77</ele>
        <time>2020-10-19T13:15:59.000Z</time>
      </trkpt>
      <trkpt lat="45.33174" lon="5.80825">
        <ele>806.84</ele>
        <time>2020-10-19T13:16:04.000Z</time>
      </trkpt>
      <trkpt lat="45.33156" lon="5.80824">
        <ele>807.56</ele>
        <time>2020-10-19T13:16:09.000Z</time>
      </trkpt>
      <trkpt lat="45.33141" lon="5.80812">
        <ele>805.61</ele>
        <time>2020-10-19T13:16:14.000Z</time>
      </trkpt>
      <trkpt lat="45.3313" lon="5.80806">
        <ele>804.08</ele>
        <time>2020-10-19T13:16:19.000Z</time>
      </trkpt>
      <trkpt lat="45.33103" lon="5.80783">
        <ele>800.37</ele>
        <time>2020-10-19T13:16:24.000Z</time>
      </trkpt>
      <trkpt lat="45.33093" lon="5.80781">
        <ele>800.75</ele>
        <time>2020-10-19T13:16:29.000Z</time>
      </trkpt>
      <trkpt lat="45.33074" lon="5.80797">
        <ele>801.42</ele>
        <time>2020-10-19T13:16:34.000Z</time>
      </trkpt>
      <trkpt lat="45.33063" lon="5.80808">
        <ele>802.7</ele>
        <time>2020-10-19T13:16:39.000Z</time>
      </trkpt>
      <trkpt lat="45.33048" lon="5.8082">
        <ele>799.64</ele>
        <time>2020-10-19T13:16:44.000Z</time>
      </trkpt>
      <trkpt lat="45.3303" lon="5.80849">
        <ele>797.71</ele>
        <time>2020-10-19T13:16:49.000Z</time>
      </trkpt>
      <trkpt lat="45.33014" lon="5.80845">
        <ele>796.84</ele>
        <time>2020-10-19T13:16:54.000Z</time>
      </trkpt>
      <trkpt lat="45.32999" lon="5.80831">
        <ele>800.03</ele>
        <time>2020-10-19T13:16:59.000Z</time>
      </trkpt>
      <trkpt lat="45.32976" lon="5.80828">
        <ele>808.34</ele>
        <time>2020-10-19T13:17:04.000Z</time>
      </trkpt>
      <trkpt lat="45.32954" lon="5.80824">
        <ele>810.88</ele>
        <time>2020-10-19T13:17:09.000Z</time>
      </trkpt>
      <trkpt lat="45.32935" lon="5.80816">
        <ele>810.63</ele>
        <time>2020-10-19T13:17:14.000Z</time>
      </trkpt>
      <trkpt lat="45.32916" lon="5.80814">
        <ele>812.43</ele>
        <time>2020-10-19T13:17:19.000Z</time>
      </trkpt>
      <trkpt lat="45.32897" lon="5.80806">
        <ele>815.85</ele>
        <time>2020-10-19T13:17:24.000Z</time>
      </trkpt>
      <trkpt lat="45.32877" lon="5.80787">
        <ele>816.74</ele>
        <time>2020-10-19T13:17:29.000Z</time>
      </trkpt>
      <trkpt lat="45.32862" lon="5.80775">
        <ele>818.31</ele>
        <time>2020-10-19T13:17:34.000Z</time>
      </trkpt>
      <trkpt lat="45.32848" lon="5.80755">
        <ele>816.7</ele>
        <time>2020-10-19T13:17:39.000Z</time>
      </trkpt>
      <trkpt lat="45.32832" lon="5.80741">
        <ele>819.26</ele>
        <time>2020-10-19T13:17:44.000Z</time>
      </trkpt>
      <trkpt lat="45.32815" lon="5.80727">
        <ele>826.19</ele>
        <time>2020-10-19T13:17:49.000Z</time>
      </trkpt>
      <trkpt lat="45.32798" lon="5.80712">
        <ele>824.91</ele>
        <time>2020-10-19T13:17:54.000Z</time>
      </trkpt>
      <trkpt lat="45.32781" lon="5.80702">
        <ele>825.09</ele>
        <time>2020-10-19T13:17:59.000Z</time>
      </trkpt>
      <trkpt lat="45.32762" lon="5.80694">
        <ele>824.18</ele>
        <time>2020-10-19T13:18:04.000Z</time>
      </trkpt>
      <trkpt lat="45.32743" lon="5.80689">
        <ele>822.03</ele>
        <time>2020-10-19T13:18:09.000Z</time>
      </trkpt>
      <trkpt lat="45.32724" lon="5.80684">
        <ele>821.25</ele>
        <time>2020-10-19T13:18:14.000Z</time>
      </trkpt>
      <trkpt lat="45.32704" lon="5.80682">
        <ele>823.2</ele>
        <time>2020-10-19T13:18:19.000Z</time>
      </trkpt>
      <trkpt lat="45.32683" lon="5.80687">
        <ele>823.59</ele>
        <time>2020-10-19T13:18:24.000Z</time>
      </trkpt>
      <trkpt lat="45.32663" lon="5.80691">
        <ele>827.71</ele>
        <time>2020-10-19T13:18:29.000Z</time>
      </trkpt>
      <trkpt lat="45.32644" lon="5.80687">
        <ele>826.19</ele>
        <time>2020-10-19T13:18:34.000Z</time>
      </trkpt>
      <trkpt lat="45.32623" lon="5.80688">
        <ele>825.77</ele>
        <time>2020-10-19T13:18:39.000Z</time>
      </trkpt>
      <trkpt lat="45.32604" lon="5.8069">
        <ele>826.27</ele>
        <time>2020-10-19T13:18:44.000Z</time>
      </trkpt>
      <trkpt lat="45.32584" lon="5.80691">
        <ele>828.56</ele>
        <time>2020-10-19T13:18:49.000Z</time>
      </trkpt>
      <trkpt lat="45.32563" lon="5.8069">
        <ele>826.95</ele>
        <time>2020-10-19T13:18:54.000Z</time>
      </trkpt>
      <trkpt lat="45.32542" lon="5.80688">
        <ele>827</ele>
        <time>2020-10-19T13:18:59.000Z</time>
      </trkpt>
      <trkpt lat="45.32524" lon="5.80686">
        <ele>822.85</ele>
        <time>2020-10-19T13:19:04.000Z</time>
      </trkpt>
      <trkpt lat="45.32505" lon="5.80687">
        <ele>823.05</ele>
        <time>2020-10-19T13:19:09.000Z</time>
      </trkpt>
      <trkpt lat="45.32485" lon="5.80686">
        <ele>824.85</ele>
        <time>2020-10-19T13:19:14.000Z</time>
      </trkpt>
      <trkpt lat="45.32465" lon="5.80681">
        <ele>826.69</ele>
        <time>2020-10-19T13:19:19.000Z</time>
      </trkpt>
      <trkpt lat="45.32445" lon="5.80676">
        <ele>827.77</ele>
        <time>2020-10-19T13:19:24.000Z</time>
      </trkpt>
      <trkpt lat="45.32425" lon="5.80667">
        <ele>832.82</ele>
        <time>2020-10-19T13:19:29.000Z</time>
      </trkpt>
      <trkpt lat="45.32403" lon="5.80666">
        <ele>833.32</ele>
        <time>2020-10-19T13:19:34.000Z</time>
      </trkpt>
      <trkpt lat="45.32388" lon="5.8066">
        <ele>833.95</ele>
        <time>2020-10-19T13:19:39.000Z</time>
      </trkpt>
      <trkpt lat="45.32391" lon="5.80646">
        <ele>833.01</ele>
        <time>2020-10-19T13:19:44.000Z</time>
      </trkpt>
      <trkpt lat="45.32388" lon="5.80634">
        <ele>843.7</ele>
        <time>2020-10-19T13:23:32.000Z</time>
      </trkpt>
      <trkpt lat="45.32381" lon="5.80643">
        <ele>855.8</ele>
        <time>2020-10-19T13:23:50.000Z</time>
      </trkpt>
      <trkpt lat="45.32367" lon="5.80654">
        <ele>858.79</ele>
        <time>2020-10-19T13:23:55.000Z</time>
      </trkpt>
      <trkpt lat="45.32349" lon="5.80652">
        <ele>861.85</ele>
        <time>2020-10-19T13:24:00.000Z</time>
      </trkpt>
      <trkpt lat="45.32331" lon="5.80649">
        <ele>866.48</ele>
        <time>2020-10-19T13:24:05.000Z</time>
      </trkpt>
      <trkpt lat="45.32313" lon="5.80647">
        <ele>867.52</ele>
        <time>2020-10-19T13:24:10.000Z</time>
      </trkpt>
      <trkpt lat="45.32295" lon="5.80648">
        <ele>865.56</ele>
        <time>2020-10-19T13:24:15.000Z</time>
      </trkpt>
      <trkpt lat="45.32277" lon="5.80652">
        <ele>862.23</ele>
        <time>2020-10-19T13:24:20.000Z</time>
      </trkpt>
      <trkpt lat="45.3226" lon="5.80652">
        <ele>860.42</ele>
        <time>2020-10-19T13:24:25.000Z</time>
      </trkpt>
      <trkpt lat="45.32242" lon="5.80652">
        <ele>860.72</ele>
        <time>2020-10-19T13:24:30.000Z</time>
      </trkpt>
      <trkpt lat="45.32224" lon="5.80654">
        <ele>860.86</ele>
        <time>2020-10-19T13:24:35.000Z</time>
      </trkpt>
      <trkpt lat="45.32203" lon="5.80654">
        <ele>860.5</ele>
        <time>2020-10-19T13:24:40.000Z</time>
      </trkpt>
      <trkpt lat="45.32185" lon="5.80652">
        <ele>858.5</ele>
        <time>2020-10-19T13:24:45.000Z</time>
      </trkpt>
      <trkpt lat="45.32165" lon="5.80652">
        <ele>857.67</ele>
        <time>2020-10-19T13:24:50.000Z</time>
      </trkpt>
      <trkpt lat="45.32147" lon="5.8065">
        <ele>858.91</ele>
        <time>2020-10-19T13:24:55.000Z</time>
      </trkpt>
      <trkpt lat="45.32127" lon="5.80647">
        <ele>858.2</ele>
        <time>2020-10-19T13:25:00.000Z</time>
      </trkpt>
      <trkpt lat="45.32108" lon="5.80645">
        <ele>858.58</ele>
        <time>2020-10-19T13:25:05.000Z</time>
      </trkpt>
      <trkpt lat="45.32089" lon="5.80646">
        <ele>860.64</ele>
        <time>2020-10-19T13:25:10.000Z</time>
      </trkpt>
      <trkpt lat="45.32068" lon="5.80646">
        <ele>860.05</ele>
        <time>2020-10-19T13:25:15.000Z</time>
      </trkpt>
      <trkpt lat="45.32047" lon="5.80651">
        <ele>857.55</ele>
        <time>2020-10-19T13:25:20.000Z</time>
      </trkpt>
      <trkpt lat="45.32027" lon="5.80653">
        <ele>856.44</ele>
        <time>2020-10-19T13:25:25.000Z</time>
      </trkpt>
      <trkpt lat="45.32006" lon="5.80652">
        <ele>853.72</ele>
        <time>2020-10-19T13:25:30.000Z</time>
      </trkpt>
      <trkpt lat="45.31982" lon="5.80652">
        <ele>852.34</ele>
        <time>2020-10-19T13:25:35.000Z</time>
      </trkpt>
      <trkpt lat="45.31962" lon="5.80654">
        <ele>850.73</ele>
        <time>2020-10-19T13:25:40.000Z</time>
      </trkpt>
      <trkpt lat="45.31942" lon="5.80658">
        <ele>852.72</ele>
        <time>2020-10-19T13:25:45.000Z</time>
      </trkpt>
      <trkpt lat="45.31921" lon="5.80664">
        <ele>854.76</ele>
        <time>2020-10-19T13:25:50.000Z</time>
      </trkpt>
      <trkpt lat="45.31896" lon="5.80664">
        <ele>854.25</ele>
        <time>2020-10-19T13:25:55.000Z</time>
      </trkpt>
      <trkpt lat="45.31869" lon="5.80668">
        <ele>853.93</ele>
        <time>2020-10-19T13:26:00.000Z</time>
      </trkpt>
      <trkpt lat="45.31841" lon="5.8068">
        <ele>853.45</ele>
        <time>2020-10-19T13:26:05.000Z</time>
      </trkpt>
      <trkpt lat="45.3183" lon="5.80719">
        <ele>855.87</ele>
        <time>2020-10-19T13:26:10.000Z</time>
      </trkpt>
      <trkpt lat="45.31828" lon="5.80759">
        <ele>856.9</ele>
        <time>2020-10-19T13:26:15.000Z</time>
      </trkpt>
      <trkpt lat="45.31828" lon="5.80799">
        <ele>855.81</ele>
        <time>2020-10-19T13:26:20.000Z</time>
      </trkpt>
      <trkpt lat="45.31835" lon="5.80835">
        <ele>857.56</ele>
        <time>2020-10-19T13:26:25.000Z</time>
      </trkpt>
      <trkpt lat="45.31855" lon="5.80851">
        <ele>860.08</ele>
        <time>2020-10-19T13:26:30.000Z</time>
      </trkpt>
      <trkpt lat="45.31881" lon="5.80869">
        <ele>867</ele>
        <time>2020-10-19T13:26:35.000Z</time>
      </trkpt>
      <trkpt lat="45.31904" lon="5.80877">
        <ele>864.43</ele>
        <time>2020-10-19T13:26:40.000Z</time>
      </trkpt>
      <trkpt lat="45.31928" lon="5.80881">
        <ele>866.77</ele>
        <time>2020-10-19T13:26:45.000Z</time>
      </trkpt>
      <trkpt lat="45.31942" lon="5.80904">
        <ele>873.87</ele>
        <time>2020-10-19T13:26:50.000Z</time>
      </trkpt>
      <trkpt lat="45.3193" lon="5.80928">
        <ele>876.06</ele>
        <time>2020-10-19T13:26:55.000Z</time>
      </trkpt>
      <trkpt lat="45.31917" lon="5.80935">
        <ele>875.04</ele>
        <time>2020-10-19T13:27:00.000Z</time>
      </trkpt>
      <trkpt lat="45.31909" lon="5.80929">
        <ele>878.02</ele>
        <time>2020-10-19T13:27:06.000Z</time>
      </trkpt>
      <trkpt lat="45.31894" lon="5.80915">
        <ele>879.54</ele>
        <time>2020-10-19T13:27:11.000Z</time>
      </trkpt>
      <trkpt lat="45.31876" lon="5.80904">
        <ele>886.03</ele>
        <time>2020-10-19T13:27:16.000Z</time>
      </trkpt>
      <trkpt lat="45.31865" lon="5.80903">
        <ele>885.36</ele>
        <time>2020-10-19T13:30:21.000Z</time>
      </trkpt>
      <trkpt lat="45.31848" lon="5.80903">
        <ele>887.49</ele>
        <time>2020-10-19T13:30:26.000Z</time>
      </trkpt>
      <trkpt lat="45.3183" lon="5.809">
        <ele>890.59</ele>
        <time>2020-10-19T13:30:31.000Z</time>
      </trkpt>
      <trkpt lat="45.3181" lon="5.80893">
        <ele>889.34</ele>
        <time>2020-10-19T13:30:36.000Z</time>
      </trkpt>
      <trkpt lat="45.31793" lon="5.8089">
        <ele>889.6</ele>
        <time>2020-10-19T13:30:41.000Z</time>
      </trkpt>
      <trkpt lat="45.31777" lon="5.80888">
        <ele>886.28</ele>
        <time>2020-10-19T13:30:46.000Z</time>
      </trkpt>
      <trkpt lat="45.31759" lon="5.80881">
        <ele>889.3</ele>
        <time>2020-10-19T13:30:51.000Z</time>
      </trkpt>
      <trkpt lat="45.31741" lon="5.80875">
        <ele>888.32</ele>
        <time>2020-10-19T13:30:56.000Z</time>
      </trkpt>
      <trkpt lat="45.31725" lon="5.8087">
        <ele>892.06</ele>
        <time>2020-10-19T13:31:01.000Z</time>
      </trkpt>
      <trkpt lat="45.31709" lon="5.80866">
        <ele>891.17</ele>
        <time>2020-10-19T13:31:06.000Z</time>
      </trkpt>
      <trkpt lat="45.31688" lon="5.80867">
        <ele>891.6</ele>
        <time>2020-10-19T13:31:11.000Z</time>
      </trkpt>
      <trkpt lat="45.31668" lon="5.8087">
        <ele>892.85</ele>
        <time>2020-10-19T13:31:16.000Z</time>
      </trkpt>
      <trkpt lat="45.31651" lon="5.80877">
        <ele>891.26</ele>
        <time>2020-10-19T13:31:21.000Z</time>
      </trkpt>
      <trkpt lat="45.31631" lon="5.80883">
        <ele>890.45</ele>
        <time>2020-10-19T13:31:26.000Z</time>
      </trkpt>
      <trkpt lat="45.3161" lon="5.80879">
        <ele>892.24</ele>
        <time>2020-10-19T13:31:31.000Z</time>
      </trkpt>
      <trkpt lat="45.31593" lon="5.80881">
        <ele>897.29</ele>
        <time>2020-10-19T13:31:36.000Z</time>
      </trkpt>
      <trkpt lat="45.31579" lon="5.80893">
        <ele>895.57</ele>
        <time>2020-10-19T13:31:41.000Z</time>
      </trkpt>
      <trkpt lat="45.31563" lon="5.80903">
        <ele>899.09</ele>
        <time>2020-10-19T13:31:46.000Z</time>
      </trkpt>
      <trkpt lat="45.31542" lon="5.80905">
        <ele>895.97</ele>
        <time>2020-10-19T13:31:51.000Z</time>
      </trkpt>
      <trkpt lat="45.31527" lon="5.80912">
        <ele>894.12</ele>
        <time>2020-10-19T13:31:56.000Z</time>
      </trkpt>
      <trkpt lat="45.31512" lon="5.80917">
        <ele>895.53</ele>
        <time>2020-10-19T13:32:01.000Z</time>
      </trkpt>
      <trkpt lat="45.31494" lon="5.80925">
        <ele>894.33</ele>
        <time>2020-10-19T13:32:06.000Z</time>
      </trkpt>
      <trkpt lat="45.31477" lon="5.80937">
        <ele>895.29</ele>
        <time>2020-10-19T13:32:11.000Z</time>
      </trkpt>
      <trkpt lat="45.3146" lon="5.80948">
        <ele>895.63</ele>
        <time>2020-10-19T13:32:16.000Z</time>
      </trkpt>
      <trkpt lat="45.31438" lon="5.80952">
        <ele>897.58</ele>
        <time>2020-10-19T13:32:21.000Z</time>
      </trkpt>
      <trkpt lat="45.31417" lon="5.8095">
        <ele>898.58</ele>
        <time>2020-10-19T13:32:26.000Z</time>
      </trkpt>
      <trkpt lat="45.31395" lon="5.80949">
        <ele>896.43</ele>
        <time>2020-10-19T13:32:31.000Z</time>
      </trkpt>
      <trkpt lat="45.31376" lon="5.80953">
        <ele>895.12</ele>
        <time>2020-10-19T13:32:36.000Z</time>
      </trkpt>
      <trkpt lat="45.31358" lon="5.80955">
        <ele>897.02</ele>
        <time>2020-10-19T13:32:41.000Z</time>
      </trkpt>
      <trkpt lat="45.31343" lon="5.80953">
        <ele>897.07</ele>
        <time>2020-10-19T13:32:46.000Z</time>
      </trkpt>
      <trkpt lat="45.31328" lon="5.80951">
        <ele>896.4</ele>
        <time>2020-10-19T13:32:51.000Z</time>
      </trkpt>
      <trkpt lat="45.31313" lon="5.80955">
        <ele>898.03</ele>
        <time>2020-10-19T13:32:56.000Z</time>
      </trkpt>
      <trkpt lat="45.31298" lon="5.80962">
        <ele>898.27</ele>
        <time>2020-10-19T13:33:01.000Z</time>
      </trkpt>
      <trkpt lat="45.31283" lon="5.80966">
        <ele>897.95</ele>
        <time>2020-10-19T13:33:06.000Z</time>
      </trkpt>
      <trkpt lat="45.31265" lon="5.80969">
        <ele>893.87</ele>
        <time>2020-10-19T13:33:11.000Z</time>
      </trkpt>
      <trkpt lat="45.31249" lon="5.80963">
        <ele>893.83</ele>
        <time>2020-10-19T13:33:16.000Z</time>
      </trkpt>
      <trkpt lat="45.31234" lon="5.80963">
        <ele>893.99</ele>
        <time>2020-10-19T13:33:21.000Z</time>
      </trkpt>
      <trkpt lat="45.3122" lon="5.80965">
        <ele>892.6</ele>
        <time>2020-10-19T13:33:26.000Z</time>
      </trkpt>
      <trkpt lat="45.31202" lon="5.80967">
        <ele>893.25</ele>
        <time>2020-10-19T13:33:31.000Z</time>
      </trkpt>
      <trkpt lat="45.31188" lon="5.8097">
        <ele>893.48</ele>
        <time>2020-10-19T13:33:36.000Z</time>
      </trkpt>
      <trkpt lat="45.31174" lon="5.80975">
        <ele>894.24</ele>
        <time>2020-10-19T13:33:41.000Z</time>
      </trkpt>
      <trkpt lat="45.31155" lon="5.80977">
        <ele>897.63</ele>
        <time>2020-10-19T13:33:46.000Z</time>
      </trkpt>
      <trkpt lat="45.31137" lon="5.80977">
        <ele>902.09</ele>
        <time>2020-10-19T13:33:51.000Z</time>
      </trkpt>
      <trkpt lat="45.3112" lon="5.80979">
        <ele>901.96</ele>
        <time>2020-10-19T13:33:56.000Z</time>
      </trkpt>
      <trkpt lat="45.31104" lon="5.80989">
        <ele>904.17</ele>
        <time>2020-10-19T13:34:01.000Z</time>
      </trkpt>
      <trkpt lat="45.31091" lon="5.81005">
        <ele>905.53</ele>
        <time>2020-10-19T13:34:06.000Z</time>
      </trkpt>
      <trkpt lat="45.3107" lon="5.81014">
        <ele>906.55</ele>
        <time>2020-10-19T13:34:11.000Z</time>
      </trkpt>
      <trkpt lat="45.31036" lon="5.81022">
        <ele>908.83</ele>
        <time>2020-10-19T13:34:16.000Z</time>
      </trkpt>
      <trkpt lat="45.31014" lon="5.8103">
        <ele>912.84</ele>
        <time>2020-10-19T13:34:21.000Z</time>
      </trkpt>
      <trkpt lat="45.30995" lon="5.81037">
        <ele>918.12</ele>
        <time>2020-10-19T13:34:26.000Z</time>
      </trkpt>
      <trkpt lat="45.30978" lon="5.81038">
        <ele>916.45</ele>
        <time>2020-10-19T13:34:31.000Z</time>
      </trkpt>
      <trkpt lat="45.30958" lon="5.81035">
        <ele>909.79</ele>
        <time>2020-10-19T13:34:36.000Z</time>
      </trkpt>
      <trkpt lat="45.30944" lon="5.81041">
        <ele>905.14</ele>
        <time>2020-10-19T13:34:41.000Z</time>
      </trkpt>
      <trkpt lat="45.30929" lon="5.81046">
        <ele>904.92</ele>
        <time>2020-10-19T13:34:46.000Z</time>
      </trkpt>
      <trkpt lat="45.30913" lon="5.81049">
        <ele>904.58</ele>
        <time>2020-10-19T13:34:51.000Z</time>
      </trkpt>
      <trkpt lat="45.30896" lon="5.81058">
        <ele>903.58</ele>
        <time>2020-10-19T13:34:56.000Z</time>
      </trkpt>
      <trkpt lat="45.3088" lon="5.81067">
        <ele>908.47</ele>
        <time>2020-10-19T13:35:01.000Z</time>
      </trkpt>
      <trkpt lat="45.30862" lon="5.81069">
        <ele>912.65</ele>
        <time>2020-10-19T13:35:06.000Z</time>
      </trkpt>
      <trkpt lat="45.30844" lon="5.81069">
        <ele>913.83</ele>
        <time>2020-10-19T13:35:11.000Z</time>
      </trkpt>
      <trkpt lat="45.30828" lon="5.81072">
        <ele>911.44</ele>
        <time>2020-10-19T13:35:16.000Z</time>
      </trkpt>
      <trkpt lat="45.30805" lon="5.81068">
        <ele>911.02</ele>
        <time>2020-10-19T13:35:21.000Z</time>
      </trkpt>
      <trkpt lat="45.30783" lon="5.81064">
        <ele>911.12</ele>
        <time>2020-10-19T13:35:26.000Z</time>
      </trkpt>
      <trkpt lat="45.30765" lon="5.81059">
        <ele>910.3</ele>
        <time>2020-10-19T13:35:31.000Z</time>
      </trkpt>
      <trkpt lat="45.30754" lon="5.81059">
        <ele>910.13</ele>
        <time>2020-10-19T13:35:36.000Z</time>
      </trkpt>
      <trkpt lat="45.30743" lon="5.81061">
        <ele>914.54</ele>
        <time>2020-10-19T13:35:41.000Z</time>
      </trkpt>
      <trkpt lat="45.30735" lon="5.81065">
        <ele>917.58</ele>
        <time>2020-10-19T13:35:46.000Z</time>
      </trkpt>
      <trkpt lat="45.30724" lon="5.81061">
        <ele>921.45</ele>
        <time>2020-10-19T13:35:51.000Z</time>
      </trkpt>
      <trkpt lat="45.30699" lon="5.81051">
        <ele>921.2</ele>
        <time>2020-10-19T13:35:56.000Z</time>
      </trkpt>
      <trkpt lat="45.30672" lon="5.81053">
        <ele>921.4</ele>
        <time>2020-10-19T13:36:01.000Z</time>
      </trkpt>
      <trkpt lat="45.30651" lon="5.81057">
        <ele>922.73</ele>
        <time>2020-10-19T13:36:06.000Z</time>
      </trkpt>
      <trkpt lat="45.30631" lon="5.81061">
        <ele>923.84</ele>
        <time>2020-10-19T13:36:11.000Z</time>
      </trkpt>
      <trkpt lat="45.30617" lon="5.81077">
        <ele>924.1</ele>
        <time>2020-10-19T13:36:16.000Z</time>
      </trkpt>
      <trkpt lat="45.306" lon="5.8109">
        <ele>923.41</ele>
        <time>2020-10-19T13:36:21.000Z</time>
      </trkpt>
      <trkpt lat="45.30581" lon="5.81095">
        <ele>923.28</ele>
        <time>2020-10-19T13:36:26.000Z</time>
      </trkpt>
      <trkpt lat="45.30565" lon="5.8109">
        <ele>923.38</ele>
        <time>2020-10-19T13:36:31.000Z</time>
      </trkpt>
      <trkpt lat="45.30552" lon="5.81072">
        <ele>924.38</ele>
        <time>2020-10-19T13:36:36.000Z</time>
      </trkpt>
      <trkpt lat="45.30538" lon="5.81063">
        <ele>923.11</ele>
        <time>2020-10-19T13:36:41.000Z</time>
      </trkpt>
      <trkpt lat="45.3052" lon="5.81072">
        <ele>921.89</ele>
        <time>2020-10-19T13:36:46.000Z</time>
      </trkpt>
      <trkpt lat="45.30478" lon="5.81077">
        <ele>925.6</ele>
        <time>2020-10-19T13:36:51.000Z</time>
      </trkpt>
      <trkpt lat="45.30457" lon="5.81084">
        <ele>928.41</ele>
        <time>2020-10-19T13:36:56.000Z</time>
      </trkpt>
      <trkpt lat="45.30445" lon="5.81086">
        <ele>932.72</ele>
        <time>2020-10-19T13:37:01.000Z</time>
      </trkpt>
      <trkpt lat="45.30445" lon="5.81073">
        <ele>948.27</ele>
        <time>2020-10-19T13:37:10.000Z</time>
      </trkpt>
      <trkpt lat="45.30435" lon="5.81072">
        <ele>960.9</ele>
        <time>2020-10-19T13:38:14.000Z</time>
      </trkpt>
      <trkpt lat="45.30417" lon="5.81065">
        <ele>961.08</ele>
        <time>2020-10-19T13:38:19.000Z</time>
      </trkpt>
      <trkpt lat="45.30404" lon="5.81056">
        <ele>959.33</ele>
        <time>2020-10-19T13:38:24.000Z</time>
      </trkpt>
      <trkpt lat="45.30388" lon="5.81057">
        <ele>953.18</ele>
        <time>2020-10-19T13:38:29.000Z</time>
      </trkpt>
      <trkpt lat="45.30373" lon="5.81056">
        <ele>951.23</ele>
        <time>2020-10-19T13:38:34.000Z</time>
      </trkpt>
      <trkpt lat="45.30355" lon="5.81047">
        <ele>949.33</ele>
        <time>2020-10-19T13:38:39.000Z</time>
      </trkpt>
      <trkpt lat="45.30338" lon="5.81045">
        <ele>948.07</ele>
        <time>2020-10-19T13:38:44.000Z</time>
      </trkpt>
      <trkpt lat="45.3032" lon="5.81035">
        <ele>942.33</ele>
        <time>2020-10-19T13:38:49.000Z</time>
      </trkpt>
      <trkpt lat="45.30297" lon="5.81029">
        <ele>944.32</ele>
        <time>2020-10-19T13:38:54.000Z</time>
      </trkpt>
      <trkpt lat="45.30274" lon="5.81024">
        <ele>948.54</ele>
        <time>2020-10-19T13:38:59.000Z</time>
      </trkpt>
      <trkpt lat="45.30256" lon="5.81018">
        <ele>955.32</ele>
        <time>2020-10-19T13:39:04.000Z</time>
      </trkpt>
      <trkpt lat="45.3024" lon="5.81016">
        <ele>955.13</ele>
        <time>2020-10-19T13:39:09.000Z</time>
      </trkpt>
      <trkpt lat="45.30223" lon="5.81005">
        <ele>956.48</ele>
        <time>2020-10-19T13:39:14.000Z</time>
      </trkpt>
      <trkpt lat="45.30206" lon="5.80998">
        <ele>959.58</ele>
        <time>2020-10-19T13:39:19.000Z</time>
      </trkpt>
      <trkpt lat="45.30189" lon="5.80996">
        <ele>962.04</ele>
        <time>2020-10-19T13:39:24.000Z</time>
      </trkpt>
      <trkpt lat="45.30171" lon="5.80992">
        <ele>966.52</ele>
        <time>2020-10-19T13:39:29.000Z</time>
      </trkpt>
      <trkpt lat="45.30134" lon="5.80999">
        <ele>970.8</ele>
        <time>2020-10-19T13:39:34.000Z</time>
      </trkpt>
      <trkpt lat="45.30103" lon="5.81004">
        <ele>976.17</ele>
        <time>2020-10-19T13:39:39.000Z</time>
      </trkpt>
      <trkpt lat="45.3009" lon="5.80987">
        <ele>979.21</ele>
        <time>2020-10-19T13:39:44.000Z</time>
      </trkpt>
      <trkpt lat="45.30078" lon="5.80975">
        <ele>984.07</ele>
        <time>2020-10-19T13:39:49.000Z</time>
      </trkpt>
      <trkpt lat="45.30067" lon="5.80973">
        <ele>985.16</ele>
        <time>2020-10-19T13:39:54.000Z</time>
      </trkpt>
      <trkpt lat="45.3005" lon="5.80973">
        <ele>989.5</ele>
        <time>2020-10-19T13:39:59.000Z</time>
      </trkpt>
      <trkpt lat="45.30032" lon="5.80971">
        <ele>987.16</ele>
        <time>2020-10-19T13:40:04.000Z</time>
      </trkpt>
      <trkpt lat="45.30014" lon="5.80974">
        <ele>986.94</ele>
        <time>2020-10-19T13:40:09.000Z</time>
      </trkpt>
      <trkpt lat="45.29996" lon="5.80979">
        <ele>989.27</ele>
        <time>2020-10-19T13:40:14.000Z</time>
      </trkpt>
      <trkpt lat="45.29983" lon="5.80959">
        <ele>990.43</ele>
        <time>2020-10-19T13:40:19.000Z</time>
      </trkpt>
      <trkpt lat="45.29969" lon="5.80948">
        <ele>994</ele>
        <time>2020-10-19T13:40:24.000Z</time>
      </trkpt>
      <trkpt lat="45.29947" lon="5.80953">
        <ele>991.73</ele>
        <time>2020-10-19T13:40:29.000Z</time>
      </trkpt>
      <trkpt lat="45.29937" lon="5.80955">
        <ele>986.63</ele>
        <time>2020-10-19T13:40:34.000Z</time>
      </trkpt>
      <trkpt lat="45.29924" lon="5.80956">
        <ele>984.46</ele>
        <time>2020-10-19T13:40:39.000Z</time>
      </trkpt>
      <trkpt lat="45.29905" lon="5.80962">
        <ele>984.64</ele>
        <time>2020-10-19T13:40:44.000Z</time>
      </trkpt>
      <trkpt lat="45.29891" lon="5.80969">
        <ele>985.29</ele>
        <time>2020-10-19T13:40:49.000Z</time>
      </trkpt>
      <trkpt lat="45.29873" lon="5.80974">
        <ele>986.19</ele>
        <time>2020-10-19T13:40:54.000Z</time>
      </trkpt>
      <trkpt lat="45.29858" lon="5.80981">
        <ele>983.92</ele>
        <time>2020-10-19T13:40:59.000Z</time>
      </trkpt>
      <trkpt lat="45.29837" lon="5.80988">
        <ele>984.63</ele>
        <time>2020-10-19T13:41:04.000Z</time>
      </trkpt>
      <trkpt lat="45.29817" lon="5.80995">
        <ele>981.85</ele>
        <time>2020-10-19T13:41:09.000Z</time>
      </trkpt>
      <trkpt lat="45.29794" lon="5.81003">
        <ele>986.43</ele>
        <time>2020-10-19T13:41:14.000Z</time>
      </trkpt>
      <trkpt lat="45.29777" lon="5.81005">
        <ele>986.8</ele>
        <time>2020-10-19T13:41:19.000Z</time>
      </trkpt>
      <trkpt lat="45.29769" lon="5.80996">
        <ele>988.37</ele>
        <time>2020-10-19T13:41:25.000Z</time>
      </trkpt>
      <trkpt lat="45.29752" lon="5.81">
        <ele>988.2</ele>
        <time>2020-10-19T13:41:30.000Z</time>
      </trkpt>
      <trkpt lat="45.2974" lon="5.81001">
        <ele>987.25</ele>
        <time>2020-10-19T13:41:35.000Z</time>
      </trkpt>
      <trkpt lat="45.29722" lon="5.80997">
        <ele>990.07</ele>
        <time>2020-10-19T13:41:40.000Z</time>
      </trkpt>
      <trkpt lat="45.29703" lon="5.80993">
        <ele>988.36</ele>
        <time>2020-10-19T13:41:45.000Z</time>
      </trkpt>
      <trkpt lat="45.29689" lon="5.80991">
        <ele>991.11</ele>
        <time>2020-10-19T13:41:50.000Z</time>
      </trkpt>
      <trkpt lat="45.29667" lon="5.80996">
        <ele>992.59</ele>
        <time>2020-10-19T13:41:55.000Z</time>
      </trkpt>
      <trkpt lat="45.29648" lon="5.80986">
        <ele>994.36</ele>
        <time>2020-10-19T13:42:00.000Z</time>
      </trkpt>
      <trkpt lat="45.29641" lon="5.80972">
        <ele>1005.23</ele>
        <time>2020-10-19T13:42:35.000Z</time>
      </trkpt>
      <trkpt lat="45.29618" lon="5.80968">
        <ele>1013.54</ele>
        <time>2020-10-19T13:42:40.000Z</time>
      </trkpt>
      <trkpt lat="45.29602" lon="5.80967">
        <ele>1015.06</ele>
        <time>2020-10-19T13:42:45.000Z</time>
      </trkpt>
      <trkpt lat="45.29587" lon="5.80958">
        <ele>1016.08</ele>
        <time>2020-10-19T13:42:50.000Z</time>
      </trkpt>
      <trkpt lat="45.29576" lon="5.80948">
        <ele>1016.01</ele>
        <time>2020-10-19T13:42:55.000Z</time>
      </trkpt>
      <trkpt lat="45.29559" lon="5.8094">
        <ele>1011.71</ele>
        <time>2020-10-19T13:43:00.000Z</time>
      </trkpt>
      <trkpt lat="45.29544" lon="5.80939">
        <ele>1012.17</ele>
        <time>2020-10-19T13:43:05.000Z</time>
      </trkpt>
      <trkpt lat="45.29526" lon="5.80953">
        <ele>1015.84</ele>
        <time>2020-10-19T13:43:10.000Z</time>
      </trkpt>
      <trkpt lat="45.29513" lon="5.80948">
        <ele>1012.71</ele>
        <time>2020-10-19T13:43:15.000Z</time>
      </trkpt>
      <trkpt lat="45.29503" lon="5.80934">
        <ele>1010.57</ele>
        <time>2020-10-19T13:43:20.000Z</time>
      </trkpt>
      <trkpt lat="45.29492" lon="5.80932">
        <ele>1008.77</ele>
        <time>2020-10-19T13:43:25.000Z</time>
      </trkpt>
      <trkpt lat="45.29483" lon="5.80924">
        <ele>1007.03</ele>
        <time>2020-10-19T13:43:30.000Z</time>
      </trkpt>
      <trkpt lat="45.2947" lon="5.80921">
        <ele>1007.24</ele>
        <time>2020-10-19T13:43:35.000Z</time>
      </trkpt>
      <trkpt lat="45.29454" lon="5.80928">
        <ele>1012.64</ele>
        <time>2020-10-19T13:43:40.000Z</time>
      </trkpt>
      <trkpt lat="45.29438" lon="5.80943">
        <ele>1008.33</ele>
        <time>2020-10-19T13:43:45.000Z</time>
      </trkpt>
      <trkpt lat="45.29421" lon="5.80948">
        <ele>1008.63</ele>
        <time>2020-10-19T13:43:50.000Z</time>
      </trkpt>
      <trkpt lat="45.29408" lon="5.80952">
        <ele>1011.25</ele>
        <time>2020-10-19T13:43:55.000Z</time>
      </trkpt>
      <trkpt lat="45.29392" lon="5.80953">
        <ele>1014.93</ele>
        <time>2020-10-19T13:44:00.000Z</time>
      </trkpt>
      <trkpt lat="45.2938" lon="5.80958">
        <ele>1012.4</ele>
        <time>2020-10-19T13:44:05.000Z</time>
      </trkpt>
      <trkpt lat="45.29368" lon="5.80964">
        <ele>1014.11</ele>
        <time>2020-10-19T13:44:10.000Z</time>
      </trkpt>
      <trkpt lat="45.29354" lon="5.8097">
        <ele>1014.91</ele>
        <time>2020-10-19T13:44:15.000Z</time>
      </trkpt>
      <trkpt lat="45.29342" lon="5.80976">
        <ele>1016.73</ele>
        <time>2020-10-19T13:44:20.000Z</time>
      </trkpt>
      <trkpt lat="45.29325" lon="5.80982">
        <ele>1021.22</ele>
        <time>2020-10-19T13:44:25.000Z</time>
      </trkpt>
      <trkpt lat="45.29312" lon="5.80991">
        <ele>1023.09</ele>
        <time>2020-10-19T13:44:30.000Z</time>
      </trkpt>
      <trkpt lat="45.29298" lon="5.80994">
        <ele>1024.49</ele>
        <time>2020-10-19T13:44:35.000Z</time>
      </trkpt>
      <trkpt lat="45.29281" lon="5.80995">
        <ele>1025.01</ele>
        <time>2020-10-19T13:44:40.000Z</time>
      </trkpt>
      <trkpt lat="45.29263" lon="5.80995">
        <ele>1026.7</ele>
        <time>2020-10-19T13:44:45.000Z</time>
      </trkpt>
      <trkpt lat="45.29254" lon="5.81003">
        <ele>1031.29</ele>
        <time>2020-10-19T13:44:50.000Z</time>
      </trkpt>
      <trkpt lat="45.29246" lon="5.81012">
        <ele>1032.75</ele>
        <time>2020-10-19T13:44:55.000Z</time>
      </trkpt>
      <trkpt lat="45.29233" lon="5.81018">
        <ele>1034.25</ele>
        <time>2020-10-19T13:45:00.000Z</time>
      </trkpt>
      <trkpt lat="45.29216" lon="5.8101">
        <ele>1038.21</ele>
        <time>2020-10-19T13:45:05.000Z</time>
      </trkpt>
      <trkpt lat="45.29201" lon="5.81003">
        <ele>1036.92</ele>
        <time>2020-10-19T13:45:10.000Z</time>
      </trkpt>
      <trkpt lat="45.2919" lon="5.80993">
        <ele>1042.23</ele>
        <time>2020-10-19T13:45:15.000Z</time>
      </trkpt>
      <trkpt lat="45.29178" lon="5.80978">
        <ele>1042.42</ele>
        <time>2020-10-19T13:45:20.000Z</time>
      </trkpt>
      <trkpt lat="45.29168" lon="5.80965">
        <ele>1043.18</ele>
        <time>2020-10-19T13:45:25.000Z</time>
      </trkpt>
      <trkpt lat="45.29159" lon="5.80954">
        <ele>1042.23</ele>
        <time>2020-10-19T13:45:30.000Z</time>
      </trkpt>
      <trkpt lat="45.29151" lon="5.80945">
        <ele>1039.83</ele>
        <time>2020-10-19T13:45:35.000Z</time>
      </trkpt>
      <trkpt lat="45.29144" lon="5.80931">
        <ele>1038.03</ele>
        <time>2020-10-19T13:45:40.000Z</time>
      </trkpt>
      <trkpt lat="45.29135" lon="5.80905">
        <ele>1038.54</ele>
        <time>2020-10-19T13:45:45.000Z</time>
      </trkpt>
      <trkpt lat="45.29129" lon="5.80881">
        <ele>1037.92</ele>
        <time>2020-10-19T13:45:50.000Z</time>
      </trkpt>
      <trkpt lat="45.29117" lon="5.80865">
        <ele>1037.48</ele>
        <time>2020-10-19T13:45:55.000Z</time>
      </trkpt>
      <trkpt lat="45.29106" lon="5.80854">
        <ele>1036.6</ele>
        <time>2020-10-19T13:46:00.000Z</time>
      </trkpt>
      <trkpt lat="45.29093" lon="5.80843">
        <ele>1036.57</ele>
        <time>2020-10-19T13:46:05.000Z</time>
      </trkpt>
      <trkpt lat="45.29091" lon="5.80824">
        <ele>1035.1</ele>
        <time>2020-10-19T13:46:10.000Z</time>
      </trkpt>
      <trkpt lat="45.29089" lon="5.80803">
        <ele>1033.67</ele>
        <time>2020-10-19T13:46:15.000Z</time>
      </trkpt>
      <trkpt lat="45.29085" lon="5.80788">
        <ele>1031.91</ele>
        <time>2020-10-19T13:46:20.000Z</time>
      </trkpt>
      <trkpt lat="45.29077" lon="5.80768">
        <ele>1030.83</ele>
        <time>2020-10-19T13:46:25.000Z</time>
      </trkpt>
      <trkpt lat="45.29071" lon="5.80749">
        <ele>1032.75</ele>
        <time>2020-10-19T13:46:30.000Z</time>
      </trkpt>
      <trkpt lat="45.29061" lon="5.80733">
        <ele>1036.58</ele>
        <time>2020-10-19T13:46:35.000Z</time>
      </trkpt>
      <trkpt lat="45.29052" lon="5.80716">
        <ele>1037.88</ele>
        <time>2020-10-19T13:46:40.000Z</time>
      </trkpt>
      <trkpt lat="45.29045" lon="5.807">
        <ele>1037.13</ele>
        <time>2020-10-19T13:46:45.000Z</time>
      </trkpt>
      <trkpt lat="45.29037" lon="5.80688">
        <ele>1039.09</ele>
        <time>2020-10-19T13:46:50.000Z</time>
      </trkpt>
      <trkpt lat="45.29028" lon="5.80675">
        <ele>1037.3</ele>
        <time>2020-10-19T13:46:55.000Z</time>
      </trkpt>
      <trkpt lat="45.2902" lon="5.80662">
        <ele>1040.8</ele>
        <time>2020-10-19T13:47:00.000Z</time>
      </trkpt>
      <trkpt lat="45.29018" lon="5.80644">
        <ele>1047.11</ele>
        <time>2020-10-19T13:47:05.000Z</time>
      </trkpt>
      <trkpt lat="45.29022" lon="5.80625">
        <ele>1050.84</ele>
        <time>2020-10-19T13:47:10.000Z</time>
      </trkpt>
      <trkpt lat="45.29022" lon="5.80607">
        <ele>1054.85</ele>
        <time>2020-10-19T13:47:15.000Z</time>
      </trkpt>
      <trkpt lat="45.29013" lon="5.80587">
        <ele>1067.05</ele>
        <time>2020-10-19T13:47:20.000Z</time>
      </trkpt>
      <trkpt lat="45.28998" lon="5.80572">
        <ele>1074.05</ele>
        <time>2020-10-19T13:47:25.000Z</time>
      </trkpt>
      <trkpt lat="45.28977" lon="5.80563">
        <ele>1083.24</ele>
        <time>2020-10-19T13:47:30.000Z</time>
      </trkpt>
      <trkpt lat="45.28969" lon="5.80556">
        <ele>1090.38</ele>
        <time>2020-10-19T13:47:38.000Z</time>
      </trkpt>
      <trkpt lat="45.28962" lon="5.80564">
        <ele>1107.68</ele>
        <time>2020-10-19T13:51:23.000Z</time>
      </trkpt>
      <trkpt lat="45.28953" lon="5.80571">
        <ele>1107.29</ele>
        <time>2020-10-19T13:51:35.000Z</time>
      </trkpt>
      <trkpt lat="45.28945" lon="5.80586">
        <ele>1108.48</ele>
        <time>2020-10-19T13:51:40.000Z</time>
      </trkpt>
      <trkpt lat="45.28941" lon="5.80604">
        <ele>1113.85</ele>
        <time>2020-10-19T13:51:45.000Z</time>
      </trkpt>
      <trkpt lat="45.2894" lon="5.80621">
        <ele>1114.84</ele>
        <time>2020-10-19T13:51:50.000Z</time>
      </trkpt>
      <trkpt lat="45.28934" lon="5.80633">
        <ele>1118.66</ele>
        <time>2020-10-19T13:51:55.000Z</time>
      </trkpt>
      <trkpt lat="45.28924" lon="5.80644">
        <ele>1114.42</ele>
        <time>2020-10-19T13:52:00.000Z</time>
      </trkpt>
      <trkpt lat="45.28914" lon="5.8066">
        <ele>1120.02</ele>
        <time>2020-10-19T13:52:05.000Z</time>
      </trkpt>
      <trkpt lat="45.28916" lon="5.80679">
        <ele>1123.16</ele>
        <time>2020-10-19T13:52:10.000Z</time>
      </trkpt>
      <trkpt lat="45.2893" lon="5.80693">
        <ele>1129.46</ele>
        <time>2020-10-19T13:52:15.000Z</time>
      </trkpt>
      <trkpt lat="45.28945" lon="5.80706">
        <ele>1137.3</ele>
        <time>2020-10-19T13:52:20.000Z</time>
      </trkpt>
      <trkpt lat="45.2896" lon="5.80718">
        <ele>1142.75</ele>
        <time>2020-10-19T13:52:25.000Z</time>
      </trkpt>
      <trkpt lat="45.28972" lon="5.80731">
        <ele>1148.9</ele>
        <time>2020-10-19T13:52:30.000Z</time>
      </trkpt>
      <trkpt lat="45.28984" lon="5.80752">
        <ele>1156.53</ele>
        <time>2020-10-19T13:52:35.000Z</time>
      </trkpt>
      <trkpt lat="45.28992" lon="5.80772">
        <ele>1164.28</ele>
        <time>2020-10-19T13:52:40.000Z</time>
      </trkpt>
      <trkpt lat="45.29011" lon="5.80803">
        <ele>1168.95</ele>
        <time>2020-10-19T13:52:45.000Z</time>
      </trkpt>
      <trkpt lat="45.29022" lon="5.80837">
        <ele>1163.28</ele>
        <time>2020-10-19T13:52:50.000Z</time>
      </trkpt>
      <trkpt lat="45.29015" lon="5.80869">
        <ele>1161.56</ele>
        <time>2020-10-19T13:52:55.000Z</time>
      </trkpt>
      <trkpt lat="45.29008" lon="5.80902">
        <ele>1162.55</ele>
        <time>2020-10-19T13:53:00.000Z</time>
      </trkpt>
      <trkpt lat="45.2901" lon="5.80932">
        <ele>1171.35</ele>
        <time>2020-10-19T13:53:05.000Z</time>
      </trkpt>
      <trkpt lat="45.29023" lon="5.80965">
        <ele>1173.01</ele>
        <time>2020-10-19T13:53:10.000Z</time>
      </trkpt>
      <trkpt lat="45.29009" lon="5.80988">
        <ele>1178.5</ele>
        <time>2020-10-19T13:53:15.000Z</time>
      </trkpt>
      <trkpt lat="45.29008" lon="5.81008">
        <ele>1184.19</ele>
        <time>2020-10-19T13:53:20.000Z</time>
      </trkpt>
      <trkpt lat="45.29003" lon="5.81028">
        <ele>1188.05</ele>
        <time>2020-10-19T13:53:25.000Z</time>
      </trkpt>
      <trkpt lat="45.28982" lon="5.81058">
        <ele>1193.41</ele>
        <time>2020-10-19T13:53:30.000Z</time>
      </trkpt>
      <trkpt lat="45.28965" lon="5.81081">
        <ele>1196.39</ele>
        <time>2020-10-19T13:53:37.000Z</time>
      </trkpt>
      <trkpt lat="45.28947" lon="5.81083">
        <ele>1200.29</ele>
        <time>2020-10-19T13:53:42.000Z</time>
      </trkpt>
      <trkpt lat="45.28928" lon="5.81087">
        <ele>1202.89</ele>
        <time>2020-10-19T13:53:47.000Z</time>
      </trkpt>
      <trkpt lat="45.28906" lon="5.81095">
        <ele>1208.13</ele>
        <time>2020-10-19T13:53:52.000Z</time>
      </trkpt>
      <trkpt lat="45.28892" lon="5.81113">
        <ele>1208.32</ele>
        <time>2020-10-19T13:53:57.000Z</time>
      </trkpt>
      <trkpt lat="45.28885" lon="5.81132">
        <ele>1210.5</ele>
        <time>2020-10-19T13:54:02.000Z</time>
      </trkpt>
      <trkpt lat="45.28877" lon="5.81161">
        <ele>1214.04</ele>
        <time>2020-10-19T13:54:08.000Z</time>
      </trkpt>
      <trkpt lat="45.2887" lon="5.81182">
        <ele>1215.83</ele>
        <time>2020-10-19T13:54:13.000Z</time>
      </trkpt>
      <trkpt lat="45.28858" lon="5.81202">
        <ele>1219.1</ele>
        <time>2020-10-19T13:54:18.000Z</time>
      </trkpt>
      <trkpt lat="45.28855" lon="5.81226">
        <ele>1221.65</ele>
        <time>2020-10-19T13:54:23.000Z</time>
      </trkpt>
      <trkpt lat="45.28852" lon="5.81242">
        <ele>1221.19</ele>
        <time>2020-10-19T13:54:28.000Z</time>
      </trkpt>
      <trkpt lat="45.28843" lon="5.81256">
        <ele>1222.69</ele>
        <time>2020-10-19T13:54:33.000Z</time>
      </trkpt>
      <trkpt lat="45.28829" lon="5.81269">
        <ele>1222.18</ele>
        <time>2020-10-19T13:54:38.000Z</time>
      </trkpt>
      <trkpt lat="45.28819" lon="5.81284">
        <ele>1223.8</ele>
        <time>2020-10-19T13:54:43.000Z</time>
      </trkpt>
      <trkpt lat="45.28809" lon="5.81296">
        <ele>1225.67</ele>
        <time>2020-10-19T13:54:48.000Z</time>
      </trkpt>
      <trkpt lat="45.28799" lon="5.81308">
        <ele>1229.9</ele>
        <time>2020-10-19T13:54:53.000Z</time>
      </trkpt>
      <trkpt lat="45.28789" lon="5.81322">
        <ele>1235.24</ele>
        <time>2020-10-19T13:54:58.000Z</time>
      </trkpt>
      <trkpt lat="45.28785" lon="5.81339">
        <ele>1235.99</ele>
        <time>2020-10-19T13:55:03.000Z</time>
      </trkpt>
      <trkpt lat="45.2878" lon="5.81357">
        <ele>1239.84</ele>
        <time>2020-10-19T13:55:08.000Z</time>
      </trkpt>
      <trkpt lat="45.28772" lon="5.81381">
        <ele>1242.25</ele>
        <time>2020-10-19T13:55:13.000Z</time>
      </trkpt>
      <trkpt lat="45.28766" lon="5.81403">
        <ele>1244.8</ele>
        <time>2020-10-19T13:55:18.000Z</time>
      </trkpt>
      <trkpt lat="45.2876" lon="5.8142">
        <ele>1250.28</ele>
        <time>2020-10-19T13:55:23.000Z</time>
      </trkpt>
      <trkpt lat="45.28748" lon="5.81429">
        <ele>1252.2</ele>
        <time>2020-10-19T13:55:28.000Z</time>
      </trkpt>
      <trkpt lat="45.28736" lon="5.81433">
        <ele>1253.13</ele>
        <time>2020-10-19T13:55:33.000Z</time>
      </trkpt>
      <trkpt lat="45.2872" lon="5.81443">
        <ele>1251.83</ele>
        <time>2020-10-19T13:55:38.000Z</time>
      </trkpt>
      <trkpt lat="45.28705" lon="5.81456">
        <ele>1252.09</ele>
        <time>2020-10-19T13:55:43.000Z</time>
      </trkpt>
      <trkpt lat="45.28691" lon="5.81472">
        <ele>1251.03</ele>
        <time>2020-10-19T13:55:48.000Z</time>
      </trkpt>
      <trkpt lat="45.28677" lon="5.81487">
        <ele>1249.03</ele>
        <time>2020-10-19T13:55:53.000Z</time>
      </trkpt>
      <trkpt lat="45.28675" lon="5.81505">
        <ele>1250</ele>
        <time>2020-10-19T13:55:58.000Z</time>
      </trkpt>
      <trkpt lat="45.28681" lon="5.81531">
        <ele>1251.52</ele>
        <time>2020-10-19T13:56:03.000Z</time>
      </trkpt>
      <trkpt lat="45.2869" lon="5.81553">
        <ele>1253.19</ele>
        <time>2020-10-19T13:56:08.000Z</time>
      </trkpt>
      <trkpt lat="45.28704" lon="5.8157">
        <ele>1253.98</ele>
        <time>2020-10-19T13:56:13.000Z</time>
      </trkpt>
      <trkpt lat="45.28717" lon="5.81583">
        <ele>1258.38</ele>
        <time>2020-10-19T13:56:18.000Z</time>
      </trkpt>
      <trkpt lat="45.28728" lon="5.81598">
        <ele>1261.85</ele>
        <time>2020-10-19T13:56:23.000Z</time>
      </trkpt>
      <trkpt lat="45.28738" lon="5.81615">
        <ele>1263.62</ele>
        <time>2020-10-19T13:56:28.000Z</time>
      </trkpt>
      <trkpt lat="45.2875" lon="5.81636">
        <ele>1266.93</ele>
        <time>2020-10-19T13:56:33.000Z</time>
      </trkpt>
      <trkpt lat="45.2876" lon="5.8165">
        <ele>1269.99</ele>
        <time>2020-10-19T13:56:38.000Z</time>
      </trkpt>
      <trkpt lat="45.28772" lon="5.81662">
        <ele>1271.83</ele>
        <time>2020-10-19T13:56:43.000Z</time>
      </trkpt>
      <trkpt lat="45.28784" lon="5.81667">
        <ele>1274.35</ele>
        <time>2020-10-19T13:56:48.000Z</time>
      </trkpt>
      <trkpt lat="45.28799" lon="5.8166">
        <ele>1275.55</ele>
        <time>2020-10-19T13:56:53.000Z</time>
      </trkpt>
      <trkpt lat="45.28813" lon="5.81657">
        <ele>1279.42</ele>
        <time>2020-10-19T13:56:58.000Z</time>
      </trkpt>
      <trkpt lat="45.28829" lon="5.81658">
        <ele>1279.76</ele>
        <time>2020-10-19T13:57:03.000Z</time>
      </trkpt>
      <trkpt lat="45.28843" lon="5.81663">
        <ele>1282.07</ele>
        <time>2020-10-19T13:57:08.000Z</time>
      </trkpt>
      <trkpt lat="45.28854" lon="5.81673">
        <ele>1283.65</ele>
        <time>2020-10-19T13:57:13.000Z</time>
      </trkpt>
      <trkpt lat="45.28869" lon="5.81687">
        <ele>1283.86</ele>
        <time>2020-10-19T13:57:18.000Z</time>
      </trkpt>
      <trkpt lat="45.28883" lon="5.81708">
        <ele>1285.35</ele>
        <time>2020-10-19T13:57:23.000Z</time>
      </trkpt>
      <trkpt lat="45.28899" lon="5.81726">
        <ele>1286.32</ele>
        <time>2020-10-19T13:57:28.000Z</time>
      </trkpt>
      <trkpt lat="45.28915" lon="5.81735">
        <ele>1287.12</ele>
        <time>2020-10-19T13:57:33.000Z</time>
      </trkpt>
      <trkpt lat="45.28933" lon="5.81738">
        <ele>1287.78</ele>
        <time>2020-10-19T13:57:38.000Z</time>
      </trkpt>
      <trkpt lat="45.28956" lon="5.81736">
        <ele>1289.52</ele>
        <time>2020-10-19T13:57:43.000Z</time>
      </trkpt>
      <trkpt lat="45.28971" lon="5.81727">
        <ele>1290.39</ele>
        <time>2020-10-19T13:57:48.000Z</time>
      </trkpt>
      <trkpt lat="45.28995" lon="5.8172">
        <ele>1288.74</ele>
        <time>2020-10-19T13:57:53.000Z</time>
      </trkpt>
      <trkpt lat="45.29015" lon="5.81711">
        <ele>1283.89</ele>
        <time>2020-10-19T13:57:58.000Z</time>
      </trkpt>
      <trkpt lat="45.29019" lon="5.8169">
        <ele>1287.21</ele>
        <time>2020-10-19T13:58:03.000Z</time>
      </trkpt>
      <trkpt lat="45.29032" lon="5.81672">
        <ele>1288.67</ele>
        <time>2020-10-19T13:58:08.000Z</time>
      </trkpt>
      <trkpt lat="45.29048" lon="5.81658">
        <ele>1290.52</ele>
        <time>2020-10-19T13:58:13.000Z</time>
      </trkpt>
      <trkpt lat="45.29067" lon="5.81651">
        <ele>1291.89</ele>
        <time>2020-10-19T13:58:18.000Z</time>
      </trkpt>
      <trkpt lat="45.29085" lon="5.81648">
        <ele>1290.71</ele>
        <time>2020-10-19T13:58:23.000Z</time>
      </trkpt>
      <trkpt lat="45.29104" lon="5.8163">
        <ele>1285.94</ele>
        <time>2020-10-19T13:58:28.000Z</time>
      </trkpt>
      <trkpt lat="45.29121" lon="5.81619">
        <ele>1283.44</ele>
        <time>2020-10-19T13:58:33.000Z</time>
      </trkpt>
      <trkpt lat="45.29138" lon="5.81601">
        <ele>1288.79</ele>
        <time>2020-10-19T13:58:38.000Z</time>
      </trkpt>
      <trkpt lat="45.29156" lon="5.81596">
        <ele>1292</ele>
        <time>2020-10-19T13:58:43.000Z</time>
      </trkpt>
      <trkpt lat="45.29172" lon="5.81588">
        <ele>1292.37</ele>
        <time>2020-10-19T13:58:48.000Z</time>
      </trkpt>
      <trkpt lat="45.29188" lon="5.81588">
        <ele>1294.21</ele>
        <time>2020-10-19T13:58:53.000Z</time>
      </trkpt>
      <trkpt lat="45.2921" lon="5.81586">
        <ele>1298.07</ele>
        <time>2020-10-19T13:58:58.000Z</time>
      </trkpt>
      <trkpt lat="45.29233" lon="5.81585">
        <ele>1300.62</ele>
        <time>2020-10-19T13:59:03.000Z</time>
      </trkpt>
      <trkpt lat="45.29253" lon="5.81578">
        <ele>1303.32</ele>
        <time>2020-10-19T13:59:08.000Z</time>
      </trkpt>
      <trkpt lat="45.29274" lon="5.81572">
        <ele>1305.2</ele>
        <time>2020-10-19T13:59:13.000Z</time>
      </trkpt>
      <trkpt lat="45.29295" lon="5.81565">
        <ele>1303.55</ele>
        <time>2020-10-19T13:59:18.000Z</time>
      </trkpt>
      <trkpt lat="45.29313" lon="5.81563">
        <ele>1303.81</ele>
        <time>2020-10-19T13:59:23.000Z</time>
      </trkpt>
      <trkpt lat="45.29332" lon="5.81568">
        <ele>1296.29</ele>
        <time>2020-10-19T13:59:28.000Z</time>
      </trkpt>
      <trkpt lat="45.29349" lon="5.81576">
        <ele>1295.62</ele>
        <time>2020-10-19T13:59:33.000Z</time>
      </trkpt>
      <trkpt lat="45.29365" lon="5.81576">
        <ele>1298.29</ele>
        <time>2020-10-19T13:59:38.000Z</time>
      </trkpt>
      <trkpt lat="45.29378" lon="5.81578">
        <ele>1301.16</ele>
        <time>2020-10-19T13:59:43.000Z</time>
      </trkpt>
      <trkpt lat="45.29389" lon="5.81579">
        <ele>1302.31</ele>
        <time>2020-10-19T13:59:48.000Z</time>
      </trkpt>
      <trkpt lat="45.29398" lon="5.81577">
        <ele>1301.36</ele>
        <time>2020-10-19T13:59:53.000Z</time>
      </trkpt>
      <trkpt lat="45.29405" lon="5.81592">
        <ele>1295.13</ele>
        <time>2020-10-19T13:59:58.000Z</time>
      </trkpt>
      <trkpt lat="45.29417" lon="5.81604">
        <ele>1297.85</ele>
        <time>2020-10-19T14:00:03.000Z</time>
      </trkpt>
      <trkpt lat="45.29427" lon="5.81614">
        <ele>1295.99</ele>
        <time>2020-10-19T14:00:08.000Z</time>
      </trkpt>
      <trkpt lat="45.29443" lon="5.81626">
        <ele>1295.89</ele>
        <time>2020-10-19T14:00:13.000Z</time>
      </trkpt>
      <trkpt lat="45.29464" lon="5.81649">
        <ele>1301.87</ele>
        <time>2020-10-19T14:00:18.000Z</time>
      </trkpt>
      <trkpt lat="45.29483" lon="5.8168">
        <ele>1305.77</ele>
        <time>2020-10-19T14:00:23.000Z</time>
      </trkpt>
      <trkpt lat="45.29515" lon="5.817">
        <ele>1306.14</ele>
        <time>2020-10-19T14:00:28.000Z</time>
      </trkpt>
      <trkpt lat="45.2955" lon="5.81718">
        <ele>1305.22</ele>
        <time>2020-10-19T14:00:33.000Z</time>
      </trkpt>
      <trkpt lat="45.29577" lon="5.81725">
        <ele>1300.38</ele>
        <time>2020-10-19T14:00:38.000Z</time>
      </trkpt>
      <trkpt lat="45.29607" lon="5.81718">
        <ele>1294.5</ele>
        <time>2020-10-19T14:00:43.000Z</time>
      </trkpt>
      <trkpt lat="45.2964" lon="5.81713">
        <ele>1287.03</ele>
        <time>2020-10-19T14:00:48.000Z</time>
      </trkpt>
      <trkpt lat="45.29676" lon="5.81692">
        <ele>1282.41</ele>
        <time>2020-10-19T14:00:53.000Z</time>
      </trkpt>
      <trkpt lat="45.29719" lon="5.81693">
        <ele>1286.55</ele>
        <time>2020-10-19T14:00:58.000Z</time>
      </trkpt>
      <trkpt lat="45.29764" lon="5.81701">
        <ele>1287.96</ele>
        <time>2020-10-19T14:01:03.000Z</time>
      </trkpt>
      <trkpt lat="45.29801" lon="5.81706">
        <ele>1286.08</ele>
        <time>2020-10-19T14:01:08.000Z</time>
      </trkpt>
      <trkpt lat="45.29836" lon="5.81673">
        <ele>1286.53</ele>
        <time>2020-10-19T14:01:13.000Z</time>
      </trkpt>
      <trkpt lat="45.29875" lon="5.81658">
        <ele>1283.32</ele>
        <time>2020-10-19T14:01:18.000Z</time>
      </trkpt>
      <trkpt lat="45.29917" lon="5.81636">
        <ele>1281.16</ele>
        <time>2020-10-19T14:01:23.000Z</time>
      </trkpt>
      <trkpt lat="45.29952" lon="5.81642">
        <ele>1279.54</ele>
        <time>2020-10-19T14:01:28.000Z</time>
      </trkpt>
      <trkpt lat="45.29984" lon="5.81669">
        <ele>1280.95</ele>
        <time>2020-10-19T14:01:33.000Z</time>
      </trkpt>
      <trkpt lat="45.30028" lon="5.8168">
        <ele>1276.88</ele>
        <time>2020-10-19T14:01:38.000Z</time>
      </trkpt>
      <trkpt lat="45.30071" lon="5.81695">
        <ele>1276.56</ele>
        <time>2020-10-19T14:01:43.000Z</time>
      </trkpt>
      <trkpt lat="45.30112" lon="5.81713">
        <ele>1278.34</ele>
        <time>2020-10-19T14:01:48.000Z</time>
      </trkpt>
      <trkpt lat="45.30145" lon="5.81732">
        <ele>1277</ele>
        <time>2020-10-19T14:01:53.000Z</time>
      </trkpt>
      <trkpt lat="45.3017" lon="5.81755">
        <ele>1281.11</ele>
        <time>2020-10-19T14:01:58.000Z</time>
      </trkpt>
      <trkpt lat="45.30196" lon="5.81798">
        <ele>1274.88</ele>
        <time>2020-10-19T14:02:03.000Z</time>
      </trkpt>
      <trkpt lat="45.30207" lon="5.81826">
        <ele>1275.78</ele>
        <time>2020-10-19T14:02:08.000Z</time>
      </trkpt>
      <trkpt lat="45.30219" lon="5.81862">
        <ele>1275.33</ele>
        <time>2020-10-19T14:02:13.000Z</time>
      </trkpt>
      <trkpt lat="45.30227" lon="5.819">
        <ele>1268.82</ele>
        <time>2020-10-19T14:02:18.000Z</time>
      </trkpt>
      <trkpt lat="45.30236" lon="5.81929">
        <ele>1261.05</ele>
        <time>2020-10-19T14:02:23.000Z</time>
      </trkpt>
      <trkpt lat="45.30261" lon="5.81961">
        <ele>1257.36</ele>
        <time>2020-10-19T14:02:28.000Z</time>
      </trkpt>
      <trkpt lat="45.30291" lon="5.81988">
        <ele>1254.75</ele>
        <time>2020-10-19T14:02:33.000Z</time>
      </trkpt>
      <trkpt lat="45.3033" lon="5.81992">
        <ele>1251.81</ele>
        <time>2020-10-19T14:02:38.000Z</time>
      </trkpt>
      <trkpt lat="45.30359" lon="5.82025">
        <ele>1244.89</ele>
        <time>2020-10-19T14:02:43.000Z</time>
      </trkpt>
      <trkpt lat="45.30376" lon="5.82077">
        <ele>1241.29</ele>
        <time>2020-10-19T14:02:48.000Z</time>
      </trkpt>
      <trkpt lat="45.30405" lon="5.82104">
        <ele>1240.99</ele>
        <time>2020-10-19T14:02:53.000Z</time>
      </trkpt>
      <trkpt lat="45.30438" lon="5.82115">
        <ele>1242.93</ele>
        <time>2020-10-19T14:02:58.000Z</time>
      </trkpt>
      <trkpt lat="45.30478" lon="5.82126">
        <ele>1241.85</ele>
        <time>2020-10-19T14:03:03.000Z</time>
      </trkpt>
      <trkpt lat="45.305" lon="5.82139">
        <ele>1243.27</ele>
        <time>2020-10-19T14:03:08.000Z</time>
      </trkpt>
      <trkpt lat="45.30513" lon="5.82144">
        <ele>1243.8</ele>
        <time>2020-10-19T14:03:13.000Z</time>
      </trkpt>
      <trkpt lat="45.30512" lon="5.82127">
        <ele>1242.76</ele>
        <time>2020-10-19T14:03:18.000Z</time>
      </trkpt>
      <trkpt lat="45.30517" lon="5.82114">
        <ele>1238.3</ele>
        <time>2020-10-19T14:03:23.000Z</time>
      </trkpt>
      <trkpt lat="45.30535" lon="5.82103">
        <ele>1235.92</ele>
        <time>2020-10-19T14:03:28.000Z</time>
      </trkpt>
      <trkpt lat="45.30546" lon="5.82087">
        <ele>1233.69</ele>
        <time>2020-10-19T14:03:33.000Z</time>
      </trkpt>
      <trkpt lat="45.30555" lon="5.82066">
        <ele>1232.5</ele>
        <time>2020-10-19T14:03:38.000Z</time>
      </trkpt>
      <trkpt lat="45.30558" lon="5.82078">
        <ele>1235.4</ele>
        <time>2020-10-19T14:03:44.000Z</time>
      </trkpt>
      <trkpt lat="45.30559" lon="5.82101">
        <ele>1237.04</ele>
        <time>2020-10-19T14:03:49.000Z</time>
      </trkpt>
      <trkpt lat="45.30566" lon="5.82124">
        <ele>1238.05</ele>
        <time>2020-10-19T14:03:54.000Z</time>
      </trkpt>
      <trkpt lat="45.30575" lon="5.82141">
        <ele>1237.31</ele>
        <time>2020-10-19T14:03:59.000Z</time>
      </trkpt>
      <trkpt lat="45.30582" lon="5.82158">
        <ele>1237.11</ele>
        <time>2020-10-19T14:04:04.000Z</time>
      </trkpt>
      <trkpt lat="45.30585" lon="5.82176">
        <ele>1239.25</ele>
        <time>2020-10-19T14:04:09.000Z</time>
      </trkpt>
      <trkpt lat="45.30585" lon="5.8219">
        <ele>1243.84</ele>
        <time>2020-10-19T14:04:15.000Z</time>
      </trkpt>
      <trkpt lat="45.30579" lon="5.82206">
        <ele>1247.35</ele>
        <time>2020-10-19T14:04:20.000Z</time>
      </trkpt>
      <trkpt lat="45.30574" lon="5.82227">
        <ele>1249.34</ele>
        <time>2020-10-19T14:04:25.000Z</time>
      </trkpt>
      <trkpt lat="45.30573" lon="5.8224">
        <ele>1250.91</ele>
        <time>2020-10-19T14:04:30.000Z</time>
      </trkpt>
      <trkpt lat="45.30573" lon="5.82255">
        <ele>1252.63</ele>
        <time>2020-10-19T14:04:35.000Z</time>
      </trkpt>
      <trkpt lat="45.3057" lon="5.82276">
        <ele>1255.61</ele>
        <time>2020-10-19T14:04:40.000Z</time>
      </trkpt>
      <trkpt lat="45.30567" lon="5.8229">
        <ele>1257.91</ele>
        <time>2020-10-19T14:04:45.000Z</time>
      </trkpt>
      <trkpt lat="45.30565" lon="5.82314">
        <ele>1255.83</ele>
        <time>2020-10-19T14:04:50.000Z</time>
      </trkpt>
      <trkpt lat="45.30568" lon="5.82339">
        <ele>1257.72</ele>
        <time>2020-10-19T14:04:55.000Z</time>
      </trkpt>
      <trkpt lat="45.30566" lon="5.82356">
        <ele>1257.61</ele>
        <time>2020-10-19T14:05:00.000Z</time>
      </trkpt>
      <trkpt lat="45.30562" lon="5.82372">
        <ele>1258.71</ele>
        <time>2020-10-19T14:05:05.000Z</time>
      </trkpt>
      <trkpt lat="45.30559" lon="5.82384">
        <ele>1258.08</ele>
        <time>2020-10-19T14:05:10.000Z</time>
      </trkpt>
      <trkpt lat="45.30553" lon="5.8241">
        <ele>1260.63</ele>
        <time>2020-10-19T14:05:15.000Z</time>
      </trkpt>
      <trkpt lat="45.30552" lon="5.82437">
        <ele>1258.83</ele>
        <time>2020-10-19T14:05:20.000Z</time>
      </trkpt>
      <trkpt lat="45.30547" lon="5.8246">
        <ele>1259.68</ele>
        <time>2020-10-19T14:05:25.000Z</time>
      </trkpt>
      <trkpt lat="45.30543" lon="5.82478">
        <ele>1262.21</ele>
        <time>2020-10-19T14:05:30.000Z</time>
      </trkpt>
      <trkpt lat="45.30544" lon="5.82497">
        <ele>1262.58</ele>
        <time>2020-10-19T14:05:35.000Z</time>
      </trkpt>
      <trkpt lat="45.30544" lon="5.82521">
        <ele>1264.19</ele>
        <time>2020-10-19T14:05:40.000Z</time>
      </trkpt>
      <trkpt lat="45.3054" lon="5.82546">
        <ele>1264.84</ele>
        <time>2020-10-19T14:05:45.000Z</time>
      </trkpt>
      <trkpt lat="45.30538" lon="5.82568">
        <ele>1266.05</ele>
        <time>2020-10-19T14:05:50.000Z</time>
      </trkpt>
      <trkpt lat="45.30529" lon="5.82584">
        <ele>1266</ele>
        <time>2020-10-19T14:05:55.000Z</time>
      </trkpt>
      <trkpt lat="45.30528" lon="5.8263">
        <ele>1265.33</ele>
        <time>2020-10-19T14:06:00.000Z</time>
      </trkpt>
      <trkpt lat="45.30525" lon="5.82643">
        <ele>1266.17</ele>
        <time>2020-10-19T14:06:07.000Z</time>
      </trkpt>
      <trkpt lat="45.30517" lon="5.82663">
        <ele>1265.58</ele>
        <time>2020-10-19T14:06:12.000Z</time>
      </trkpt>
      <trkpt lat="45.30506" lon="5.82676">
        <ele>1265.52</ele>
        <time>2020-10-19T14:06:17.000Z</time>
      </trkpt>
      <trkpt lat="45.3049" lon="5.82682">
        <ele>1267.45</ele>
        <time>2020-10-19T14:06:22.000Z</time>
      </trkpt>
      <trkpt lat="45.30471" lon="5.82693">
        <ele>1264.33</ele>
        <time>2020-10-19T14:06:27.000Z</time>
      </trkpt>
      <trkpt lat="45.30453" lon="5.82695">
        <ele>1267.62</ele>
        <time>2020-10-19T14:06:32.000Z</time>
      </trkpt>
      <trkpt lat="45.30436" lon="5.82695">
        <ele>1265.15</ele>
        <time>2020-10-19T14:06:37.000Z</time>
      </trkpt>
      <trkpt lat="45.3043" lon="5.82709">
        <ele>1265.89</ele>
        <time>2020-10-19T14:06:42.000Z</time>
      </trkpt>
      <trkpt lat="45.30427" lon="5.82724">
        <ele>1263.19</ele>
        <time>2020-10-19T14:06:47.000Z</time>
      </trkpt>
      <trkpt lat="45.30423" lon="5.82739">
        <ele>1265.3</ele>
        <time>2020-10-19T14:06:54.000Z</time>
      </trkpt>
      <trkpt lat="45.30412" lon="5.82756">
        <ele>1267.82</ele>
        <time>2020-10-19T14:06:59.000Z</time>
      </trkpt>
      <trkpt lat="45.30402" lon="5.82774">
        <ele>1268.82</ele>
        <time>2020-10-19T14:07:04.000Z</time>
      </trkpt>
      <trkpt lat="45.30394" lon="5.82792">
        <ele>1264.61</ele>
        <time>2020-10-19T14:07:09.000Z</time>
      </trkpt>
      <trkpt lat="45.30382" lon="5.82806">
        <ele>1260.86</ele>
        <time>2020-10-19T14:07:14.000Z</time>
      </trkpt>
      <trkpt lat="45.30373" lon="5.82821">
        <ele>1260.89</ele>
        <time>2020-10-19T14:07:19.000Z</time>
      </trkpt>
      <trkpt lat="45.30364" lon="5.82834">
        <ele>1269.16</ele>
        <time>2020-10-19T14:07:24.000Z</time>
      </trkpt>
      <trkpt lat="45.30354" lon="5.82847">
        <ele>1271.25</ele>
        <time>2020-10-19T14:07:29.000Z</time>
      </trkpt>
      <trkpt lat="45.30377" lon="5.82881">
        <ele>1277.1</ele>
        <time>2020-10-19T14:07:34.000Z</time>
      </trkpt>
      <trkpt lat="45.30379" lon="5.82897">
        <ele>1277.88</ele>
        <time>2020-10-19T14:07:41.000Z</time>
      </trkpt>
      <trkpt lat="45.30387" lon="5.82908">
        <ele>1286.94</ele>
        <time>2020-10-19T14:07:46.000Z</time>
      </trkpt>
      <trkpt lat="45.30398" lon="5.82909">
        <ele>1299.22</ele>
        <time>2020-10-19T14:07:55.000Z</time>
      </trkpt>
      <trkpt lat="45.30412" lon="5.82903">
        <ele>1296.89</ele>
        <time>2020-10-19T14:08:00.000Z</time>
      </trkpt>
      <trkpt lat="45.30427" lon="5.82895">
        <ele>1297.04</ele>
        <time>2020-10-19T14:08:05.000Z</time>
      </trkpt>
      <trkpt lat="45.3044" lon="5.82889">
        <ele>1298.41</ele>
        <time>2020-10-19T14:08:10.000Z</time>
      </trkpt>
      <trkpt lat="45.3045" lon="5.82892">
        <ele>1307.66</ele>
        <time>2020-10-19T14:08:15.000Z</time>
      </trkpt>
      <trkpt lat="45.30463" lon="5.82905">
        <ele>1308.19</ele>
        <time>2020-10-19T14:08:20.000Z</time>
      </trkpt>
      <trkpt lat="45.3047" lon="5.82924">
        <ele>1308.62</ele>
        <time>2020-10-19T14:08:25.000Z</time>
      </trkpt>
      <trkpt lat="45.30468" lon="5.82945">
        <ele>1316.36</ele>
        <time>2020-10-19T14:08:30.000Z</time>
      </trkpt>
      <trkpt lat="45.30463" lon="5.82965">
        <ele>1320.65</ele>
        <time>2020-10-19T14:08:35.000Z</time>
      </trkpt>
      <trkpt lat="45.30457" lon="5.82982">
        <ele>1324.59</ele>
        <time>2020-10-19T14:08:40.000Z</time>
      </trkpt>
      <trkpt lat="45.30451" lon="5.83004">
        <ele>1326.46</ele>
        <time>2020-10-19T14:08:45.000Z</time>
      </trkpt>
      <trkpt lat="45.30446" lon="5.83027">
        <ele>1328.88</ele>
        <time>2020-10-19T14:08:50.000Z</time>
      </trkpt>
      <trkpt lat="45.30441" lon="5.83046">
        <ele>1331.24</ele>
        <time>2020-10-19T14:08:55.000Z</time>
      </trkpt>
      <trkpt lat="45.30436" lon="5.83069">
        <ele>1330.89</ele>
        <time>2020-10-19T14:09:00.000Z</time>
      </trkpt>
      <trkpt lat="45.30432" lon="5.83089">
        <ele>1330.7</ele>
        <time>2020-10-19T14:09:05.000Z</time>
      </trkpt>
      <trkpt lat="45.30426" lon="5.83109">
        <ele>1333.42</ele>
        <time>2020-10-19T14:09:10.000Z</time>
      </trkpt>
      <trkpt lat="45.30419" lon="5.8313">
        <ele>1335.02</ele>
        <time>2020-10-19T14:09:15.000Z</time>
      </trkpt>
      <trkpt lat="45.30414" lon="5.83151">
        <ele>1339.97</ele>
        <time>2020-10-19T14:09:20.000Z</time>
      </trkpt>
      <trkpt lat="45.30409" lon="5.83173">
        <ele>1342.21</ele>
        <time>2020-10-19T14:09:25.000Z</time>
      </trkpt>
      <trkpt lat="45.30405" lon="5.83192">
        <ele>1343.14</ele>
        <time>2020-10-19T14:09:30.000Z</time>
      </trkpt>
      <trkpt lat="45.304" lon="5.83212">
        <ele>1343.1</ele>
        <time>2020-10-19T14:09:35.000Z</time>
      </trkpt>
      <trkpt lat="45.30395" lon="5.8323">
        <ele>1349.85</ele>
        <time>2020-10-19T14:09:40.000Z</time>
      </trkpt>
      <trkpt lat="45.30392" lon="5.83248">
        <ele>1353.36</ele>
        <time>2020-10-19T14:09:45.000Z</time>
      </trkpt>
      <trkpt lat="45.30393" lon="5.83271">
        <ele>1357.45</ele>
        <time>2020-10-19T14:09:50.000Z</time>
      </trkpt>
      <trkpt lat="45.30392" lon="5.83292">
        <ele>1358.23</ele>
        <time>2020-10-19T14:09:55.000Z</time>
      </trkpt>
      <trkpt lat="45.30383" lon="5.83312">
        <ele>1358.33</ele>
        <time>2020-10-19T14:10:00.000Z</time>
      </trkpt>
      <trkpt lat="45.3037" lon="5.83326">
        <ele>1362.44</ele>
        <time>2020-10-19T14:10:05.000Z</time>
      </trkpt>
      <trkpt lat="45.30355" lon="5.83332">
        <ele>1365.14</ele>
        <time>2020-10-19T14:10:10.000Z</time>
      </trkpt>
      <trkpt lat="45.30341" lon="5.83339">
        <ele>1369.52</ele>
        <time>2020-10-19T14:10:15.000Z</time>
      </trkpt>
      <trkpt lat="45.30324" lon="5.83345">
        <ele>1371.33</ele>
        <time>2020-10-19T14:10:20.000Z</time>
      </trkpt>
      <trkpt lat="45.30311" lon="5.83354">
        <ele>1374.53</ele>
        <time>2020-10-19T14:10:25.000Z</time>
      </trkpt>
      <trkpt lat="45.30299" lon="5.83372">
        <ele>1373.38</ele>
        <time>2020-10-19T14:10:30.000Z</time>
      </trkpt>
      <trkpt lat="45.30289" lon="5.83385">
        <ele>1376.01</ele>
        <time>2020-10-19T14:10:35.000Z</time>
      </trkpt>
      <trkpt lat="45.30275" lon="5.83397">
        <ele>1379.62</ele>
        <time>2020-10-19T14:10:40.000Z</time>
      </trkpt>
      <trkpt lat="45.30259" lon="5.83408">
        <ele>1383.19</ele>
        <time>2020-10-19T14:10:45.000Z</time>
      </trkpt>
      <trkpt lat="45.30245" lon="5.83418">
        <ele>1384.18</ele>
        <time>2020-10-19T14:10:50.000Z</time>
      </trkpt>
      <trkpt lat="45.30231" lon="5.83428">
        <ele>1389.11</ele>
        <time>2020-10-19T14:10:55.000Z</time>
      </trkpt>
      <trkpt lat="45.30217" lon="5.83435">
        <ele>1390.53</ele>
        <time>2020-10-19T14:11:00.000Z</time>
      </trkpt>
      <trkpt lat="45.30201" lon="5.83433">
        <ele>1393.8</ele>
        <time>2020-10-19T14:11:05.000Z</time>
      </trkpt>
      <trkpt lat="45.30186" lon="5.83422">
        <ele>1395.62</ele>
        <time>2020-10-19T14:11:10.000Z</time>
      </trkpt>
      <trkpt lat="45.30174" lon="5.83406">
        <ele>1397.69</ele>
        <time>2020-10-19T14:11:15.000Z</time>
      </trkpt>
      <trkpt lat="45.30159" lon="5.83402">
        <ele>1399.3</ele>
        <time>2020-10-19T14:11:20.000Z</time>
      </trkpt>
      <trkpt lat="45.30152" lon="5.83422">
        <ele>1401.55</ele>
        <time>2020-10-19T14:11:25.000Z</time>
      </trkpt>
      <trkpt lat="45.30156" lon="5.83448">
        <ele>1400.53</ele>
        <time>2020-10-19T14:11:30.000Z</time>
      </trkpt>
      <trkpt lat="45.30165" lon="5.83469">
        <ele>1403.36</ele>
        <time>2020-10-19T14:11:35.000Z</time>
      </trkpt>
      <trkpt lat="45.30171" lon="5.83491">
        <ele>1404.7</ele>
        <time>2020-10-19T14:11:40.000Z</time>
      </trkpt>
      <trkpt lat="45.30172" lon="5.83512">
        <ele>1404.36</ele>
        <time>2020-10-19T14:11:45.000Z</time>
      </trkpt>
      <trkpt lat="45.3018" lon="5.83534">
        <ele>1404.98</ele>
        <time>2020-10-19T14:11:50.000Z</time>
      </trkpt>
      <trkpt lat="45.30192" lon="5.83549">
        <ele>1409.33</ele>
        <time>2020-10-19T14:11:55.000Z</time>
      </trkpt>
      <trkpt lat="45.30205" lon="5.83566">
        <ele>1411.77</ele>
        <time>2020-10-19T14:12:00.000Z</time>
      </trkpt>
      <trkpt lat="45.30218" lon="5.83581">
        <ele>1411.56</ele>
        <time>2020-10-19T14:12:05.000Z</time>
      </trkpt>
      <trkpt lat="45.3023" lon="5.8359">
        <ele>1414.48</ele>
        <time>2020-10-19T14:12:10.000Z</time>
      </trkpt>
      <trkpt lat="45.30244" lon="5.83602">
        <ele>1416.43</ele>
        <time>2020-10-19T14:12:15.000Z</time>
      </trkpt>
      <trkpt lat="45.30257" lon="5.83614">
        <ele>1418.01</ele>
        <time>2020-10-19T14:12:20.000Z</time>
      </trkpt>
      <trkpt lat="45.30272" lon="5.83612">
        <ele>1417.58</ele>
        <time>2020-10-19T14:12:25.000Z</time>
      </trkpt>
      <trkpt lat="45.30286" lon="5.83608">
        <ele>1416.9</ele>
        <time>2020-10-19T14:12:30.000Z</time>
      </trkpt>
      <trkpt lat="45.30284" lon="5.83624">
        <ele>1420.11</ele>
        <time>2020-10-19T14:12:35.000Z</time>
      </trkpt>
      <trkpt lat="45.30275" lon="5.83638">
        <ele>1423.76</ele>
        <time>2020-10-19T14:12:40.000Z</time>
      </trkpt>
      <trkpt lat="45.30264" lon="5.83654">
        <ele>1420.46</ele>
        <time>2020-10-19T14:12:45.000Z</time>
      </trkpt>
      <trkpt lat="45.30255" lon="5.83665">
        <ele>1418.61</ele>
        <time>2020-10-19T14:12:50.000Z</time>
      </trkpt>
      <trkpt lat="45.30244" lon="5.83681">
        <ele>1420.21</ele>
        <time>2020-10-19T14:12:55.000Z</time>
      </trkpt>
      <trkpt lat="45.30242" lon="5.83694">
        <ele>1423.43</ele>
        <time>2020-10-19T14:13:00.000Z</time>
      </trkpt>
      <trkpt lat="45.30249" lon="5.83703">
        <ele>1430.44</ele>
        <time>2020-10-19T14:18:58.000Z</time>
      </trkpt>
      <trkpt lat="45.30259" lon="5.83707">
        <ele>1433.62</ele>
        <time>2020-10-19T14:21:02.000Z</time>
      </trkpt>
      <trkpt lat="45.30285" lon="5.83724">
        <ele>1432.21</ele>
        <time>2020-10-19T14:21:07.000Z</time>
      </trkpt>
      <trkpt lat="45.3031" lon="5.83758">
        <ele>1431.27</ele>
        <time>2020-10-19T14:21:12.000Z</time>
      </trkpt>
      <trkpt lat="45.30347" lon="5.83789">
        <ele>1429.1</ele>
        <time>2020-10-19T14:21:17.000Z</time>
      </trkpt>
      <trkpt lat="45.30391" lon="5.83809">
        <ele>1430.58</ele>
        <time>2020-10-19T14:21:22.000Z</time>
      </trkpt>
      <trkpt lat="45.30422" lon="5.83852">
        <ele>1434.19</ele>
        <time>2020-10-19T14:21:27.000Z</time>
      </trkpt>
      <trkpt lat="45.30449" lon="5.83906">
        <ele>1436.26</ele>
        <time>2020-10-19T14:21:32.000Z</time>
      </trkpt>
      <trkpt lat="45.30492" lon="5.83945">
        <ele>1437.39</ele>
        <time>2020-10-19T14:21:37.000Z</time>
      </trkpt>
      <trkpt lat="45.30524" lon="5.83997">
        <ele>1440.08</ele>
        <time>2020-10-19T14:21:42.000Z</time>
      </trkpt>
      <trkpt lat="45.30533" lon="5.84061">
        <ele>1436.28</ele>
        <time>2020-10-19T14:21:47.000Z</time>
      </trkpt>
      <trkpt lat="45.30509" lon="5.84083">
        <ele>1429.94</ele>
        <time>2020-10-19T14:21:52.000Z</time>
      </trkpt>
      <trkpt lat="45.30478" lon="5.84032">
        <ele>1422.32</ele>
        <time>2020-10-19T14:21:57.000Z</time>
      </trkpt>
      <trkpt lat="45.30432" lon="5.84016">
        <ele>1417.48</ele>
        <time>2020-10-19T14:22:02.000Z</time>
      </trkpt>
      <trkpt lat="45.30383" lon="5.83993">
        <ele>1407.19</ele>
        <time>2020-10-19T14:22:07.000Z</time>
      </trkpt>
      <trkpt lat="45.30335" lon="5.8394">
        <ele>1404.41</ele>
        <time>2020-10-19T14:22:12.000Z</time>
      </trkpt>
      <trkpt lat="45.3031" lon="5.83943">
        <ele>1403.73</ele>
        <time>2020-10-19T14:22:17.000Z</time>
      </trkpt>
      <trkpt lat="45.30326" lon="5.83991">
        <ele>1400.81</ele>
        <time>2020-10-19T14:22:22.000Z</time>
      </trkpt>
      <trkpt lat="45.30349" lon="5.84039">
        <ele>1394.99</ele>
        <time>2020-10-19T14:22:27.000Z</time>
      </trkpt>
      <trkpt lat="45.30338" lon="5.84056">
        <ele>1387.96</ele>
        <time>2020-10-19T14:22:32.000Z</time>
      </trkpt>
      <trkpt lat="45.30298" lon="5.84012">
        <ele>1388.98</ele>
        <time>2020-10-19T14:22:37.000Z</time>
      </trkpt>
      <trkpt lat="45.30254" lon="5.83962">
        <ele>1387.22</ele>
        <time>2020-10-19T14:22:42.000Z</time>
      </trkpt>
      <trkpt lat="45.30204" lon="5.83946">
        <ele>1383.31</ele>
        <time>2020-10-19T14:22:47.000Z</time>
      </trkpt>
      <trkpt lat="45.30151" lon="5.83955">
        <ele>1377.61</ele>
        <time>2020-10-19T14:22:52.000Z</time>
      </trkpt>
      <trkpt lat="45.30127" lon="5.83975">
        <ele>1375.21</ele>
        <time>2020-10-19T14:22:57.000Z</time>
      </trkpt>
      <trkpt lat="45.30167" lon="5.83972">
        <ele>1364.2</ele>
        <time>2020-10-19T14:23:02.000Z</time>
      </trkpt>
      <trkpt lat="45.30209" lon="5.84008">
        <ele>1361.5</ele>
        <time>2020-10-19T14:23:07.000Z</time>
      </trkpt>
      <trkpt lat="45.30232" lon="5.84082">
        <ele>1360.94</ele>
        <time>2020-10-19T14:23:12.000Z</time>
      </trkpt>
      <trkpt lat="45.30219" lon="5.84117">
        <ele>1355.65</ele>
        <time>2020-10-19T14:23:17.000Z</time>
      </trkpt>
      <trkpt lat="45.30197" lon="5.84067">
        <ele>1351.48</ele>
        <time>2020-10-19T14:23:22.000Z</time>
      </trkpt>
      <trkpt lat="45.30157" lon="5.84066">
        <ele>1346.6</ele>
        <time>2020-10-19T14:23:27.000Z</time>
      </trkpt>
      <trkpt lat="45.30091" lon="5.84089">
        <ele>1339.43</ele>
        <time>2020-10-19T14:23:32.000Z</time>
      </trkpt>
      <trkpt lat="45.30023" lon="5.84094">
        <ele>1334.67</ele>
        <time>2020-10-19T14:23:37.000Z</time>
      </trkpt>
      <trkpt lat="45.29969" lon="5.84073">
        <ele>1332.1</ele>
        <time>2020-10-19T14:23:42.000Z</time>
      </trkpt>
      <trkpt lat="45.29941" lon="5.84068">
        <ele>1324.67</ele>
        <time>2020-10-19T14:23:47.000Z</time>
      </trkpt>
      <trkpt lat="45.29947" lon="5.84082">
        <ele>1308.75</ele>
        <time>2020-10-19T14:24:07.000Z</time>
      </trkpt>
      <trkpt lat="45.29956" lon="5.84078">
        <ele>1293.68</ele>
        <time>2020-10-19T14:26:23.000Z</time>
      </trkpt>
      <trkpt lat="45.29981" lon="5.8411">
        <ele>1289.5</ele>
        <time>2020-10-19T14:26:28.000Z</time>
      </trkpt>
      <trkpt lat="45.30008" lon="5.84148">
        <ele>1288.76</ele>
        <time>2020-10-19T14:26:33.000Z</time>
      </trkpt>
      <trkpt lat="45.30009" lon="5.84204">
        <ele>1288.76</ele>
        <time>2020-10-19T14:26:38.000Z</time>
      </trkpt>
      <trkpt lat="45.29958" lon="5.84239">
        <ele>1289.5</ele>
        <time>2020-10-19T14:26:43.000Z</time>
      </trkpt>
      <trkpt lat="45.29901" lon="5.84275">
        <ele>1287.66</ele>
        <time>2020-10-19T14:26:48.000Z</time>
      </trkpt>
      <trkpt lat="45.29854" lon="5.84345">
        <ele>1289.28</ele>
        <time>2020-10-19T14:26:53.000Z</time>
      </trkpt>
      <trkpt lat="45.29781" lon="5.84396">
        <ele>1289.52</ele>
        <time>2020-10-19T14:26:58.000Z</time>
      </trkpt>
      <trkpt lat="45.29706" lon="5.84448">
        <ele>1288.19</ele>
        <time>2020-10-19T14:27:03.000Z</time>
      </trkpt>
      <trkpt lat="45.29652" lon="5.845">
        <ele>1285.76</ele>
        <time>2020-10-19T14:27:08.000Z</time>
      </trkpt>
      <trkpt lat="45.29634" lon="5.84532">
        <ele>1248.47</ele>
        <time>2020-10-19T14:27:13.000Z</time>
      </trkpt>
      <trkpt lat="45.29653" lon="5.845">
        <ele>1245.01</ele>
        <time>2020-10-19T14:27:18.000Z</time>
      </trkpt>
      <trkpt lat="45.29677" lon="5.8447">
        <ele>1240.95</ele>
        <time>2020-10-19T14:27:23.000Z</time>
      </trkpt>
      <trkpt lat="45.29701" lon="5.84415">
        <ele>1240.45</ele>
        <time>2020-10-19T14:27:28.000Z</time>
      </trkpt>
      <trkpt lat="45.29729" lon="5.84352">
        <ele>1230.2</ele>
        <time>2020-10-19T14:27:33.000Z</time>
      </trkpt>
      <trkpt lat="45.29771" lon="5.84304">
        <ele>1222.6</ele>
        <time>2020-10-19T14:27:38.000Z</time>
      </trkpt>
      <trkpt lat="45.29767" lon="5.84267">
        <ele>1221.14</ele>
        <time>2020-10-19T14:27:43.000Z</time>
      </trkpt>
      <trkpt lat="45.29721" lon="5.84265">
        <ele>1219.49</ele>
        <time>2020-10-19T14:27:48.000Z</time>
      </trkpt>
      <trkpt lat="45.29675" lon="5.84256">
        <ele>1212.96</ele>
        <time>2020-10-19T14:27:53.000Z</time>
      </trkpt>
      <trkpt lat="45.29631" lon="5.84169">
        <ele>1199.32</ele>
        <time>2020-10-19T14:27:58.000Z</time>
      </trkpt>
      <trkpt lat="45.29588" lon="5.84123">
        <ele>1196.09</ele>
        <time>2020-10-19T14:28:03.000Z</time>
      </trkpt>
      <trkpt lat="45.29521" lon="5.84115">
        <ele>1195.63</ele>
        <time>2020-10-19T14:28:08.000Z</time>
      </trkpt>
      <trkpt lat="45.29472" lon="5.84115">
        <ele>1194.36</ele>
        <time>2020-10-19T14:28:13.000Z</time>
      </trkpt>
      <trkpt lat="45.29424" lon="5.84113">
        <ele>1195.09</ele>
        <time>2020-10-19T14:28:18.000Z</time>
      </trkpt>
      <trkpt lat="45.29367" lon="5.84134">
        <ele>1195.67</ele>
        <time>2020-10-19T14:28:23.000Z</time>
      </trkpt>
      <trkpt lat="45.29292" lon="5.84113">
        <ele>1193.79</ele>
        <time>2020-10-19T14:28:28.000Z</time>
      </trkpt>
      <trkpt lat="45.29216" lon="5.8412">
        <ele>1189.45</ele>
        <time>2020-10-19T14:28:33.000Z</time>
      </trkpt>
      <trkpt lat="45.29129" lon="5.84121">
        <ele>1185.59</ele>
        <time>2020-10-19T14:28:38.000Z</time>
      </trkpt>
      <trkpt lat="45.29045" lon="5.84156">
        <ele>1171.21</ele>
        <time>2020-10-19T14:28:43.000Z</time>
      </trkpt>
      <trkpt lat="45.28969" lon="5.84191">
        <ele>1159.55</ele>
        <time>2020-10-19T14:28:48.000Z</time>
      </trkpt>
      <trkpt lat="45.28901" lon="5.84221">
        <ele>1152.65</ele>
        <time>2020-10-19T14:28:53.000Z</time>
      </trkpt>
      <trkpt lat="45.28912" lon="5.84233">
        <ele>1143.76</ele>
        <time>2020-10-19T14:28:59.000Z</time>
      </trkpt>
      <trkpt lat="45.28957" lon="5.84237">
        <ele>1138.09</ele>
        <time>2020-10-19T14:29:04.000Z</time>
      </trkpt>
      <trkpt lat="45.2896" lon="5.84257">
        <ele>1129.6</ele>
        <time>2020-10-19T14:29:09.000Z</time>
      </trkpt>
      <trkpt lat="45.28922" lon="5.84261">
        <ele>1122.52</ele>
        <time>2020-10-19T14:29:14.000Z</time>
      </trkpt>
      <trkpt lat="45.28872" lon="5.84292">
        <ele>1119.17</ele>
        <time>2020-10-19T14:29:19.000Z</time>
      </trkpt>
      <trkpt lat="45.28816" lon="5.84322">
        <ele>1111.71</ele>
        <time>2020-10-19T14:29:24.000Z</time>
      </trkpt>
      <trkpt lat="45.28801" lon="5.84347">
        <ele>1092.22</ele>
        <time>2020-10-19T14:29:29.000Z</time>
      </trkpt>
      <trkpt lat="45.28838" lon="5.84355">
        <ele>1085.9</ele>
        <time>2020-10-19T14:29:34.000Z</time>
      </trkpt>
      <trkpt lat="45.28885" lon="5.84373">
        <ele>1081.37</ele>
        <time>2020-10-19T14:29:39.000Z</time>
      </trkpt>
      <trkpt lat="45.28941" lon="5.84373">
        <ele>1079.43</ele>
        <time>2020-10-19T14:29:44.000Z</time>
      </trkpt>
      <trkpt lat="45.28984" lon="5.84409">
        <ele>1074.12</ele>
        <time>2020-10-19T14:29:49.000Z</time>
      </trkpt>
      <trkpt lat="45.2904" lon="5.84453">
        <ele>1071.54</ele>
        <time>2020-10-19T14:29:54.000Z</time>
      </trkpt>
      <trkpt lat="45.29088" lon="5.84496">
        <ele>1067.7</ele>
        <time>2020-10-19T14:29:59.000Z</time>
      </trkpt>
      <trkpt lat="45.29123" lon="5.84543">
        <ele>1064.22</ele>
        <time>2020-10-19T14:30:04.000Z</time>
      </trkpt>
      <trkpt lat="45.2917" lon="5.84559">
        <ele>1055.61</ele>
        <time>2020-10-19T14:30:09.000Z</time>
      </trkpt>
      <trkpt lat="45.29181" lon="5.8458">
        <ele>1053.11</ele>
        <time>2020-10-19T14:30:14.000Z</time>
      </trkpt>
      <trkpt lat="45.29144" lon="5.84599">
        <ele>1041.14</ele>
        <time>2020-10-19T14:30:19.000Z</time>
      </trkpt>
      <trkpt lat="45.29097" lon="5.84616">
        <ele>1035.4</ele>
        <time>2020-10-19T14:30:24.000Z</time>
      </trkpt>
      <trkpt lat="45.2904" lon="5.846">
        <ele>1032.8</ele>
        <time>2020-10-19T14:30:29.000Z</time>
      </trkpt>
      <trkpt lat="45.28989" lon="5.84584">
        <ele>1025.75</ele>
        <time>2020-10-19T14:30:34.000Z</time>
      </trkpt>
      <trkpt lat="45.28961" lon="5.84592">
        <ele>1028.03</ele>
        <time>2020-10-19T14:30:39.000Z</time>
      </trkpt>
      <trkpt lat="45.28985" lon="5.84625">
        <ele>1027.98</ele>
        <time>2020-10-19T14:30:44.000Z</time>
      </trkpt>
      <trkpt lat="45.29032" lon="5.84661">
        <ele>1024.04</ele>
        <time>2020-10-19T14:30:49.000Z</time>
      </trkpt>
      <trkpt lat="45.29084" lon="5.84713">
        <ele>1025.88</ele>
        <time>2020-10-19T14:30:54.000Z</time>
      </trkpt>
      <trkpt lat="45.29118" lon="5.84764">
        <ele>1027.12</ele>
        <time>2020-10-19T14:30:59.000Z</time>
      </trkpt>
      <trkpt lat="45.29089" lon="5.84783">
        <ele>1023.03</ele>
        <time>2020-10-19T14:31:04.000Z</time>
      </trkpt>
      <trkpt lat="45.29044" lon="5.84748">
        <ele>1012.52</ele>
        <time>2020-10-19T14:31:09.000Z</time>
      </trkpt>
      <trkpt lat="45.28989" lon="5.84729">
        <ele>1003.02</ele>
        <time>2020-10-19T14:31:14.000Z</time>
      </trkpt>
      <trkpt lat="45.28945" lon="5.8477">
        <ele>996.33</ele>
        <time>2020-10-19T14:31:19.000Z</time>
      </trkpt>
      <trkpt lat="45.28894" lon="5.84787">
        <ele>986.51</ele>
        <time>2020-10-19T14:31:24.000Z</time>
      </trkpt>
      <trkpt lat="45.28838" lon="5.8481">
        <ele>981.28</ele>
        <time>2020-10-19T14:31:29.000Z</time>
      </trkpt>
      <trkpt lat="45.28792" lon="5.84864">
        <ele>972.2</ele>
        <time>2020-10-19T14:31:34.000Z</time>
      </trkpt>
      <trkpt lat="45.28769" lon="5.84937">
        <ele>965.97</ele>
        <time>2020-10-19T14:31:39.000Z</time>
      </trkpt>
      <trkpt lat="45.28741" lon="5.84998">
        <ele>959.55</ele>
        <time>2020-10-19T14:31:44.000Z</time>
      </trkpt>
      <trkpt lat="45.28766" lon="5.85034">
        <ele>956.45</ele>
        <time>2020-10-19T14:31:49.000Z</time>
      </trkpt>
      <trkpt lat="45.28801" lon="5.8504">
        <ele>952.94</ele>
        <time>2020-10-19T14:31:54.000Z</time>
      </trkpt>
      <trkpt lat="45.28804" lon="5.85027">
        <ele>952.4</ele>
        <time>2020-10-19T14:32:02.000Z</time>
      </trkpt>
      <trkpt lat="45.28799" lon="5.85038">
        <ele>945.4</ele>
        <time>2020-10-19T14:35:35.000Z</time>
      </trkpt>
      <trkpt lat="45.28808" lon="5.85044">
        <ele>940.09</ele>
        <time>2020-10-19T14:35:52.000Z</time>
      </trkpt>
      <trkpt lat="45.28821" lon="5.85037">
        <ele>942.38</ele>
        <time>2020-10-19T14:35:57.000Z</time>
      </trkpt>
      <trkpt lat="45.28838" lon="5.85007">
        <ele>936.33</ele>
        <time>2020-10-19T14:36:02.000Z</time>
      </trkpt>
      <trkpt lat="45.28847" lon="5.84974">
        <ele>939.09</ele>
        <time>2020-10-19T14:36:07.000Z</time>
      </trkpt>
      <trkpt lat="45.2885" lon="5.8499">
        <ele>938.06</ele>
        <time>2020-10-19T14:36:12.000Z</time>
      </trkpt>
      <trkpt lat="45.28846" lon="5.85023">
        <ele>936.2</ele>
        <time>2020-10-19T14:36:17.000Z</time>
      </trkpt>
      <trkpt lat="45.28839" lon="5.8507">
        <ele>936.55</ele>
        <time>2020-10-19T14:36:22.000Z</time>
      </trkpt>
      <trkpt lat="45.28797" lon="5.85091">
        <ele>934.61</ele>
        <time>2020-10-19T14:36:27.000Z</time>
      </trkpt>
      <trkpt lat="45.28761" lon="5.85066">
        <ele>932.51</ele>
        <time>2020-10-19T14:36:32.000Z</time>
      </trkpt>
      <trkpt lat="45.28711" lon="5.85024">
        <ele>924.73</ele>
        <time>2020-10-19T14:36:37.000Z</time>
      </trkpt>
      <trkpt lat="45.2867" lon="5.84974">
        <ele>921.52</ele>
        <time>2020-10-19T14:36:42.000Z</time>
      </trkpt>
      <trkpt lat="45.28623" lon="5.84915">
        <ele>911.55</ele>
        <time>2020-10-19T14:36:47.000Z</time>
      </trkpt>
      <trkpt lat="45.28561" lon="5.84893">
        <ele>906.02</ele>
        <time>2020-10-19T14:36:52.000Z</time>
      </trkpt>
      <trkpt lat="45.28505" lon="5.84863">
        <ele>900.64</ele>
        <time>2020-10-19T14:36:57.000Z</time>
      </trkpt>
      <trkpt lat="45.2848" lon="5.84818">
        <ele>901.1</ele>
        <time>2020-10-19T14:37:02.000Z</time>
      </trkpt>
      <trkpt lat="45.28459" lon="5.8483">
        <ele>899.31</ele>
        <time>2020-10-19T14:37:07.000Z</time>
      </trkpt>
      <trkpt lat="45.2844" lon="5.84841">
        <ele>895.41</ele>
        <time>2020-10-19T14:37:12.000Z</time>
      </trkpt>
      <trkpt lat="45.28002" lon="5.84751">
        <ele>885.86</ele>
        <time>2020-10-19T14:38:02.000Z</time>
      </trkpt>
      <trkpt lat="45.28024" lon="5.84724">
        <ele>859.1</ele>
        <time>2020-10-19T14:38:07.000Z</time>
      </trkpt>
      <trkpt lat="45.28014" lon="5.84715">
        <ele>851.75</ele>
        <time>2020-10-19T14:38:13.000Z</time>
      </trkpt>
      <trkpt lat="45.28006" lon="5.84709">
        <ele>845.58</ele>
        <time>2020-10-19T14:38:18.000Z</time>
      </trkpt>
      <trkpt lat="45.2799" lon="5.84703">
        <ele>842.63</ele>
        <time>2020-10-19T14:38:32.000Z</time>
      </trkpt>
      <trkpt lat="45.2796" lon="5.84677">
        <ele>837.48</ele>
        <time>2020-10-19T14:38:37.000Z</time>
      </trkpt>
      <trkpt lat="45.27931" lon="5.84633">
        <ele>836.74</ele>
        <time>2020-10-19T14:38:42.000Z</time>
      </trkpt>
      <trkpt lat="45.27903" lon="5.84576">
        <ele>828.66</ele>
        <time>2020-10-19T14:38:47.000Z</time>
      </trkpt>
      <trkpt lat="45.27899" lon="5.84498">
        <ele>823.05</ele>
        <time>2020-10-19T14:38:52.000Z</time>
      </trkpt>
      <trkpt lat="45.2789" lon="5.84419">
        <ele>821.8</ele>
        <time>2020-10-19T14:38:57.000Z</time>
      </trkpt>
      <trkpt lat="45.2784" lon="5.84361">
        <ele>820.88</ele>
        <time>2020-10-19T14:39:02.000Z</time>
      </trkpt>
      <trkpt lat="45.27819" lon="5.8427">
        <ele>814.55</ele>
        <time>2020-10-19T14:39:07.000Z</time>
      </trkpt>
      <trkpt lat="45.27784" lon="5.84188">
        <ele>808.39</ele>
        <time>2020-10-19T14:39:12.000Z</time>
      </trkpt>
      <trkpt lat="45.27725" lon="5.84146">
        <ele>802.93</ele>
        <time>2020-10-19T14:39:17.000Z</time>
      </trkpt>
      <trkpt lat="45.27683" lon="5.84067">
        <ele>797.86</ele>
        <time>2020-10-19T14:39:22.000Z</time>
      </trkpt>
      <trkpt lat="45.27649" lon="5.83978">
        <ele>790.8</ele>
        <time>2020-10-19T14:39:27.000Z</time>
      </trkpt>
      <trkpt lat="45.27584" lon="5.8389">
        <ele>785.55</ele>
        <time>2020-10-19T14:39:33.000Z</time>
      </trkpt>
      <trkpt lat="45.27531" lon="5.83826">
        <ele>778.09</ele>
        <time>2020-10-19T14:39:38.000Z</time>
      </trkpt>
      <trkpt lat="45.27509" lon="5.8378">
        <ele>773.31</ele>
        <time>2020-10-19T14:39:43.000Z</time>
      </trkpt>
      <trkpt lat="45.2751" lon="5.83813">
        <ele>769.15</ele>
        <time>2020-10-19T14:39:48.000Z</time>
      </trkpt>
      <trkpt lat="45.27524" lon="5.83874">
        <ele>762.65</ele>
        <time>2020-10-19T14:39:53.000Z</time>
      </trkpt>
      <trkpt lat="45.27546" lon="5.83951">
        <ele>759.85</ele>
        <time>2020-10-19T14:39:58.000Z</time>
      </trkpt>
      <trkpt lat="45.27562" lon="5.84043">
        <ele>747.91</ele>
        <time>2020-10-19T14:40:03.000Z</time>
      </trkpt>
      <trkpt lat="45.27575" lon="5.84142">
        <ele>740.14</ele>
        <time>2020-10-19T14:40:08.000Z</time>
      </trkpt>
      <trkpt lat="45.27592" lon="5.84216">
        <ele>738.85</ele>
        <time>2020-10-19T14:40:13.000Z</time>
      </trkpt>
      <trkpt lat="45.2758" lon="5.8421">
        <ele>736.97</ele>
        <time>2020-10-19T14:40:26.000Z</time>
      </trkpt>
      <trkpt lat="45.2755" lon="5.84163">
        <ele>724.56</ele>
        <time>2020-10-19T14:40:31.000Z</time>
      </trkpt>
      <trkpt lat="45.27517" lon="5.84112">
        <ele>718.16</ele>
        <time>2020-10-19T14:40:36.000Z</time>
      </trkpt>
      <trkpt lat="45.27498" lon="5.84033">
        <ele>709.82</ele>
        <time>2020-10-19T14:40:41.000Z</time>
      </trkpt>
      <trkpt lat="45.27467" lon="5.83965">
        <ele>703.84</ele>
        <time>2020-10-19T14:40:46.000Z</time>
      </trkpt>
      <trkpt lat="45.27405" lon="5.83936">
        <ele>697.97</ele>
        <time>2020-10-19T14:40:51.000Z</time>
      </trkpt>
      <trkpt lat="45.27397" lon="5.83861">
        <ele>692.84</ele>
        <time>2020-10-19T14:40:56.000Z</time>
      </trkpt>
      <trkpt lat="45.27413" lon="5.83787">
        <ele>691.56</ele>
        <time>2020-10-19T14:41:01.000Z</time>
      </trkpt>
      <trkpt lat="45.27434" lon="5.83707">
        <ele>685.46</ele>
        <time>2020-10-19T14:41:06.000Z</time>
      </trkpt>
      <trkpt lat="45.27452" lon="5.83618">
        <ele>682.14</ele>
        <time>2020-10-19T14:41:11.000Z</time>
      </trkpt>
      <trkpt lat="45.27431" lon="5.83554">
        <ele>677.75</ele>
        <time>2020-10-19T14:41:16.000Z</time>
      </trkpt>
      <trkpt lat="45.27392" lon="5.83579">
        <ele>673.93</ele>
        <time>2020-10-19T14:41:21.000Z</time>
      </trkpt>
      <trkpt lat="45.27421" lon="5.83661">
        <ele>671.12</ele>
        <time>2020-10-19T14:41:26.000Z</time>
      </trkpt>
      <trkpt lat="45.27392" lon="5.83735">
        <ele>667.01</ele>
        <time>2020-10-19T14:41:31.000Z</time>
      </trkpt>
      <trkpt lat="45.27355" lon="5.83819">
        <ele>663.6</ele>
        <time>2020-10-19T14:41:36.000Z</time>
      </trkpt>
      <trkpt lat="45.27322" lon="5.83905">
        <ele>660.29</ele>
        <time>2020-10-19T14:41:41.000Z</time>
      </trkpt>
      <trkpt lat="45.2731" lon="5.83999">
        <ele>657.18</ele>
        <time>2020-10-19T14:41:46.000Z</time>
      </trkpt>
      <trkpt lat="45.27303" lon="5.84089">
        <ele>650.72</ele>
        <time>2020-10-19T14:41:51.000Z</time>
      </trkpt>
      <trkpt lat="45.27284" lon="5.84177">
        <ele>642.84</ele>
        <time>2020-10-19T14:41:56.000Z</time>
      </trkpt>
      <trkpt lat="45.27307" lon="5.84274">
        <ele>635.05</ele>
        <time>2020-10-19T14:42:01.000Z</time>
      </trkpt>
      <trkpt lat="45.27346" lon="5.84365">
        <ele>627.63</ele>
        <time>2020-10-19T14:42:06.000Z</time>
      </trkpt>
      <trkpt lat="45.27403" lon="5.84434">
        <ele>622.52</ele>
        <time>2020-10-19T14:42:11.000Z</time>
      </trkpt>
      <trkpt lat="45.27465" lon="5.84505">
        <ele>619.15</ele>
        <time>2020-10-19T14:42:16.000Z</time>
      </trkpt>
      <trkpt lat="45.27522" lon="5.8457">
        <ele>611.69</ele>
        <time>2020-10-19T14:42:21.000Z</time>
      </trkpt>
      <trkpt lat="45.27586" lon="5.84634">
        <ele>598.12</ele>
        <time>2020-10-19T14:42:26.000Z</time>
      </trkpt>
      <trkpt lat="45.27637" lon="5.84697">
        <ele>591.31</ele>
        <time>2020-10-19T14:42:31.000Z</time>
      </trkpt>
      <trkpt lat="45.27645" lon="5.84722">
        <ele>585.32</ele>
        <time>2020-10-19T14:42:36.000Z</time>
      </trkpt>
      <trkpt lat="45.27603" lon="5.84684">
        <ele>578.13</ele>
        <time>2020-10-19T14:42:41.000Z</time>
      </trkpt>
      <trkpt lat="45.27556" lon="5.84654">
        <ele>571.66</ele>
        <time>2020-10-19T14:42:46.000Z</time>
      </trkpt>
      <trkpt lat="45.27489" lon="5.84632">
        <ele>563.36</ele>
        <time>2020-10-19T14:42:51.000Z</time>
      </trkpt>
      <trkpt lat="45.27429" lon="5.84581">
        <ele>553.8</ele>
        <time>2020-10-19T14:42:56.000Z</time>
      </trkpt>
      <trkpt lat="45.27375" lon="5.84516">
        <ele>547.1</ele>
        <time>2020-10-19T14:43:01.000Z</time>
      </trkpt>
      <trkpt lat="45.27311" lon="5.84455">
        <ele>541.69</ele>
        <time>2020-10-19T14:43:06.000Z</time>
      </trkpt>
      <trkpt lat="45.27248" lon="5.8438">
        <ele>536.36</ele>
        <time>2020-10-19T14:43:11.000Z</time>
      </trkpt>
      <trkpt lat="45.27194" lon="5.84291">
        <ele>532.01</ele>
        <time>2020-10-19T14:43:16.000Z</time>
      </trkpt>
      <trkpt lat="45.27154" lon="5.84185">
        <ele>523.41</ele>
        <time>2020-10-19T14:43:21.000Z</time>
      </trkpt>
      <trkpt lat="45.271" lon="5.84112">
        <ele>519.99</ele>
        <time>2020-10-19T14:43:26.000Z</time>
      </trkpt>
      <trkpt lat="45.27028" lon="5.84111">
        <ele>518.43</ele>
        <time>2020-10-19T14:43:31.000Z</time>
      </trkpt>
      <trkpt lat="45.26954" lon="5.84111">
        <ele>512.24</ele>
        <time>2020-10-19T14:43:36.000Z</time>
      </trkpt>
      <trkpt lat="45.26878" lon="5.84116">
        <ele>506.74</ele>
        <time>2020-10-19T14:43:41.000Z</time>
      </trkpt>
      <trkpt lat="45.26803" lon="5.84111">
        <ele>501.57</ele>
        <time>2020-10-19T14:43:46.000Z</time>
      </trkpt>
      <trkpt lat="45.26723" lon="5.84096">
        <ele>494.27</ele>
        <time>2020-10-19T14:43:51.000Z</time>
      </trkpt>
      <trkpt lat="45.26645" lon="5.84085">
        <ele>489.33</ele>
        <time>2020-10-19T14:43:56.000Z</time>
      </trkpt>
      <trkpt lat="45.26586" lon="5.84066">
        <ele>479.22</ele>
        <time>2020-10-19T14:44:01.000Z</time>
      </trkpt>
      <trkpt lat="45.26561" lon="5.84069">
        <ele>472.67</ele>
        <time>2020-10-19T14:44:06.000Z</time>
      </trkpt>
      <trkpt lat="45.26569" lon="5.84061">
        <ele>464.54</ele>
        <time>2020-10-19T14:44:25.000Z</time>
      </trkpt>
      <trkpt lat="45.26563" lon="5.8405">
        <ele>463.95</ele>
        <time>2020-10-19T14:45:44.000Z</time>
      </trkpt>
      <trkpt lat="45.26524" lon="5.84037">
        <ele>461.58</ele>
        <time>2020-10-19T14:45:49.000Z</time>
      </trkpt>
      <trkpt lat="45.26476" lon="5.84037">
        <ele>454.65</ele>
        <time>2020-10-19T14:45:54.000Z</time>
      </trkpt>
      <trkpt lat="45.26425" lon="5.84081">
        <ele>451.34</ele>
        <time>2020-10-19T14:45:59.000Z</time>
      </trkpt>
      <trkpt lat="45.2637" lon="5.84139">
        <ele>443.39</ele>
        <time>2020-10-19T14:46:04.000Z</time>
      </trkpt>
      <trkpt lat="45.26317" lon="5.84195">
        <ele>438.25</ele>
        <time>2020-10-19T14:46:09.000Z</time>
      </trkpt>
      <trkpt lat="45.26262" lon="5.84252">
        <ele>432.09</ele>
        <time>2020-10-19T14:46:14.000Z</time>
      </trkpt>
      <trkpt lat="45.26213" lon="5.84305">
        <ele>424.49</ele>
        <time>2020-10-19T14:46:19.000Z</time>
      </trkpt>
      <trkpt lat="45.26168" lon="5.84351">
        <ele>421.58</ele>
        <time>2020-10-19T14:46:24.000Z</time>
      </trkpt>
      <trkpt lat="45.26126" lon="5.84395">
        <ele>416.64</ele>
        <time>2020-10-19T14:46:29.000Z</time>
      </trkpt>
      <trkpt lat="45.26091" lon="5.84434">
        <ele>412.82</ele>
        <time>2020-10-19T14:46:34.000Z</time>
      </trkpt>
      <trkpt lat="45.26056" lon="5.84471">
        <ele>406.83</ele>
        <time>2020-10-19T14:46:39.000Z</time>
      </trkpt>
      <trkpt lat="45.26025" lon="5.84503">
        <ele>399.22</ele>
        <time>2020-10-19T14:46:44.000Z</time>
      </trkpt>
      <trkpt lat="45.2599" lon="5.84542">
        <ele>395.41</ele>
        <time>2020-10-19T14:46:49.000Z</time>
      </trkpt>
      <trkpt lat="45.2595" lon="5.8459">
        <ele>389.54</ele>
        <time>2020-10-19T14:46:54.000Z</time>
      </trkpt>
      <trkpt lat="45.25904" lon="5.84633">
        <ele>387.79</ele>
        <time>2020-10-19T14:46:59.000Z</time>
      </trkpt>
      <trkpt lat="45.25864" lon="5.84667">
        <ele>381.57</ele>
        <time>2020-10-19T14:47:04.000Z</time>
      </trkpt>
      <trkpt lat="45.25826" lon="5.84686">
        <ele>377.5</ele>
        <time>2020-10-19T14:47:09.000Z</time>
      </trkpt>
      <trkpt lat="45.25781" lon="5.84703">
        <ele>370.29</ele>
        <time>2020-10-19T14:47:14.000Z</time>
      </trkpt>
      <trkpt lat="45.2573" lon="5.84701">
        <ele>365.53</ele>
        <time>2020-10-19T14:47:19.000Z</time>
      </trkpt>
      <trkpt lat="45.25681" lon="5.84686">
        <ele>359.65</ele>
        <time>2020-10-19T14:47:24.000Z</time>
      </trkpt>
      <trkpt lat="45.25661" lon="5.84682">
        <ele>357</ele>
        <time>2020-10-19T14:47:29.000Z</time>
      </trkpt>
      <trkpt lat="45.25644" lon="5.84681">
        <ele>355.13</ele>
        <time>2020-10-19T14:47:34.000Z</time>
      </trkpt>
      <trkpt lat="45.25631" lon="5.8468">
        <ele>354.25</ele>
        <time>2020-10-19T14:47:39.000Z</time>
      </trkpt>
      <trkpt lat="45.25624" lon="5.8467">
        <ele>354.51</ele>
        <time>2020-10-19T14:49:17.000Z</time>
      </trkpt>
      <trkpt lat="45.25618" lon="5.84652">
        <ele>350.19</ele>
        <time>2020-10-19T14:49:22.000Z</time>
      </trkpt>
      <trkpt lat="45.25611" lon="5.84631">
        <ele>349.91</ele>
        <time>2020-10-19T14:49:27.000Z</time>
      </trkpt>
      <trkpt lat="45.25604" lon="5.8461">
        <ele>348.42</ele>
        <time>2020-10-19T14:49:32.000Z</time>
      </trkpt>
      <trkpt lat="45.25595" lon="5.84589">
        <ele>350.03</ele>
        <time>2020-10-19T14:49:37.000Z</time>
      </trkpt>
      <trkpt lat="45.25591" lon="5.84575">
        <ele>349.17</ele>
        <time>2020-10-19T14:49:49.000Z</time>
      </trkpt>
      <trkpt lat="45.25588" lon="5.84559">
        <ele>349.15</ele>
        <time>2020-10-19T14:49:59.000Z</time>
      </trkpt>
      <trkpt lat="45.25576" lon="5.84527">
        <ele>352.31</ele>
        <time>2020-10-19T14:50:04.000Z</time>
      </trkpt>
      <trkpt lat="45.25572" lon="5.84505">
        <ele>349.61</ele>
        <time>2020-10-19T14:50:09.000Z</time>
      </trkpt>
      <trkpt lat="45.25573" lon="5.84492">
        <ele>347.93</ele>
        <time>2020-10-19T14:50:14.000Z</time>
      </trkpt>
      <trkpt lat="45.25564" lon="5.84491">
        <ele>346.74</ele>
        <time>2020-10-19T14:50:28.000Z</time>
      </trkpt>
      <trkpt lat="45.25566" lon="5.84506">
        <ele>346.53</ele>
        <time>2020-10-19T15:00:22.000Z</time>
      </trkpt>
      <trkpt lat="45.25572" lon="5.84531">
        <ele>348.78</ele>
        <time>2020-10-19T15:00:27.000Z</time>
      </trkpt>
      <trkpt lat="45.25578" lon="5.84562">
        <ele>348.7</ele>
        <time>2020-10-19T15:00:32.000Z</time>
      </trkpt>
      <trkpt lat="45.25591" lon="5.8459">
        <ele>346.88</ele>
        <time>2020-10-19T15:00:37.000Z</time>
      </trkpt>
      <trkpt lat="45.25603" lon="5.84624">
        <ele>346.17</ele>
        <time>2020-10-19T15:00:42.000Z</time>
      </trkpt>
      <trkpt lat="45.25613" lon="5.84658">
        <ele>348.71</ele>
        <time>2020-10-19T15:00:47.000Z</time>
      </trkpt>
      <trkpt lat="45.25623" lon="5.84692">
        <ele>352.37</ele>
        <time>2020-10-19T15:00:52.000Z</time>
      </trkpt>
      <trkpt lat="45.25636" lon="5.84721">
        <ele>354.06</ele>
        <time>2020-10-19T15:00:57.000Z</time>
      </trkpt>
      <trkpt lat="45.25645" lon="5.84754">
        <ele>354.14</ele>
        <time>2020-10-19T15:01:02.000Z</time>
      </trkpt>
      <trkpt lat="45.25653" lon="5.84788">
        <ele>354.39</ele>
        <time>2020-10-19T15:01:07.000Z</time>
      </trkpt>
      <trkpt lat="45.25663" lon="5.84816">
        <ele>354.7</ele>
        <time>2020-10-19T15:01:12.000Z</time>
      </trkpt>
      <trkpt lat="45.25677" lon="5.84848">
        <ele>352.82</ele>
        <time>2020-10-19T15:01:17.000Z</time>
      </trkpt>
      <trkpt lat="45.25692" lon="5.84877">
        <ele>351.44</ele>
        <time>2020-10-19T15:01:22.000Z</time>
      </trkpt>
      <trkpt lat="45.25707" lon="5.84902">
        <ele>349.95</ele>
        <time>2020-10-19T15:01:27.000Z</time>
      </trkpt>
      <trkpt lat="45.25715" lon="5.84936">
        <ele>354.67</ele>
        <time>2020-10-19T15:01:32.000Z</time>
      </trkpt>
      <trkpt lat="45.25726" lon="5.84962">
        <ele>350.78</ele>
        <time>2020-10-19T15:01:37.000Z</time>
      </trkpt>
      <trkpt lat="45.25744" lon="5.84986">
        <ele>348.51</ele>
        <time>2020-10-19T15:01:42.000Z</time>
      </trkpt>
      <trkpt lat="45.25759" lon="5.85014">
        <ele>350.36</ele>
        <time>2020-10-19T15:01:47.000Z</time>
      </trkpt>
      <trkpt lat="45.25778" lon="5.85039">
        <ele>348.62</ele>
        <time>2020-10-19T15:01:52.000Z</time>
      </trkpt>
      <trkpt lat="45.25792" lon="5.85067">
        <ele>346.97</ele>
        <time>2020-10-19T15:01:57.000Z</time>
      </trkpt>
      <trkpt lat="45.25806" lon="5.85092">
        <ele>348.57</ele>
        <time>2020-10-19T15:02:02.000Z</time>
      </trkpt>
      <trkpt lat="45.25825" lon="5.85118">
        <ele>348.68</ele>
        <time>2020-10-19T15:02:07.000Z</time>
      </trkpt>
      <trkpt lat="45.25844" lon="5.85143">
        <ele>349</ele>
        <time>2020-10-19T15:02:12.000Z</time>
      </trkpt>
      <trkpt lat="45.25857" lon="5.85172">
        <ele>349.19</ele>
        <time>2020-10-19T15:02:17.000Z</time>
      </trkpt>
      <trkpt lat="45.25879" lon="5.85195">
        <ele>348.44</ele>
        <time>2020-10-19T15:02:22.000Z</time>
      </trkpt>
      <trkpt lat="45.25893" lon="5.85222">
        <ele>352.32</ele>
        <time>2020-10-19T15:02:27.000Z</time>
      </trkpt>
      <trkpt lat="45.25904" lon="5.85244">
        <ele>351.38</ele>
        <time>2020-10-19T15:02:32.000Z</time>
      </trkpt>
      <trkpt lat="45.25919" lon="5.85266">
        <ele>351.31</ele>
        <time>2020-10-19T15:02:37.000Z</time>
      </trkpt>
      <trkpt lat="45.25936" lon="5.85293">
        <ele>351.23</ele>
        <time>2020-10-19T15:02:42.000Z</time>
      </trkpt>
      <trkpt lat="45.25952" lon="5.85322">
        <ele>350.83</ele>
        <time>2020-10-19T15:02:47.000Z</time>
      </trkpt>
      <trkpt lat="45.25975" lon="5.85351">
        <ele>350.89</ele>
        <time>2020-10-19T15:02:52.000Z</time>
      </trkpt>
      <trkpt lat="45.25994" lon="5.85379">
        <ele>349.67</ele>
        <time>2020-10-19T15:02:57.000Z</time>
      </trkpt>
      <trkpt lat="45.26014" lon="5.85414">
        <ele>348.63</ele>
        <time>2020-10-19T15:03:02.000Z</time>
      </trkpt>
      <trkpt lat="45.26035" lon="5.8545">
        <ele>345.62</ele>
        <time>2020-10-19T15:03:07.000Z</time>
      </trkpt>
      <trkpt lat="45.26059" lon="5.85491">
        <ele>344.61</ele>
        <time>2020-10-19T15:03:12.000Z</time>
      </trkpt>
      <trkpt lat="45.26085" lon="5.85535">
        <ele>341.06</ele>
        <time>2020-10-19T15:03:17.000Z</time>
      </trkpt>
      <trkpt lat="45.26116" lon="5.85579">
        <ele>341.26</ele>
        <time>2020-10-19T15:03:22.000Z</time>
      </trkpt>
      <trkpt lat="45.26147" lon="5.85621">
        <ele>341.01</ele>
        <time>2020-10-19T15:03:27.000Z</time>
      </trkpt>
      <trkpt lat="45.26184" lon="5.85656">
        <ele>343.52</ele>
        <time>2020-10-19T15:03:32.000Z</time>
      </trkpt>
      <trkpt lat="45.2622" lon="5.85698">
        <ele>341.8</ele>
        <time>2020-10-19T15:03:37.000Z</time>
      </trkpt>
      <trkpt lat="45.26257" lon="5.85736">
        <ele>340.6</ele>
        <time>2020-10-19T15:03:42.000Z</time>
      </trkpt>
      <trkpt lat="45.2629" lon="5.85778">
        <ele>339.71</ele>
        <time>2020-10-19T15:03:47.000Z</time>
      </trkpt>
      <trkpt lat="45.26316" lon="5.85816">
        <ele>340.06</ele>
        <time>2020-10-19T15:03:52.000Z</time>
      </trkpt>
      <trkpt lat="45.26355" lon="5.85853">
        <ele>336.75</ele>
        <time>2020-10-19T15:03:57.000Z</time>
      </trkpt>
      <trkpt lat="45.26361" lon="5.85871">
        <ele>334.87</ele>
        <time>2020-10-19T15:04:02.000Z</time>
      </trkpt>
      <trkpt lat="45.26358" lon="5.85888">
        <ele>335.24</ele>
        <time>2020-10-19T15:05:02.000Z</time>
      </trkpt>
      <trkpt lat="45.26341" lon="5.85923">
        <ele>334.41</ele>
        <time>2020-10-19T15:05:07.000Z</time>
      </trkpt>
      <trkpt lat="45.26315" lon="5.85949">
        <ele>329.8</ele>
        <time>2020-10-19T15:05:12.000Z</time>
      </trkpt>
      <trkpt lat="45.26288" lon="5.85982">
        <ele>331.21</ele>
        <time>2020-10-19T15:05:17.000Z</time>
      </trkpt>
      <trkpt lat="45.26269" lon="5.86025">
        <ele>329.45</ele>
        <time>2020-10-19T15:05:22.000Z</time>
      </trkpt>
      <trkpt lat="45.26253" lon="5.86062">
        <ele>324.7</ele>
        <time>2020-10-19T15:05:27.000Z</time>
      </trkpt>
      <trkpt lat="45.26247" lon="5.86104">
        <ele>320.09</ele>
        <time>2020-10-19T15:05:32.000Z</time>
      </trkpt>
      <trkpt lat="45.26244" lon="5.86156">
        <ele>315.27</ele>
        <time>2020-10-19T15:05:37.000Z</time>
      </trkpt>
      <trkpt lat="45.26243" lon="5.86202">
        <ele>312.34</ele>
        <time>2020-10-19T15:05:42.000Z</time>
      </trkpt>
      <trkpt lat="45.2625" lon="5.86243">
        <ele>310.31</ele>
        <time>2020-10-19T15:05:47.000Z</time>
      </trkpt>
      <trkpt lat="45.26262" lon="5.86287">
        <ele>309.91</ele>
        <time>2020-10-19T15:05:52.000Z</time>
      </trkpt>
      <trkpt lat="45.26277" lon="5.86324">
        <ele>309.78</ele>
        <time>2020-10-19T15:05:57.000Z</time>
      </trkpt>
      <trkpt lat="45.26286" lon="5.86361">
        <ele>307.07</ele>
        <time>2020-10-19T15:06:02.000Z</time>
      </trkpt>
      <trkpt lat="45.26296" lon="5.86395">
        <ele>305.48</ele>
        <time>2020-10-19T15:06:07.000Z</time>
      </trkpt>
      <trkpt lat="45.26319" lon="5.86416">
        <ele>302.43</ele>
        <time>2020-10-19T15:06:12.000Z</time>
      </trkpt>
      <trkpt lat="45.26313" lon="5.86444">
        <ele>300.76</ele>
        <time>2020-10-19T15:06:17.000Z</time>
      </trkpt>
      <trkpt lat="45.26311" lon="5.86476">
        <ele>297.82</ele>
        <time>2020-10-19T15:06:22.000Z</time>
      </trkpt>
      <trkpt lat="45.26301" lon="5.86507">
        <ele>297.26</ele>
        <time>2020-10-19T15:06:27.000Z</time>
      </trkpt>
      <trkpt lat="45.26283" lon="5.86541">
        <ele>288.16</ele>
        <time>2020-10-19T15:06:32.000Z</time>
      </trkpt>
      <trkpt lat="45.26273" lon="5.86568">
        <ele>287.61</ele>
        <time>2020-10-19T15:06:37.000Z</time>
      </trkpt>
      <trkpt lat="45.2626" lon="5.86595">
        <ele>288.66</ele>
        <time>2020-10-19T15:06:42.000Z</time>
      </trkpt>
      <trkpt lat="45.26267" lon="5.86608">
        <ele>285.11</ele>
        <time>2020-10-19T15:06:47.000Z</time>
      </trkpt>
      <trkpt lat="45.26286" lon="5.86615">
        <ele>286.82</ele>
        <time>2020-10-19T15:06:52.000Z</time>
      </trkpt>
      <trkpt lat="45.26308" lon="5.86616">
        <ele>287.18</ele>
        <time>2020-10-19T15:06:57.000Z</time>
      </trkpt>
      <trkpt lat="45.26327" lon="5.86636">
        <ele>289.48</ele>
        <time>2020-10-19T15:07:02.000Z</time>
      </trkpt>
      <trkpt lat="45.26339" lon="5.86651">
        <ele>288.38</ele>
        <time>2020-10-19T15:07:07.000Z</time>
      </trkpt>
      <trkpt lat="45.26352" lon="5.86667">
        <ele>290.19</ele>
        <time>2020-10-19T15:07:12.000Z</time>
      </trkpt>
      <trkpt lat="45.26371" lon="5.8668">
        <ele>284.37</ele>
        <time>2020-10-19T15:07:17.000Z</time>
      </trkpt>
      <trkpt lat="45.26397" lon="5.86698">
        <ele>282.77</ele>
        <time>2020-10-19T15:07:22.000Z</time>
      </trkpt>
      <trkpt lat="45.26419" lon="5.86717">
        <ele>279.82</ele>
        <time>2020-10-19T15:07:27.000Z</time>
      </trkpt>
      <trkpt lat="45.26438" lon="5.86736">
        <ele>281.05</ele>
        <time>2020-10-19T15:07:32.000Z</time>
      </trkpt>
      <trkpt lat="45.2646" lon="5.86756">
        <ele>283.25</ele>
        <time>2020-10-19T15:07:37.000Z</time>
      </trkpt>
      <trkpt lat="45.26484" lon="5.86773">
        <ele>282.39</ele>
        <time>2020-10-19T15:07:42.000Z</time>
      </trkpt>
      <trkpt lat="45.2651" lon="5.8679">
        <ele>282.45</ele>
        <time>2020-10-19T15:07:47.000Z</time>
      </trkpt>
      <trkpt lat="45.26535" lon="5.86801">
        <ele>282.76</ele>
        <time>2020-10-19T15:07:52.000Z</time>
      </trkpt>
      <trkpt lat="45.26552" lon="5.86811">
        <ele>279.07</ele>
        <time>2020-10-19T15:07:57.000Z</time>
      </trkpt>
      <trkpt lat="45.26568" lon="5.8682">
        <ele>276.01</ele>
        <time>2020-10-19T15:08:02.000Z</time>
      </trkpt>
      <trkpt lat="45.26583" lon="5.86828">
        <ele>277.7</ele>
        <time>2020-10-19T15:08:07.000Z</time>
      </trkpt>
      <trkpt lat="45.26595" lon="5.86836">
        <ele>279.77</ele>
        <time>2020-10-19T15:08:12.000Z</time>
      </trkpt>
      <trkpt lat="45.26595" lon="5.86852">
        <ele>277.93</ele>
        <time>2020-10-19T15:08:18.000Z</time>
      </trkpt>
      <trkpt lat="45.26585" lon="5.86872">
        <ele>279.22</ele>
        <time>2020-10-19T15:08:23.000Z</time>
      </trkpt>
      <trkpt lat="45.26566" lon="5.86906">
        <ele>272.25</ele>
        <time>2020-10-19T15:08:28.000Z</time>
      </trkpt>
      <trkpt lat="45.26553" lon="5.8693">
        <ele>268.38</ele>
        <time>2020-10-19T15:08:33.000Z</time>
      </trkpt>
      <trkpt lat="45.26535" lon="5.86948">
        <ele>262.99</ele>
        <time>2020-10-19T15:08:38.000Z</time>
      </trkpt>
      <trkpt lat="45.26524" lon="5.86981">
        <ele>257.13</ele>
        <time>2020-10-19T15:08:43.000Z</time>
      </trkpt>
      <trkpt lat="45.26519" lon="5.87015">
        <ele>256.29</ele>
        <time>2020-10-19T15:08:48.000Z</time>
      </trkpt>
      <trkpt lat="45.26509" lon="5.87058">
        <ele>258.41</ele>
        <time>2020-10-19T15:08:53.000Z</time>
      </trkpt>
      <trkpt lat="45.26487" lon="5.87099">
        <ele>257.53</ele>
        <time>2020-10-19T15:08:58.000Z</time>
      </trkpt>
      <trkpt lat="45.2647" lon="5.87144">
        <ele>252.33</ele>
        <time>2020-10-19T15:09:03.000Z</time>
      </trkpt>
      <trkpt lat="45.26447" lon="5.87184">
        <ele>252.59</ele>
        <time>2020-10-19T15:09:08.000Z</time>
      </trkpt>
      <trkpt lat="45.26427" lon="5.87227">
        <ele>250.71</ele>
        <time>2020-10-19T15:09:13.000Z</time>
      </trkpt>
      <trkpt lat="45.264" lon="5.8727">
        <ele>250.84</ele>
        <time>2020-10-19T15:09:18.000Z</time>
      </trkpt>
      <trkpt lat="45.26375" lon="5.87316">
        <ele>247.47</ele>
        <time>2020-10-19T15:09:23.000Z</time>
      </trkpt>
      <trkpt lat="45.26354" lon="5.87363">
        <ele>241.43</ele>
        <time>2020-10-19T15:09:28.000Z</time>
      </trkpt>
      <trkpt lat="45.26332" lon="5.87403">
        <ele>241.31</ele>
        <time>2020-10-19T15:09:33.000Z</time>
      </trkpt>
      <trkpt lat="45.26318" lon="5.87434">
        <ele>239.14</ele>
        <time>2020-10-19T15:09:38.000Z</time>
      </trkpt>
      <trkpt lat="45.2631" lon="5.87472">
        <ele>236.52</ele>
        <time>2020-10-19T15:09:43.000Z</time>
      </trkpt>
      <trkpt lat="45.26322" lon="5.87517">
        <ele>235.29</ele>
        <time>2020-10-19T15:09:48.000Z</time>
      </trkpt>
      <trkpt lat="45.26334" lon="5.87563">
        <ele>235.3</ele>
        <time>2020-10-19T15:09:53.000Z</time>
      </trkpt>
      <trkpt lat="45.26347" lon="5.87608">
        <ele>236.91</ele>
        <time>2020-10-19T15:09:58.000Z</time>
      </trkpt>
      <trkpt lat="45.26361" lon="5.87645">
        <ele>236.28</ele>
        <time>2020-10-19T15:10:03.000Z</time>
      </trkpt>
      <trkpt lat="45.26378" lon="5.8768">
        <ele>237.8</ele>
        <time>2020-10-19T15:10:08.000Z</time>
      </trkpt>
      <trkpt lat="45.26391" lon="5.87709">
        <ele>235.19</ele>
        <time>2020-10-19T15:10:13.000Z</time>
      </trkpt>
      <trkpt lat="45.26406" lon="5.87736">
        <ele>230.81</ele>
        <time>2020-10-19T15:10:18.000Z</time>
      </trkpt>
      <trkpt lat="45.26418" lon="5.87767">
        <ele>232.41</ele>
        <time>2020-10-19T15:10:23.000Z</time>
      </trkpt>
      <trkpt lat="45.26424" lon="5.87792">
        <ele>235.81</ele>
        <time>2020-10-19T15:10:28.000Z</time>
      </trkpt>
      <trkpt lat="45.26433" lon="5.878">
        <ele>236.41</ele>
        <time>2020-10-19T15:10:33.000Z</time>
      </trkpt>
      <trkpt lat="45.26442" lon="5.87786">
        <ele>236.88</ele>
        <time>2020-10-19T15:10:38.000Z</time>
      </trkpt>
      <trkpt lat="45.26449" lon="5.87776">
        <ele>236.03</ele>
        <time>2020-10-19T15:10:43.000Z</time>
      </trkpt>
      <trkpt lat="45.2646" lon="5.87763">
        <ele>232.91</ele>
        <time>2020-10-19T15:10:48.000Z</time>
      </trkpt>
      <trkpt lat="45.26477" lon="5.87744">
        <ele>235.07</ele>
        <time>2020-10-19T15:10:53.000Z</time>
      </trkpt>
      <trkpt lat="45.26491" lon="5.87729">
        <ele>233.07</ele>
        <time>2020-10-19T15:10:58.000Z</time>
      </trkpt>
      <trkpt lat="45.26495" lon="5.87727">
        <ele>231.28</ele>
        <time>2020-10-19T15:12:08.000Z</time>
      </trkpt>
    </trkseg>
  </trk>
</gpx>